<?xml version="1.0" encoding="UTF-8" standalone="no" ?>
<gpx xmlns="http://www.topografix.com/GPX/1/1" xmlns:xsi="http://www.w3.org/2001/XMLSchema-instance" xsi:schemaLocation="http://www.topografix.com/GPX/1/1 http://www.topografix.com/GPX/1/1/gpx.xsd" version="1.1" creator="VisuGPX - https://www.visugpx.com">
  <metadata>
    <name>Lyon-Dijon</name>
    <desc><![CDATA[Lyon-Dijon en vélo type Gravel parcours optimisé sur les voies vertes]]></desc>
  </metadata>
  <trk>
    <name><![CDATA[Lyon-Velars]]></name>
    <trkseg>
      <trkpt lat="45.74688" lon="4.83366">
        <ele>174.31118774414</ele>
        <time>2017-08-09T11:45:05Z</time>
      </trkpt>
      <trkpt lat="45.74704" lon="4.83317">
        <ele>174.66518774414</ele>
        <time>2017-08-09T11:45:14Z</time>
      </trkpt>
      <trkpt lat="45.74768" lon="4.83369">
        <ele>174.80618774414</ele>
        <time>2017-08-09T11:45:27Z</time>
      </trkpt>
      <trkpt lat="45.74766" lon="4.83374">
        <ele>174.82018774414</ele>
        <time>2017-08-09T11:45:28Z</time>
      </trkpt>
      <trkpt lat="45.7477" lon="4.83384">
        <ele>174.81918774414</ele>
        <time>2017-08-09T11:45:30Z</time>
      </trkpt>
      <trkpt lat="45.74774" lon="4.83388">
        <ele>174.81718774414</ele>
        <time>2017-08-09T11:45:31Z</time>
      </trkpt>
      <trkpt lat="45.74781" lon="4.83388">
        <ele>174.81918774414</ele>
        <time>2017-08-09T11:45:33Z</time>
      </trkpt>
      <trkpt lat="45.74795" lon="4.83398">
        <ele>174.76618774414</ele>
        <time>2017-08-09T11:45:37Z</time>
      </trkpt>
      <trkpt lat="45.74801" lon="4.8339">
        <ele>174.75318774414</ele>
        <time>2017-08-09T11:45:38Z</time>
      </trkpt>
      <trkpt lat="45.74804" lon="4.83382">
        <ele>174.72818774414</ele>
        <time>2017-08-09T11:45:40Z</time>
      </trkpt>
      <trkpt lat="45.74807" lon="4.83375">
        <ele>174.72818774414</ele>
        <time>2017-08-09T11:45:41Z</time>
      </trkpt>
      <trkpt lat="45.74809" lon="4.83368">
        <ele>174.68118774414</ele>
        <time>2017-08-09T11:45:42Z</time>
      </trkpt>
      <trkpt lat="45.74811" lon="4.83363">
        <ele>174.61318774414</ele>
        <time>2017-08-09T11:45:43Z</time>
      </trkpt>
      <trkpt lat="45.7483" lon="4.83378">
        <ele>174.42118774414</ele>
        <time>2017-08-09T11:45:48Z</time>
      </trkpt>
      <trkpt lat="45.74932" lon="4.83461">
        <ele>171.31518774414</ele>
        <time>2017-08-09T11:46:11Z</time>
      </trkpt>
      <trkpt lat="45.74955" lon="4.83484">
        <ele>170.38918774414</ele>
        <time>2017-08-09T11:46:16Z</time>
      </trkpt>
      <trkpt lat="45.74958" lon="4.8349">
        <ele>170.34318774414</ele>
        <time>2017-08-09T11:46:17Z</time>
      </trkpt>
      <trkpt lat="45.74991" lon="4.83522">
        <ele>169.79718774414</ele>
        <time>2017-08-09T11:46:25Z</time>
      </trkpt>
      <trkpt lat="45.75031" lon="4.83555">
        <ele>169.41018774414</ele>
        <time>2017-08-09T11:46:35Z</time>
      </trkpt>
      <trkpt lat="45.75035" lon="4.83559">
        <ele>169.20018774414</ele>
        <time>2017-08-09T11:46:36Z</time>
      </trkpt>
      <trkpt lat="45.75098" lon="4.83608">
        <ele>168.85918774414</ele>
        <time>2017-08-09T11:46:52Z</time>
      </trkpt>
      <trkpt lat="45.75122" lon="4.83625">
        <ele>168.93118774414</ele>
        <time>2017-08-09T11:46:59Z</time>
      </trkpt>
      <trkpt lat="45.75158" lon="4.83652">
        <ele>168.96418774414</ele>
        <time>2017-08-09T11:47:08Z</time>
      </trkpt>
      <trkpt lat="45.7519" lon="4.83679">
        <ele>168.98418774414</ele>
        <time>2017-08-09T11:47:17Z</time>
      </trkpt>
      <trkpt lat="45.75196" lon="4.83685">
        <ele>169.03318774414</ele>
        <time>2017-08-09T11:47:19Z</time>
      </trkpt>
      <trkpt lat="45.75199" lon="4.83682">
        <ele>168.92218774414</ele>
        <time>2017-08-09T11:47:20Z</time>
      </trkpt>
      <trkpt lat="45.75207" lon="4.83675">
        <ele>168.96318774414</ele>
        <time>2017-08-09T11:47:23Z</time>
      </trkpt>
      <trkpt lat="45.75306" lon="4.83424">
        <ele>169.48118774414</ele>
        <time>2017-08-09T11:48:25Z</time>
      </trkpt>
      <trkpt lat="45.75308" lon="4.83414">
        <ele>169.57218774414</ele>
        <time>2017-08-09T11:48:27Z</time>
      </trkpt>
      <trkpt lat="45.75311" lon="4.83411">
        <ele>169.68718774414</ele>
        <time>2017-08-09T11:48:28Z</time>
      </trkpt>
      <trkpt lat="45.75321" lon="4.83399">
        <ele>170.04018774414</ele>
        <time>2017-08-09T11:48:32Z</time>
      </trkpt>
      <trkpt lat="45.75327" lon="4.83392">
        <ele>170.26618774414</ele>
        <time>2017-08-09T11:48:34Z</time>
      </trkpt>
      <trkpt lat="45.75331" lon="4.83382">
        <ele>170.39418774414</ele>
        <time>2017-08-09T11:48:36Z</time>
      </trkpt>
      <trkpt lat="45.75331" lon="4.83377">
        <ele>170.49018774414</ele>
        <time>2017-08-09T11:48:37Z</time>
      </trkpt>
      <trkpt lat="45.75333" lon="4.83364">
        <ele>170.79318774414</ele>
        <time>2017-08-09T11:48:40Z</time>
      </trkpt>
      <trkpt lat="45.75364" lon="4.83281">
        <ele>173.04918774414</ele>
        <time>2017-08-09T11:49:01Z</time>
      </trkpt>
      <trkpt lat="45.75391" lon="4.8321">
        <ele>175.47118774414</ele>
        <time>2017-08-09T11:49:22Z</time>
      </trkpt>
      <trkpt lat="45.75434" lon="4.8309">
        <ele>178.69318774414</ele>
        <time>2017-08-09T11:49:52Z</time>
      </trkpt>
      <trkpt lat="45.75463" lon="4.83016">
        <ele>179.28918774414</ele>
        <time>2017-08-09T11:50:05Z</time>
      </trkpt>
      <trkpt lat="45.75477" lon="4.82977">
        <ele>179.31518774414</ele>
        <time>2017-08-09T11:50:11Z</time>
      </trkpt>
      <trkpt lat="45.75513" lon="4.82888">
        <ele>179.22218774414</ele>
        <time>2017-08-09T11:50:24Z</time>
      </trkpt>
      <trkpt lat="45.75541" lon="4.82817">
        <ele>178.72218774414</ele>
        <time>2017-08-09T11:50:34Z</time>
      </trkpt>
      <trkpt lat="45.75543" lon="4.82812">
        <ele>178.60018774414</ele>
        <time>2017-08-09T11:50:34Z</time>
      </trkpt>
      <trkpt lat="45.75554" lon="4.82782">
        <ele>178.45418774414</ele>
        <time>2017-08-09T11:50:38Z</time>
      </trkpt>
      <trkpt lat="45.75556" lon="4.82779">
        <ele>178.42718774414</ele>
        <time>2017-08-09T11:50:39Z</time>
      </trkpt>
      <trkpt lat="45.75559" lon="4.82771">
        <ele>178.34118774414</ele>
        <time>2017-08-09T11:50:40Z</time>
      </trkpt>
      <trkpt lat="45.75569" lon="4.82767">
        <ele>178.20618774414</ele>
        <time>2017-08-09T11:50:42Z</time>
      </trkpt>
      <trkpt lat="45.75575" lon="4.82752">
        <ele>178.10618774414</ele>
        <time>2017-08-09T11:50:43Z</time>
      </trkpt>
      <trkpt lat="45.75576" lon="4.82748">
        <ele>178.12518774414</ele>
        <time>2017-08-09T11:50:44Z</time>
      </trkpt>
      <trkpt lat="45.75584" lon="4.82754">
        <ele>178.07818774414</ele>
        <time>2017-08-09T11:50:46Z</time>
      </trkpt>
      <trkpt lat="45.75585" lon="4.82755">
        <ele>178.05918774414</ele>
        <time>2017-08-09T11:50:46Z</time>
      </trkpt>
      <trkpt lat="45.75641" lon="4.82799">
        <ele>177.76018774414</ele>
        <time>2017-08-09T11:50:57Z</time>
      </trkpt>
      <trkpt lat="45.75672" lon="4.82824">
        <ele>177.72318774414</ele>
        <time>2017-08-09T11:51:03Z</time>
      </trkpt>
      <trkpt lat="45.75747" lon="4.82882">
        <ele>177.61818774414</ele>
        <time>2017-08-09T11:51:18Z</time>
      </trkpt>
      <trkpt lat="45.75754" lon="4.8289">
        <ele>177.59618774414</ele>
        <time>2017-08-09T11:51:19Z</time>
      </trkpt>
      <trkpt lat="45.75804" lon="4.82928">
        <ele>177.54518774414</ele>
        <time>2017-08-09T11:51:29Z</time>
      </trkpt>
      <trkpt lat="45.75899" lon="4.82996">
        <ele>175.02618774414</ele>
        <time>2017-08-09T11:51:44Z</time>
      </trkpt>
      <trkpt lat="45.75901" lon="4.82997">
        <ele>174.92618774414</ele>
        <time>2017-08-09T11:51:45Z</time>
      </trkpt>
      <trkpt lat="45.75904" lon="4.82997">
        <ele>174.77618774414</ele>
        <time>2017-08-09T11:51:45Z</time>
      </trkpt>
      <trkpt lat="45.75914" lon="4.82967">
        <ele>173.89418774414</ele>
        <time>2017-08-09T11:51:48Z</time>
      </trkpt>
      <trkpt lat="45.75922" lon="4.8296">
        <ele>173.59418774414</ele>
        <time>2017-08-09T11:51:50Z</time>
      </trkpt>
      <trkpt lat="45.75927" lon="4.82939">
        <ele>172.92718774414</ele>
        <time>2017-08-09T11:51:52Z</time>
      </trkpt>
      <trkpt lat="45.75938" lon="4.829">
        <ele>171.80018774414</ele>
        <time>2017-08-09T11:51:56Z</time>
      </trkpt>
      <trkpt lat="45.75968" lon="4.82802">
        <ele>169.29418774414</ele>
        <time>2017-08-09T11:52:06Z</time>
      </trkpt>
      <trkpt lat="45.75977" lon="4.82804">
        <ele>169.02518774414</ele>
        <time>2017-08-09T11:52:07Z</time>
      </trkpt>
      <trkpt lat="45.75993" lon="4.82808">
        <ele>168.58718774414</ele>
        <time>2017-08-09T11:52:09Z</time>
      </trkpt>
      <trkpt lat="45.76049" lon="4.8284">
        <ele>167.00318774414</ele>
        <time>2017-08-09T11:52:18Z</time>
      </trkpt>
      <trkpt lat="45.76053" lon="4.82842">
        <ele>166.93818774414</ele>
        <time>2017-08-09T11:52:18Z</time>
      </trkpt>
      <trkpt lat="45.76058" lon="4.82844">
        <ele>166.87918774414</ele>
        <time>2017-08-09T11:52:19Z</time>
      </trkpt>
      <trkpt lat="45.76099" lon="4.82857">
        <ele>166.46318774414</ele>
        <time>2017-08-09T11:52:26Z</time>
      </trkpt>
      <trkpt lat="45.76159" lon="4.8288">
        <ele>166.53318774414</ele>
        <time>2017-08-09T11:52:37Z</time>
      </trkpt>
      <trkpt lat="45.76173" lon="4.82885">
        <ele>166.60818774414</ele>
        <time>2017-08-09T11:52:40Z</time>
      </trkpt>
      <trkpt lat="45.76179" lon="4.82886">
        <ele>166.54518774414</ele>
        <time>2017-08-09T11:52:41Z</time>
      </trkpt>
      <trkpt lat="45.7624" lon="4.82921">
        <ele>166.69418774414</ele>
        <time>2017-08-09T11:52:53Z</time>
      </trkpt>
      <trkpt lat="45.76307" lon="4.82942">
        <ele>166.60718774414</ele>
        <time>2017-08-09T11:53:05Z</time>
      </trkpt>
      <trkpt lat="45.76323" lon="4.82944">
        <ele>166.58918774414</ele>
        <time>2017-08-09T11:53:08Z</time>
      </trkpt>
      <trkpt lat="45.76334" lon="4.82944">
        <ele>166.64918774414</ele>
        <time>2017-08-09T11:53:10Z</time>
      </trkpt>
      <trkpt lat="45.76439" lon="4.82942">
        <ele>167.56318774414</ele>
        <time>2017-08-09T11:53:33Z</time>
      </trkpt>
      <trkpt lat="45.76457" lon="4.82936">
        <ele>167.78418774414</ele>
        <time>2017-08-09T11:53:37Z</time>
      </trkpt>
      <trkpt lat="45.76468" lon="4.82924">
        <ele>168.01218774414</ele>
        <time>2017-08-09T11:53:40Z</time>
      </trkpt>
      <trkpt lat="45.7648" lon="4.82917">
        <ele>168.49718774414</ele>
        <time>2017-08-09T11:53:44Z</time>
      </trkpt>
      <trkpt lat="45.76537" lon="4.82913">
        <ele>169.72618774414</ele>
        <time>2017-08-09T11:53:59Z</time>
      </trkpt>
      <trkpt lat="45.76548" lon="4.82912">
        <ele>170.21518774414</ele>
        <time>2017-08-09T11:54:03Z</time>
      </trkpt>
      <trkpt lat="45.76614" lon="4.82889">
        <ele>171.68318774414</ele>
        <time>2017-08-09T11:54:21Z</time>
      </trkpt>
      <trkpt lat="45.76624" lon="4.82885">
        <ele>172.06518774414</ele>
        <time>2017-08-09T11:54:25Z</time>
      </trkpt>
      <trkpt lat="45.76629" lon="4.8288">
        <ele>172.12018774414</ele>
        <time>2017-08-09T11:54:26Z</time>
      </trkpt>
      <trkpt lat="45.76634" lon="4.82876">
        <ele>172.13918774414</ele>
        <time>2017-08-09T11:54:27Z</time>
      </trkpt>
      <trkpt lat="45.76637" lon="4.82872">
        <ele>172.16318774414</ele>
        <time>2017-08-09T11:54:28Z</time>
      </trkpt>
      <trkpt lat="45.76642" lon="4.82864">
        <ele>172.24918774414</ele>
        <time>2017-08-09T11:54:30Z</time>
      </trkpt>
      <trkpt lat="45.76648" lon="4.82858">
        <ele>172.46518774414</ele>
        <time>2017-08-09T11:54:32Z</time>
      </trkpt>
      <trkpt lat="45.76712" lon="4.82763">
        <ele>173.64718774414</ele>
        <time>2017-08-09T11:54:54Z</time>
      </trkpt>
      <trkpt lat="45.76714" lon="4.82759">
        <ele>173.75418774414</ele>
        <time>2017-08-09T11:54:55Z</time>
      </trkpt>
      <trkpt lat="45.76719" lon="4.82747">
        <ele>173.76718774414</ele>
        <time>2017-08-09T11:54:57Z</time>
      </trkpt>
      <trkpt lat="45.76732" lon="4.82709">
        <ele>174.23318774414</ele>
        <time>2017-08-09T11:55:04Z</time>
      </trkpt>
      <trkpt lat="45.76748" lon="4.82638">
        <ele>174.85918774414</ele>
        <time>2017-08-09T11:55:16Z</time>
      </trkpt>
      <trkpt lat="45.7675" lon="4.8263">
        <ele>174.80518774414</ele>
        <time>2017-08-09T11:55:17Z</time>
      </trkpt>
      <trkpt lat="45.7675" lon="4.82618">
        <ele>175.25718774414</ele>
        <time>2017-08-09T11:55:21Z</time>
      </trkpt>
      <trkpt lat="45.76745" lon="4.825">
        <ele>178.19018774414</ele>
        <time>2017-08-09T11:55:48Z</time>
      </trkpt>
      <trkpt lat="45.76741" lon="4.82381">
        <ele>182.70318774414</ele>
        <time>2017-08-09T11:56:21Z</time>
      </trkpt>
      <trkpt lat="45.7674" lon="4.82369">
        <ele>183.22318774414</ele>
        <time>2017-08-09T11:56:25Z</time>
      </trkpt>
      <trkpt lat="45.76742" lon="4.82365">
        <ele>183.46818774414</ele>
        <time>2017-08-09T11:56:26Z</time>
      </trkpt>
      <trkpt lat="45.76741" lon="4.82323">
        <ele>184.89418774414</ele>
        <time>2017-08-09T11:56:38Z</time>
      </trkpt>
      <trkpt lat="45.76739" lon="4.82319">
        <ele>185.07418774414</ele>
        <time>2017-08-09T11:56:39Z</time>
      </trkpt>
      <trkpt lat="45.76738" lon="4.82312">
        <ele>185.48818774414</ele>
        <time>2017-08-09T11:56:42Z</time>
      </trkpt>
      <trkpt lat="45.76738" lon="4.82284">
        <ele>186.27818774414</ele>
        <time>2017-08-09T11:56:48Z</time>
      </trkpt>
      <trkpt lat="45.76733" lon="4.82244">
        <ele>186.62118774414</ele>
        <time>2017-08-09T11:56:55Z</time>
      </trkpt>
      <trkpt lat="45.76689" lon="4.82082">
        <ele>186.46818774414</ele>
        <time>2017-08-09T11:57:17Z</time>
      </trkpt>
      <trkpt lat="45.76687" lon="4.82075">
        <ele>186.07218774414</ele>
        <time>2017-08-09T11:57:18Z</time>
      </trkpt>
      <trkpt lat="45.76683" lon="4.82061">
        <ele>185.54018774414</ele>
        <time>2017-08-09T11:57:19Z</time>
      </trkpt>
      <trkpt lat="45.76681" lon="4.82054">
        <ele>185.24618774414</ele>
        <time>2017-08-09T11:57:20Z</time>
      </trkpt>
      <trkpt lat="45.76682" lon="4.82047">
        <ele>185.21018774414</ele>
        <time>2017-08-09T11:57:21Z</time>
      </trkpt>
      <trkpt lat="45.76659" lon="4.81966">
        <ele>183.16218774414</ele>
        <time>2017-08-09T11:57:30Z</time>
      </trkpt>
      <trkpt lat="45.76652" lon="4.81925">
        <ele>182.62018774414</ele>
        <time>2017-08-09T11:57:34Z</time>
      </trkpt>
      <trkpt lat="45.76651" lon="4.81918">
        <ele>182.34418774414</ele>
        <time>2017-08-09T11:57:35Z</time>
      </trkpt>
      <trkpt lat="45.7665" lon="4.81905">
        <ele>182.12718774414</ele>
        <time>2017-08-09T11:57:36Z</time>
      </trkpt>
      <trkpt lat="45.76647" lon="4.81861">
        <ele>181.68118774414</ele>
        <time>2017-08-09T11:57:41Z</time>
      </trkpt>
      <trkpt lat="45.7665" lon="4.81808">
        <ele>182.11718774414</ele>
        <time>2017-08-09T11:57:50Z</time>
      </trkpt>
      <trkpt lat="45.76653" lon="4.8178">
        <ele>182.47218774414</ele>
        <time>2017-08-09T11:57:55Z</time>
      </trkpt>
      <trkpt lat="45.76676" lon="4.81653">
        <ele>183.45418774414</ele>
        <time>2017-08-09T11:58:16Z</time>
      </trkpt>
      <trkpt lat="45.76685" lon="4.81607">
        <ele>183.07418774414</ele>
        <time>2017-08-09T11:58:21Z</time>
      </trkpt>
      <trkpt lat="45.76687" lon="4.81596">
        <ele>183.41918774414</ele>
        <time>2017-08-09T11:58:24Z</time>
      </trkpt>
      <trkpt lat="45.76691" lon="4.81583">
        <ele>182.95418774414</ele>
        <time>2017-08-09T11:58:25Z</time>
      </trkpt>
      <trkpt lat="45.76709" lon="4.81532">
        <ele>182.20218774414</ele>
        <time>2017-08-09T11:58:32Z</time>
      </trkpt>
      <trkpt lat="45.76713" lon="4.81528">
        <ele>182.02918774414</ele>
        <time>2017-08-09T11:58:32Z</time>
      </trkpt>
      <trkpt lat="45.76725" lon="4.81485">
        <ele>180.96718774414</ele>
        <time>2017-08-09T11:58:37Z</time>
      </trkpt>
      <trkpt lat="45.76731" lon="4.8147">
        <ele>180.11918774414</ele>
        <time>2017-08-09T11:58:38Z</time>
      </trkpt>
      <trkpt lat="45.76733" lon="4.81462">
        <ele>180.08218774414</ele>
        <time>2017-08-09T11:58:39Z</time>
      </trkpt>
      <trkpt lat="45.76763" lon="4.81381">
        <ele>176.02818774414</ele>
        <time>2017-08-09T11:58:48Z</time>
      </trkpt>
      <trkpt lat="45.76776" lon="4.81357">
        <ele>174.78218774414</ele>
        <time>2017-08-09T11:58:50Z</time>
      </trkpt>
      <trkpt lat="45.768" lon="4.81323">
        <ele>172.61918774414</ele>
        <time>2017-08-09T11:58:55Z</time>
      </trkpt>
      <trkpt lat="45.76814" lon="4.81311">
        <ele>171.50918774414</ele>
        <time>2017-08-09T11:58:57Z</time>
      </trkpt>
      <trkpt lat="45.76825" lon="4.81301">
        <ele>170.75118774414</ele>
        <time>2017-08-09T11:58:59Z</time>
      </trkpt>
      <trkpt lat="45.76854" lon="4.81283">
        <ele>169.40818774414</ele>
        <time>2017-08-09T11:59:03Z</time>
      </trkpt>
      <trkpt lat="45.76891" lon="4.81276">
        <ele>168.07918774414</ele>
        <time>2017-08-09T11:59:08Z</time>
      </trkpt>
      <trkpt lat="45.76903" lon="4.81278">
        <ele>167.78418774414</ele>
        <time>2017-08-09T11:59:10Z</time>
      </trkpt>
      <trkpt lat="45.76909" lon="4.81279">
        <ele>167.64118774414</ele>
        <time>2017-08-09T11:59:11Z</time>
      </trkpt>
      <trkpt lat="45.76969" lon="4.81269">
        <ele>166.58118774414</ele>
        <time>2017-08-09T11:59:20Z</time>
      </trkpt>
      <trkpt lat="45.76972" lon="4.8127">
        <ele>166.61618774414</ele>
        <time>2017-08-09T11:59:21Z</time>
      </trkpt>
      <trkpt lat="45.76975" lon="4.81272">
        <ele>166.57818774414</ele>
        <time>2017-08-09T11:59:21Z</time>
      </trkpt>
      <trkpt lat="45.76989" lon="4.81269">
        <ele>166.60718774414</ele>
        <time>2017-08-09T11:59:24Z</time>
      </trkpt>
      <trkpt lat="45.76994" lon="4.81262">
        <ele>166.63218774414</ele>
        <time>2017-08-09T11:59:26Z</time>
      </trkpt>
      <trkpt lat="45.76998" lon="4.81258">
        <ele>166.59218774414</ele>
        <time>2017-08-09T11:59:27Z</time>
      </trkpt>
      <trkpt lat="45.77014" lon="4.81249">
        <ele>166.66018774414</ele>
        <time>2017-08-09T11:59:30Z</time>
      </trkpt>
      <trkpt lat="45.77028" lon="4.81227">
        <ele>166.73918774414</ele>
        <time>2017-08-09T11:59:34Z</time>
      </trkpt>
      <trkpt lat="45.77031" lon="4.81225">
        <ele>166.85618774414</ele>
        <time>2017-08-09T11:59:35Z</time>
      </trkpt>
      <trkpt lat="45.77186" lon="4.81146">
        <ele>171.22818774414</ele>
        <time>2017-08-09T12:00:22Z</time>
      </trkpt>
      <trkpt lat="45.77194" lon="4.81141">
        <ele>171.67418774414</ele>
        <time>2017-08-09T12:00:25Z</time>
      </trkpt>
      <trkpt lat="45.77235" lon="4.81095">
        <ele>173.07718774414</ele>
        <time>2017-08-09T12:00:40Z</time>
      </trkpt>
      <trkpt lat="45.77316" lon="4.80999">
        <ele>174.27018774414</ele>
        <time>2017-08-09T12:01:04Z</time>
      </trkpt>
      <trkpt lat="45.77327" lon="4.80991">
        <ele>174.19218774414</ele>
        <time>2017-08-09T12:01:05Z</time>
      </trkpt>
      <trkpt lat="45.77336" lon="4.80983">
        <ele>174.11118774414</ele>
        <time>2017-08-09T12:01:07Z</time>
      </trkpt>
      <trkpt lat="45.77339" lon="4.80981">
        <ele>174.09218774414</ele>
        <time>2017-08-09T12:01:08Z</time>
      </trkpt>
      <trkpt lat="45.77347" lon="4.80972">
        <ele>174.07618774414</ele>
        <time>2017-08-09T12:01:10Z</time>
      </trkpt>
      <trkpt lat="45.77387" lon="4.80932">
        <ele>173.28918774414</ele>
        <time>2017-08-09T12:01:17Z</time>
      </trkpt>
      <trkpt lat="45.774" lon="4.80931">
        <ele>172.98218774414</ele>
        <time>2017-08-09T12:01:19Z</time>
      </trkpt>
      <trkpt lat="45.77415" lon="4.80917">
        <ele>172.63818774414</ele>
        <time>2017-08-09T12:01:21Z</time>
      </trkpt>
      <trkpt lat="45.77472" lon="4.80871">
        <ele>170.94618774414</ele>
        <time>2017-08-09T12:01:31Z</time>
      </trkpt>
      <trkpt lat="45.77484" lon="4.80861">
        <ele>170.58518774414</ele>
        <time>2017-08-09T12:01:33Z</time>
      </trkpt>
      <trkpt lat="45.77492" lon="4.80864">
        <ele>170.32318774414</ele>
        <time>2017-08-09T12:01:34Z</time>
      </trkpt>
      <trkpt lat="45.775" lon="4.80865">
        <ele>170.08218774414</ele>
        <time>2017-08-09T12:01:35Z</time>
      </trkpt>
      <trkpt lat="45.77503" lon="4.80864">
        <ele>169.99618774414</ele>
        <time>2017-08-09T12:01:35Z</time>
      </trkpt>
      <trkpt lat="45.77506" lon="4.80858">
        <ele>169.87018774414</ele>
        <time>2017-08-09T12:01:36Z</time>
      </trkpt>
      <trkpt lat="45.77514" lon="4.80849">
        <ele>169.68118774414</ele>
        <time>2017-08-09T12:01:38Z</time>
      </trkpt>
      <trkpt lat="45.77542" lon="4.80835">
        <ele>169.04118774414</ele>
        <time>2017-08-09T12:01:42Z</time>
      </trkpt>
      <trkpt lat="45.77664" lon="4.80787">
        <ele>166.92418774414</ele>
        <time>2017-08-09T12:02:01Z</time>
      </trkpt>
      <trkpt lat="45.77702" lon="4.80779">
        <ele>166.51918774414</ele>
        <time>2017-08-09T12:02:07Z</time>
      </trkpt>
      <trkpt lat="45.77715" lon="4.8078">
        <ele>166.32918774414</ele>
        <time>2017-08-09T12:02:09Z</time>
      </trkpt>
      <trkpt lat="45.77726" lon="4.80783">
        <ele>166.27818774414</ele>
        <time>2017-08-09T12:02:11Z</time>
      </trkpt>
      <trkpt lat="45.7773" lon="4.80784">
        <ele>166.24718774414</ele>
        <time>2017-08-09T12:02:12Z</time>
      </trkpt>
      <trkpt lat="45.77819" lon="4.808">
        <ele>166.11218774414</ele>
        <time>2017-08-09T12:02:27Z</time>
      </trkpt>
      <trkpt lat="45.77837" lon="4.80804">
        <ele>166.22418774414</ele>
        <time>2017-08-09T12:02:31Z</time>
      </trkpt>
      <trkpt lat="45.77852" lon="4.80801">
        <ele>166.33318774414</ele>
        <time>2017-08-09T12:02:34Z</time>
      </trkpt>
      <trkpt lat="45.77855" lon="4.808">
        <ele>166.34918774414</ele>
        <time>2017-08-09T12:02:35Z</time>
      </trkpt>
      <trkpt lat="45.77911" lon="4.80831">
        <ele>167.24818774414</ele>
        <time>2017-08-09T12:02:49Z</time>
      </trkpt>
      <trkpt lat="45.77925" lon="4.80839">
        <ele>167.30718774414</ele>
        <time>2017-08-09T12:02:52Z</time>
      </trkpt>
      <trkpt lat="45.78" lon="4.80886">
        <ele>168.02118774414</ele>
        <time>2017-08-09T12:03:09Z</time>
      </trkpt>
      <trkpt lat="45.78026" lon="4.80902">
        <ele>168.09518774414</ele>
        <time>2017-08-09T12:03:15Z</time>
      </trkpt>
      <trkpt lat="45.78035" lon="4.80896">
        <ele>168.28118774414</ele>
        <time>2017-08-09T12:03:17Z</time>
      </trkpt>
      <trkpt lat="45.78051" lon="4.80905">
        <ele>168.33118774414</ele>
        <time>2017-08-09T12:03:20Z</time>
      </trkpt>
      <trkpt lat="45.78062" lon="4.80915">
        <ele>168.23618774414</ele>
        <time>2017-08-09T12:03:22Z</time>
      </trkpt>
      <trkpt lat="45.78131" lon="4.80981">
        <ele>168.01418774414</ele>
        <time>2017-08-09T12:03:37Z</time>
      </trkpt>
      <trkpt lat="45.78257" lon="4.81084">
        <ele>167.01018774414</ele>
        <time>2017-08-09T12:04:00Z</time>
      </trkpt>
      <trkpt lat="45.78299" lon="4.81121">
        <ele>167.12518774414</ele>
        <time>2017-08-09T12:04:10Z</time>
      </trkpt>
      <trkpt lat="45.78356" lon="4.81167">
        <ele>167.12918774414</ele>
        <time>2017-08-09T12:04:21Z</time>
      </trkpt>
      <trkpt lat="45.78412" lon="4.81213">
        <ele>166.81018774414</ele>
        <time>2017-08-09T12:04:32Z</time>
      </trkpt>
      <trkpt lat="45.78479" lon="4.81268">
        <ele>166.52918774414</ele>
        <time>2017-08-09T12:04:45Z</time>
      </trkpt>
      <trkpt lat="45.78497" lon="4.81283">
        <ele>166.53718774414</ele>
        <time>2017-08-09T12:04:49Z</time>
      </trkpt>
      <trkpt lat="45.78508" lon="4.81292">
        <ele>166.38118774414</ele>
        <time>2017-08-09T12:04:51Z</time>
      </trkpt>
      <trkpt lat="45.78544" lon="4.81316">
        <ele>166.26118774414</ele>
        <time>2017-08-09T12:04:58Z</time>
      </trkpt>
      <trkpt lat="45.78556" lon="4.81324">
        <ele>166.29618774414</ele>
        <time>2017-08-09T12:05:00Z</time>
      </trkpt>
      <trkpt lat="45.78561" lon="4.81327">
        <ele>166.31518774414</ele>
        <time>2017-08-09T12:05:01Z</time>
      </trkpt>
      <trkpt lat="45.78596" lon="4.8135">
        <ele>166.36618774414</ele>
        <time>2017-08-09T12:05:08Z</time>
      </trkpt>
      <trkpt lat="45.78613" lon="4.81361">
        <ele>166.40218774414</ele>
        <time>2017-08-09T12:05:12Z</time>
      </trkpt>
      <trkpt lat="45.78734" lon="4.8144">
        <ele>168.02918774414</ele>
        <time>2017-08-09T12:05:42Z</time>
      </trkpt>
      <trkpt lat="45.78771" lon="4.8147">
        <ele>168.49518774414</ele>
        <time>2017-08-09T12:05:52Z</time>
      </trkpt>
      <trkpt lat="45.7881" lon="4.81502">
        <ele>168.71018774414</ele>
        <time>2017-08-09T12:06:00Z</time>
      </trkpt>
      <trkpt lat="45.78817" lon="4.81509">
        <ele>168.75318774414</ele>
        <time>2017-08-09T12:06:02Z</time>
      </trkpt>
      <trkpt lat="45.7882" lon="4.81512">
        <ele>168.74618774414</ele>
        <time>2017-08-09T12:06:03Z</time>
      </trkpt>
      <trkpt lat="45.78883" lon="4.81575">
        <ele>168.51618774414</ele>
        <time>2017-08-09T12:06:16Z</time>
      </trkpt>
      <trkpt lat="45.78918" lon="4.81619">
        <ele>168.06318774414</ele>
        <time>2017-08-09T12:06:23Z</time>
      </trkpt>
      <trkpt lat="45.79006" lon="4.81743">
        <ele>166.57318774414</ele>
        <time>2017-08-09T12:06:43Z</time>
      </trkpt>
      <trkpt lat="45.79079" lon="4.8185">
        <ele>165.70718774414</ele>
        <time>2017-08-09T12:06:59Z</time>
      </trkpt>
      <trkpt lat="45.79084" lon="4.81857">
        <ele>165.64418774414</ele>
        <time>2017-08-09T12:07:00Z</time>
      </trkpt>
      <trkpt lat="45.79088" lon="4.81863">
        <ele>165.59618774414</ele>
        <time>2017-08-09T12:07:01Z</time>
      </trkpt>
      <trkpt lat="45.79162" lon="4.81961">
        <ele>165.18618774414</ele>
        <time>2017-08-09T12:07:19Z</time>
      </trkpt>
      <trkpt lat="45.79167" lon="4.81968">
        <ele>165.15018774414</ele>
        <time>2017-08-09T12:07:20Z</time>
      </trkpt>
      <trkpt lat="45.79172" lon="4.81974">
        <ele>165.14318774414</ele>
        <time>2017-08-09T12:07:21Z</time>
      </trkpt>
      <trkpt lat="45.79222" lon="4.82034">
        <ele>165.19518774414</ele>
        <time>2017-08-09T12:07:33Z</time>
      </trkpt>
      <trkpt lat="45.79274" lon="4.82099">
        <ele>165.27518774414</ele>
        <time>2017-08-09T12:07:45Z</time>
      </trkpt>
      <trkpt lat="45.79276" lon="4.82101">
        <ele>165.27218774414</ele>
        <time>2017-08-09T12:07:46Z</time>
      </trkpt>
      <trkpt lat="45.7928" lon="4.82106">
        <ele>165.27718774414</ele>
        <time>2017-08-09T12:07:47Z</time>
      </trkpt>
      <trkpt lat="45.79289" lon="4.82117">
        <ele>165.27718774414</ele>
        <time>2017-08-09T12:07:49Z</time>
      </trkpt>
      <trkpt lat="45.79291" lon="4.8212">
        <ele>165.27318774414</ele>
        <time>2017-08-09T12:07:49Z</time>
      </trkpt>
      <trkpt lat="45.79296" lon="4.82125">
        <ele>165.31718774414</ele>
        <time>2017-08-09T12:07:50Z</time>
      </trkpt>
      <trkpt lat="45.79302" lon="4.82132">
        <ele>165.31218774414</ele>
        <time>2017-08-09T12:07:52Z</time>
      </trkpt>
      <trkpt lat="45.79337" lon="4.82178">
        <ele>165.35418774414</ele>
        <time>2017-08-09T12:08:01Z</time>
      </trkpt>
      <trkpt lat="45.79358" lon="4.82208">
        <ele>165.36918774414</ele>
        <time>2017-08-09T12:08:06Z</time>
      </trkpt>
      <trkpt lat="45.79463" lon="4.82395">
        <ele>165.29818774414</ele>
        <time>2017-08-09T12:08:36Z</time>
      </trkpt>
      <trkpt lat="45.79512" lon="4.82484">
        <ele>165.28618774414</ele>
        <time>2017-08-09T12:08:50Z</time>
      </trkpt>
      <trkpt lat="45.79517" lon="4.82494">
        <ele>165.26018774414</ele>
        <time>2017-08-09T12:08:51Z</time>
      </trkpt>
      <trkpt lat="45.7952" lon="4.82499">
        <ele>165.25118774414</ele>
        <time>2017-08-09T12:08:52Z</time>
      </trkpt>
      <trkpt lat="45.79525" lon="4.82508">
        <ele>165.23618774414</ele>
        <time>2017-08-09T12:08:53Z</time>
      </trkpt>
      <trkpt lat="45.79532" lon="4.82521">
        <ele>165.26018774414</ele>
        <time>2017-08-09T12:08:55Z</time>
      </trkpt>
      <trkpt lat="45.79555" lon="4.82565">
        <ele>165.26618774414</ele>
        <time>2017-08-09T12:09:02Z</time>
      </trkpt>
      <trkpt lat="45.79612" lon="4.82677">
        <ele>165.25018774414</ele>
        <time>2017-08-09T12:09:19Z</time>
      </trkpt>
      <trkpt lat="45.79634" lon="4.82719">
        <ele>165.27318774414</ele>
        <time>2017-08-09T12:09:26Z</time>
      </trkpt>
      <trkpt lat="45.79658" lon="4.82768">
        <ele>165.28418774414</ele>
        <time>2017-08-09T12:09:33Z</time>
      </trkpt>
      <trkpt lat="45.79701" lon="4.82848">
        <ele>165.20618774414</ele>
        <time>2017-08-09T12:09:46Z</time>
      </trkpt>
      <trkpt lat="45.79747" lon="4.82937">
        <ele>165.63818774414</ele>
        <time>2017-08-09T12:10:01Z</time>
      </trkpt>
      <trkpt lat="45.79748" lon="4.8294">
        <ele>165.62018774414</ele>
        <time>2017-08-09T12:10:02Z</time>
      </trkpt>
      <trkpt lat="45.79759" lon="4.8296">
        <ele>165.69318774414</ele>
        <time>2017-08-09T12:10:05Z</time>
      </trkpt>
      <trkpt lat="45.79767" lon="4.82978">
        <ele>165.84418774414</ele>
        <time>2017-08-09T12:10:08Z</time>
      </trkpt>
      <trkpt lat="45.79772" lon="4.82991">
        <ele>165.84818774414</ele>
        <time>2017-08-09T12:10:10Z</time>
      </trkpt>
      <trkpt lat="45.79773" lon="4.82994">
        <ele>165.84318774414</ele>
        <time>2017-08-09T12:10:11Z</time>
      </trkpt>
      <trkpt lat="45.79776" lon="4.83">
        <ele>165.86018774414</ele>
        <time>2017-08-09T12:10:12Z</time>
      </trkpt>
      <trkpt lat="45.7978" lon="4.8301">
        <ele>165.91718774414</ele>
        <time>2017-08-09T12:10:13Z</time>
      </trkpt>
      <trkpt lat="45.79793" lon="4.83039">
        <ele>165.85418774414</ele>
        <time>2017-08-09T12:10:17Z</time>
      </trkpt>
      <trkpt lat="45.79797" lon="4.83046">
        <ele>165.86218774414</ele>
        <time>2017-08-09T12:10:19Z</time>
      </trkpt>
      <trkpt lat="45.79799" lon="4.8305">
        <ele>165.85618774414</ele>
        <time>2017-08-09T12:10:19Z</time>
      </trkpt>
      <trkpt lat="45.798" lon="4.83052">
        <ele>165.92718774414</ele>
        <time>2017-08-09T12:10:20Z</time>
      </trkpt>
      <trkpt lat="45.79823" lon="4.83109">
        <ele>165.99818774414</ele>
        <time>2017-08-09T12:10:28Z</time>
      </trkpt>
      <trkpt lat="45.79829" lon="4.83122">
        <ele>166.01118774414</ele>
        <time>2017-08-09T12:10:30Z</time>
      </trkpt>
      <trkpt lat="45.79852" lon="4.83177">
        <ele>166.35618774414</ele>
        <time>2017-08-09T12:10:40Z</time>
      </trkpt>
      <trkpt lat="45.79856" lon="4.83187">
        <ele>166.46918774414</ele>
        <time>2017-08-09T12:10:42Z</time>
      </trkpt>
      <trkpt lat="45.7986" lon="4.83197">
        <ele>166.48518774414</ele>
        <time>2017-08-09T12:10:43Z</time>
      </trkpt>
      <trkpt lat="45.79869" lon="4.83225">
        <ele>166.65218774414</ele>
        <time>2017-08-09T12:10:48Z</time>
      </trkpt>
      <trkpt lat="45.79871" lon="4.83234">
        <ele>166.76018774414</ele>
        <time>2017-08-09T12:10:49Z</time>
      </trkpt>
      <trkpt lat="45.79878" lon="4.83256">
        <ele>166.81718774414</ele>
        <time>2017-08-09T12:10:52Z</time>
      </trkpt>
      <trkpt lat="45.79899" lon="4.83328">
        <ele>166.88318774414</ele>
        <time>2017-08-09T12:11:02Z</time>
      </trkpt>
      <trkpt lat="45.79906" lon="4.8335">
        <ele>166.83618774414</ele>
        <time>2017-08-09T12:11:05Z</time>
      </trkpt>
      <trkpt lat="45.79908" lon="4.83357">
        <ele>166.85918774414</ele>
        <time>2017-08-09T12:11:06Z</time>
      </trkpt>
      <trkpt lat="45.79916" lon="4.83383">
        <ele>166.84718774414</ele>
        <time>2017-08-09T12:11:10Z</time>
      </trkpt>
      <trkpt lat="45.79918" lon="4.83389">
        <ele>166.83518774414</ele>
        <time>2017-08-09T12:11:11Z</time>
      </trkpt>
      <trkpt lat="45.79973" lon="4.83576">
        <ele>168.70518774414</ele>
        <time>2017-08-09T12:11:43Z</time>
      </trkpt>
      <trkpt lat="45.79991" lon="4.83616">
        <ele>169.00418774414</ele>
        <time>2017-08-09T12:11:50Z</time>
      </trkpt>
      <trkpt lat="45.80009" lon="4.83654">
        <ele>169.30418774414</ele>
        <time>2017-08-09T12:11:57Z</time>
      </trkpt>
      <trkpt lat="45.80021" lon="4.83678">
        <ele>169.49618774414</ele>
        <time>2017-08-09T12:12:02Z</time>
      </trkpt>
      <trkpt lat="45.80033" lon="4.83699">
        <ele>169.66518774414</ele>
        <time>2017-08-09T12:12:06Z</time>
      </trkpt>
      <trkpt lat="45.80042" lon="4.83715">
        <ele>169.84918774414</ele>
        <time>2017-08-09T12:12:09Z</time>
      </trkpt>
      <trkpt lat="45.80058" lon="4.83747">
        <ele>170.20118774414</ele>
        <time>2017-08-09T12:12:16Z</time>
      </trkpt>
      <trkpt lat="45.80091" lon="4.83793">
        <ele>170.79818774414</ele>
        <time>2017-08-09T12:12:26Z</time>
      </trkpt>
      <trkpt lat="45.80137" lon="4.83841">
        <ele>171.07518774414</ele>
        <time>2017-08-09T12:12:37Z</time>
      </trkpt>
      <trkpt lat="45.8016" lon="4.83857">
        <ele>170.94718774414</ele>
        <time>2017-08-09T12:12:42Z</time>
      </trkpt>
      <trkpt lat="45.80179" lon="4.8387">
        <ele>170.85218774414</ele>
        <time>2017-08-09T12:12:45Z</time>
      </trkpt>
      <trkpt lat="45.80277" lon="4.83913">
        <ele>170.20818774414</ele>
        <time>2017-08-09T12:13:02Z</time>
      </trkpt>
      <trkpt lat="45.803" lon="4.83927">
        <ele>169.95618774414</ele>
        <time>2017-08-09T12:13:06Z</time>
      </trkpt>
      <trkpt lat="45.80316" lon="4.83939">
        <ele>169.76418774414</ele>
        <time>2017-08-09T12:13:09Z</time>
      </trkpt>
      <trkpt lat="45.80359" lon="4.83982">
        <ele>169.05118774414</ele>
        <time>2017-08-09T12:13:17Z</time>
      </trkpt>
      <trkpt lat="45.80408" lon="4.84017">
        <ele>168.28718774414</ele>
        <time>2017-08-09T12:13:25Z</time>
      </trkpt>
      <trkpt lat="45.80628" lon="4.8414">
        <ele>166.91618774414</ele>
        <time>2017-08-09T12:14:04Z</time>
      </trkpt>
      <trkpt lat="45.8073" lon="4.84175">
        <ele>167.07818774414</ele>
        <time>2017-08-09T12:14:24Z</time>
      </trkpt>
      <trkpt lat="45.80818" lon="4.84191">
        <ele>167.31518774414</ele>
        <time>2017-08-09T12:14:41Z</time>
      </trkpt>
      <trkpt lat="45.80984" lon="4.84195">
        <ele>167.29218774414</ele>
        <time>2017-08-09T12:15:10Z</time>
      </trkpt>
      <trkpt lat="45.81028" lon="4.84203">
        <ele>167.09418774414</ele>
        <time>2017-08-09T12:15:17Z</time>
      </trkpt>
      <trkpt lat="45.81102" lon="4.84229">
        <ele>166.67018774414</ele>
        <time>2017-08-09T12:15:30Z</time>
      </trkpt>
      <trkpt lat="45.8119" lon="4.84282">
        <ele>166.17318774414</ele>
        <time>2017-08-09T12:15:46Z</time>
      </trkpt>
      <trkpt lat="45.81254" lon="4.84339">
        <ele>165.91718774414</ele>
        <time>2017-08-09T12:15:59Z</time>
      </trkpt>
      <trkpt lat="45.81327" lon="4.84428">
        <ele>165.81618774414</ele>
        <time>2017-08-09T12:16:16Z</time>
      </trkpt>
      <trkpt lat="45.81448" lon="4.84571">
        <ele>165.85518774414</ele>
        <time>2017-08-09T12:16:44Z</time>
      </trkpt>
      <trkpt lat="45.8147" lon="4.84598">
        <ele>165.76218774414</ele>
        <time>2017-08-09T12:16:49Z</time>
      </trkpt>
      <trkpt lat="45.81482" lon="4.8462">
        <ele>165.79118774414</ele>
        <time>2017-08-09T12:16:52Z</time>
      </trkpt>
      <trkpt lat="45.8148" lon="4.84622">
        <ele>165.77418774414</ele>
        <time>2017-08-09T12:16:53Z</time>
      </trkpt>
      <trkpt lat="45.81478" lon="4.8463">
        <ele>165.77718774414</ele>
        <time>2017-08-09T12:16:54Z</time>
      </trkpt>
      <trkpt lat="45.81479" lon="4.84635">
        <ele>165.75918774414</ele>
        <time>2017-08-09T12:16:54Z</time>
      </trkpt>
      <trkpt lat="45.8148" lon="4.84638">
        <ele>165.74718774414</ele>
        <time>2017-08-09T12:16:55Z</time>
      </trkpt>
      <trkpt lat="45.81487" lon="4.84642">
        <ele>165.72518774414</ele>
        <time>2017-08-09T12:16:56Z</time>
      </trkpt>
      <trkpt lat="45.8149" lon="4.8464">
        <ele>165.75418774414</ele>
        <time>2017-08-09T12:16:57Z</time>
      </trkpt>
      <trkpt lat="45.81506" lon="4.84664">
        <ele>165.78618774414</ele>
        <time>2017-08-09T12:17:01Z</time>
      </trkpt>
      <trkpt lat="45.81508" lon="4.84672">
        <ele>165.74718774414</ele>
        <time>2017-08-09T12:17:02Z</time>
      </trkpt>
      <trkpt lat="45.81525" lon="4.84733">
        <ele>165.86018774414</ele>
        <time>2017-08-09T12:17:11Z</time>
      </trkpt>
      <trkpt lat="45.81539" lon="4.84782">
        <ele>165.92918774414</ele>
        <time>2017-08-09T12:17:17Z</time>
      </trkpt>
      <trkpt lat="45.81548" lon="4.84805">
        <ele>165.96818774414</ele>
        <time>2017-08-09T12:17:21Z</time>
      </trkpt>
      <trkpt lat="45.81561" lon="4.84838">
        <ele>165.95918774414</ele>
        <time>2017-08-09T12:17:25Z</time>
      </trkpt>
      <trkpt lat="45.81596" lon="4.84926">
        <ele>165.84718774414</ele>
        <time>2017-08-09T12:17:38Z</time>
      </trkpt>
      <trkpt lat="45.81627" lon="4.85005">
        <ele>165.88418774414</ele>
        <time>2017-08-09T12:17:49Z</time>
      </trkpt>
      <trkpt lat="45.81653" lon="4.85071">
        <ele>165.75418774414</ele>
        <time>2017-08-09T12:17:58Z</time>
      </trkpt>
      <trkpt lat="45.81703" lon="4.85186">
        <ele>165.54518774414</ele>
        <time>2017-08-09T12:18:15Z</time>
      </trkpt>
      <trkpt lat="45.81735" lon="4.85246">
        <ele>165.53518774414</ele>
        <time>2017-08-09T12:18:24Z</time>
      </trkpt>
      <trkpt lat="45.81763" lon="4.85291">
        <ele>165.65818774414</ele>
        <time>2017-08-09T12:18:32Z</time>
      </trkpt>
      <trkpt lat="45.81815" lon="4.85354">
        <ele>165.88618774414</ele>
        <time>2017-08-09T12:18:45Z</time>
      </trkpt>
      <trkpt lat="45.81873" lon="4.85404">
        <ele>166.13418774414</ele>
        <time>2017-08-09T12:18:58Z</time>
      </trkpt>
      <trkpt lat="45.81891" lon="4.85416">
        <ele>166.27018774414</ele>
        <time>2017-08-09T12:19:02Z</time>
      </trkpt>
      <trkpt lat="45.81929" lon="4.85436">
        <ele>166.36818774414</ele>
        <time>2017-08-09T12:19:10Z</time>
      </trkpt>
      <trkpt lat="45.81965" lon="4.85452">
        <ele>166.38818774414</ele>
        <time>2017-08-09T12:19:17Z</time>
      </trkpt>
      <trkpt lat="45.81988" lon="4.8546">
        <ele>166.37418774414</ele>
        <time>2017-08-09T12:19:21Z</time>
      </trkpt>
      <trkpt lat="45.82041" lon="4.85475">
        <ele>166.47918774414</ele>
        <time>2017-08-09T12:19:31Z</time>
      </trkpt>
      <trkpt lat="45.82074" lon="4.85478">
        <ele>166.57518774414</ele>
        <time>2017-08-09T12:19:37Z</time>
      </trkpt>
      <trkpt lat="45.82134" lon="4.85484">
        <ele>167.10118774414</ele>
        <time>2017-08-09T12:19:50Z</time>
      </trkpt>
      <trkpt lat="45.82173" lon="4.85478">
        <ele>167.49018774414</ele>
        <time>2017-08-09T12:19:58Z</time>
      </trkpt>
      <trkpt lat="45.82206" lon="4.85475">
        <ele>167.77018774414</ele>
        <time>2017-08-09T12:20:05Z</time>
      </trkpt>
      <trkpt lat="45.82224" lon="4.85473">
        <ele>167.92518774414</ele>
        <time>2017-08-09T12:20:09Z</time>
      </trkpt>
      <trkpt lat="45.82245" lon="4.85469">
        <ele>168.25118774414</ele>
        <time>2017-08-09T12:20:14Z</time>
      </trkpt>
      <trkpt lat="45.82295" lon="4.85456">
        <ele>169.01718774414</ele>
        <time>2017-08-09T12:20:26Z</time>
      </trkpt>
      <trkpt lat="45.82341" lon="4.85439">
        <ele>169.79218774414</ele>
        <time>2017-08-09T12:20:38Z</time>
      </trkpt>
      <trkpt lat="45.82448" lon="4.85389">
        <ele>170.76018774414</ele>
        <time>2017-08-09T12:21:02Z</time>
      </trkpt>
      <trkpt lat="45.82563" lon="4.85312">
        <ele>171.09018774414</ele>
        <time>2017-08-09T12:21:26Z</time>
      </trkpt>
      <trkpt lat="45.82569" lon="4.85308">
        <ele>171.10418774414</ele>
        <time>2017-08-09T12:21:27Z</time>
      </trkpt>
      <trkpt lat="45.82589" lon="4.85294">
        <ele>171.02818774414</ele>
        <time>2017-08-09T12:21:31Z</time>
      </trkpt>
      <trkpt lat="45.82627" lon="4.85268">
        <ele>170.81718774414</ele>
        <time>2017-08-09T12:21:38Z</time>
      </trkpt>
      <trkpt lat="45.82639" lon="4.85261">
        <ele>170.76918774414</ele>
        <time>2017-08-09T12:21:40Z</time>
      </trkpt>
      <trkpt lat="45.82773" lon="4.85166">
        <ele>169.78818774414</ele>
        <time>2017-08-09T12:22:05Z</time>
      </trkpt>
      <trkpt lat="45.82848" lon="4.85098">
        <ele>168.92518774414</ele>
        <time>2017-08-09T12:22:19Z</time>
      </trkpt>
      <trkpt lat="45.82913" lon="4.85024">
        <ele>168.31618774414</ele>
        <time>2017-08-09T12:22:32Z</time>
      </trkpt>
      <trkpt lat="45.82937" lon="4.84994">
        <ele>168.21718774414</ele>
        <time>2017-08-09T12:22:38Z</time>
      </trkpt>
      <trkpt lat="45.82975" lon="4.84945">
        <ele>168.18718774414</ele>
        <time>2017-08-09T12:22:47Z</time>
      </trkpt>
      <trkpt lat="45.83011" lon="4.84897">
        <ele>168.53218774414</ele>
        <time>2017-08-09T12:22:57Z</time>
      </trkpt>
      <trkpt lat="45.83072" lon="4.84779">
        <ele>169.04718774414</ele>
        <time>2017-08-09T12:23:17Z</time>
      </trkpt>
      <trkpt lat="45.83089" lon="4.84747">
        <ele>169.14618774414</ele>
        <time>2017-08-09T12:23:23Z</time>
      </trkpt>
      <trkpt lat="45.83095" lon="4.84746">
        <ele>169.12618774414</ele>
        <time>2017-08-09T12:23:24Z</time>
      </trkpt>
      <trkpt lat="45.83104" lon="4.84737">
        <ele>169.14418774414</ele>
        <time>2017-08-09T12:23:26Z</time>
      </trkpt>
      <trkpt lat="45.83234" lon="4.84867">
        <ele>167.40618774414</ele>
        <time>2017-08-09T12:23:51Z</time>
      </trkpt>
      <trkpt lat="45.8324" lon="4.84841">
        <ele>166.98218774414</ele>
        <time>2017-08-09T12:23:56Z</time>
      </trkpt>
      <trkpt lat="45.83264" lon="4.8477">
        <ele>166.22818774414</ele>
        <time>2017-08-09T12:24:11Z</time>
      </trkpt>
      <trkpt lat="45.83268" lon="4.84756">
        <ele>166.02418774414</ele>
        <time>2017-08-09T12:24:13Z</time>
      </trkpt>
      <trkpt lat="45.83295" lon="4.84657">
        <ele>165.43018774414</ele>
        <time>2017-08-09T12:24:34Z</time>
      </trkpt>
      <trkpt lat="45.83372" lon="4.8438">
        <ele>165.97418774414</ele>
        <time>2017-08-09T12:25:38Z</time>
      </trkpt>
      <trkpt lat="45.83417" lon="4.84233">
        <ele>166.77318774414</ele>
        <time>2017-08-09T12:26:15Z</time>
      </trkpt>
      <trkpt lat="45.83438" lon="4.84165">
        <ele>167.17918774414</ele>
        <time>2017-08-09T12:26:31Z</time>
      </trkpt>
      <trkpt lat="45.83452" lon="4.84122">
        <ele>167.42118774414</ele>
        <time>2017-08-09T12:26:42Z</time>
      </trkpt>
      <trkpt lat="45.83463" lon="4.84088">
        <ele>167.57018774414</ele>
        <time>2017-08-09T12:26:48Z</time>
      </trkpt>
      <trkpt lat="45.83466" lon="4.84079">
        <ele>167.62818774414</ele>
        <time>2017-08-09T12:26:50Z</time>
      </trkpt>
      <trkpt lat="45.83503" lon="4.83987">
        <ele>168.02418774414</ele>
        <time>2017-08-09T12:27:14Z</time>
      </trkpt>
      <trkpt lat="45.83576" lon="4.83841">
        <ele>168.51518774414</ele>
        <time>2017-08-09T12:27:53Z</time>
      </trkpt>
      <trkpt lat="45.83587" lon="4.83824">
        <ele>168.57818774414</ele>
        <time>2017-08-09T12:27:58Z</time>
      </trkpt>
      <trkpt lat="45.8359" lon="4.83818">
        <ele>168.60218774414</ele>
        <time>2017-08-09T12:27:59Z</time>
      </trkpt>
      <trkpt lat="45.83687" lon="4.83669">
        <ele>168.88818774414</ele>
        <time>2017-08-09T12:28:43Z</time>
      </trkpt>
      <trkpt lat="45.83779" lon="4.83533">
        <ele>168.88918774414</ele>
        <time>2017-08-09T12:29:22Z</time>
      </trkpt>
      <trkpt lat="45.83815" lon="4.83495">
        <ele>168.91918774414</ele>
        <time>2017-08-09T12:29:35Z</time>
      </trkpt>
      <trkpt lat="45.8387" lon="4.83448">
        <ele>169.10818774414</ele>
        <time>2017-08-09T12:29:55Z</time>
      </trkpt>
      <trkpt lat="45.83935" lon="4.83408">
        <ele>169.49918774414</ele>
        <time>2017-08-09T12:30:18Z</time>
      </trkpt>
      <trkpt lat="45.83983" lon="4.8339">
        <ele>169.78818774414</ele>
        <time>2017-08-09T12:30:33Z</time>
      </trkpt>
      <trkpt lat="45.83981" lon="4.83374">
        <ele>169.90218774414</ele>
        <time>2017-08-09T12:30:37Z</time>
      </trkpt>
      <trkpt lat="45.83982" lon="4.83368">
        <ele>169.90418774414</ele>
        <time>2017-08-09T12:30:38Z</time>
      </trkpt>
      <trkpt lat="45.84014" lon="4.8337">
        <ele>170.12918774414</ele>
        <time>2017-08-09T12:30:49Z</time>
      </trkpt>
      <trkpt lat="45.8404" lon="4.83372">
        <ele>170.25918774414</ele>
        <time>2017-08-09T12:30:57Z</time>
      </trkpt>
      <trkpt lat="45.84133" lon="4.83371">
        <ele>170.96418774414</ele>
        <time>2017-08-09T12:31:27Z</time>
      </trkpt>
      <trkpt lat="45.84186" lon="4.83381">
        <ele>171.43618774414</ele>
        <time>2017-08-09T12:31:45Z</time>
      </trkpt>
      <trkpt lat="45.84219" lon="4.8339">
        <ele>171.80418774414</ele>
        <time>2017-08-09T12:31:57Z</time>
      </trkpt>
      <trkpt lat="45.84421" lon="4.83475">
        <ele>175.45018774414</ele>
        <time>2017-08-09T12:33:14Z</time>
      </trkpt>
      <trkpt lat="45.8447" lon="4.83495">
        <ele>176.11218774414</ele>
        <time>2017-08-09T12:33:31Z</time>
      </trkpt>
      <trkpt lat="45.84475" lon="4.83497">
        <ele>176.15618774414</ele>
        <time>2017-08-09T12:33:33Z</time>
      </trkpt>
      <trkpt lat="45.84482" lon="4.83498">
        <ele>176.22118774414</ele>
        <time>2017-08-09T12:33:36Z</time>
      </trkpt>
      <trkpt lat="45.84491" lon="4.83498">
        <ele>176.26518774414</ele>
        <time>2017-08-09T12:33:38Z</time>
      </trkpt>
      <trkpt lat="45.84497" lon="4.83496">
        <ele>176.30518774414</ele>
        <time>2017-08-09T12:33:40Z</time>
      </trkpt>
      <trkpt lat="45.84524" lon="4.83502">
        <ele>176.48418774414</ele>
        <time>2017-08-09T12:33:49Z</time>
      </trkpt>
      <trkpt lat="45.84564" lon="4.83532">
        <ele>176.59118774414</ele>
        <time>2017-08-09T12:34:03Z</time>
      </trkpt>
      <trkpt lat="45.8467" lon="4.83582">
        <ele>175.70718774414</ele>
        <time>2017-08-09T12:34:34Z</time>
      </trkpt>
      <trkpt lat="45.84942" lon="4.83725">
        <ele>171.75218774414</ele>
        <time>2017-08-09T12:35:52Z</time>
      </trkpt>
      <trkpt lat="45.84953" lon="4.83727">
        <ele>171.67318774414</ele>
        <time>2017-08-09T12:35:55Z</time>
      </trkpt>
      <trkpt lat="45.84969" lon="4.83721">
        <ele>171.54818774414</ele>
        <time>2017-08-09T12:36:00Z</time>
      </trkpt>
      <trkpt lat="45.84973" lon="4.83723">
        <ele>171.47818774414</ele>
        <time>2017-08-09T12:36:01Z</time>
      </trkpt>
      <trkpt lat="45.84975" lon="4.83724">
        <ele>171.40718774414</ele>
        <time>2017-08-09T12:36:02Z</time>
      </trkpt>
      <trkpt lat="45.84985" lon="4.83739">
        <ele>171.34018774414</ele>
        <time>2017-08-09T12:36:06Z</time>
      </trkpt>
      <trkpt lat="45.8502" lon="4.83758">
        <ele>171.11118774414</ele>
        <time>2017-08-09T12:36:17Z</time>
      </trkpt>
      <trkpt lat="45.85066" lon="4.83775">
        <ele>170.99518774414</ele>
        <time>2017-08-09T12:36:30Z</time>
      </trkpt>
      <trkpt lat="45.85257" lon="4.8383">
        <ele>173.43718774414</ele>
        <time>2017-08-09T12:37:38Z</time>
      </trkpt>
      <trkpt lat="45.85309" lon="4.83846">
        <ele>174.72718774414</ele>
        <time>2017-08-09T12:37:59Z</time>
      </trkpt>
      <trkpt lat="45.85429" lon="4.83905">
        <ele>176.56718774414</ele>
        <time>2017-08-09T12:38:44Z</time>
      </trkpt>
      <trkpt lat="45.8562" lon="4.84001">
        <ele>174.10218774414</ele>
        <time>2017-08-09T12:39:39Z</time>
      </trkpt>
      <trkpt lat="45.85874" lon="4.84121">
        <ele>169.75918774414</ele>
        <time>2017-08-09T12:40:50Z</time>
      </trkpt>
      <trkpt lat="45.85937" lon="4.84126">
        <ele>169.37018774414</ele>
        <time>2017-08-09T12:41:08Z</time>
      </trkpt>
      <trkpt lat="45.85968" lon="4.84122">
        <ele>169.30318774414</ele>
        <time>2017-08-09T12:41:17Z</time>
      </trkpt>
      <trkpt lat="45.86132" lon="4.84081">
        <ele>170.12118774414</ele>
        <time>2017-08-09T12:42:09Z</time>
      </trkpt>
      <trkpt lat="45.86157" lon="4.84075">
        <ele>170.30718774414</ele>
        <time>2017-08-09T12:42:18Z</time>
      </trkpt>
      <trkpt lat="45.86192" lon="4.84066">
        <ele>170.50318774414</ele>
        <time>2017-08-09T12:42:29Z</time>
      </trkpt>
      <trkpt lat="45.86295" lon="4.84043">
        <ele>170.93518774414</ele>
        <time>2017-08-09T12:43:02Z</time>
      </trkpt>
      <trkpt lat="45.86398" lon="4.84015">
        <ele>171.23218774414</ele>
        <time>2017-08-09T12:43:34Z</time>
      </trkpt>
      <trkpt lat="45.86565" lon="4.8396">
        <ele>171.59318774414</ele>
        <time>2017-08-09T12:44:26Z</time>
      </trkpt>
      <trkpt lat="45.86607" lon="4.83954">
        <ele>171.38518774414</ele>
        <time>2017-08-09T12:44:38Z</time>
      </trkpt>
      <trkpt lat="45.86615" lon="4.83952">
        <ele>171.42818774414</ele>
        <time>2017-08-09T12:44:41Z</time>
      </trkpt>
      <trkpt lat="45.86633" lon="4.83928">
        <ele>171.12618774414</ele>
        <time>2017-08-09T12:44:47Z</time>
      </trkpt>
      <trkpt lat="45.86714" lon="4.83841">
        <ele>170.02818774414</ele>
        <time>2017-08-09T12:45:15Z</time>
      </trkpt>
      <trkpt lat="45.86784" lon="4.83774">
        <ele>169.02418774414</ele>
        <time>2017-08-09T12:45:38Z</time>
      </trkpt>
      <trkpt lat="45.86879" lon="4.83716">
        <ele>168.63318774414</ele>
        <time>2017-08-09T12:46:08Z</time>
      </trkpt>
      <trkpt lat="45.86954" lon="4.837">
        <ele>168.84218774414</ele>
        <time>2017-08-09T12:46:31Z</time>
      </trkpt>
      <trkpt lat="45.87021" lon="4.83697">
        <ele>169.38618774414</ele>
        <time>2017-08-09T12:46:53Z</time>
      </trkpt>
      <trkpt lat="45.87073" lon="4.837">
        <ele>169.81718774414</ele>
        <time>2017-08-09T12:47:11Z</time>
      </trkpt>
      <trkpt lat="45.87113" lon="4.83706">
        <ele>170.09018774414</ele>
        <time>2017-08-09T12:47:24Z</time>
      </trkpt>
      <trkpt lat="45.8712" lon="4.83707">
        <ele>170.14118774414</ele>
        <time>2017-08-09T12:47:26Z</time>
      </trkpt>
      <trkpt lat="45.87153" lon="4.83713">
        <ele>170.26718774414</ele>
        <time>2017-08-09T12:47:36Z</time>
      </trkpt>
      <trkpt lat="45.87204" lon="4.83722">
        <ele>170.32218774414</ele>
        <time>2017-08-09T12:47:46Z</time>
      </trkpt>
      <trkpt lat="45.87241" lon="4.83723">
        <ele>170.28818774414</ele>
        <time>2017-08-09T12:47:53Z</time>
      </trkpt>
      <trkpt lat="45.87254" lon="4.83725">
        <ele>170.23818774414</ele>
        <time>2017-08-09T12:47:55Z</time>
      </trkpt>
      <trkpt lat="45.87358" lon="4.83745">
        <ele>170.00818774414</ele>
        <time>2017-08-09T12:48:14Z</time>
      </trkpt>
      <trkpt lat="45.87396" lon="4.83751">
        <ele>170.03018774414</ele>
        <time>2017-08-09T12:48:21Z</time>
      </trkpt>
      <trkpt lat="45.87413" lon="4.83754">
        <ele>170.04218774414</ele>
        <time>2017-08-09T12:48:24Z</time>
      </trkpt>
      <trkpt lat="45.8744" lon="4.83758">
        <ele>170.16618774414</ele>
        <time>2017-08-09T12:48:30Z</time>
      </trkpt>
      <trkpt lat="45.87519" lon="4.83773">
        <ele>170.56918774414</ele>
        <time>2017-08-09T12:48:46Z</time>
      </trkpt>
      <trkpt lat="45.87551" lon="4.83779">
        <ele>170.78318774414</ele>
        <time>2017-08-09T12:48:53Z</time>
      </trkpt>
      <trkpt lat="45.87622" lon="4.83785">
        <ele>170.86518774414</ele>
        <time>2017-08-09T12:49:06Z</time>
      </trkpt>
      <trkpt lat="45.87648" lon="4.83787">
        <ele>170.66018774414</ele>
        <time>2017-08-09T12:49:11Z</time>
      </trkpt>
      <trkpt lat="45.87667" lon="4.83785">
        <ele>170.44818774414</ele>
        <time>2017-08-09T12:49:14Z</time>
      </trkpt>
      <trkpt lat="45.87678" lon="4.83783">
        <ele>170.40118774414</ele>
        <time>2017-08-09T12:49:16Z</time>
      </trkpt>
      <trkpt lat="45.87688" lon="4.83782">
        <ele>170.33418774414</ele>
        <time>2017-08-09T12:49:18Z</time>
      </trkpt>
      <trkpt lat="45.87716" lon="4.83778">
        <ele>169.92318774414</ele>
        <time>2017-08-09T12:49:22Z</time>
      </trkpt>
      <trkpt lat="45.87722" lon="4.83777">
        <ele>169.88418774414</ele>
        <time>2017-08-09T12:49:23Z</time>
      </trkpt>
      <trkpt lat="45.87729" lon="4.8378">
        <ele>169.76018774414</ele>
        <time>2017-08-09T12:49:24Z</time>
      </trkpt>
      <trkpt lat="45.87732" lon="4.83779">
        <ele>169.54318774414</ele>
        <time>2017-08-09T12:49:25Z</time>
      </trkpt>
      <trkpt lat="45.87786" lon="4.8376">
        <ele>169.01718774414</ele>
        <time>2017-08-09T12:49:37Z</time>
      </trkpt>
      <trkpt lat="45.87821" lon="4.83733">
        <ele>168.61818774414</ele>
        <time>2017-08-09T12:49:45Z</time>
      </trkpt>
      <trkpt lat="45.87836" lon="4.83723">
        <ele>168.40018774414</ele>
        <time>2017-08-09T12:49:49Z</time>
      </trkpt>
      <trkpt lat="45.87838" lon="4.83723">
        <ele>168.44818774414</ele>
        <time>2017-08-09T12:49:50Z</time>
      </trkpt>
      <trkpt lat="45.87879" lon="4.83681">
        <ele>168.21818774414</ele>
        <time>2017-08-09T12:49:58Z</time>
      </trkpt>
      <trkpt lat="45.87901" lon="4.83652">
        <ele>168.20518774414</ele>
        <time>2017-08-09T12:50:04Z</time>
      </trkpt>
      <trkpt lat="45.87936" lon="4.83596">
        <ele>168.16318774414</ele>
        <time>2017-08-09T12:50:13Z</time>
      </trkpt>
      <trkpt lat="45.8794" lon="4.83596">
        <ele>168.29118774414</ele>
        <time>2017-08-09T12:50:15Z</time>
      </trkpt>
      <trkpt lat="45.87945" lon="4.83579">
        <ele>168.21018774414</ele>
        <time>2017-08-09T12:50:18Z</time>
      </trkpt>
      <trkpt lat="45.87967" lon="4.83517">
        <ele>168.24118774414</ele>
        <time>2017-08-09T12:50:29Z</time>
      </trkpt>
      <trkpt lat="45.87994" lon="4.83404">
        <ele>168.15018774414</ele>
        <time>2017-08-09T12:50:48Z</time>
      </trkpt>
      <trkpt lat="45.87999" lon="4.83407">
        <ele>168.05618774414</ele>
        <time>2017-08-09T12:50:49Z</time>
      </trkpt>
      <trkpt lat="45.88009" lon="4.83361">
        <ele>167.70418774414</ele>
        <time>2017-08-09T12:50:55Z</time>
      </trkpt>
      <trkpt lat="45.88032" lon="4.83157">
        <ele>166.05518774414</ele>
        <time>2017-08-09T12:51:19Z</time>
      </trkpt>
      <trkpt lat="45.88039" lon="4.83111">
        <ele>165.83818774414</ele>
        <time>2017-08-09T12:51:24Z</time>
      </trkpt>
      <trkpt lat="45.88061" lon="4.82923">
        <ele>165.29618774414</ele>
        <time>2017-08-09T12:51:48Z</time>
      </trkpt>
      <trkpt lat="45.88085" lon="4.82774">
        <ele>165.39918774414</ele>
        <time>2017-08-09T12:52:08Z</time>
      </trkpt>
      <trkpt lat="45.88087" lon="4.82747">
        <ele>165.40418774414</ele>
        <time>2017-08-09T12:52:11Z</time>
      </trkpt>
      <trkpt lat="45.88098" lon="4.82686">
        <ele>165.49118774414</ele>
        <time>2017-08-09T12:52:25Z</time>
      </trkpt>
      <trkpt lat="45.88231" lon="4.82168">
        <ele>167.39318774414</ele>
        <time>2017-08-09T12:54:27Z</time>
      </trkpt>
      <trkpt lat="45.88238" lon="4.82161">
        <ele>167.48218774414</ele>
        <time>2017-08-09T12:54:30Z</time>
      </trkpt>
      <trkpt lat="45.88242" lon="4.82158">
        <ele>167.49318774414</ele>
        <time>2017-08-09T12:54:31Z</time>
      </trkpt>
      <trkpt lat="45.88243" lon="4.82162">
        <ele>167.54618774414</ele>
        <time>2017-08-09T12:54:32Z</time>
      </trkpt>
      <trkpt lat="45.88247" lon="4.82167">
        <ele>167.56618774414</ele>
        <time>2017-08-09T12:54:33Z</time>
      </trkpt>
      <trkpt lat="45.88252" lon="4.82168">
        <ele>167.60618774414</ele>
        <time>2017-08-09T12:54:34Z</time>
      </trkpt>
      <trkpt lat="45.88257" lon="4.82161">
        <ele>167.65518774414</ele>
        <time>2017-08-09T12:54:35Z</time>
      </trkpt>
      <trkpt lat="45.88258" lon="4.82153">
        <ele>167.69418774414</ele>
        <time>2017-08-09T12:54:37Z</time>
      </trkpt>
      <trkpt lat="45.88256" lon="4.8215">
        <ele>167.75418774414</ele>
        <time>2017-08-09T12:54:37Z</time>
      </trkpt>
      <trkpt lat="45.88253" lon="4.82127">
        <ele>167.85018774414</ele>
        <time>2017-08-09T12:54:41Z</time>
      </trkpt>
      <trkpt lat="45.88276" lon="4.82052">
        <ele>168.30818774414</ele>
        <time>2017-08-09T12:54:53Z</time>
      </trkpt>
      <trkpt lat="45.88354" lon="4.81867">
        <ele>168.85918774414</ele>
        <time>2017-08-09T12:55:23Z</time>
      </trkpt>
      <trkpt lat="45.88412" lon="4.81753">
        <ele>168.54218774414</ele>
        <time>2017-08-09T12:55:41Z</time>
      </trkpt>
      <trkpt lat="45.88423" lon="4.81739">
        <ele>168.45418774414</ele>
        <time>2017-08-09T12:55:43Z</time>
      </trkpt>
      <trkpt lat="45.88477" lon="4.8166">
        <ele>168.19018774414</ele>
        <time>2017-08-09T12:55:57Z</time>
      </trkpt>
      <trkpt lat="45.88576" lon="4.81534">
        <ele>168.22018774414</ele>
        <time>2017-08-09T12:56:22Z</time>
      </trkpt>
      <trkpt lat="45.88588" lon="4.81519">
        <ele>168.33518774414</ele>
        <time>2017-08-09T12:56:25Z</time>
      </trkpt>
      <trkpt lat="45.88593" lon="4.81513">
        <ele>168.32718774414</ele>
        <time>2017-08-09T12:56:26Z</time>
      </trkpt>
      <trkpt lat="45.88696" lon="4.81379">
        <ele>168.60918774414</ele>
        <time>2017-08-09T12:56:53Z</time>
      </trkpt>
      <trkpt lat="45.88785" lon="4.8127">
        <ele>168.05618774414</ele>
        <time>2017-08-09T12:57:14Z</time>
      </trkpt>
      <trkpt lat="45.88838" lon="4.81216">
        <ele>167.62718774414</ele>
        <time>2017-08-09T12:57:25Z</time>
      </trkpt>
      <trkpt lat="45.88879" lon="4.81181">
        <ele>167.37318774414</ele>
        <time>2017-08-09T12:57:33Z</time>
      </trkpt>
      <trkpt lat="45.89184" lon="4.80955">
        <ele>167.83118774414</ele>
        <time>2017-08-09T12:58:39Z</time>
      </trkpt>
      <trkpt lat="45.89233" lon="4.80918">
        <ele>167.82118774414</ele>
        <time>2017-08-09T12:58:49Z</time>
      </trkpt>
      <trkpt lat="45.8924" lon="4.80909">
        <ele>167.77218774414</ele>
        <time>2017-08-09T12:58:51Z</time>
      </trkpt>
      <trkpt lat="45.89313" lon="4.80866">
        <ele>167.36818774414</ele>
        <time>2017-08-09T12:59:04Z</time>
      </trkpt>
      <trkpt lat="45.89336" lon="4.80852">
        <ele>167.27018774414</ele>
        <time>2017-08-09T12:59:08Z</time>
      </trkpt>
      <trkpt lat="45.8936" lon="4.80838">
        <ele>167.23218774414</ele>
        <time>2017-08-09T12:59:13Z</time>
      </trkpt>
      <trkpt lat="45.89383" lon="4.80824">
        <ele>167.20918774414</ele>
        <time>2017-08-09T12:59:17Z</time>
      </trkpt>
      <trkpt lat="45.89407" lon="4.80809">
        <ele>167.24518774414</ele>
        <time>2017-08-09T12:59:22Z</time>
      </trkpt>
      <trkpt lat="45.89429" lon="4.80797">
        <ele>167.31718774414</ele>
        <time>2017-08-09T12:59:26Z</time>
      </trkpt>
      <trkpt lat="45.89443" lon="4.80787">
        <ele>167.35518774414</ele>
        <time>2017-08-09T12:59:29Z</time>
      </trkpt>
      <trkpt lat="45.89559" lon="4.80724">
        <ele>168.26918774414</ele>
        <time>2017-08-09T13:00:10Z</time>
      </trkpt>
      <trkpt lat="45.896" lon="4.80711">
        <ele>168.73318774414</ele>
        <time>2017-08-09T13:00:24Z</time>
      </trkpt>
      <trkpt lat="45.8964" lon="4.80708">
        <ele>169.14018774414</ele>
        <time>2017-08-09T13:00:37Z</time>
      </trkpt>
      <trkpt lat="45.89648" lon="4.80707">
        <ele>169.14518774414</ele>
        <time>2017-08-09T13:00:40Z</time>
      </trkpt>
      <trkpt lat="45.89664" lon="4.80698">
        <ele>169.33118774414</ele>
        <time>2017-08-09T13:00:45Z</time>
      </trkpt>
      <trkpt lat="45.89676" lon="4.80689">
        <ele>169.40018774414</ele>
        <time>2017-08-09T13:00:50Z</time>
      </trkpt>
      <trkpt lat="45.8969" lon="4.80683">
        <ele>169.46618774414</ele>
        <time>2017-08-09T13:00:54Z</time>
      </trkpt>
      <trkpt lat="45.89716" lon="4.80664">
        <ele>169.58218774414</ele>
        <time>2017-08-09T13:01:04Z</time>
      </trkpt>
      <trkpt lat="45.89859" lon="4.80545">
        <ele>169.67118774414</ele>
        <time>2017-08-09T13:01:53Z</time>
      </trkpt>
      <trkpt lat="45.89923" lon="4.80516">
        <ele>169.67318774414</ele>
        <time>2017-08-09T13:02:13Z</time>
      </trkpt>
      <trkpt lat="45.89966" lon="4.80507">
        <ele>169.67818774414</ele>
        <time>2017-08-09T13:02:26Z</time>
      </trkpt>
      <trkpt lat="45.89994" lon="4.80505">
        <ele>169.70118774414</ele>
        <time>2017-08-09T13:02:34Z</time>
      </trkpt>
      <trkpt lat="45.90073" lon="4.80513">
        <ele>169.82018774414</ele>
        <time>2017-08-09T13:02:58Z</time>
      </trkpt>
      <trkpt lat="45.90131" lon="4.80525">
        <ele>170.04418774414</ele>
        <time>2017-08-09T13:03:16Z</time>
      </trkpt>
      <trkpt lat="45.90185" lon="4.80549">
        <ele>170.38718774414</ele>
        <time>2017-08-09T13:03:34Z</time>
      </trkpt>
      <trkpt lat="45.90256" lon="4.80593">
        <ele>170.88318774414</ele>
        <time>2017-08-09T13:03:59Z</time>
      </trkpt>
      <trkpt lat="45.9032" lon="4.80652">
        <ele>171.31818774414</ele>
        <time>2017-08-09T13:04:24Z</time>
      </trkpt>
      <trkpt lat="45.90363" lon="4.80699">
        <ele>171.47818774414</ele>
        <time>2017-08-09T13:04:40Z</time>
      </trkpt>
      <trkpt lat="45.904" lon="4.80764">
        <ele>171.45018774414</ele>
        <time>2017-08-09T13:04:58Z</time>
      </trkpt>
      <trkpt lat="45.90433" lon="4.80836">
        <ele>171.05818774414</ele>
        <time>2017-08-09T13:05:15Z</time>
      </trkpt>
      <trkpt lat="45.9048" lon="4.80923">
        <ele>170.14918774414</ele>
        <time>2017-08-09T13:05:35Z</time>
      </trkpt>
      <trkpt lat="45.90556" lon="4.81018">
        <ele>169.12818774414</ele>
        <time>2017-08-09T13:06:03Z</time>
      </trkpt>
      <trkpt lat="45.90564" lon="4.81027">
        <ele>169.03418774414</ele>
        <time>2017-08-09T13:06:05Z</time>
      </trkpt>
      <trkpt lat="45.90636" lon="4.81105">
        <ele>168.49418774414</ele>
        <time>2017-08-09T13:06:21Z</time>
      </trkpt>
      <trkpt lat="45.90701" lon="4.8115">
        <ele>168.52718774414</ele>
        <time>2017-08-09T13:06:34Z</time>
      </trkpt>
      <trkpt lat="45.90714" lon="4.81159">
        <ele>168.56418774414</ele>
        <time>2017-08-09T13:06:37Z</time>
      </trkpt>
      <trkpt lat="45.90733" lon="4.81168">
        <ele>168.61918774414</ele>
        <time>2017-08-09T13:06:41Z</time>
      </trkpt>
      <trkpt lat="45.9076" lon="4.81181">
        <ele>168.66718774414</ele>
        <time>2017-08-09T13:06:46Z</time>
      </trkpt>
      <trkpt lat="45.90847" lon="4.81209">
        <ele>168.63818774414</ele>
        <time>2017-08-09T13:07:03Z</time>
      </trkpt>
      <trkpt lat="45.90918" lon="4.81228">
        <ele>168.63318774414</ele>
        <time>2017-08-09T13:07:16Z</time>
      </trkpt>
      <trkpt lat="45.90997" lon="4.81244">
        <ele>168.67018774414</ele>
        <time>2017-08-09T13:07:31Z</time>
      </trkpt>
      <trkpt lat="45.91014" lon="4.8123">
        <ele>168.71118774414</ele>
        <time>2017-08-09T13:07:35Z</time>
      </trkpt>
      <trkpt lat="45.91037" lon="4.81193">
        <ele>168.77418774414</ele>
        <time>2017-08-09T13:07:41Z</time>
      </trkpt>
      <trkpt lat="45.91063" lon="4.81174">
        <ele>168.82418774414</ele>
        <time>2017-08-09T13:07:47Z</time>
      </trkpt>
      <trkpt lat="45.91114" lon="4.8117">
        <ele>168.83218774414</ele>
        <time>2017-08-09T13:07:57Z</time>
      </trkpt>
      <trkpt lat="45.91181" lon="4.81161">
        <ele>168.69918774414</ele>
        <time>2017-08-09T13:08:09Z</time>
      </trkpt>
      <trkpt lat="45.91191" lon="4.81159">
        <ele>168.65418774414</ele>
        <time>2017-08-09T13:08:10Z</time>
      </trkpt>
      <trkpt lat="45.91216" lon="4.81159">
        <ele>168.61318774414</ele>
        <time>2017-08-09T13:08:15Z</time>
      </trkpt>
      <trkpt lat="45.9125" lon="4.81159">
        <ele>168.56318774414</ele>
        <time>2017-08-09T13:08:21Z</time>
      </trkpt>
      <trkpt lat="45.91265" lon="4.81159">
        <ele>168.53718774414</ele>
        <time>2017-08-09T13:08:24Z</time>
      </trkpt>
      <trkpt lat="45.9131" lon="4.81159">
        <ele>168.55318774414</ele>
        <time>2017-08-09T13:08:32Z</time>
      </trkpt>
      <trkpt lat="45.91315" lon="4.81159">
        <ele>168.56018774414</ele>
        <time>2017-08-09T13:08:33Z</time>
      </trkpt>
      <trkpt lat="45.91354" lon="4.81158">
        <ele>168.64018774414</ele>
        <time>2017-08-09T13:08:41Z</time>
      </trkpt>
      <trkpt lat="45.91378" lon="4.81163">
        <ele>168.71518774414</ele>
        <time>2017-08-09T13:08:46Z</time>
      </trkpt>
      <trkpt lat="45.91398" lon="4.81172">
        <ele>168.82818774414</ele>
        <time>2017-08-09T13:08:50Z</time>
      </trkpt>
      <trkpt lat="45.91433" lon="4.81199">
        <ele>169.15518774414</ele>
        <time>2017-08-09T13:08:59Z</time>
      </trkpt>
      <trkpt lat="45.91457" lon="4.81211">
        <ele>169.41118774414</ele>
        <time>2017-08-09T13:09:04Z</time>
      </trkpt>
      <trkpt lat="45.91558" lon="4.8121">
        <ele>170.42818774414</ele>
        <time>2017-08-09T13:09:27Z</time>
      </trkpt>
      <trkpt lat="45.91655" lon="4.81207">
        <ele>170.69218774414</ele>
        <time>2017-08-09T13:09:46Z</time>
      </trkpt>
      <trkpt lat="45.91733" lon="4.81195">
        <ele>170.23718774414</ele>
        <time>2017-08-09T13:10:00Z</time>
      </trkpt>
      <trkpt lat="45.91794" lon="4.81183">
        <ele>169.61618774414</ele>
        <time>2017-08-09T13:10:10Z</time>
      </trkpt>
      <trkpt lat="45.91908" lon="4.8115">
        <ele>168.79818774414</ele>
        <time>2017-08-09T13:10:30Z</time>
      </trkpt>
      <trkpt lat="45.9191" lon="4.81149">
        <ele>168.75718774414</ele>
        <time>2017-08-09T13:10:30Z</time>
      </trkpt>
      <trkpt lat="45.91938" lon="4.81134">
        <ele>168.69018774414</ele>
        <time>2017-08-09T13:10:36Z</time>
      </trkpt>
      <trkpt lat="45.92011" lon="4.81095">
        <ele>168.55318774414</ele>
        <time>2017-08-09T13:10:50Z</time>
      </trkpt>
      <trkpt lat="45.9204" lon="4.81069">
        <ele>168.64718774414</ele>
        <time>2017-08-09T13:10:56Z</time>
      </trkpt>
      <trkpt lat="45.92068" lon="4.81046">
        <ele>168.87118774414</ele>
        <time>2017-08-09T13:11:03Z</time>
      </trkpt>
      <trkpt lat="45.92102" lon="4.81019">
        <ele>169.15318774414</ele>
        <time>2017-08-09T13:11:12Z</time>
      </trkpt>
      <trkpt lat="45.92175" lon="4.80932">
        <ele>169.33118774414</ele>
        <time>2017-08-09T13:11:30Z</time>
      </trkpt>
      <trkpt lat="45.92182" lon="4.80918">
        <ele>169.36718774414</ele>
        <time>2017-08-09T13:11:32Z</time>
      </trkpt>
      <trkpt lat="45.92219" lon="4.80855">
        <ele>169.23318774414</ele>
        <time>2017-08-09T13:11:45Z</time>
      </trkpt>
      <trkpt lat="45.9224" lon="4.80817">
        <ele>169.14918774414</ele>
        <time>2017-08-09T13:11:53Z</time>
      </trkpt>
      <trkpt lat="45.92277" lon="4.80712">
        <ele>168.84618774414</ele>
        <time>2017-08-09T13:12:12Z</time>
      </trkpt>
      <trkpt lat="45.92294" lon="4.80633">
        <ele>168.37618774414</ele>
        <time>2017-08-09T13:12:24Z</time>
      </trkpt>
      <trkpt lat="45.92339" lon="4.80376">
        <ele>168.43918774414</ele>
        <time>2017-08-09T13:13:08Z</time>
      </trkpt>
      <trkpt lat="45.92342" lon="4.80359">
        <ele>168.51418774414</ele>
        <time>2017-08-09T13:13:11Z</time>
      </trkpt>
      <trkpt lat="45.92357" lon="4.80283">
        <ele>168.73118774414</ele>
        <time>2017-08-09T13:13:25Z</time>
      </trkpt>
      <trkpt lat="45.92372" lon="4.80182">
        <ele>168.98418774414</ele>
        <time>2017-08-09T13:13:43Z</time>
      </trkpt>
      <trkpt lat="45.92376" lon="4.80124">
        <ele>169.08518774414</ele>
        <time>2017-08-09T13:13:52Z</time>
      </trkpt>
      <trkpt lat="45.92374" lon="4.80042">
        <ele>169.00818774414</ele>
        <time>2017-08-09T13:14:06Z</time>
      </trkpt>
      <trkpt lat="45.92348" lon="4.79685">
        <ele>168.02818774414</ele>
        <time>2017-08-09T13:15:02Z</time>
      </trkpt>
      <trkpt lat="45.92339" lon="4.79621">
        <ele>167.95718774414</ele>
        <time>2017-08-09T13:15:13Z</time>
      </trkpt>
      <trkpt lat="45.9233" lon="4.79504">
        <ele>167.98418774414</ele>
        <time>2017-08-09T13:15:32Z</time>
      </trkpt>
      <trkpt lat="45.92321" lon="4.79457">
        <ele>168.05018774414</ele>
        <time>2017-08-09T13:15:40Z</time>
      </trkpt>
      <trkpt lat="45.92317" lon="4.79355">
        <ele>168.21718774414</ele>
        <time>2017-08-09T13:15:57Z</time>
      </trkpt>
      <trkpt lat="45.92318" lon="4.79263">
        <ele>168.46518774414</ele>
        <time>2017-08-09T13:16:14Z</time>
      </trkpt>
      <trkpt lat="45.92324" lon="4.79228">
        <ele>168.59818774414</ele>
        <time>2017-08-09T13:16:20Z</time>
      </trkpt>
      <trkpt lat="45.92352" lon="4.79157">
        <ele>168.93018774414</ele>
        <time>2017-08-09T13:16:35Z</time>
      </trkpt>
      <trkpt lat="45.92435" lon="4.79019">
        <ele>169.68418774414</ele>
        <time>2017-08-09T13:17:07Z</time>
      </trkpt>
      <trkpt lat="45.92487" lon="4.78966">
        <ele>170.09118774414</ele>
        <time>2017-08-09T13:17:24Z</time>
      </trkpt>
      <trkpt lat="45.9252" lon="4.78937">
        <ele>170.30118774414</ele>
        <time>2017-08-09T13:17:34Z</time>
      </trkpt>
      <trkpt lat="45.92565" lon="4.78909">
        <ele>170.47018774414</ele>
        <time>2017-08-09T13:17:46Z</time>
      </trkpt>
      <trkpt lat="45.92638" lon="4.78873">
        <ele>170.54618774414</ele>
        <time>2017-08-09T13:18:04Z</time>
      </trkpt>
      <trkpt lat="45.92811" lon="4.78756">
        <ele>169.92918774414</ele>
        <time>2017-08-09T13:18:48Z</time>
      </trkpt>
      <trkpt lat="45.93121" lon="4.78533">
        <ele>168.24118774414</ele>
        <time>2017-08-09T13:20:05Z</time>
      </trkpt>
      <trkpt lat="45.93144" lon="4.78516">
        <ele>168.27118774414</ele>
        <time>2017-08-09T13:20:11Z</time>
      </trkpt>
      <trkpt lat="45.93147" lon="4.78513">
        <ele>168.27018774414</ele>
        <time>2017-08-09T13:20:12Z</time>
      </trkpt>
      <trkpt lat="45.93154" lon="4.78508">
        <ele>168.27418774414</ele>
        <time>2017-08-09T13:20:14Z</time>
      </trkpt>
      <trkpt lat="45.93163" lon="4.78502">
        <ele>168.33218774414</ele>
        <time>2017-08-09T13:20:17Z</time>
      </trkpt>
      <trkpt lat="45.9328" lon="4.78422">
        <ele>169.04618774414</ele>
        <time>2017-08-09T13:20:50Z</time>
      </trkpt>
      <trkpt lat="45.93376" lon="4.78353">
        <ele>170.13218774414</ele>
        <time>2017-08-09T13:21:19Z</time>
      </trkpt>
      <trkpt lat="45.93435" lon="4.78313">
        <ele>170.74518774414</ele>
        <time>2017-08-09T13:21:37Z</time>
      </trkpt>
      <trkpt lat="45.93528" lon="4.78228">
        <ele>171.60118774414</ele>
        <time>2017-08-09T13:22:06Z</time>
      </trkpt>
      <trkpt lat="45.93566" lon="4.78198">
        <ele>171.90718774414</ele>
        <time>2017-08-09T13:22:18Z</time>
      </trkpt>
      <trkpt lat="45.93666" lon="4.78142">
        <ele>173.19918774414</ele>
        <time>2017-08-09T13:22:48Z</time>
      </trkpt>
      <trkpt lat="45.93683" lon="4.78128">
        <ele>173.52418774414</ele>
        <time>2017-08-09T13:22:54Z</time>
      </trkpt>
      <trkpt lat="45.93696" lon="4.78117">
        <ele>173.70618774414</ele>
        <time>2017-08-09T13:22:58Z</time>
      </trkpt>
      <trkpt lat="45.93706" lon="4.78125">
        <ele>173.95918774414</ele>
        <time>2017-08-09T13:23:01Z</time>
      </trkpt>
      <trkpt lat="45.93755" lon="4.7809">
        <ele>175.06118774414</ele>
        <time>2017-08-09T13:23:16Z</time>
      </trkpt>
      <trkpt lat="45.93809" lon="4.78052">
        <ele>175.54118774414</ele>
        <time>2017-08-09T13:23:29Z</time>
      </trkpt>
      <trkpt lat="45.93832" lon="4.78033">
        <ele>175.64518774414</ele>
        <time>2017-08-09T13:23:34Z</time>
      </trkpt>
      <trkpt lat="45.93838" lon="4.78025">
        <ele>175.72918774414</ele>
        <time>2017-08-09T13:23:36Z</time>
      </trkpt>
      <trkpt lat="45.9384" lon="4.78029">
        <ele>175.78718774414</ele>
        <time>2017-08-09T13:23:37Z</time>
      </trkpt>
      <trkpt lat="45.93843" lon="4.78033">
        <ele>175.81218774414</ele>
        <time>2017-08-09T13:23:38Z</time>
      </trkpt>
      <trkpt lat="45.93846" lon="4.78036">
        <ele>175.83618774414</ele>
        <time>2017-08-09T13:23:38Z</time>
      </trkpt>
      <trkpt lat="45.93851" lon="4.78038">
        <ele>175.81918774414</ele>
        <time>2017-08-09T13:23:39Z</time>
      </trkpt>
      <trkpt lat="45.93855" lon="4.78038">
        <ele>175.65918774414</ele>
        <time>2017-08-09T13:23:40Z</time>
      </trkpt>
      <trkpt lat="45.9386" lon="4.78036">
        <ele>175.51318774414</ele>
        <time>2017-08-09T13:23:41Z</time>
      </trkpt>
      <trkpt lat="45.93864" lon="4.78032">
        <ele>175.47718774414</ele>
        <time>2017-08-09T13:23:41Z</time>
      </trkpt>
      <trkpt lat="45.93867" lon="4.78026">
        <ele>175.50218774414</ele>
        <time>2017-08-09T13:23:42Z</time>
      </trkpt>
      <trkpt lat="45.93868" lon="4.78019">
        <ele>175.57818774414</ele>
        <time>2017-08-09T13:23:43Z</time>
      </trkpt>
      <trkpt lat="45.93868" lon="4.78013">
        <ele>175.59918774414</ele>
        <time>2017-08-09T13:23:44Z</time>
      </trkpt>
      <trkpt lat="45.93867" lon="4.78007">
        <ele>175.60018774414</ele>
        <time>2017-08-09T13:23:45Z</time>
      </trkpt>
      <trkpt lat="45.93865" lon="4.78002">
        <ele>175.53918774414</ele>
        <time>2017-08-09T13:23:46Z</time>
      </trkpt>
      <trkpt lat="45.93867" lon="4.7799">
        <ele>175.20318774414</ele>
        <time>2017-08-09T13:23:47Z</time>
      </trkpt>
      <trkpt lat="45.9388" lon="4.77939">
        <ele>174.68818774414</ele>
        <time>2017-08-09T13:23:53Z</time>
      </trkpt>
      <trkpt lat="45.93885" lon="4.7791">
        <ele>174.58418774414</ele>
        <time>2017-08-09T13:23:56Z</time>
      </trkpt>
      <trkpt lat="45.93899" lon="4.77866">
        <ele>173.88918774414</ele>
        <time>2017-08-09T13:24:01Z</time>
      </trkpt>
      <trkpt lat="45.93907" lon="4.77838">
        <ele>173.19718774414</ele>
        <time>2017-08-09T13:24:04Z</time>
      </trkpt>
      <trkpt lat="45.93912" lon="4.77819">
        <ele>173.05918774414</ele>
        <time>2017-08-09T13:24:06Z</time>
      </trkpt>
      <trkpt lat="45.93917" lon="4.77797">
        <ele>172.41018774414</ele>
        <time>2017-08-09T13:24:08Z</time>
      </trkpt>
      <trkpt lat="45.93923" lon="4.77771">
        <ele>172.23118774414</ele>
        <time>2017-08-09T13:24:11Z</time>
      </trkpt>
      <trkpt lat="45.93956" lon="4.77688">
        <ele>171.65718774414</ele>
        <time>2017-08-09T13:24:22Z</time>
      </trkpt>
      <trkpt lat="45.93968" lon="4.7765">
        <ele>171.54318774414</ele>
        <time>2017-08-09T13:24:27Z</time>
      </trkpt>
      <trkpt lat="45.93976" lon="4.77605">
        <ele>171.62118774414</ele>
        <time>2017-08-09T13:24:33Z</time>
      </trkpt>
      <trkpt lat="45.93988" lon="4.77536">
        <ele>171.60318774414</ele>
        <time>2017-08-09T13:24:42Z</time>
      </trkpt>
      <trkpt lat="45.93999" lon="4.7746">
        <ele>171.32718774414</ele>
        <time>2017-08-09T13:24:51Z</time>
      </trkpt>
      <trkpt lat="45.94001" lon="4.77441">
        <ele>171.36018774414</ele>
        <time>2017-08-09T13:24:53Z</time>
      </trkpt>
      <trkpt lat="45.94003" lon="4.77425">
        <ele>171.24318774414</ele>
        <time>2017-08-09T13:24:55Z</time>
      </trkpt>
      <trkpt lat="45.94008" lon="4.77378">
        <ele>171.06318774414</ele>
        <time>2017-08-09T13:25:01Z</time>
      </trkpt>
      <trkpt lat="45.94008" lon="4.77371">
        <ele>170.96418774414</ele>
        <time>2017-08-09T13:25:01Z</time>
      </trkpt>
      <trkpt lat="45.94013" lon="4.77301">
        <ele>170.47018774414</ele>
        <time>2017-08-09T13:25:09Z</time>
      </trkpt>
      <trkpt lat="45.94004" lon="4.773">
        <ele>170.36918774414</ele>
        <time>2017-08-09T13:25:11Z</time>
      </trkpt>
      <trkpt lat="45.93999" lon="4.77299">
        <ele>170.24118774414</ele>
        <time>2017-08-09T13:25:12Z</time>
      </trkpt>
      <trkpt lat="45.94001" lon="4.7724">
        <ele>169.59418774414</ele>
        <time>2017-08-09T13:25:21Z</time>
      </trkpt>
      <trkpt lat="45.94005" lon="4.77198">
        <ele>169.07918774414</ele>
        <time>2017-08-09T13:25:27Z</time>
      </trkpt>
      <trkpt lat="45.93998" lon="4.77194">
        <ele>168.96518774414</ele>
        <time>2017-08-09T13:25:29Z</time>
      </trkpt>
      <trkpt lat="45.93999" lon="4.77173">
        <ele>168.83618774414</ele>
        <time>2017-08-09T13:25:33Z</time>
      </trkpt>
      <trkpt lat="45.93995" lon="4.77141">
        <ele>168.60018774414</ele>
        <time>2017-08-09T13:25:39Z</time>
      </trkpt>
      <trkpt lat="45.93985" lon="4.77091">
        <ele>168.50818774414</ele>
        <time>2017-08-09T13:25:50Z</time>
      </trkpt>
      <trkpt lat="45.9397" lon="4.77032">
        <ele>168.49418774414</ele>
        <time>2017-08-09T13:26:02Z</time>
      </trkpt>
      <trkpt lat="45.93941" lon="4.76939">
        <ele>168.28618774414</ele>
        <time>2017-08-09T13:26:23Z</time>
      </trkpt>
      <trkpt lat="45.93944" lon="4.76914">
        <ele>168.13618774414</ele>
        <time>2017-08-09T13:26:28Z</time>
      </trkpt>
      <trkpt lat="45.93947" lon="4.7689">
        <ele>168.24018774414</ele>
        <time>2017-08-09T13:26:33Z</time>
      </trkpt>
      <trkpt lat="45.93932" lon="4.76877">
        <ele>168.09618774414</ele>
        <time>2017-08-09T13:26:36Z</time>
      </trkpt>
      <trkpt lat="45.93892" lon="4.76812">
        <ele>168.09718774414</ele>
        <time>2017-08-09T13:26:47Z</time>
      </trkpt>
      <trkpt lat="45.93853" lon="4.76748">
        <ele>167.94518774414</ele>
        <time>2017-08-09T13:26:58Z</time>
      </trkpt>
      <trkpt lat="45.93811" lon="4.76677">
        <ele>167.58618774414</ele>
        <time>2017-08-09T13:27:09Z</time>
      </trkpt>
      <trkpt lat="45.93757" lon="4.76542">
        <ele>167.35118774414</ele>
        <time>2017-08-09T13:27:29Z</time>
      </trkpt>
      <trkpt lat="45.93746" lon="4.7651">
        <ele>167.32418774414</ele>
        <time>2017-08-09T13:27:34Z</time>
      </trkpt>
      <trkpt lat="45.93724" lon="4.76444">
        <ele>167.27418774414</ele>
        <time>2017-08-09T13:27:45Z</time>
      </trkpt>
      <trkpt lat="45.93718" lon="4.76422">
        <ele>167.23418774414</ele>
        <time>2017-08-09T13:27:49Z</time>
      </trkpt>
      <trkpt lat="45.93687" lon="4.76332">
        <ele>167.13018774414</ele>
        <time>2017-08-09T13:28:05Z</time>
      </trkpt>
      <trkpt lat="45.93683" lon="4.7632">
        <ele>167.11518774414</ele>
        <time>2017-08-09T13:28:08Z</time>
      </trkpt>
      <trkpt lat="45.93556" lon="4.75953">
        <ele>166.66318774414</ele>
        <time>2017-08-09T13:29:13Z</time>
      </trkpt>
      <trkpt lat="45.93529" lon="4.75862">
        <ele>166.64018774414</ele>
        <time>2017-08-09T13:29:29Z</time>
      </trkpt>
      <trkpt lat="45.93523" lon="4.75791">
        <ele>166.68818774414</ele>
        <time>2017-08-09T13:29:41Z</time>
      </trkpt>
      <trkpt lat="45.9356" lon="4.75555">
        <ele>167.32418774414</ele>
        <time>2017-08-09T13:30:23Z</time>
      </trkpt>
      <trkpt lat="45.936" lon="4.75315">
        <ele>167.82318774414</ele>
        <time>2017-08-09T13:31:06Z</time>
      </trkpt>
      <trkpt lat="45.93601" lon="4.75313">
        <ele>167.76818774414</ele>
        <time>2017-08-09T13:31:06Z</time>
      </trkpt>
      <trkpt lat="45.93613" lon="4.75251">
        <ele>167.84318774414</ele>
        <time>2017-08-09T13:31:17Z</time>
      </trkpt>
      <trkpt lat="45.93633" lon="4.75184">
        <ele>167.91318774414</ele>
        <time>2017-08-09T13:31:29Z</time>
      </trkpt>
      <trkpt lat="45.93742" lon="4.74933">
        <ele>168.56918774414</ele>
        <time>2017-08-09T13:32:20Z</time>
      </trkpt>
      <trkpt lat="45.93781" lon="4.74862">
        <ele>168.77118774414</ele>
        <time>2017-08-09T13:32:35Z</time>
      </trkpt>
      <trkpt lat="45.93824" lon="4.74785">
        <ele>168.94918774414</ele>
        <time>2017-08-09T13:32:52Z</time>
      </trkpt>
      <trkpt lat="45.93859" lon="4.74704">
        <ele>169.12818774414</ele>
        <time>2017-08-09T13:33:08Z</time>
      </trkpt>
      <trkpt lat="45.93883" lon="4.74633">
        <ele>169.31218774414</ele>
        <time>2017-08-09T13:33:22Z</time>
      </trkpt>
      <trkpt lat="45.93901" lon="4.74561">
        <ele>169.71218774414</ele>
        <time>2017-08-09T13:33:36Z</time>
      </trkpt>
      <trkpt lat="45.93907" lon="4.74509">
        <ele>169.98718774414</ele>
        <time>2017-08-09T13:33:46Z</time>
      </trkpt>
      <trkpt lat="45.93908" lon="4.74475">
        <ele>170.11518774414</ele>
        <time>2017-08-09T13:33:52Z</time>
      </trkpt>
      <trkpt lat="45.93908" lon="4.74433">
        <ele>170.28918774414</ele>
        <time>2017-08-09T13:33:59Z</time>
      </trkpt>
      <trkpt lat="45.93905" lon="4.74402">
        <ele>170.40118774414</ele>
        <time>2017-08-09T13:34:05Z</time>
      </trkpt>
      <trkpt lat="45.93902" lon="4.74371">
        <ele>170.49318774414</ele>
        <time>2017-08-09T13:34:11Z</time>
      </trkpt>
      <trkpt lat="45.93902" lon="4.74334">
        <ele>170.62218774414</ele>
        <time>2017-08-09T13:34:17Z</time>
      </trkpt>
      <trkpt lat="45.93904" lon="4.74251">
        <ele>170.78118774414</ele>
        <time>2017-08-09T13:34:31Z</time>
      </trkpt>
      <trkpt lat="45.9392" lon="4.74042">
        <ele>170.28218774414</ele>
        <time>2017-08-09T13:35:04Z</time>
      </trkpt>
      <trkpt lat="45.93925" lon="4.73992">
        <ele>170.23218774414</ele>
        <time>2017-08-09T13:35:13Z</time>
      </trkpt>
      <trkpt lat="45.93927" lon="4.73972">
        <ele>170.18618774414</ele>
        <time>2017-08-09T13:35:16Z</time>
      </trkpt>
      <trkpt lat="45.93936" lon="4.73895">
        <ele>170.23418774414</ele>
        <time>2017-08-09T13:35:29Z</time>
      </trkpt>
      <trkpt lat="45.9394" lon="4.73862">
        <ele>170.20818774414</ele>
        <time>2017-08-09T13:35:34Z</time>
      </trkpt>
      <trkpt lat="45.93941" lon="4.73851">
        <ele>170.23618774414</ele>
        <time>2017-08-09T13:35:36Z</time>
      </trkpt>
      <trkpt lat="45.9395" lon="4.73761">
        <ele>170.08918774414</ele>
        <time>2017-08-09T13:35:51Z</time>
      </trkpt>
      <trkpt lat="45.93955" lon="4.73717">
        <ele>170.05818774414</ele>
        <time>2017-08-09T13:35:58Z</time>
      </trkpt>
      <trkpt lat="45.93961" lon="4.73675">
        <ele>170.02818774414</ele>
        <time>2017-08-09T13:36:05Z</time>
      </trkpt>
      <trkpt lat="45.93977" lon="4.736">
        <ele>169.98218774414</ele>
        <time>2017-08-09T13:36:17Z</time>
      </trkpt>
      <trkpt lat="45.93989" lon="4.73564">
        <ele>169.92618774414</ele>
        <time>2017-08-09T13:36:24Z</time>
      </trkpt>
      <trkpt lat="45.94021" lon="4.73491">
        <ele>169.86518774414</ele>
        <time>2017-08-09T13:36:38Z</time>
      </trkpt>
      <trkpt lat="45.94054" lon="4.73432">
        <ele>169.81818774414</ele>
        <time>2017-08-09T13:36:50Z</time>
      </trkpt>
      <trkpt lat="45.9413" lon="4.73313">
        <ele>170.06518774414</ele>
        <time>2017-08-09T13:37:17Z</time>
      </trkpt>
      <trkpt lat="45.94154" lon="4.7328">
        <ele>170.11518774414</ele>
        <time>2017-08-09T13:37:25Z</time>
      </trkpt>
      <trkpt lat="45.94183" lon="4.73249">
        <ele>170.10818774414</ele>
        <time>2017-08-09T13:37:34Z</time>
      </trkpt>
      <trkpt lat="45.94261" lon="4.73186">
        <ele>169.78818774414</ele>
        <time>2017-08-09T13:37:54Z</time>
      </trkpt>
      <trkpt lat="45.94355" lon="4.73109">
        <ele>169.13118774414</ele>
        <time>2017-08-09T13:38:18Z</time>
      </trkpt>
      <trkpt lat="45.94394" lon="4.73075">
        <ele>169.18418774414</ele>
        <time>2017-08-09T13:38:29Z</time>
      </trkpt>
      <trkpt lat="45.9442" lon="4.73045">
        <ele>169.36818774414</ele>
        <time>2017-08-09T13:38:37Z</time>
      </trkpt>
      <trkpt lat="45.9444" lon="4.73019">
        <ele>169.44018774414</ele>
        <time>2017-08-09T13:38:44Z</time>
      </trkpt>
      <trkpt lat="45.94443" lon="4.73017">
        <ele>169.45818774414</ele>
        <time>2017-08-09T13:38:45Z</time>
      </trkpt>
      <trkpt lat="45.94448" lon="4.73013">
        <ele>169.59718774414</ele>
        <time>2017-08-09T13:38:47Z</time>
      </trkpt>
      <trkpt lat="45.94533" lon="4.73008">
        <ele>170.24518774414</ele>
        <time>2017-08-09T13:39:09Z</time>
      </trkpt>
      <trkpt lat="45.94548" lon="4.73007">
        <ele>170.43818774414</ele>
        <time>2017-08-09T13:39:14Z</time>
      </trkpt>
      <trkpt lat="45.94581" lon="4.73011">
        <ele>170.85418774414</ele>
        <time>2017-08-09T13:39:23Z</time>
      </trkpt>
      <trkpt lat="45.94653" lon="4.73023">
        <ele>171.69418774414</ele>
        <time>2017-08-09T13:39:43Z</time>
      </trkpt>
      <trkpt lat="45.94694" lon="4.73039">
        <ele>172.00218774414</ele>
        <time>2017-08-09T13:39:54Z</time>
      </trkpt>
      <trkpt lat="45.94704" lon="4.73043">
        <ele>172.06318774414</ele>
        <time>2017-08-09T13:39:57Z</time>
      </trkpt>
      <trkpt lat="45.94756" lon="4.7307">
        <ele>172.20918774414</ele>
        <time>2017-08-09T13:40:10Z</time>
      </trkpt>
      <trkpt lat="45.94831" lon="4.7311">
        <ele>172.57418774414</ele>
        <time>2017-08-09T13:40:31Z</time>
      </trkpt>
      <trkpt lat="45.9494" lon="4.73189">
        <ele>173.60118774414</ele>
        <time>2017-08-09T13:41:03Z</time>
      </trkpt>
      <trkpt lat="45.94975" lon="4.7322">
        <ele>174.17018774414</ele>
        <time>2017-08-09T13:41:15Z</time>
      </trkpt>
      <trkpt lat="45.95073" lon="4.73322">
        <ele>176.40318774414</ele>
        <time>2017-08-09T13:41:53Z</time>
      </trkpt>
      <trkpt lat="45.9513" lon="4.73388">
        <ele>177.95918774414</ele>
        <time>2017-08-09T13:42:16Z</time>
      </trkpt>
      <trkpt lat="45.95185" lon="4.73469">
        <ele>179.33318774414</ele>
        <time>2017-08-09T13:42:40Z</time>
      </trkpt>
      <trkpt lat="45.95208" lon="4.7351">
        <ele>179.80718774414</ele>
        <time>2017-08-09T13:42:50Z</time>
      </trkpt>
      <trkpt lat="45.9524" lon="4.7356">
        <ele>180.28218774414</ele>
        <time>2017-08-09T13:43:03Z</time>
      </trkpt>
      <trkpt lat="45.95249" lon="4.73568">
        <ele>180.24518774414</ele>
        <time>2017-08-09T13:43:06Z</time>
      </trkpt>
      <trkpt lat="45.95298" lon="4.73621">
        <ele>180.57318774414</ele>
        <time>2017-08-09T13:43:21Z</time>
      </trkpt>
      <trkpt lat="45.95538" lon="4.73973">
        <ele>179.66418774414</ele>
        <time>2017-08-09T13:44:40Z</time>
      </trkpt>
      <trkpt lat="45.9569" lon="4.74222">
        <ele>179.34418774414</ele>
        <time>2017-08-09T13:45:33Z</time>
      </trkpt>
      <trkpt lat="45.9591" lon="4.74621">
        <ele>177.93718774414</ele>
        <time>2017-08-09T13:46:53Z</time>
      </trkpt>
      <trkpt lat="45.95933" lon="4.74663">
        <ele>177.88418774414</ele>
        <time>2017-08-09T13:47:01Z</time>
      </trkpt>
      <trkpt lat="45.95973" lon="4.74723">
        <ele>177.81618774414</ele>
        <time>2017-08-09T13:47:15Z</time>
      </trkpt>
      <trkpt lat="45.95989" lon="4.74742">
        <ele>177.74818774414</ele>
        <time>2017-08-09T13:47:20Z</time>
      </trkpt>
      <trkpt lat="45.96028" lon="4.74783">
        <ele>177.63418774414</ele>
        <time>2017-08-09T13:47:31Z</time>
      </trkpt>
      <trkpt lat="45.96084" lon="4.74862">
        <ele>177.18818774414</ele>
        <time>2017-08-09T13:47:48Z</time>
      </trkpt>
      <trkpt lat="45.96182" lon="4.74976">
        <ele>175.92918774414</ele>
        <time>2017-08-09T13:48:15Z</time>
      </trkpt>
      <trkpt lat="45.96198" lon="4.74989">
        <ele>175.91418774414</ele>
        <time>2017-08-09T13:48:19Z</time>
      </trkpt>
      <trkpt lat="45.96211" lon="4.74997">
        <ele>175.81918774414</ele>
        <time>2017-08-09T13:48:22Z</time>
      </trkpt>
      <trkpt lat="45.96225" lon="4.75011">
        <ele>175.88018774414</ele>
        <time>2017-08-09T13:48:27Z</time>
      </trkpt>
      <trkpt lat="45.96269" lon="4.75054">
        <ele>176.10318774414</ele>
        <time>2017-08-09T13:48:40Z</time>
      </trkpt>
      <trkpt lat="45.96324" lon="4.75093">
        <ele>176.96018774414</ele>
        <time>2017-08-09T13:48:58Z</time>
      </trkpt>
      <trkpt lat="45.96388" lon="4.75157">
        <ele>178.80518774414</ele>
        <time>2017-08-09T13:49:23Z</time>
      </trkpt>
      <trkpt lat="45.96676" lon="4.7539">
        <ele>187.21818774414</ele>
        <time>2017-08-09T13:51:15Z</time>
      </trkpt>
      <trkpt lat="45.96753" lon="4.75445">
        <ele>186.77418774414</ele>
        <time>2017-08-09T13:51:34Z</time>
      </trkpt>
      <trkpt lat="45.96772" lon="4.75447">
        <ele>186.37318774414</ele>
        <time>2017-08-09T13:51:37Z</time>
      </trkpt>
      <trkpt lat="45.96896" lon="4.75501">
        <ele>183.23118774414</ele>
        <time>2017-08-09T13:52:03Z</time>
      </trkpt>
      <trkpt lat="45.96968" lon="4.75526">
        <ele>181.41518774414</ele>
        <time>2017-08-09T13:52:17Z</time>
      </trkpt>
      <trkpt lat="45.97027" lon="4.75541">
        <ele>180.30018774414</ele>
        <time>2017-08-09T13:52:29Z</time>
      </trkpt>
      <trkpt lat="45.97043" lon="4.75542">
        <ele>180.02018774414</ele>
        <time>2017-08-09T13:52:32Z</time>
      </trkpt>
      <trkpt lat="45.97101" lon="4.75563">
        <ele>179.07718774414</ele>
        <time>2017-08-09T13:52:45Z</time>
      </trkpt>
      <trkpt lat="45.97149" lon="4.756">
        <ele>178.24918774414</ele>
        <time>2017-08-09T13:52:56Z</time>
      </trkpt>
      <trkpt lat="45.97202" lon="4.75626">
        <ele>177.40118774414</ele>
        <time>2017-08-09T13:53:08Z</time>
      </trkpt>
      <trkpt lat="45.97314" lon="4.75655">
        <ele>175.56018774414</ele>
        <time>2017-08-09T13:53:31Z</time>
      </trkpt>
      <trkpt lat="45.97337" lon="4.75658">
        <ele>175.14518774414</ele>
        <time>2017-08-09T13:53:36Z</time>
      </trkpt>
      <trkpt lat="45.97444" lon="4.75654">
        <ele>173.21118774414</ele>
        <time>2017-08-09T13:53:57Z</time>
      </trkpt>
      <trkpt lat="45.97492" lon="4.75658">
        <ele>172.38118774414</ele>
        <time>2017-08-09T13:54:07Z</time>
      </trkpt>
      <trkpt lat="45.97621" lon="4.7562">
        <ele>170.56618774414</ele>
        <time>2017-08-09T13:54:34Z</time>
      </trkpt>
      <trkpt lat="45.97657" lon="4.75596">
        <ele>170.14418774414</ele>
        <time>2017-08-09T13:54:43Z</time>
      </trkpt>
      <trkpt lat="45.97669" lon="4.75593">
        <ele>169.99818774414</ele>
        <time>2017-08-09T13:54:45Z</time>
      </trkpt>
      <trkpt lat="45.97711" lon="4.75575">
        <ele>169.61318774414</ele>
        <time>2017-08-09T13:54:55Z</time>
      </trkpt>
      <trkpt lat="45.97793" lon="4.75529">
        <ele>169.01218774414</ele>
        <time>2017-08-09T13:55:14Z</time>
      </trkpt>
      <trkpt lat="45.97833" lon="4.75502">
        <ele>168.75018774414</ele>
        <time>2017-08-09T13:55:24Z</time>
      </trkpt>
      <trkpt lat="45.97977" lon="4.75415">
        <ele>168.75118774414</ele>
        <time>2017-08-09T13:56:01Z</time>
      </trkpt>
      <trkpt lat="45.98026" lon="4.75388">
        <ele>169.21418774414</ele>
        <time>2017-08-09T13:56:15Z</time>
      </trkpt>
      <trkpt lat="45.98048" lon="4.75373">
        <ele>169.56518774414</ele>
        <time>2017-08-09T13:56:22Z</time>
      </trkpt>
      <trkpt lat="45.98123" lon="4.75329">
        <ele>170.74618774414</ele>
        <time>2017-08-09T13:56:46Z</time>
      </trkpt>
      <trkpt lat="45.98132" lon="4.75329">
        <ele>170.90218774414</ele>
        <time>2017-08-09T13:56:48Z</time>
      </trkpt>
      <trkpt lat="45.98145" lon="4.7534">
        <ele>171.15418774414</ele>
        <time>2017-08-09T13:56:53Z</time>
      </trkpt>
      <trkpt lat="45.98164" lon="4.75325">
        <ele>171.46218774414</ele>
        <time>2017-08-09T13:56:58Z</time>
      </trkpt>
      <trkpt lat="45.98192" lon="4.75312">
        <ele>171.88718774414</ele>
        <time>2017-08-09T13:57:05Z</time>
      </trkpt>
      <trkpt lat="45.98204" lon="4.75311">
        <ele>172.04018774414</ele>
        <time>2017-08-09T13:57:08Z</time>
      </trkpt>
      <trkpt lat="45.98254" lon="4.75328">
        <ele>172.61518774414</ele>
        <time>2017-08-09T13:57:19Z</time>
      </trkpt>
      <trkpt lat="45.98281" lon="4.75331">
        <ele>172.87618774414</ele>
        <time>2017-08-09T13:57:25Z</time>
      </trkpt>
      <trkpt lat="45.98365" lon="4.75307">
        <ele>173.14918774414</ele>
        <time>2017-08-09T13:57:41Z</time>
      </trkpt>
      <trkpt lat="45.98412" lon="4.75302">
        <ele>173.16718774414</ele>
        <time>2017-08-09T13:57:50Z</time>
      </trkpt>
      <trkpt lat="45.9844" lon="4.75304">
        <ele>173.18118774414</ele>
        <time>2017-08-09T13:57:55Z</time>
      </trkpt>
      <trkpt lat="45.98482" lon="4.75309">
        <ele>173.24218774414</ele>
        <time>2017-08-09T13:58:02Z</time>
      </trkpt>
      <trkpt lat="45.98513" lon="4.75311">
        <ele>173.27718774414</ele>
        <time>2017-08-09T13:58:08Z</time>
      </trkpt>
      <trkpt lat="45.98519" lon="4.75312">
        <ele>173.27518774414</ele>
        <time>2017-08-09T13:58:09Z</time>
      </trkpt>
      <trkpt lat="45.98522" lon="4.75317">
        <ele>173.27318774414</ele>
        <time>2017-08-09T13:58:10Z</time>
      </trkpt>
      <trkpt lat="45.98525" lon="4.75319">
        <ele>173.27418774414</ele>
        <time>2017-08-09T13:58:11Z</time>
      </trkpt>
      <trkpt lat="45.98534" lon="4.75335">
        <ele>173.29718774414</ele>
        <time>2017-08-09T13:58:13Z</time>
      </trkpt>
      <trkpt lat="45.98542" lon="4.75371">
        <ele>173.31118774414</ele>
        <time>2017-08-09T13:58:18Z</time>
      </trkpt>
      <trkpt lat="45.98546" lon="4.75391">
        <ele>173.33818774414</ele>
        <time>2017-08-09T13:58:21Z</time>
      </trkpt>
      <trkpt lat="45.98554" lon="4.75439">
        <ele>173.35818774414</ele>
        <time>2017-08-09T13:58:27Z</time>
      </trkpt>
      <trkpt lat="45.9856" lon="4.75437">
        <ele>173.36218774414</ele>
        <time>2017-08-09T13:58:28Z</time>
      </trkpt>
      <trkpt lat="45.98567" lon="4.75435">
        <ele>173.34618774414</ele>
        <time>2017-08-09T13:58:29Z</time>
      </trkpt>
      <trkpt lat="45.98667" lon="4.75416">
        <ele>173.01318774414</ele>
        <time>2017-08-09T13:58:47Z</time>
      </trkpt>
      <trkpt lat="45.98682" lon="4.75412">
        <ele>172.87618774414</ele>
        <time>2017-08-09T13:58:50Z</time>
      </trkpt>
      <trkpt lat="45.98689" lon="4.75399">
        <ele>172.73118774414</ele>
        <time>2017-08-09T13:58:52Z</time>
      </trkpt>
      <trkpt lat="45.98698" lon="4.7538">
        <ele>172.58118774414</ele>
        <time>2017-08-09T13:58:54Z</time>
      </trkpt>
      <trkpt lat="45.98702" lon="4.75217">
        <ele>171.12518774414</ele>
        <time>2017-08-09T13:59:13Z</time>
      </trkpt>
      <trkpt lat="45.98719" lon="4.75213">
        <ele>170.83818774414</ele>
        <time>2017-08-09T13:59:16Z</time>
      </trkpt>
      <trkpt lat="45.98726" lon="4.75218">
        <ele>170.76118774414</ele>
        <time>2017-08-09T13:59:18Z</time>
      </trkpt>
      <trkpt lat="45.98772" lon="4.75214">
        <ele>170.18918774414</ele>
        <time>2017-08-09T13:59:28Z</time>
      </trkpt>
      <trkpt lat="45.98784" lon="4.75218">
        <ele>170.01618774414</ele>
        <time>2017-08-09T13:59:30Z</time>
      </trkpt>
      <trkpt lat="45.98906" lon="4.75203">
        <ele>169.11318774414</ele>
        <time>2017-08-09T13:59:57Z</time>
      </trkpt>
      <trkpt lat="45.98924" lon="4.75194">
        <ele>169.05118774414</ele>
        <time>2017-08-09T14:00:01Z</time>
      </trkpt>
      <trkpt lat="45.99018" lon="4.7519">
        <ele>168.87418774414</ele>
        <time>2017-08-09T14:00:23Z</time>
      </trkpt>
      <trkpt lat="45.9911" lon="4.75193">
        <ele>168.86818774414</ele>
        <time>2017-08-09T14:00:44Z</time>
      </trkpt>
      <trkpt lat="45.99182" lon="4.75201">
        <ele>168.91518774414</ele>
        <time>2017-08-09T14:01:01Z</time>
      </trkpt>
      <trkpt lat="45.99247" lon="4.75218">
        <ele>169.05818774414</ele>
        <time>2017-08-09T14:01:17Z</time>
      </trkpt>
      <trkpt lat="45.99302" lon="4.75217">
        <ele>169.27518774414</ele>
        <time>2017-08-09T14:01:31Z</time>
      </trkpt>
      <trkpt lat="45.9934" lon="4.75229">
        <ele>169.45918774414</ele>
        <time>2017-08-09T14:01:41Z</time>
      </trkpt>
      <trkpt lat="45.99414" lon="4.75222">
        <ele>169.87318774414</ele>
        <time>2017-08-09T14:02:00Z</time>
      </trkpt>
      <trkpt lat="45.99485" lon="4.75207">
        <ele>170.58718774414</ele>
        <time>2017-08-09T14:02:20Z</time>
      </trkpt>
      <trkpt lat="45.99521" lon="4.75192">
        <ele>170.98118774414</ele>
        <time>2017-08-09T14:02:30Z</time>
      </trkpt>
      <trkpt lat="45.99557" lon="4.75186">
        <ele>171.38418774414</ele>
        <time>2017-08-09T14:02:40Z</time>
      </trkpt>
      <trkpt lat="45.99559" lon="4.75175">
        <ele>171.55118774414</ele>
        <time>2017-08-09T14:02:43Z</time>
      </trkpt>
      <trkpt lat="45.9957" lon="4.75149">
        <ele>171.70318774414</ele>
        <time>2017-08-09T14:02:48Z</time>
      </trkpt>
      <trkpt lat="45.99589" lon="4.7514">
        <ele>171.94218774414</ele>
        <time>2017-08-09T14:02:54Z</time>
      </trkpt>
      <trkpt lat="45.99606" lon="4.7514">
        <ele>172.03118774414</ele>
        <time>2017-08-09T14:02:58Z</time>
      </trkpt>
      <trkpt lat="45.99621" lon="4.75145">
        <ele>172.21318774414</ele>
        <time>2017-08-09T14:03:02Z</time>
      </trkpt>
      <trkpt lat="45.9965" lon="4.75162">
        <ele>172.41818774414</ele>
        <time>2017-08-09T14:03:11Z</time>
      </trkpt>
      <trkpt lat="45.99664" lon="4.75159">
        <ele>172.55918774414</ele>
        <time>2017-08-09T14:03:14Z</time>
      </trkpt>
      <trkpt lat="45.99667" lon="4.75158">
        <ele>172.56118774414</ele>
        <time>2017-08-09T14:03:15Z</time>
      </trkpt>
      <trkpt lat="45.99686" lon="4.75148">
        <ele>172.67918774414</ele>
        <time>2017-08-09T14:03:20Z</time>
      </trkpt>
      <trkpt lat="45.99713" lon="4.75133">
        <ele>172.75618774414</ele>
        <time>2017-08-09T14:03:28Z</time>
      </trkpt>
      <trkpt lat="45.99804" lon="4.75103">
        <ele>172.72018774414</ele>
        <time>2017-08-09T14:03:49Z</time>
      </trkpt>
      <trkpt lat="45.99905" lon="4.75069">
        <ele>172.38618774414</ele>
        <time>2017-08-09T14:04:13Z</time>
      </trkpt>
      <trkpt lat="45.99979" lon="4.75044">
        <ele>172.28518774414</ele>
        <time>2017-08-09T14:04:30Z</time>
      </trkpt>
      <trkpt lat="46.00075" lon="4.7502">
        <ele>172.35518774414</ele>
        <time>2017-08-09T14:04:53Z</time>
      </trkpt>
      <trkpt lat="46.00099" lon="4.75016">
        <ele>172.46318774414</ele>
        <time>2017-08-09T14:04:58Z</time>
      </trkpt>
      <trkpt lat="46.00157" lon="4.75003">
        <ele>172.78318774414</ele>
        <time>2017-08-09T14:05:11Z</time>
      </trkpt>
      <trkpt lat="46.00165" lon="4.75001">
        <ele>172.84718774414</ele>
        <time>2017-08-09T14:05:12Z</time>
      </trkpt>
      <trkpt lat="46.00181" lon="4.74994">
        <ele>173.03118774414</ele>
        <time>2017-08-09T14:05:16Z</time>
      </trkpt>
      <trkpt lat="46.00201" lon="4.74975">
        <ele>173.22318774414</ele>
        <time>2017-08-09T14:05:21Z</time>
      </trkpt>
      <trkpt lat="46.00218" lon="4.74993">
        <ele>173.46618774414</ele>
        <time>2017-08-09T14:05:26Z</time>
      </trkpt>
      <trkpt lat="46.00224" lon="4.74996">
        <ele>173.53918774414</ele>
        <time>2017-08-09T14:05:28Z</time>
      </trkpt>
      <trkpt lat="46.0024" lon="4.75003">
        <ele>173.84218774414</ele>
        <time>2017-08-09T14:05:32Z</time>
      </trkpt>
      <trkpt lat="46.00306" lon="4.75036">
        <ele>174.90518774414</ele>
        <time>2017-08-09T14:05:49Z</time>
      </trkpt>
      <trkpt lat="46.00308" lon="4.75037">
        <ele>175.00318774414</ele>
        <time>2017-08-09T14:05:50Z</time>
      </trkpt>
      <trkpt lat="46.0036" lon="4.75068">
        <ele>175.89918774414</ele>
        <time>2017-08-09T14:06:04Z</time>
      </trkpt>
      <trkpt lat="46.00383" lon="4.75062">
        <ele>176.33818774414</ele>
        <time>2017-08-09T14:06:13Z</time>
      </trkpt>
      <trkpt lat="46.00414" lon="4.7507">
        <ele>176.78318774414</ele>
        <time>2017-08-09T14:06:24Z</time>
      </trkpt>
      <trkpt lat="46.00447" lon="4.75073">
        <ele>177.24918774414</ele>
        <time>2017-08-09T14:06:35Z</time>
      </trkpt>
      <trkpt lat="46.0076" lon="4.75069">
        <ele>178.18418774414</ele>
        <time>2017-08-09T14:08:12Z</time>
      </trkpt>
      <trkpt lat="46.00816" lon="4.75084">
        <ele>177.75818774414</ele>
        <time>2017-08-09T14:08:28Z</time>
      </trkpt>
      <trkpt lat="46.00843" lon="4.7508">
        <ele>177.44618774414</ele>
        <time>2017-08-09T14:08:35Z</time>
      </trkpt>
      <trkpt lat="46.00898" lon="4.75083">
        <ele>176.51518774414</ele>
        <time>2017-08-09T14:08:50Z</time>
      </trkpt>
      <trkpt lat="46.00921" lon="4.75076">
        <ele>176.08018774414</ele>
        <time>2017-08-09T14:08:56Z</time>
      </trkpt>
      <trkpt lat="46.00951" lon="4.75076">
        <ele>175.46318774414</ele>
        <time>2017-08-09T14:09:04Z</time>
      </trkpt>
      <trkpt lat="46.00979" lon="4.7507">
        <ele>174.87718774414</ele>
        <time>2017-08-09T14:09:09Z</time>
      </trkpt>
      <trkpt lat="46.01007" lon="4.75064">
        <ele>174.19818774414</ele>
        <time>2017-08-09T14:09:15Z</time>
      </trkpt>
      <trkpt lat="46.01082" lon="4.75032">
        <ele>172.52618774414</ele>
        <time>2017-08-09T14:09:30Z</time>
      </trkpt>
      <trkpt lat="46.01168" lon="4.74996">
        <ele>171.01118774414</ele>
        <time>2017-08-09T14:09:49Z</time>
      </trkpt>
      <trkpt lat="46.01217" lon="4.74968">
        <ele>170.49518774414</ele>
        <time>2017-08-09T14:10:00Z</time>
      </trkpt>
      <trkpt lat="46.01357" lon="4.7488">
        <ele>169.92818774414</ele>
        <time>2017-08-09T14:10:35Z</time>
      </trkpt>
      <trkpt lat="46.01412" lon="4.74809">
        <ele>169.88218774414</ele>
        <time>2017-08-09T14:10:52Z</time>
      </trkpt>
      <trkpt lat="46.01476" lon="4.74755">
        <ele>169.92118774414</ele>
        <time>2017-08-09T14:11:09Z</time>
      </trkpt>
      <trkpt lat="46.01528" lon="4.74721">
        <ele>170.30618774414</ele>
        <time>2017-08-09T14:11:24Z</time>
      </trkpt>
      <trkpt lat="46.01582" lon="4.74683">
        <ele>170.75718774414</ele>
        <time>2017-08-09T14:11:40Z</time>
      </trkpt>
      <trkpt lat="46.01637" lon="4.74653">
        <ele>171.29718774414</ele>
        <time>2017-08-09T14:11:56Z</time>
      </trkpt>
      <trkpt lat="46.01722" lon="4.74612">
        <ele>172.05518774414</ele>
        <time>2017-08-09T14:12:20Z</time>
      </trkpt>
      <trkpt lat="46.0181" lon="4.74584">
        <ele>172.43918774414</ele>
        <time>2017-08-09T14:12:43Z</time>
      </trkpt>
      <trkpt lat="46.01856" lon="4.74577">
        <ele>172.40418774414</ele>
        <time>2017-08-09T14:12:53Z</time>
      </trkpt>
      <trkpt lat="46.01956" lon="4.74574">
        <ele>172.14118774414</ele>
        <time>2017-08-09T14:13:16Z</time>
      </trkpt>
      <trkpt lat="46.01996" lon="4.74578">
        <ele>171.88118774414</ele>
        <time>2017-08-09T14:13:25Z</time>
      </trkpt>
      <trkpt lat="46.02027" lon="4.74584">
        <ele>171.68818774414</ele>
        <time>2017-08-09T14:13:32Z</time>
      </trkpt>
      <trkpt lat="46.02046" lon="4.74589">
        <ele>171.50118774414</ele>
        <time>2017-08-09T14:13:36Z</time>
      </trkpt>
      <trkpt lat="46.02119" lon="4.74612">
        <ele>170.97818774414</ele>
        <time>2017-08-09T14:13:52Z</time>
      </trkpt>
      <trkpt lat="46.02185" lon="4.7464">
        <ele>170.39918774414</ele>
        <time>2017-08-09T14:14:07Z</time>
      </trkpt>
      <trkpt lat="46.02303" lon="4.74699">
        <ele>169.62818774414</ele>
        <time>2017-08-09T14:14:35Z</time>
      </trkpt>
      <trkpt lat="46.0244" lon="4.74755">
        <ele>169.38018774414</ele>
        <time>2017-08-09T14:15:08Z</time>
      </trkpt>
      <trkpt lat="46.02455" lon="4.74759">
        <ele>169.40018774414</ele>
        <time>2017-08-09T14:15:11Z</time>
      </trkpt>
      <trkpt lat="46.02482" lon="4.74776">
        <ele>169.46918774414</ele>
        <time>2017-08-09T14:15:19Z</time>
      </trkpt>
      <trkpt lat="46.02698" lon="4.7485">
        <ele>170.93118774414</ele>
        <time>2017-08-09T14:16:16Z</time>
      </trkpt>
      <trkpt lat="46.02759" lon="4.7489">
        <ele>170.92718774414</ele>
        <time>2017-08-09T14:16:32Z</time>
      </trkpt>
      <trkpt lat="46.02773" lon="4.74898">
        <ele>170.92018774414</ele>
        <time>2017-08-09T14:16:36Z</time>
      </trkpt>
      <trkpt lat="46.02791" lon="4.74905">
        <ele>170.83718774414</ele>
        <time>2017-08-09T14:16:40Z</time>
      </trkpt>
      <trkpt lat="46.02809" lon="4.74909">
        <ele>170.75018774414</ele>
        <time>2017-08-09T14:16:44Z</time>
      </trkpt>
      <trkpt lat="46.02869" lon="4.74911">
        <ele>170.30218774414</ele>
        <time>2017-08-09T14:16:57Z</time>
      </trkpt>
      <trkpt lat="46.02972" lon="4.74899">
        <ele>169.12218774414</ele>
        <time>2017-08-09T14:17:19Z</time>
      </trkpt>
      <trkpt lat="46.03061" lon="4.74878">
        <ele>168.71218774414</ele>
        <time>2017-08-09T14:17:39Z</time>
      </trkpt>
      <trkpt lat="46.03158" lon="4.74861">
        <ele>169.38618774414</ele>
        <time>2017-08-09T14:18:05Z</time>
      </trkpt>
      <trkpt lat="46.03223" lon="4.74826">
        <ele>170.23018774414</ele>
        <time>2017-08-09T14:18:24Z</time>
      </trkpt>
      <trkpt lat="46.03236" lon="4.74812">
        <ele>170.47918774414</ele>
        <time>2017-08-09T14:18:29Z</time>
      </trkpt>
      <trkpt lat="46.0326" lon="4.7481">
        <ele>170.61518774414</ele>
        <time>2017-08-09T14:18:35Z</time>
      </trkpt>
      <trkpt lat="46.0327" lon="4.74811">
        <ele>170.80618774414</ele>
        <time>2017-08-09T14:18:38Z</time>
      </trkpt>
      <trkpt lat="46.03283" lon="4.74821">
        <ele>170.88918774414</ele>
        <time>2017-08-09T14:18:42Z</time>
      </trkpt>
      <trkpt lat="46.03321" lon="4.74832">
        <ele>171.11518774414</ele>
        <time>2017-08-09T14:18:52Z</time>
      </trkpt>
      <trkpt lat="46.03345" lon="4.74832">
        <ele>171.24918774414</ele>
        <time>2017-08-09T14:18:58Z</time>
      </trkpt>
      <trkpt lat="46.03364" lon="4.74822">
        <ele>171.21418774414</ele>
        <time>2017-08-09T14:19:03Z</time>
      </trkpt>
      <trkpt lat="46.03391" lon="4.74822">
        <ele>171.26618774414</ele>
        <time>2017-08-09T14:19:09Z</time>
      </trkpt>
      <trkpt lat="46.03503" lon="4.74775">
        <ele>170.87918774414</ele>
        <time>2017-08-09T14:19:36Z</time>
      </trkpt>
      <trkpt lat="46.03549" lon="4.74754">
        <ele>170.73518774414</ele>
        <time>2017-08-09T14:19:47Z</time>
      </trkpt>
      <trkpt lat="46.03576" lon="4.7474">
        <ele>170.72818774414</ele>
        <time>2017-08-09T14:19:55Z</time>
      </trkpt>
      <trkpt lat="46.03601" lon="4.74725">
        <ele>170.71218774414</ele>
        <time>2017-08-09T14:20:03Z</time>
      </trkpt>
      <trkpt lat="46.0362" lon="4.74705">
        <ele>170.70018774414</ele>
        <time>2017-08-09T14:20:10Z</time>
      </trkpt>
      <trkpt lat="46.03647" lon="4.74698">
        <ele>170.72018774414</ele>
        <time>2017-08-09T14:20:18Z</time>
      </trkpt>
      <trkpt lat="46.03667" lon="4.74683">
        <ele>170.77518774414</ele>
        <time>2017-08-09T14:20:25Z</time>
      </trkpt>
      <trkpt lat="46.03714" lon="4.74668">
        <ele>170.92518774414</ele>
        <time>2017-08-09T14:20:40Z</time>
      </trkpt>
      <trkpt lat="46.03747" lon="4.74638">
        <ele>170.93818774414</ele>
        <time>2017-08-09T14:20:52Z</time>
      </trkpt>
      <trkpt lat="46.0378" lon="4.74618">
        <ele>170.89918774414</ele>
        <time>2017-08-09T14:21:02Z</time>
      </trkpt>
      <trkpt lat="46.03867" lon="4.74586">
        <ele>170.64618774414</ele>
        <time>2017-08-09T14:21:28Z</time>
      </trkpt>
      <trkpt lat="46.03972" lon="4.74538">
        <ele>170.10818774414</ele>
        <time>2017-08-09T14:22:00Z</time>
      </trkpt>
      <trkpt lat="46.04028" lon="4.74505">
        <ele>169.59718774414</ele>
        <time>2017-08-09T14:22:17Z</time>
      </trkpt>
      <trkpt lat="46.04108" lon="4.74435">
        <ele>168.81718774414</ele>
        <time>2017-08-09T14:22:43Z</time>
      </trkpt>
      <trkpt lat="46.04143" lon="4.74407">
        <ele>168.51418774414</ele>
        <time>2017-08-09T14:22:54Z</time>
      </trkpt>
      <trkpt lat="46.04158" lon="4.74401">
        <ele>168.40718774414</ele>
        <time>2017-08-09T14:22:58Z</time>
      </trkpt>
      <trkpt lat="46.04171" lon="4.74399">
        <ele>168.32718774414</ele>
        <time>2017-08-09T14:23:02Z</time>
      </trkpt>
      <trkpt lat="46.04189" lon="4.74358">
        <ele>168.12118774414</ele>
        <time>2017-08-09T14:23:12Z</time>
      </trkpt>
      <trkpt lat="46.04245" lon="4.74297">
        <ele>167.78618774414</ele>
        <time>2017-08-09T14:23:32Z</time>
      </trkpt>
      <trkpt lat="46.04359" lon="4.74205">
        <ele>167.88318774414</ele>
        <time>2017-08-09T14:24:11Z</time>
      </trkpt>
      <trkpt lat="46.04483" lon="4.74126">
        <ele>168.44318774414</ele>
        <time>2017-08-09T14:24:53Z</time>
      </trkpt>
      <trkpt lat="46.04576" lon="4.7409">
        <ele>169.10718774414</ele>
        <time>2017-08-09T14:25:25Z</time>
      </trkpt>
      <trkpt lat="46.04636" lon="4.7408">
        <ele>169.41918774414</ele>
        <time>2017-08-09T14:25:44Z</time>
      </trkpt>
      <trkpt lat="46.04658" lon="4.74082">
        <ele>169.51918774414</ele>
        <time>2017-08-09T14:25:51Z</time>
      </trkpt>
      <trkpt lat="46.04673" lon="4.74082">
        <ele>169.56618774414</ele>
        <time>2017-08-09T14:25:55Z</time>
      </trkpt>
      <trkpt lat="46.04733" lon="4.74087">
        <ele>169.71718774414</ele>
        <time>2017-08-09T14:26:14Z</time>
      </trkpt>
      <trkpt lat="46.0476" lon="4.74097">
        <ele>169.75518774414</ele>
        <time>2017-08-09T14:26:22Z</time>
      </trkpt>
      <trkpt lat="46.04833" lon="4.74143">
        <ele>169.71518774414</ele>
        <time>2017-08-09T14:26:46Z</time>
      </trkpt>
      <trkpt lat="46.04973" lon="4.74268">
        <ele>169.50118774414</ele>
        <time>2017-08-09T14:27:34Z</time>
      </trkpt>
      <trkpt lat="46.05002" lon="4.743">
        <ele>169.47918774414</ele>
        <time>2017-08-09T14:27:45Z</time>
      </trkpt>
      <trkpt lat="46.05038" lon="4.74346">
        <ele>169.45318774414</ele>
        <time>2017-08-09T14:27:59Z</time>
      </trkpt>
      <trkpt lat="46.05129" lon="4.74523">
        <ele>169.31818774414</ele>
        <time>2017-08-09T14:28:44Z</time>
      </trkpt>
      <trkpt lat="46.05216" lon="4.74717">
        <ele>169.18818774414</ele>
        <time>2017-08-09T14:29:31Z</time>
      </trkpt>
      <trkpt lat="46.05237" lon="4.74765">
        <ele>169.21418774414</ele>
        <time>2017-08-09T14:29:43Z</time>
      </trkpt>
      <trkpt lat="46.05275" lon="4.74858">
        <ele>169.34118774414</ele>
        <time>2017-08-09T14:30:06Z</time>
      </trkpt>
      <trkpt lat="46.05319" lon="4.74973">
        <ele>169.56518774414</ele>
        <time>2017-08-09T14:30:34Z</time>
      </trkpt>
      <trkpt lat="46.05338" lon="4.75046">
        <ele>169.68918774414</ele>
        <time>2017-08-09T14:30:51Z</time>
      </trkpt>
      <trkpt lat="46.05413" lon="4.75243">
        <ele>169.71818774414</ele>
        <time>2017-08-09T14:31:37Z</time>
      </trkpt>
      <trkpt lat="46.05522" lon="4.75402">
        <ele>169.43118774414</ele>
        <time>2017-08-09T14:32:22Z</time>
      </trkpt>
      <trkpt lat="46.05576" lon="4.75494">
        <ele>169.30318774414</ele>
        <time>2017-08-09T14:32:47Z</time>
      </trkpt>
      <trkpt lat="46.05671" lon="4.7564">
        <ele>169.25518774414</ele>
        <time>2017-08-09T14:33:28Z</time>
      </trkpt>
      <trkpt lat="46.05686" lon="4.75645">
        <ele>169.25818774414</ele>
        <time>2017-08-09T14:33:33Z</time>
      </trkpt>
      <trkpt lat="46.05906" lon="4.7593">
        <ele>169.51218774414</ele>
        <time>2017-08-09T14:35:02Z</time>
      </trkpt>
      <trkpt lat="46.06009" lon="4.76043">
        <ele>169.70818774414</ele>
        <time>2017-08-09T14:35:41Z</time>
      </trkpt>
      <trkpt lat="46.06073" lon="4.76098">
        <ele>169.80118774414</ele>
        <time>2017-08-09T14:36:03Z</time>
      </trkpt>
      <trkpt lat="46.06128" lon="4.76145">
        <ele>169.86018774414</ele>
        <time>2017-08-09T14:36:22Z</time>
      </trkpt>
      <trkpt lat="46.06188" lon="4.76198">
        <ele>169.90218774414</ele>
        <time>2017-08-09T14:36:43Z</time>
      </trkpt>
      <trkpt lat="46.06283" lon="4.76261">
        <ele>170.00418774414</ele>
        <time>2017-08-09T14:37:15Z</time>
      </trkpt>
      <trkpt lat="46.06352" lon="4.763">
        <ele>170.20618774414</ele>
        <time>2017-08-09T14:37:38Z</time>
      </trkpt>
      <trkpt lat="46.06412" lon="4.76322">
        <ele>170.43518774414</ele>
        <time>2017-08-09T14:37:57Z</time>
      </trkpt>
      <trkpt lat="46.06475" lon="4.76345">
        <ele>170.65518774414</ele>
        <time>2017-08-09T14:38:17Z</time>
      </trkpt>
      <trkpt lat="46.06535" lon="4.76366">
        <ele>170.83618774414</ele>
        <time>2017-08-09T14:38:36Z</time>
      </trkpt>
      <trkpt lat="46.0663" lon="4.76389">
        <ele>170.97518774414</ele>
        <time>2017-08-09T14:39:05Z</time>
      </trkpt>
      <trkpt lat="46.06774" lon="4.76385">
        <ele>170.95318774414</ele>
        <time>2017-08-09T14:39:48Z</time>
      </trkpt>
      <trkpt lat="46.06817" lon="4.76356">
        <ele>170.88918774414</ele>
        <time>2017-08-09T14:40:02Z</time>
      </trkpt>
      <trkpt lat="46.06967" lon="4.76312">
        <ele>170.33418774414</ele>
        <time>2017-08-09T14:40:46Z</time>
      </trkpt>
      <trkpt lat="46.0721" lon="4.76184">
        <ele>169.43818774414</ele>
        <time>2017-08-09T14:42:00Z</time>
      </trkpt>
      <trkpt lat="46.07388" lon="4.76107">
        <ele>170.35018774414</ele>
        <time>2017-08-09T14:42:59Z</time>
      </trkpt>
      <trkpt lat="46.07573" lon="4.76037">
        <ele>170.68318774414</ele>
        <time>2017-08-09T14:43:57Z</time>
      </trkpt>
      <trkpt lat="46.07636" lon="4.75992">
        <ele>170.82418774414</ele>
        <time>2017-08-09T14:44:19Z</time>
      </trkpt>
      <trkpt lat="46.07696" lon="4.75949">
        <ele>171.03618774414</ele>
        <time>2017-08-09T14:44:32Z</time>
      </trkpt>
      <trkpt lat="46.07762" lon="4.75894">
        <ele>171.28518774414</ele>
        <time>2017-08-09T14:44:47Z</time>
      </trkpt>
      <trkpt lat="46.07816" lon="4.75842">
        <ele>171.71218774414</ele>
        <time>2017-08-09T14:45:01Z</time>
      </trkpt>
      <trkpt lat="46.07822" lon="4.75834">
        <ele>171.73518774414</ele>
        <time>2017-08-09T14:45:02Z</time>
      </trkpt>
      <trkpt lat="46.07853" lon="4.75802">
        <ele>171.90718774414</ele>
        <time>2017-08-09T14:45:10Z</time>
      </trkpt>
      <trkpt lat="46.07884" lon="4.75775">
        <ele>172.12218774414</ele>
        <time>2017-08-09T14:45:18Z</time>
      </trkpt>
      <trkpt lat="46.07956" lon="4.75706">
        <ele>172.18018774414</ele>
        <time>2017-08-09T14:45:34Z</time>
      </trkpt>
      <trkpt lat="46.07973" lon="4.75692">
        <ele>172.17618774414</ele>
        <time>2017-08-09T14:45:38Z</time>
      </trkpt>
      <trkpt lat="46.0801" lon="4.75657">
        <ele>172.17518774414</ele>
        <time>2017-08-09T14:45:46Z</time>
      </trkpt>
      <trkpt lat="46.08014" lon="4.75642">
        <ele>172.10918774414</ele>
        <time>2017-08-09T14:45:48Z</time>
      </trkpt>
      <trkpt lat="46.08077" lon="4.75569">
        <ele>172.07118774414</ele>
        <time>2017-08-09T14:46:03Z</time>
      </trkpt>
      <trkpt lat="46.08124" lon="4.75517">
        <ele>171.99118774414</ele>
        <time>2017-08-09T14:46:13Z</time>
      </trkpt>
      <trkpt lat="46.08156" lon="4.75483">
        <ele>171.92818774414</ele>
        <time>2017-08-09T14:46:21Z</time>
      </trkpt>
      <trkpt lat="46.08178" lon="4.75466">
        <ele>171.93518774414</ele>
        <time>2017-08-09T14:46:25Z</time>
      </trkpt>
      <trkpt lat="46.08186" lon="4.75465">
        <ele>171.98618774414</ele>
        <time>2017-08-09T14:46:27Z</time>
      </trkpt>
      <trkpt lat="46.08217" lon="4.75411">
        <ele>172.34018774414</ele>
        <time>2017-08-09T14:46:37Z</time>
      </trkpt>
      <trkpt lat="46.08252" lon="4.75354">
        <ele>172.93918774414</ele>
        <time>2017-08-09T14:46:50Z</time>
      </trkpt>
      <trkpt lat="46.08267" lon="4.75337">
        <ele>173.16218774414</ele>
        <time>2017-08-09T14:46:54Z</time>
      </trkpt>
      <trkpt lat="46.08286" lon="4.75321">
        <ele>173.48018774414</ele>
        <time>2017-08-09T14:47:00Z</time>
      </trkpt>
      <trkpt lat="46.08302" lon="4.75315">
        <ele>173.66118774414</ele>
        <time>2017-08-09T14:47:03Z</time>
      </trkpt>
      <trkpt lat="46.08328" lon="4.75313">
        <ele>174.02518774414</ele>
        <time>2017-08-09T14:47:10Z</time>
      </trkpt>
      <trkpt lat="46.08337" lon="4.75308">
        <ele>174.13118774414</ele>
        <time>2017-08-09T14:47:12Z</time>
      </trkpt>
      <trkpt lat="46.08484" lon="4.75295">
        <ele>176.46318774414</ele>
        <time>2017-08-09T14:47:56Z</time>
      </trkpt>
      <trkpt lat="46.0855" lon="4.75296">
        <ele>176.89418774414</ele>
        <time>2017-08-09T14:48:13Z</time>
      </trkpt>
      <trkpt lat="46.08567" lon="4.75299">
        <ele>177.04218774414</ele>
        <time>2017-08-09T14:48:18Z</time>
      </trkpt>
      <trkpt lat="46.08619" lon="4.75305">
        <ele>177.04418774414</ele>
        <time>2017-08-09T14:48:30Z</time>
      </trkpt>
      <trkpt lat="46.08697" lon="4.75319">
        <ele>176.67218774414</ele>
        <time>2017-08-09T14:48:48Z</time>
      </trkpt>
      <trkpt lat="46.08752" lon="4.75336">
        <ele>176.14418774414</ele>
        <time>2017-08-09T14:49:00Z</time>
      </trkpt>
      <trkpt lat="46.08798" lon="4.75344">
        <ele>175.64318774414</ele>
        <time>2017-08-09T14:49:10Z</time>
      </trkpt>
      <trkpt lat="46.08809" lon="4.75346">
        <ele>175.53318774414</ele>
        <time>2017-08-09T14:49:12Z</time>
      </trkpt>
      <trkpt lat="46.0896" lon="4.75417">
        <ele>174.30318774414</ele>
        <time>2017-08-09T14:49:47Z</time>
      </trkpt>
      <trkpt lat="46.08979" lon="4.75425">
        <ele>174.23718774414</ele>
        <time>2017-08-09T14:49:51Z</time>
      </trkpt>
      <trkpt lat="46.09114" lon="4.75479">
        <ele>174.27418774414</ele>
        <time>2017-08-09T14:50:24Z</time>
      </trkpt>
      <trkpt lat="46.09134" lon="4.75487">
        <ele>174.35818774414</ele>
        <time>2017-08-09T14:50:31Z</time>
      </trkpt>
      <trkpt lat="46.09294" lon="4.75557">
        <ele>174.45018774414</ele>
        <time>2017-08-09T14:51:20Z</time>
      </trkpt>
      <trkpt lat="46.09553" lon="4.75697">
        <ele>171.87018774414</ele>
        <time>2017-08-09T14:52:37Z</time>
      </trkpt>
      <trkpt lat="46.09624" lon="4.75742">
        <ele>171.26918774414</ele>
        <time>2017-08-09T14:52:59Z</time>
      </trkpt>
      <trkpt lat="46.09685" lon="4.75788">
        <ele>170.92118774414</ele>
        <time>2017-08-09T14:53:18Z</time>
      </trkpt>
      <trkpt lat="46.09771" lon="4.75867">
        <ele>170.69518774414</ele>
        <time>2017-08-09T14:53:48Z</time>
      </trkpt>
      <trkpt lat="46.09852" lon="4.75955">
        <ele>170.62418774414</ele>
        <time>2017-08-09T14:54:18Z</time>
      </trkpt>
      <trkpt lat="46.09932" lon="4.76056">
        <ele>170.51318774414</ele>
        <time>2017-08-09T14:54:50Z</time>
      </trkpt>
      <trkpt lat="46.10015" lon="4.76144">
        <ele>170.28418774414</ele>
        <time>2017-08-09T14:55:20Z</time>
      </trkpt>
      <trkpt lat="46.10099" lon="4.76245">
        <ele>169.53118774414</ele>
        <time>2017-08-09T14:55:50Z</time>
      </trkpt>
      <trkpt lat="46.10128" lon="4.76272">
        <ele>169.35618774414</ele>
        <time>2017-08-09T14:56:00Z</time>
      </trkpt>
      <trkpt lat="46.1015" lon="4.76282">
        <ele>169.29918774414</ele>
        <time>2017-08-09T14:56:07Z</time>
      </trkpt>
      <trkpt lat="46.10158" lon="4.76285">
        <ele>169.26118774414</ele>
        <time>2017-08-09T14:56:09Z</time>
      </trkpt>
      <trkpt lat="46.1017" lon="4.7629">
        <ele>169.07518774414</ele>
        <time>2017-08-09T14:56:12Z</time>
      </trkpt>
      <trkpt lat="46.10203" lon="4.7629">
        <ele>169.04318774414</ele>
        <time>2017-08-09T14:56:22Z</time>
      </trkpt>
      <trkpt lat="46.10209" lon="4.76298">
        <ele>168.89018774414</ele>
        <time>2017-08-09T14:56:25Z</time>
      </trkpt>
      <trkpt lat="46.10212" lon="4.76303">
        <ele>169.08218774414</ele>
        <time>2017-08-09T14:56:27Z</time>
      </trkpt>
      <trkpt lat="46.10219" lon="4.76332">
        <ele>168.98618774414</ele>
        <time>2017-08-09T14:56:33Z</time>
      </trkpt>
      <trkpt lat="46.10239" lon="4.76378">
        <ele>168.89618774414</ele>
        <time>2017-08-09T14:56:44Z</time>
      </trkpt>
      <trkpt lat="46.10274" lon="4.76443">
        <ele>168.90918774414</ele>
        <time>2017-08-09T14:57:01Z</time>
      </trkpt>
      <trkpt lat="46.10307" lon="4.76482">
        <ele>169.04618774414</ele>
        <time>2017-08-09T14:57:14Z</time>
      </trkpt>
      <trkpt lat="46.10382" lon="4.76555">
        <ele>169.10118774414</ele>
        <time>2017-08-09T14:57:41Z</time>
      </trkpt>
      <trkpt lat="46.10419" lon="4.76585">
        <ele>169.06118774414</ele>
        <time>2017-08-09T14:57:53Z</time>
      </trkpt>
      <trkpt lat="46.10519" lon="4.76683">
        <ele>169.07818774414</ele>
        <time>2017-08-09T14:58:30Z</time>
      </trkpt>
      <trkpt lat="46.10551" lon="4.76721">
        <ele>169.21318774414</ele>
        <time>2017-08-09T14:58:42Z</time>
      </trkpt>
      <trkpt lat="46.10749" lon="4.76924">
        <ele>171.11818774414</ele>
        <time>2017-08-09T15:00:02Z</time>
      </trkpt>
      <trkpt lat="46.10801" lon="4.76985">
        <ele>171.49918774414</ele>
        <time>2017-08-09T15:00:23Z</time>
      </trkpt>
      <trkpt lat="46.1083" lon="4.77021">
        <ele>171.62518774414</ele>
        <time>2017-08-09T15:00:35Z</time>
      </trkpt>
      <trkpt lat="46.10867" lon="4.77069">
        <ele>171.65918774414</ele>
        <time>2017-08-09T15:00:50Z</time>
      </trkpt>
      <trkpt lat="46.109" lon="4.77119">
        <ele>171.59018774414</ele>
        <time>2017-08-09T15:01:04Z</time>
      </trkpt>
      <trkpt lat="46.10943" lon="4.77169">
        <ele>171.37818774414</ele>
        <time>2017-08-09T15:01:20Z</time>
      </trkpt>
      <trkpt lat="46.11049" lon="4.77266">
        <ele>171.40518774414</ele>
        <time>2017-08-09T15:01:58Z</time>
      </trkpt>
      <trkpt lat="46.11058" lon="4.77283">
        <ele>171.38518774414</ele>
        <time>2017-08-09T15:02:02Z</time>
      </trkpt>
      <trkpt lat="46.11071" lon="4.7729">
        <ele>171.35218774414</ele>
        <time>2017-08-09T15:02:06Z</time>
      </trkpt>
      <trkpt lat="46.11079" lon="4.77291">
        <ele>171.40918774414</ele>
        <time>2017-08-09T15:02:09Z</time>
      </trkpt>
      <trkpt lat="46.11101" lon="4.77288">
        <ele>171.34818774414</ele>
        <time>2017-08-09T15:02:15Z</time>
      </trkpt>
      <trkpt lat="46.11127" lon="4.77295">
        <ele>171.37918774414</ele>
        <time>2017-08-09T15:02:23Z</time>
      </trkpt>
      <trkpt lat="46.1116" lon="4.77303">
        <ele>171.36118774414</ele>
        <time>2017-08-09T15:02:33Z</time>
      </trkpt>
      <trkpt lat="46.11491" lon="4.77364">
        <ele>169.30718774414</ele>
        <time>2017-08-09T15:04:07Z</time>
      </trkpt>
      <trkpt lat="46.11541" lon="4.77386">
        <ele>169.09518774414</ele>
        <time>2017-08-09T15:04:22Z</time>
      </trkpt>
      <trkpt lat="46.1164" lon="4.7744">
        <ele>169.10518774414</ele>
        <time>2017-08-09T15:04:54Z</time>
      </trkpt>
      <trkpt lat="46.11787" lon="4.77544">
        <ele>170.06418774414</ele>
        <time>2017-08-09T15:05:46Z</time>
      </trkpt>
      <trkpt lat="46.11948" lon="4.7763">
        <ele>171.30518774414</ele>
        <time>2017-08-09T15:06:42Z</time>
      </trkpt>
      <trkpt lat="46.1199" lon="4.77653">
        <ele>171.53718774414</ele>
        <time>2017-08-09T15:06:56Z</time>
      </trkpt>
      <trkpt lat="46.12028" lon="4.77677">
        <ele>171.73918774414</ele>
        <time>2017-08-09T15:07:05Z</time>
      </trkpt>
      <trkpt lat="46.12085" lon="4.77726">
        <ele>171.84218774414</ele>
        <time>2017-08-09T15:07:17Z</time>
      </trkpt>
      <trkpt lat="46.12141" lon="4.77782">
        <ele>171.59918774414</ele>
        <time>2017-08-09T15:07:30Z</time>
      </trkpt>
      <trkpt lat="46.1215" lon="4.77792">
        <ele>171.59318774414</ele>
        <time>2017-08-09T15:07:32Z</time>
      </trkpt>
      <trkpt lat="46.12166" lon="4.778">
        <ele>171.44418774414</ele>
        <time>2017-08-09T15:07:35Z</time>
      </trkpt>
      <trkpt lat="46.1218" lon="4.77818">
        <ele>171.39018774414</ele>
        <time>2017-08-09T15:07:40Z</time>
      </trkpt>
      <trkpt lat="46.1219" lon="4.77839">
        <ele>171.21518774414</ele>
        <time>2017-08-09T15:07:44Z</time>
      </trkpt>
      <trkpt lat="46.1225" lon="4.7792">
        <ele>170.72918774414</ele>
        <time>2017-08-09T15:08:02Z</time>
      </trkpt>
      <trkpt lat="46.12315" lon="4.77984">
        <ele>170.46618774414</ele>
        <time>2017-08-09T15:08:19Z</time>
      </trkpt>
      <trkpt lat="46.1237" lon="4.78047">
        <ele>170.80618774414</ele>
        <time>2017-08-09T15:08:37Z</time>
      </trkpt>
      <trkpt lat="46.12473" lon="4.78181">
        <ele>171.52318774414</ele>
        <time>2017-08-09T15:09:13Z</time>
      </trkpt>
      <trkpt lat="46.12646" lon="4.78405">
        <ele>170.79418774414</ele>
        <time>2017-08-09T15:10:05Z</time>
      </trkpt>
      <trkpt lat="46.12718" lon="4.78505">
        <ele>170.51318774414</ele>
        <time>2017-08-09T15:10:35Z</time>
      </trkpt>
      <trkpt lat="46.12904" lon="4.7875">
        <ele>169.96318774414</ele>
        <time>2017-08-09T15:11:48Z</time>
      </trkpt>
      <trkpt lat="46.12943" lon="4.78798">
        <ele>169.73418774414</ele>
        <time>2017-08-09T15:12:03Z</time>
      </trkpt>
      <trkpt lat="46.12981" lon="4.78849">
        <ele>169.48318774414</ele>
        <time>2017-08-09T15:12:18Z</time>
      </trkpt>
      <trkpt lat="46.13016" lon="4.78884">
        <ele>169.33318774414</ele>
        <time>2017-08-09T15:12:30Z</time>
      </trkpt>
      <trkpt lat="46.13074" lon="4.78922">
        <ele>169.18318774414</ele>
        <time>2017-08-09T15:12:48Z</time>
      </trkpt>
      <trkpt lat="46.131" lon="4.78963">
        <ele>169.16818774414</ele>
        <time>2017-08-09T15:13:00Z</time>
      </trkpt>
      <trkpt lat="46.13211" lon="4.79101">
        <ele>169.62518774414</ele>
        <time>2017-08-09T15:13:45Z</time>
      </trkpt>
      <trkpt lat="46.13287" lon="4.79179">
        <ele>169.90518774414</ele>
        <time>2017-08-09T15:14:14Z</time>
      </trkpt>
      <trkpt lat="46.13354" lon="4.79244">
        <ele>170.01618774414</ele>
        <time>2017-08-09T15:14:38Z</time>
      </trkpt>
      <trkpt lat="46.13362" lon="4.79251">
        <ele>170.00318774414</ele>
        <time>2017-08-09T15:14:41Z</time>
      </trkpt>
      <trkpt lat="46.13571" lon="4.79451">
        <ele>170.06118774414</ele>
        <time>2017-08-09T15:15:56Z</time>
      </trkpt>
      <trkpt lat="46.13778" lon="4.79657">
        <ele>170.77518774414</ele>
        <time>2017-08-09T15:17:13Z</time>
      </trkpt>
      <trkpt lat="46.13847" lon="4.7974">
        <ele>170.79118774414</ele>
        <time>2017-08-09T15:17:40Z</time>
      </trkpt>
      <trkpt lat="46.13915" lon="4.7981">
        <ele>170.62018774414</ele>
        <time>2017-08-09T15:18:04Z</time>
      </trkpt>
      <trkpt lat="46.14113" lon="4.80026">
        <ele>169.40218774414</ele>
        <time>2017-08-09T15:19:15Z</time>
      </trkpt>
      <trkpt lat="46.14231" lon="4.80113">
        <ele>168.80218774414</ele>
        <time>2017-08-09T15:19:53Z</time>
      </trkpt>
      <trkpt lat="46.14324" lon="4.80168">
        <ele>168.51518774414</ele>
        <time>2017-08-09T15:20:22Z</time>
      </trkpt>
      <trkpt lat="46.14384" lon="4.80196">
        <ele>168.38618774414</ele>
        <time>2017-08-09T15:20:41Z</time>
      </trkpt>
      <trkpt lat="46.14428" lon="4.8021">
        <ele>168.31018774414</ele>
        <time>2017-08-09T15:20:54Z</time>
      </trkpt>
      <trkpt lat="46.1457" lon="4.80246">
        <ele>168.09018774414</ele>
        <time>2017-08-09T15:21:36Z</time>
      </trkpt>
      <trkpt lat="46.14604" lon="4.80249">
        <ele>168.06518774414</ele>
        <time>2017-08-09T15:21:46Z</time>
      </trkpt>
      <trkpt lat="46.14627" lon="4.80239">
        <ele>167.98918774414</ele>
        <time>2017-08-09T15:21:53Z</time>
      </trkpt>
      <trkpt lat="46.14643" lon="4.80245">
        <ele>168.09118774414</ele>
        <time>2017-08-09T15:21:58Z</time>
      </trkpt>
      <trkpt lat="46.14739" lon="4.80293">
        <ele>168.11318774414</ele>
        <time>2017-08-09T15:22:29Z</time>
      </trkpt>
      <trkpt lat="46.14814" lon="4.8032">
        <ele>168.10018774414</ele>
        <time>2017-08-09T15:22:52Z</time>
      </trkpt>
      <trkpt lat="46.14825" lon="4.80328">
        <ele>168.05118774414</ele>
        <time>2017-08-09T15:22:55Z</time>
      </trkpt>
      <trkpt lat="46.15013" lon="4.80394">
        <ele>167.33718774414</ele>
        <time>2017-08-09T15:23:51Z</time>
      </trkpt>
      <trkpt lat="46.15071" lon="4.80413">
        <ele>167.44118774414</ele>
        <time>2017-08-09T15:24:09Z</time>
      </trkpt>
      <trkpt lat="46.15196" lon="4.80454">
        <ele>168.27518774414</ele>
        <time>2017-08-09T15:24:50Z</time>
      </trkpt>
      <trkpt lat="46.15439" lon="4.80524">
        <ele>170.40218774414</ele>
        <time>2017-08-09T15:26:12Z</time>
      </trkpt>
      <trkpt lat="46.15499" lon="4.80527">
        <ele>170.59618774414</ele>
        <time>2017-08-09T15:26:31Z</time>
      </trkpt>
      <trkpt lat="46.15528" lon="4.80521">
        <ele>170.62218774414</ele>
        <time>2017-08-09T15:26:40Z</time>
      </trkpt>
      <trkpt lat="46.15568" lon="4.80505">
        <ele>170.59218774414</ele>
        <time>2017-08-09T15:26:52Z</time>
      </trkpt>
      <trkpt lat="46.15609" lon="4.80486">
        <ele>170.49018774414</ele>
        <time>2017-08-09T15:27:04Z</time>
      </trkpt>
      <trkpt lat="46.15717" lon="4.80455">
        <ele>170.16918774414</ele>
        <time>2017-08-09T15:27:36Z</time>
      </trkpt>
      <trkpt lat="46.15782" lon="4.80443">
        <ele>170.15718774414</ele>
        <time>2017-08-09T15:27:56Z</time>
      </trkpt>
      <trkpt lat="46.15836" lon="4.8041">
        <ele>170.20718774414</ele>
        <time>2017-08-09T15:28:13Z</time>
      </trkpt>
      <trkpt lat="46.15902" lon="4.80332">
        <ele>170.28018774414</ele>
        <time>2017-08-09T15:28:39Z</time>
      </trkpt>
      <trkpt lat="46.15973" lon="4.80248">
        <ele>170.10718774414</ele>
        <time>2017-08-09T15:29:06Z</time>
      </trkpt>
      <trkpt lat="46.16037" lon="4.80136">
        <ele>169.47118774414</ele>
        <time>2017-08-09T15:29:34Z</time>
      </trkpt>
      <trkpt lat="46.16058" lon="4.80105">
        <ele>169.28718774414</ele>
        <time>2017-08-09T15:29:43Z</time>
      </trkpt>
      <trkpt lat="46.16089" lon="4.80066">
        <ele>169.07618774414</ele>
        <time>2017-08-09T15:29:52Z</time>
      </trkpt>
      <trkpt lat="46.16291" lon="4.79703">
        <ele>168.62818774414</ele>
        <time>2017-08-09T15:31:06Z</time>
      </trkpt>
      <trkpt lat="46.16333" lon="4.796">
        <ele>168.64618774414</ele>
        <time>2017-08-09T15:31:26Z</time>
      </trkpt>
      <trkpt lat="46.16352" lon="4.7953">
        <ele>168.76218774414</ele>
        <time>2017-08-09T15:31:39Z</time>
      </trkpt>
      <trkpt lat="46.16399" lon="4.79437">
        <ele>168.80118774414</ele>
        <time>2017-08-09T15:31:57Z</time>
      </trkpt>
      <trkpt lat="46.1645" lon="4.79344">
        <ele>169.11718774414</ele>
        <time>2017-08-09T15:32:18Z</time>
      </trkpt>
      <trkpt lat="46.16461" lon="4.79321">
        <ele>169.35918774414</ele>
        <time>2017-08-09T15:32:24Z</time>
      </trkpt>
      <trkpt lat="46.16495" lon="4.79253">
        <ele>170.05818774414</ele>
        <time>2017-08-09T15:32:40Z</time>
      </trkpt>
      <trkpt lat="46.16512" lon="4.7922">
        <ele>170.48618774414</ele>
        <time>2017-08-09T15:32:48Z</time>
      </trkpt>
      <trkpt lat="46.16514" lon="4.79213">
        <ele>170.56018774414</ele>
        <time>2017-08-09T15:32:50Z</time>
      </trkpt>
      <trkpt lat="46.16516" lon="4.79203">
        <ele>170.65318774414</ele>
        <time>2017-08-09T15:32:52Z</time>
      </trkpt>
      <trkpt lat="46.16512" lon="4.79169">
        <ele>170.78718774414</ele>
        <time>2017-08-09T15:32:57Z</time>
      </trkpt>
      <trkpt lat="46.16513" lon="4.79152">
        <ele>170.85418774414</ele>
        <time>2017-08-09T15:32:59Z</time>
      </trkpt>
      <trkpt lat="46.16528" lon="4.79098">
        <ele>171.02018774414</ele>
        <time>2017-08-09T15:33:08Z</time>
      </trkpt>
      <trkpt lat="46.16548" lon="4.79052">
        <ele>171.23018774414</ele>
        <time>2017-08-09T15:33:15Z</time>
      </trkpt>
      <trkpt lat="46.16561" lon="4.79035">
        <ele>171.35518774414</ele>
        <time>2017-08-09T15:33:19Z</time>
      </trkpt>
      <trkpt lat="46.16589" lon="4.78981">
        <ele>171.42818774414</ele>
        <time>2017-08-09T15:33:28Z</time>
      </trkpt>
      <trkpt lat="46.16715" lon="4.78734">
        <ele>169.92018774414</ele>
        <time>2017-08-09T15:34:04Z</time>
      </trkpt>
      <trkpt lat="46.16822" lon="4.78615">
        <ele>170.26418774414</ele>
        <time>2017-08-09T15:34:31Z</time>
      </trkpt>
      <trkpt lat="46.16885" lon="4.78579">
        <ele>170.37718774414</ele>
        <time>2017-08-09T15:34:44Z</time>
      </trkpt>
      <trkpt lat="46.16981" lon="4.78508">
        <ele>170.13818774414</ele>
        <time>2017-08-09T15:35:03Z</time>
      </trkpt>
      <trkpt lat="46.17028" lon="4.78486">
        <ele>169.81618774414</ele>
        <time>2017-08-09T15:35:12Z</time>
      </trkpt>
      <trkpt lat="46.17297" lon="4.78328">
        <ele>168.45918774414</ele>
        <time>2017-08-09T15:36:03Z</time>
      </trkpt>
      <trkpt lat="46.17376" lon="4.78299">
        <ele>168.27418774414</ele>
        <time>2017-08-09T15:36:17Z</time>
      </trkpt>
      <trkpt lat="46.17504" lon="4.78265">
        <ele>168.18418774414</ele>
        <time>2017-08-09T15:36:41Z</time>
      </trkpt>
      <trkpt lat="46.17766" lon="4.78226">
        <ele>168.57018774414</ele>
        <time>2017-08-09T15:37:32Z</time>
      </trkpt>
      <trkpt lat="46.18559" lon="4.78179">
        <ele>170.84618774414</ele>
        <time>2017-08-09T15:40:08Z</time>
      </trkpt>
      <trkpt lat="46.18654" lon="4.7816">
        <ele>170.71618774414</ele>
        <time>2017-08-09T15:40:25Z</time>
      </trkpt>
      <trkpt lat="46.18669" lon="4.78159">
        <ele>170.69918774414</ele>
        <time>2017-08-09T15:40:28Z</time>
      </trkpt>
      <trkpt lat="46.18691" lon="4.78156">
        <ele>170.56818774414</ele>
        <time>2017-08-09T15:40:32Z</time>
      </trkpt>
      <trkpt lat="46.18701" lon="4.78155">
        <ele>170.55218774414</ele>
        <time>2017-08-09T15:40:34Z</time>
      </trkpt>
      <trkpt lat="46.1875" lon="4.78149">
        <ele>170.32818774414</ele>
        <time>2017-08-09T15:40:42Z</time>
      </trkpt>
      <trkpt lat="46.18776" lon="4.78138">
        <ele>170.09818774414</ele>
        <time>2017-08-09T15:40:47Z</time>
      </trkpt>
      <trkpt lat="46.18785" lon="4.7813">
        <ele>170.07218774414</ele>
        <time>2017-08-09T15:40:49Z</time>
      </trkpt>
      <trkpt lat="46.18788" lon="4.78128">
        <ele>169.94818774414</ele>
        <time>2017-08-09T15:40:49Z</time>
      </trkpt>
      <trkpt lat="46.18803" lon="4.7812">
        <ele>169.85618774414</ele>
        <time>2017-08-09T15:40:52Z</time>
      </trkpt>
      <trkpt lat="46.18829" lon="4.78116">
        <ele>169.61118774414</ele>
        <time>2017-08-09T15:40:56Z</time>
      </trkpt>
      <trkpt lat="46.18843" lon="4.78129">
        <ele>169.55718774414</ele>
        <time>2017-08-09T15:40:59Z</time>
      </trkpt>
      <trkpt lat="46.18931" lon="4.78156">
        <ele>169.00918774414</ele>
        <time>2017-08-09T15:41:15Z</time>
      </trkpt>
      <trkpt lat="46.18978" lon="4.78183">
        <ele>168.79618774414</ele>
        <time>2017-08-09T15:41:24Z</time>
      </trkpt>
      <trkpt lat="46.19045" lon="4.78248">
        <ele>168.59018774414</ele>
        <time>2017-08-09T15:41:38Z</time>
      </trkpt>
      <trkpt lat="46.19122" lon="4.78324">
        <ele>168.56518774414</ele>
        <time>2017-08-09T15:42:00Z</time>
      </trkpt>
      <trkpt lat="46.19318" lon="4.78515">
        <ele>169.10518774414</ele>
        <time>2017-08-09T15:42:58Z</time>
      </trkpt>
      <trkpt lat="46.19428" lon="4.78628">
        <ele>169.64018774414</ele>
        <time>2017-08-09T15:43:31Z</time>
      </trkpt>
      <trkpt lat="46.195" lon="4.78717">
        <ele>170.03118774414</ele>
        <time>2017-08-09T15:43:55Z</time>
      </trkpt>
      <trkpt lat="46.19726" lon="4.78976">
        <ele>170.47718774414</ele>
        <time>2017-08-09T15:45:04Z</time>
      </trkpt>
      <trkpt lat="46.19781" lon="4.79054">
        <ele>170.14018774414</ele>
        <time>2017-08-09T15:45:22Z</time>
      </trkpt>
      <trkpt lat="46.1985" lon="4.79131">
        <ele>169.62218774414</ele>
        <time>2017-08-09T15:45:41Z</time>
      </trkpt>
      <trkpt lat="46.19978" lon="4.79291">
        <ele>169.42818774414</ele>
        <time>2017-08-09T15:46:20Z</time>
      </trkpt>
      <trkpt lat="46.20125" lon="4.79461">
        <ele>170.42518774414</ele>
        <time>2017-08-09T15:47:08Z</time>
      </trkpt>
      <trkpt lat="46.20163" lon="4.79499">
        <ele>170.38618774414</ele>
        <time>2017-08-09T15:47:19Z</time>
      </trkpt>
      <trkpt lat="46.2019" lon="4.79513">
        <ele>170.30818774414</ele>
        <time>2017-08-09T15:47:26Z</time>
      </trkpt>
      <trkpt lat="46.20203" lon="4.79529">
        <ele>170.25118774414</ele>
        <time>2017-08-09T15:47:30Z</time>
      </trkpt>
      <trkpt lat="46.20226" lon="4.79558">
        <ele>170.10318774414</ele>
        <time>2017-08-09T15:47:36Z</time>
      </trkpt>
      <trkpt lat="46.20258" lon="4.7957">
        <ele>169.89118774414</ele>
        <time>2017-08-09T15:47:44Z</time>
      </trkpt>
      <trkpt lat="46.20324" lon="4.79585">
        <ele>169.32418774414</ele>
        <time>2017-08-09T15:47:58Z</time>
      </trkpt>
      <trkpt lat="46.2039" lon="4.7959">
        <ele>168.75118774414</ele>
        <time>2017-08-09T15:48:13Z</time>
      </trkpt>
      <trkpt lat="46.20499" lon="4.79564">
        <ele>168.36518774414</ele>
        <time>2017-08-09T15:48:37Z</time>
      </trkpt>
      <trkpt lat="46.20525" lon="4.79562">
        <ele>168.38218774414</ele>
        <time>2017-08-09T15:48:44Z</time>
      </trkpt>
      <trkpt lat="46.2061" lon="4.79521">
        <ele>168.72518774414</ele>
        <time>2017-08-09T15:49:06Z</time>
      </trkpt>
      <trkpt lat="46.20623" lon="4.79507">
        <ele>168.77818774414</ele>
        <time>2017-08-09T15:49:10Z</time>
      </trkpt>
      <trkpt lat="46.20627" lon="4.795">
        <ele>168.74518774414</ele>
        <time>2017-08-09T15:49:11Z</time>
      </trkpt>
      <trkpt lat="46.20635" lon="4.79488">
        <ele>168.91918774414</ele>
        <time>2017-08-09T15:49:15Z</time>
      </trkpt>
      <trkpt lat="46.20646" lon="4.79477">
        <ele>168.97718774414</ele>
        <time>2017-08-09T15:49:18Z</time>
      </trkpt>
      <trkpt lat="46.20684" lon="4.79468">
        <ele>169.23018774414</ele>
        <time>2017-08-09T15:49:28Z</time>
      </trkpt>
      <trkpt lat="46.20694" lon="4.79469">
        <ele>169.23718774414</ele>
        <time>2017-08-09T15:49:31Z</time>
      </trkpt>
      <trkpt lat="46.20714" lon="4.79487">
        <ele>169.48418774414</ele>
        <time>2017-08-09T15:49:37Z</time>
      </trkpt>
      <trkpt lat="46.20758" lon="4.7949">
        <ele>169.75018774414</ele>
        <time>2017-08-09T15:49:48Z</time>
      </trkpt>
      <trkpt lat="46.20849" lon="4.79475">
        <ele>170.22818774414</ele>
        <time>2017-08-09T15:50:12Z</time>
      </trkpt>
      <trkpt lat="46.21026" lon="4.79459">
        <ele>170.15618774414</ele>
        <time>2017-08-09T15:50:53Z</time>
      </trkpt>
      <trkpt lat="46.21219" lon="4.79471">
        <ele>169.79418774414</ele>
        <time>2017-08-09T15:51:38Z</time>
      </trkpt>
      <trkpt lat="46.21392" lon="4.79486">
        <ele>169.91118774414</ele>
        <time>2017-08-09T15:52:18Z</time>
      </trkpt>
      <trkpt lat="46.21549" lon="4.79535">
        <ele>170.29418774414</ele>
        <time>2017-08-09T15:52:58Z</time>
      </trkpt>
      <trkpt lat="46.21586" lon="4.79552">
        <ele>170.35118774414</ele>
        <time>2017-08-09T15:53:07Z</time>
      </trkpt>
      <trkpt lat="46.21747" lon="4.79603">
        <ele>170.21518774414</ele>
        <time>2017-08-09T15:53:45Z</time>
      </trkpt>
      <trkpt lat="46.21845" lon="4.79644">
        <ele>170.07418774414</ele>
        <time>2017-08-09T15:54:09Z</time>
      </trkpt>
      <trkpt lat="46.2196" lon="4.79715">
        <ele>169.76718774414</ele>
        <time>2017-08-09T15:54:37Z</time>
      </trkpt>
      <trkpt lat="46.22102" lon="4.7981">
        <ele>169.01518774414</ele>
        <time>2017-08-09T15:55:12Z</time>
      </trkpt>
      <trkpt lat="46.22186" lon="4.79857">
        <ele>168.61318774414</ele>
        <time>2017-08-09T15:55:33Z</time>
      </trkpt>
      <trkpt lat="46.22276" lon="4.79899">
        <ele>168.48018774414</ele>
        <time>2017-08-09T15:55:54Z</time>
      </trkpt>
      <trkpt lat="46.22285" lon="4.79904">
        <ele>168.53618774414</ele>
        <time>2017-08-09T15:55:57Z</time>
      </trkpt>
      <trkpt lat="46.2257" lon="4.80038">
        <ele>169.78418774414</ele>
        <time>2017-08-09T15:57:12Z</time>
      </trkpt>
      <trkpt lat="46.22686" lon="4.80086">
        <ele>169.67118774414</ele>
        <time>2017-08-09T15:57:40Z</time>
      </trkpt>
      <trkpt lat="46.22805" lon="4.80156">
        <ele>169.56718774414</ele>
        <time>2017-08-09T15:58:10Z</time>
      </trkpt>
      <trkpt lat="46.22812" lon="4.8016">
        <ele>169.64518774414</ele>
        <time>2017-08-09T15:58:12Z</time>
      </trkpt>
      <trkpt lat="46.22852" lon="4.8019">
        <ele>169.77018774414</ele>
        <time>2017-08-09T15:58:23Z</time>
      </trkpt>
      <trkpt lat="46.22895" lon="4.80232">
        <ele>169.87118774414</ele>
        <time>2017-08-09T15:58:36Z</time>
      </trkpt>
      <trkpt lat="46.22909" lon="4.80244">
        <ele>169.96818774414</ele>
        <time>2017-08-09T15:58:40Z</time>
      </trkpt>
      <trkpt lat="46.22926" lon="4.80252">
        <ele>169.98718774414</ele>
        <time>2017-08-09T15:58:44Z</time>
      </trkpt>
      <trkpt lat="46.22953" lon="4.80269">
        <ele>170.11618774414</ele>
        <time>2017-08-09T15:58:51Z</time>
      </trkpt>
      <trkpt lat="46.22986" lon="4.80293">
        <ele>170.16718774414</ele>
        <time>2017-08-09T15:59:00Z</time>
      </trkpt>
      <trkpt lat="46.23022" lon="4.80324">
        <ele>170.16918774414</ele>
        <time>2017-08-09T15:59:10Z</time>
      </trkpt>
      <trkpt lat="46.23093" lon="4.80397">
        <ele>169.97818774414</ele>
        <time>2017-08-09T15:59:30Z</time>
      </trkpt>
      <trkpt lat="46.23145" lon="4.80463">
        <ele>169.74818774414</ele>
        <time>2017-08-09T15:59:46Z</time>
      </trkpt>
      <trkpt lat="46.23349" lon="4.80698">
        <ele>169.44118774414</ele>
        <time>2017-08-09T16:00:46Z</time>
      </trkpt>
      <trkpt lat="46.23448" lon="4.80797">
        <ele>169.18418774414</ele>
        <time>2017-08-09T16:01:14Z</time>
      </trkpt>
      <trkpt lat="46.23482" lon="4.80833">
        <ele>168.99018774414</ele>
        <time>2017-08-09T16:01:23Z</time>
      </trkpt>
      <trkpt lat="46.23517" lon="4.80861">
        <ele>168.85818774414</ele>
        <time>2017-08-09T16:01:32Z</time>
      </trkpt>
      <trkpt lat="46.2353" lon="4.80872">
        <ele>168.88018774414</ele>
        <time>2017-08-09T16:01:36Z</time>
      </trkpt>
      <trkpt lat="46.23543" lon="4.80887">
        <ele>168.74218774414</ele>
        <time>2017-08-09T16:01:40Z</time>
      </trkpt>
      <trkpt lat="46.23601" lon="4.80935">
        <ele>168.62118774414</ele>
        <time>2017-08-09T16:02:00Z</time>
      </trkpt>
      <trkpt lat="46.23708" lon="4.81007">
        <ele>168.69418774414</ele>
        <time>2017-08-09T16:02:35Z</time>
      </trkpt>
      <trkpt lat="46.2378" lon="4.81044">
        <ele>169.00918774414</ele>
        <time>2017-08-09T16:02:59Z</time>
      </trkpt>
      <trkpt lat="46.23859" lon="4.81074">
        <ele>169.47318774414</ele>
        <time>2017-08-09T16:03:25Z</time>
      </trkpt>
      <trkpt lat="46.23979" lon="4.81103">
        <ele>169.96518774414</ele>
        <time>2017-08-09T16:04:03Z</time>
      </trkpt>
      <trkpt lat="46.24002" lon="4.81106">
        <ele>169.97218774414</ele>
        <time>2017-08-09T16:04:10Z</time>
      </trkpt>
      <trkpt lat="46.24011" lon="4.811">
        <ele>169.94718774414</ele>
        <time>2017-08-09T16:04:13Z</time>
      </trkpt>
      <trkpt lat="46.24025" lon="4.81081">
        <ele>169.95618774414</ele>
        <time>2017-08-09T16:04:19Z</time>
      </trkpt>
      <trkpt lat="46.24043" lon="4.81073">
        <ele>169.93018774414</ele>
        <time>2017-08-09T16:04:24Z</time>
      </trkpt>
      <trkpt lat="46.24067" lon="4.81077">
        <ele>169.96518774414</ele>
        <time>2017-08-09T16:04:32Z</time>
      </trkpt>
      <trkpt lat="46.24084" lon="4.81093">
        <ele>169.95818774414</ele>
        <time>2017-08-09T16:04:38Z</time>
      </trkpt>
      <trkpt lat="46.24094" lon="4.81112">
        <ele>169.96018774414</ele>
        <time>2017-08-09T16:04:43Z</time>
      </trkpt>
      <trkpt lat="46.24111" lon="4.81134">
        <ele>169.94718774414</ele>
        <time>2017-08-09T16:04:49Z</time>
      </trkpt>
      <trkpt lat="46.24136" lon="4.81139">
        <ele>169.89318774414</ele>
        <time>2017-08-09T16:04:57Z</time>
      </trkpt>
      <trkpt lat="46.24143" lon="4.81229">
        <ele>169.80418774414</ele>
        <time>2017-08-09T16:05:11Z</time>
      </trkpt>
      <trkpt lat="46.24208" lon="4.80803">
        <ele>170.47118774414</ele>
        <time>2017-08-09T16:06:44Z</time>
      </trkpt>
      <trkpt lat="46.24221" lon="4.80721">
        <ele>170.58818774414</ele>
        <time>2017-08-09T16:07:02Z</time>
      </trkpt>
      <trkpt lat="46.24223" lon="4.80714">
        <ele>170.79618774414</ele>
        <time>2017-08-09T16:07:04Z</time>
      </trkpt>
      <trkpt lat="46.24229" lon="4.80705">
        <ele>170.79918774414</ele>
        <time>2017-08-09T16:07:07Z</time>
      </trkpt>
      <trkpt lat="46.24236" lon="4.80661">
        <ele>170.91618774414</ele>
        <time>2017-08-09T16:07:13Z</time>
      </trkpt>
      <trkpt lat="46.24244" lon="4.80588">
        <ele>170.97018774414</ele>
        <time>2017-08-09T16:07:23Z</time>
      </trkpt>
      <trkpt lat="46.24245" lon="4.80503">
        <ele>171.11218774414</ele>
        <time>2017-08-09T16:07:34Z</time>
      </trkpt>
      <trkpt lat="46.24235" lon="4.80412">
        <ele>170.67418774414</ele>
        <time>2017-08-09T16:07:45Z</time>
      </trkpt>
      <trkpt lat="46.24215" lon="4.80308">
        <ele>170.46918774414</ele>
        <time>2017-08-09T16:07:58Z</time>
      </trkpt>
      <trkpt lat="46.2421" lon="4.8027">
        <ele>170.44718774414</ele>
        <time>2017-08-09T16:08:03Z</time>
      </trkpt>
      <trkpt lat="46.24207" lon="4.80232">
        <ele>170.52518774414</ele>
        <time>2017-08-09T16:08:09Z</time>
      </trkpt>
      <trkpt lat="46.24205" lon="4.80199">
        <ele>170.61218774414</ele>
        <time>2017-08-09T16:08:13Z</time>
      </trkpt>
      <trkpt lat="46.24208" lon="4.80128">
        <ele>170.90918774414</ele>
        <time>2017-08-09T16:08:23Z</time>
      </trkpt>
      <trkpt lat="46.24214" lon="4.80084">
        <ele>171.17118774414</ele>
        <time>2017-08-09T16:08:30Z</time>
      </trkpt>
      <trkpt lat="46.24246" lon="4.79878">
        <ele>172.34118774414</ele>
        <time>2017-08-09T16:09:01Z</time>
      </trkpt>
      <trkpt lat="46.24265" lon="4.79757">
        <ele>172.76818774414</ele>
        <time>2017-08-09T16:09:18Z</time>
      </trkpt>
      <trkpt lat="46.24298" lon="4.79533">
        <ele>173.21818774414</ele>
        <time>2017-08-09T16:09:48Z</time>
      </trkpt>
      <trkpt lat="46.24302" lon="4.79506">
        <ele>173.33518774414</ele>
        <time>2017-08-09T16:09:52Z</time>
      </trkpt>
      <trkpt lat="46.24312" lon="4.7944">
        <ele>173.64618774414</ele>
        <time>2017-08-09T16:10:01Z</time>
      </trkpt>
      <trkpt lat="46.24351" lon="4.79196">
        <ele>175.03718774414</ele>
        <time>2017-08-09T16:10:38Z</time>
      </trkpt>
      <trkpt lat="46.24365" lon="4.79105">
        <ele>175.35618774414</ele>
        <time>2017-08-09T16:10:51Z</time>
      </trkpt>
      <trkpt lat="46.24388" lon="4.78954">
        <ele>175.99918774414</ele>
        <time>2017-08-09T16:11:12Z</time>
      </trkpt>
      <trkpt lat="46.2439" lon="4.78941">
        <ele>176.08118774414</ele>
        <time>2017-08-09T16:11:14Z</time>
      </trkpt>
      <trkpt lat="46.24401" lon="4.7886">
        <ele>176.40218774414</ele>
        <time>2017-08-09T16:11:26Z</time>
      </trkpt>
      <trkpt lat="46.24407" lon="4.78821">
        <ele>176.56518774414</ele>
        <time>2017-08-09T16:11:31Z</time>
      </trkpt>
      <trkpt lat="46.24413" lon="4.7878">
        <ele>176.78518774414</ele>
        <time>2017-08-09T16:11:37Z</time>
      </trkpt>
      <trkpt lat="46.24421" lon="4.78731">
        <ele>177.03518774414</ele>
        <time>2017-08-09T16:11:45Z</time>
      </trkpt>
      <trkpt lat="46.24498" lon="4.78714">
        <ele>177.35618774414</ele>
        <time>2017-08-09T16:12:00Z</time>
      </trkpt>
      <trkpt lat="46.24529" lon="4.78707">
        <ele>177.38518774414</ele>
        <time>2017-08-09T16:12:05Z</time>
      </trkpt>
      <trkpt lat="46.24545" lon="4.78703">
        <ele>177.36918774414</ele>
        <time>2017-08-09T16:12:08Z</time>
      </trkpt>
      <trkpt lat="46.24568" lon="4.78703">
        <ele>177.36518774414</ele>
        <time>2017-08-09T16:12:12Z</time>
      </trkpt>
      <trkpt lat="46.2458" lon="4.78703">
        <ele>177.35818774414</ele>
        <time>2017-08-09T16:12:14Z</time>
      </trkpt>
      <trkpt lat="46.24587" lon="4.78705">
        <ele>177.33618774414</ele>
        <time>2017-08-09T16:12:16Z</time>
      </trkpt>
      <trkpt lat="46.24623" lon="4.7871">
        <ele>177.38118774414</ele>
        <time>2017-08-09T16:12:22Z</time>
      </trkpt>
      <trkpt lat="46.24625" lon="4.78697">
        <ele>177.39718774414</ele>
        <time>2017-08-09T16:12:24Z</time>
      </trkpt>
      <trkpt lat="46.24625" lon="4.78673">
        <ele>177.45718774414</ele>
        <time>2017-08-09T16:12:28Z</time>
      </trkpt>
      <trkpt lat="46.24629" lon="4.78659">
        <ele>177.42918774414</ele>
        <time>2017-08-09T16:12:29Z</time>
      </trkpt>
      <trkpt lat="46.24639" lon="4.7865">
        <ele>177.45918774414</ele>
        <time>2017-08-09T16:12:32Z</time>
      </trkpt>
      <trkpt lat="46.24661" lon="4.78634">
        <ele>177.43418774414</ele>
        <time>2017-08-09T16:12:36Z</time>
      </trkpt>
      <trkpt lat="46.24693" lon="4.78611">
        <ele>177.40518774414</ele>
        <time>2017-08-09T16:12:43Z</time>
      </trkpt>
      <trkpt lat="46.24716" lon="4.78595">
        <ele>177.41418774414</ele>
        <time>2017-08-09T16:12:48Z</time>
      </trkpt>
      <trkpt lat="46.24744" lon="4.78575">
        <ele>177.35218774414</ele>
        <time>2017-08-09T16:12:53Z</time>
      </trkpt>
      <trkpt lat="46.24771" lon="4.78557">
        <ele>177.31618774414</ele>
        <time>2017-08-09T16:12:59Z</time>
      </trkpt>
      <trkpt lat="46.24812" lon="4.78525">
        <ele>177.28918774414</ele>
        <time>2017-08-09T16:13:07Z</time>
      </trkpt>
      <trkpt lat="46.24839" lon="4.78503">
        <ele>177.22118774414</ele>
        <time>2017-08-09T16:13:13Z</time>
      </trkpt>
      <trkpt lat="46.24857" lon="4.78494">
        <ele>177.14918774414</ele>
        <time>2017-08-09T16:13:16Z</time>
      </trkpt>
      <trkpt lat="46.24863" lon="4.78491">
        <ele>177.10518774414</ele>
        <time>2017-08-09T16:13:17Z</time>
      </trkpt>
      <trkpt lat="46.24891" lon="4.78483">
        <ele>177.01918774414</ele>
        <time>2017-08-09T16:13:22Z</time>
      </trkpt>
      <trkpt lat="46.24913" lon="4.78485">
        <ele>176.96018774414</ele>
        <time>2017-08-09T16:13:26Z</time>
      </trkpt>
      <trkpt lat="46.24933" lon="4.78492">
        <ele>176.91818774414</ele>
        <time>2017-08-09T16:13:30Z</time>
      </trkpt>
      <trkpt lat="46.24933" lon="4.7848">
        <ele>176.93518774414</ele>
        <time>2017-08-09T16:13:31Z</time>
      </trkpt>
      <trkpt lat="46.24937" lon="4.7846">
        <ele>176.93418774414</ele>
        <time>2017-08-09T16:13:34Z</time>
      </trkpt>
      <trkpt lat="46.24942" lon="4.7845">
        <ele>176.94718774414</ele>
        <time>2017-08-09T16:13:36Z</time>
      </trkpt>
      <trkpt lat="46.24949" lon="4.78439">
        <ele>176.96518774414</ele>
        <time>2017-08-09T16:13:37Z</time>
      </trkpt>
      <trkpt lat="46.24957" lon="4.7843">
        <ele>176.99418774414</ele>
        <time>2017-08-09T16:13:39Z</time>
      </trkpt>
      <trkpt lat="46.24966" lon="4.78424">
        <ele>177.02618774414</ele>
        <time>2017-08-09T16:13:41Z</time>
      </trkpt>
      <trkpt lat="46.25029" lon="4.78375">
        <ele>177.40018774414</ele>
        <time>2017-08-09T16:13:56Z</time>
      </trkpt>
      <trkpt lat="46.25037" lon="4.78369">
        <ele>177.40518774414</ele>
        <time>2017-08-09T16:13:57Z</time>
      </trkpt>
      <trkpt lat="46.25127" lon="4.78295">
        <ele>177.70818774414</ele>
        <time>2017-08-09T16:14:17Z</time>
      </trkpt>
      <trkpt lat="46.25131" lon="4.78291">
        <ele>177.65818774414</ele>
        <time>2017-08-09T16:14:18Z</time>
      </trkpt>
      <trkpt lat="46.25169" lon="4.78263">
        <ele>177.66318774414</ele>
        <time>2017-08-09T16:14:25Z</time>
      </trkpt>
      <trkpt lat="46.25191" lon="4.78252">
        <ele>177.72618774414</ele>
        <time>2017-08-09T16:14:30Z</time>
      </trkpt>
      <trkpt lat="46.25224" lon="4.78238">
        <ele>177.71818774414</ele>
        <time>2017-08-09T16:14:36Z</time>
      </trkpt>
      <trkpt lat="46.25307" lon="4.78208">
        <ele>177.57418774414</ele>
        <time>2017-08-09T16:14:51Z</time>
      </trkpt>
      <trkpt lat="46.25348" lon="4.78192">
        <ele>177.58218774414</ele>
        <time>2017-08-09T16:14:58Z</time>
      </trkpt>
      <trkpt lat="46.25387" lon="4.78182">
        <ele>177.70118774414</ele>
        <time>2017-08-09T16:15:06Z</time>
      </trkpt>
      <trkpt lat="46.25404" lon="4.78181">
        <ele>177.76918774414</ele>
        <time>2017-08-09T16:15:09Z</time>
      </trkpt>
      <trkpt lat="46.25456" lon="4.7819">
        <ele>177.97218774414</ele>
        <time>2017-08-09T16:15:19Z</time>
      </trkpt>
      <trkpt lat="46.25483" lon="4.78192">
        <ele>178.05318774414</ele>
        <time>2017-08-09T16:15:24Z</time>
      </trkpt>
      <trkpt lat="46.25514" lon="4.78187">
        <ele>178.09418774414</ele>
        <time>2017-08-09T16:15:30Z</time>
      </trkpt>
      <trkpt lat="46.25554" lon="4.78181">
        <ele>178.08818774414</ele>
        <time>2017-08-09T16:15:37Z</time>
      </trkpt>
      <trkpt lat="46.25679" lon="4.78159">
        <ele>177.87418774414</ele>
        <time>2017-08-09T16:15:59Z</time>
      </trkpt>
      <trkpt lat="46.25817" lon="4.78136">
        <ele>177.88018774414</ele>
        <time>2017-08-09T16:16:24Z</time>
      </trkpt>
      <trkpt lat="46.25926" lon="4.78113">
        <ele>177.86518774414</ele>
        <time>2017-08-09T16:16:43Z</time>
      </trkpt>
      <trkpt lat="46.26088" lon="4.78075">
        <ele>177.38518774414</ele>
        <time>2017-08-09T16:17:11Z</time>
      </trkpt>
      <trkpt lat="46.26104" lon="4.78072">
        <ele>177.26918774414</ele>
        <time>2017-08-09T16:17:14Z</time>
      </trkpt>
      <trkpt lat="46.26106" lon="4.78072">
        <ele>177.28018774414</ele>
        <time>2017-08-09T16:17:14Z</time>
      </trkpt>
      <trkpt lat="46.26226" lon="4.7804">
        <ele>177.04818774414</ele>
        <time>2017-08-09T16:17:36Z</time>
      </trkpt>
      <trkpt lat="46.2628" lon="4.7803">
        <ele>177.13818774414</ele>
        <time>2017-08-09T16:17:46Z</time>
      </trkpt>
      <trkpt lat="46.26308" lon="4.7803">
        <ele>177.22418774414</ele>
        <time>2017-08-09T16:17:51Z</time>
      </trkpt>
      <trkpt lat="46.26419" lon="4.7805">
        <ele>177.64418774414</ele>
        <time>2017-08-09T16:18:12Z</time>
      </trkpt>
      <trkpt lat="46.26426" lon="4.78051">
        <ele>177.68718774414</ele>
        <time>2017-08-09T16:18:14Z</time>
      </trkpt>
      <trkpt lat="46.26543" lon="4.78037">
        <ele>178.26218774414</ele>
        <time>2017-08-09T16:18:37Z</time>
      </trkpt>
      <trkpt lat="46.26567" lon="4.78038">
        <ele>178.40118774414</ele>
        <time>2017-08-09T16:18:42Z</time>
      </trkpt>
      <trkpt lat="46.26653" lon="4.78051">
        <ele>178.89918774414</ele>
        <time>2017-08-09T16:18:59Z</time>
      </trkpt>
      <trkpt lat="46.26755" lon="4.78065">
        <ele>179.48818774414</ele>
        <time>2017-08-09T16:19:20Z</time>
      </trkpt>
      <trkpt lat="46.26798" lon="4.78065">
        <ele>179.72418774414</ele>
        <time>2017-08-09T16:19:28Z</time>
      </trkpt>
      <trkpt lat="46.26826" lon="4.78058">
        <ele>179.87918774414</ele>
        <time>2017-08-09T16:19:34Z</time>
      </trkpt>
      <trkpt lat="46.26991" lon="4.77996">
        <ele>181.28518774414</ele>
        <time>2017-08-09T16:20:10Z</time>
      </trkpt>
      <trkpt lat="46.27021" lon="4.77985">
        <ele>181.64218774414</ele>
        <time>2017-08-09T16:20:17Z</time>
      </trkpt>
      <trkpt lat="46.27275" lon="4.77881">
        <ele>185.26018774414</ele>
        <time>2017-08-09T16:21:19Z</time>
      </trkpt>
      <trkpt lat="46.27293" lon="4.77874">
        <ele>185.48918774414</ele>
        <time>2017-08-09T16:21:23Z</time>
      </trkpt>
      <trkpt lat="46.27305" lon="4.77874">
        <ele>185.61818774414</ele>
        <time>2017-08-09T16:21:25Z</time>
      </trkpt>
      <trkpt lat="46.27308" lon="4.77879">
        <ele>185.65318774414</ele>
        <time>2017-08-09T16:21:26Z</time>
      </trkpt>
      <trkpt lat="46.27311" lon="4.77882">
        <ele>185.70118774414</ele>
        <time>2017-08-09T16:21:27Z</time>
      </trkpt>
      <trkpt lat="46.27318" lon="4.77883">
        <ele>185.76818774414</ele>
        <time>2017-08-09T16:21:29Z</time>
      </trkpt>
      <trkpt lat="46.27322" lon="4.77881">
        <ele>185.83518774414</ele>
        <time>2017-08-09T16:21:30Z</time>
      </trkpt>
      <trkpt lat="46.27326" lon="4.77875">
        <ele>185.90318774414</ele>
        <time>2017-08-09T16:21:31Z</time>
      </trkpt>
      <trkpt lat="46.27328" lon="4.7787">
        <ele>185.96118774414</ele>
        <time>2017-08-09T16:21:32Z</time>
      </trkpt>
      <trkpt lat="46.27329" lon="4.77863">
        <ele>185.99318774414</ele>
        <time>2017-08-09T16:21:33Z</time>
      </trkpt>
      <trkpt lat="46.27327" lon="4.77855">
        <ele>186.04818774414</ele>
        <time>2017-08-09T16:21:34Z</time>
      </trkpt>
      <trkpt lat="46.27378" lon="4.77837">
        <ele>186.61418774414</ele>
        <time>2017-08-09T16:21:46Z</time>
      </trkpt>
      <trkpt lat="46.27433" lon="4.77817">
        <ele>187.16018774414</ele>
        <time>2017-08-09T16:21:58Z</time>
      </trkpt>
      <trkpt lat="46.27602" lon="4.77747">
        <ele>189.14018774414</ele>
        <time>2017-08-09T16:22:37Z</time>
      </trkpt>
      <trkpt lat="46.27739" lon="4.77693">
        <ele>190.97718774414</ele>
        <time>2017-08-09T16:23:10Z</time>
      </trkpt>
      <trkpt lat="46.27805" lon="4.77668">
        <ele>191.57318774414</ele>
        <time>2017-08-09T16:23:25Z</time>
      </trkpt>
      <trkpt lat="46.27853" lon="4.77669">
        <ele>191.80818774414</ele>
        <time>2017-08-09T16:23:34Z</time>
      </trkpt>
      <trkpt lat="46.27921" lon="4.77676">
        <ele>191.96918774414</ele>
        <time>2017-08-09T16:23:47Z</time>
      </trkpt>
      <trkpt lat="46.27979" lon="4.77674">
        <ele>192.09318774414</ele>
        <time>2017-08-09T16:23:58Z</time>
      </trkpt>
      <trkpt lat="46.28025" lon="4.77667">
        <ele>192.12518774414</ele>
        <time>2017-08-09T16:24:06Z</time>
      </trkpt>
      <trkpt lat="46.2813" lon="4.77633">
        <ele>191.85618774414</ele>
        <time>2017-08-09T16:24:24Z</time>
      </trkpt>
      <trkpt lat="46.28151" lon="4.77627">
        <ele>191.81018774414</ele>
        <time>2017-08-09T16:24:28Z</time>
      </trkpt>
      <trkpt lat="46.28161" lon="4.77624">
        <ele>191.69118774414</ele>
        <time>2017-08-09T16:24:30Z</time>
      </trkpt>
      <trkpt lat="46.28311" lon="4.7761">
        <ele>189.43418774414</ele>
        <time>2017-08-09T16:24:53Z</time>
      </trkpt>
      <trkpt lat="46.28333" lon="4.77608">
        <ele>189.00218774414</ele>
        <time>2017-08-09T16:24:56Z</time>
      </trkpt>
      <trkpt lat="46.28349" lon="4.77613">
        <ele>188.72118774414</ele>
        <time>2017-08-09T16:24:58Z</time>
      </trkpt>
      <trkpt lat="46.28359" lon="4.77619">
        <ele>188.51918774414</ele>
        <time>2017-08-09T16:25:00Z</time>
      </trkpt>
      <trkpt lat="46.28371" lon="4.77636">
        <ele>188.24218774414</ele>
        <time>2017-08-09T16:25:02Z</time>
      </trkpt>
      <trkpt lat="46.28374" lon="4.77654">
        <ele>187.97818774414</ele>
        <time>2017-08-09T16:25:04Z</time>
      </trkpt>
      <trkpt lat="46.28376" lon="4.77852">
        <ele>185.26118774414</ele>
        <time>2017-08-09T16:25:25Z</time>
      </trkpt>
      <trkpt lat="46.28382" lon="4.77916">
        <ele>184.16418774414</ele>
        <time>2017-08-09T16:25:31Z</time>
      </trkpt>
      <trkpt lat="46.28391" lon="4.77944">
        <ele>183.69918774414</ele>
        <time>2017-08-09T16:25:34Z</time>
      </trkpt>
      <trkpt lat="46.28396" lon="4.77959">
        <ele>183.34318774414</ele>
        <time>2017-08-09T16:25:36Z</time>
      </trkpt>
      <trkpt lat="46.28398" lon="4.77964">
        <ele>183.26518774414</ele>
        <time>2017-08-09T16:25:36Z</time>
      </trkpt>
      <trkpt lat="46.284" lon="4.77968">
        <ele>183.17218774414</ele>
        <time>2017-08-09T16:25:37Z</time>
      </trkpt>
      <trkpt lat="46.28405" lon="4.77981">
        <ele>182.94518774414</ele>
        <time>2017-08-09T16:25:38Z</time>
      </trkpt>
      <trkpt lat="46.28419" lon="4.78006">
        <ele>182.38718774414</ele>
        <time>2017-08-09T16:25:41Z</time>
      </trkpt>
      <trkpt lat="46.28428" lon="4.7802">
        <ele>182.12618774414</ele>
        <time>2017-08-09T16:25:43Z</time>
      </trkpt>
      <trkpt lat="46.28446" lon="4.7805">
        <ele>181.48018774414</ele>
        <time>2017-08-09T16:25:47Z</time>
      </trkpt>
      <trkpt lat="46.28455" lon="4.78066">
        <ele>181.22118774414</ele>
        <time>2017-08-09T16:25:49Z</time>
      </trkpt>
      <trkpt lat="46.28461" lon="4.78077">
        <ele>180.96018774414</ele>
        <time>2017-08-09T16:25:51Z</time>
      </trkpt>
      <trkpt lat="46.2847" lon="4.78102">
        <ele>180.59218774414</ele>
        <time>2017-08-09T16:25:54Z</time>
      </trkpt>
      <trkpt lat="46.28474" lon="4.78113">
        <ele>180.42518774414</ele>
        <time>2017-08-09T16:25:55Z</time>
      </trkpt>
      <trkpt lat="46.28474" lon="4.78136">
        <ele>180.06518774414</ele>
        <time>2017-08-09T16:25:57Z</time>
      </trkpt>
      <trkpt lat="46.28472" lon="4.78139">
        <ele>180.00618774414</ele>
        <time>2017-08-09T16:25:57Z</time>
      </trkpt>
      <trkpt lat="46.2847" lon="4.78144">
        <ele>179.95418774414</ele>
        <time>2017-08-09T16:25:58Z</time>
      </trkpt>
      <trkpt lat="46.2847" lon="4.78152">
        <ele>179.86718774414</ele>
        <time>2017-08-09T16:25:59Z</time>
      </trkpt>
      <trkpt lat="46.28472" lon="4.7816">
        <ele>179.77218774414</ele>
        <time>2017-08-09T16:26:00Z</time>
      </trkpt>
      <trkpt lat="46.28475" lon="4.78166">
        <ele>179.69418774414</ele>
        <time>2017-08-09T16:26:01Z</time>
      </trkpt>
      <trkpt lat="46.28479" lon="4.7817">
        <ele>179.62318774414</ele>
        <time>2017-08-09T16:26:01Z</time>
      </trkpt>
      <trkpt lat="46.28486" lon="4.78172">
        <ele>179.53818774414</ele>
        <time>2017-08-09T16:26:02Z</time>
      </trkpt>
      <trkpt lat="46.2849" lon="4.78171">
        <ele>179.47218774414</ele>
        <time>2017-08-09T16:26:03Z</time>
      </trkpt>
      <trkpt lat="46.28491" lon="4.7817">
        <ele>179.46418774414</ele>
        <time>2017-08-09T16:26:03Z</time>
      </trkpt>
      <trkpt lat="46.28494" lon="4.78168">
        <ele>179.43318774414</ele>
        <time>2017-08-09T16:26:04Z</time>
      </trkpt>
      <trkpt lat="46.28497" lon="4.78164">
        <ele>179.39018774414</ele>
        <time>2017-08-09T16:26:05Z</time>
      </trkpt>
      <trkpt lat="46.28511" lon="4.78163">
        <ele>179.25418774414</ele>
        <time>2017-08-09T16:26:07Z</time>
      </trkpt>
      <trkpt lat="46.2852" lon="4.78168">
        <ele>179.18018774414</ele>
        <time>2017-08-09T16:26:08Z</time>
      </trkpt>
      <trkpt lat="46.28529" lon="4.78176">
        <ele>179.13118774414</ele>
        <time>2017-08-09T16:26:10Z</time>
      </trkpt>
      <trkpt lat="46.2854" lon="4.78186">
        <ele>179.08718774414</ele>
        <time>2017-08-09T16:26:12Z</time>
      </trkpt>
      <trkpt lat="46.28569" lon="4.78219">
        <ele>179.16618774414</ele>
        <time>2017-08-09T16:26:19Z</time>
      </trkpt>
      <trkpt lat="46.2858" lon="4.7823">
        <ele>179.21918774414</ele>
        <time>2017-08-09T16:26:22Z</time>
      </trkpt>
      <trkpt lat="46.28596" lon="4.78245">
        <ele>179.40118774414</ele>
        <time>2017-08-09T16:26:26Z</time>
      </trkpt>
      <trkpt lat="46.28628" lon="4.78274">
        <ele>179.78018774414</ele>
        <time>2017-08-09T16:26:34Z</time>
      </trkpt>
      <trkpt lat="46.28662" lon="4.78306">
        <ele>180.27918774414</ele>
        <time>2017-08-09T16:26:43Z</time>
      </trkpt>
      <trkpt lat="46.2869" lon="4.7833">
        <ele>180.74518774414</ele>
        <time>2017-08-09T16:26:51Z</time>
      </trkpt>
      <trkpt lat="46.28712" lon="4.78348">
        <ele>181.14118774414</ele>
        <time>2017-08-09T16:26:57Z</time>
      </trkpt>
      <trkpt lat="46.2872" lon="4.78354">
        <ele>181.30118774414</ele>
        <time>2017-08-09T16:26:59Z</time>
      </trkpt>
      <trkpt lat="46.28756" lon="4.78376">
        <ele>182.02518774414</ele>
        <time>2017-08-09T16:27:09Z</time>
      </trkpt>
      <trkpt lat="46.2877" lon="4.78383">
        <ele>182.33518774414</ele>
        <time>2017-08-09T16:27:13Z</time>
      </trkpt>
      <trkpt lat="46.2878" lon="4.78391">
        <ele>182.60418774414</ele>
        <time>2017-08-09T16:27:16Z</time>
      </trkpt>
      <trkpt lat="46.28785" lon="4.78398">
        <ele>182.77018774414</ele>
        <time>2017-08-09T16:27:18Z</time>
      </trkpt>
      <trkpt lat="46.28785" lon="4.78405">
        <ele>182.88118774414</ele>
        <time>2017-08-09T16:27:19Z</time>
      </trkpt>
      <trkpt lat="46.28796" lon="4.78426">
        <ele>183.29018774414</ele>
        <time>2017-08-09T16:27:24Z</time>
      </trkpt>
      <trkpt lat="46.28798" lon="4.78427">
        <ele>183.35418774414</ele>
        <time>2017-08-09T16:27:25Z</time>
      </trkpt>
      <trkpt lat="46.288" lon="4.78428">
        <ele>183.42318774414</ele>
        <time>2017-08-09T16:27:25Z</time>
      </trkpt>
      <trkpt lat="46.28812" lon="4.78428">
        <ele>183.72418774414</ele>
        <time>2017-08-09T16:27:29Z</time>
      </trkpt>
      <trkpt lat="46.28814" lon="4.78427">
        <ele>183.79218774414</ele>
        <time>2017-08-09T16:27:30Z</time>
      </trkpt>
      <trkpt lat="46.28817" lon="4.78425">
        <ele>183.87618774414</ele>
        <time>2017-08-09T16:27:30Z</time>
      </trkpt>
      <trkpt lat="46.28822" lon="4.78419">
        <ele>184.04618774414</ele>
        <time>2017-08-09T16:27:32Z</time>
      </trkpt>
      <trkpt lat="46.28826" lon="4.78412">
        <ele>184.19718774414</ele>
        <time>2017-08-09T16:27:34Z</time>
      </trkpt>
      <trkpt lat="46.28829" lon="4.78409">
        <ele>184.31118774414</ele>
        <time>2017-08-09T16:27:35Z</time>
      </trkpt>
      <trkpt lat="46.28846" lon="4.78402">
        <ele>184.81318774414</ele>
        <time>2017-08-09T16:27:40Z</time>
      </trkpt>
      <trkpt lat="46.29019" lon="4.78415">
        <ele>190.08518774414</ele>
        <time>2017-08-09T16:28:34Z</time>
      </trkpt>
      <trkpt lat="46.29021" lon="4.78426">
        <ele>190.41518774414</ele>
        <time>2017-08-09T16:28:37Z</time>
      </trkpt>
      <trkpt lat="46.29029" lon="4.78441">
        <ele>190.82318774414</ele>
        <time>2017-08-09T16:28:41Z</time>
      </trkpt>
      <trkpt lat="46.29036" lon="4.78447">
        <ele>191.07418774414</ele>
        <time>2017-08-09T16:28:43Z</time>
      </trkpt>
      <trkpt lat="46.29045" lon="4.78448">
        <ele>191.42518774414</ele>
        <time>2017-08-09T16:28:46Z</time>
      </trkpt>
      <trkpt lat="46.29052" lon="4.78444">
        <ele>191.65318774414</ele>
        <time>2017-08-09T16:28:49Z</time>
      </trkpt>
      <trkpt lat="46.29063" lon="4.78428">
        <ele>192.07018774414</ele>
        <time>2017-08-09T16:28:53Z</time>
      </trkpt>
      <trkpt lat="46.29065" lon="4.78412">
        <ele>192.40518774414</ele>
        <time>2017-08-09T16:28:57Z</time>
      </trkpt>
      <trkpt lat="46.29084" lon="4.78417">
        <ele>192.87318774414</ele>
        <time>2017-08-09T16:29:02Z</time>
      </trkpt>
      <trkpt lat="46.29149" lon="4.78422">
        <ele>194.09818774414</ele>
        <time>2017-08-09T16:29:19Z</time>
      </trkpt>
      <trkpt lat="46.29166" lon="4.78432">
        <ele>194.33918774414</ele>
        <time>2017-08-09T16:29:23Z</time>
      </trkpt>
      <trkpt lat="46.29211" lon="4.78335">
        <ele>194.84718774414</ele>
        <time>2017-08-09T16:29:40Z</time>
      </trkpt>
      <trkpt lat="46.29252" lon="4.7828">
        <ele>194.87018774414</ele>
        <time>2017-08-09T16:29:50Z</time>
      </trkpt>
      <trkpt lat="46.29357" lon="4.78172">
        <ele>193.82618774414</ele>
        <time>2017-08-09T16:30:11Z</time>
      </trkpt>
      <trkpt lat="46.29379" lon="4.78154">
        <ele>193.69018774414</ele>
        <time>2017-08-09T16:30:15Z</time>
      </trkpt>
      <trkpt lat="46.294" lon="4.78132">
        <ele>193.53918774414</ele>
        <time>2017-08-09T16:30:19Z</time>
      </trkpt>
      <trkpt lat="46.29446" lon="4.78081">
        <ele>193.39118774414</ele>
        <time>2017-08-09T16:30:29Z</time>
      </trkpt>
      <trkpt lat="46.29547" lon="4.77982">
        <ele>193.76218774414</ele>
        <time>2017-08-09T16:30:52Z</time>
      </trkpt>
      <trkpt lat="46.29578" lon="4.77954">
        <ele>193.98618774414</ele>
        <time>2017-08-09T16:31:00Z</time>
      </trkpt>
      <trkpt lat="46.29607" lon="4.77923">
        <ele>194.18318774414</ele>
        <time>2017-08-09T16:31:07Z</time>
      </trkpt>
      <trkpt lat="46.29665" lon="4.77868">
        <ele>194.49518774414</ele>
        <time>2017-08-09T16:31:21Z</time>
      </trkpt>
      <trkpt lat="46.29677" lon="4.77856">
        <ele>194.55118774414</ele>
        <time>2017-08-09T16:31:23Z</time>
      </trkpt>
      <trkpt lat="46.29824" lon="4.77706">
        <ele>194.68918774414</ele>
        <time>2017-08-09T16:31:56Z</time>
      </trkpt>
      <trkpt lat="46.29848" lon="4.77677">
        <ele>194.66518774414</ele>
        <time>2017-08-09T16:32:01Z</time>
      </trkpt>
      <trkpt lat="46.29888" lon="4.77623">
        <ele>194.60518774414</ele>
        <time>2017-08-09T16:32:11Z</time>
      </trkpt>
      <trkpt lat="46.29926" lon="4.77572">
        <ele>194.50118774414</ele>
        <time>2017-08-09T16:32:20Z</time>
      </trkpt>
      <trkpt lat="46.29934" lon="4.77561">
        <ele>194.48918774414</ele>
        <time>2017-08-09T16:32:22Z</time>
      </trkpt>
      <trkpt lat="46.29946" lon="4.77541">
        <ele>194.43418774414</ele>
        <time>2017-08-09T16:32:25Z</time>
      </trkpt>
      <trkpt lat="46.30092" lon="4.77358">
        <ele>193.39818774414</ele>
        <time>2017-08-09T16:32:57Z</time>
      </trkpt>
      <trkpt lat="46.30121" lon="4.77306">
        <ele>193.05118774414</ele>
        <time>2017-08-09T16:33:05Z</time>
      </trkpt>
      <trkpt lat="46.30147" lon="4.77247">
        <ele>192.70918774414</ele>
        <time>2017-08-09T16:33:13Z</time>
      </trkpt>
      <trkpt lat="46.30174" lon="4.77167">
        <ele>192.39418774414</ele>
        <time>2017-08-09T16:33:23Z</time>
      </trkpt>
      <trkpt lat="46.30205" lon="4.77107">
        <ele>192.29718774414</ele>
        <time>2017-08-09T16:33:32Z</time>
      </trkpt>
      <trkpt lat="46.30252" lon="4.77048">
        <ele>192.38718774414</ele>
        <time>2017-08-09T16:33:43Z</time>
      </trkpt>
      <trkpt lat="46.30267" lon="4.77031">
        <ele>192.43318774414</ele>
        <time>2017-08-09T16:33:47Z</time>
      </trkpt>
      <trkpt lat="46.30279" lon="4.7702">
        <ele>192.50318774414</ele>
        <time>2017-08-09T16:33:50Z</time>
      </trkpt>
      <trkpt lat="46.30309" lon="4.76996">
        <ele>192.65918774414</ele>
        <time>2017-08-09T16:33:57Z</time>
      </trkpt>
      <trkpt lat="46.30363" lon="4.76967">
        <ele>192.98518774414</ele>
        <time>2017-08-09T16:34:08Z</time>
      </trkpt>
      <trkpt lat="46.30486" lon="4.7693">
        <ele>193.72318774414</ele>
        <time>2017-08-09T16:34:34Z</time>
      </trkpt>
      <trkpt lat="46.30544" lon="4.76899">
        <ele>193.94718774414</ele>
        <time>2017-08-09T16:34:45Z</time>
      </trkpt>
      <trkpt lat="46.30583" lon="4.76873">
        <ele>194.16218774414</ele>
        <time>2017-08-09T16:34:54Z</time>
      </trkpt>
      <trkpt lat="46.30639" lon="4.76828">
        <ele>194.44218774414</ele>
        <time>2017-08-09T16:35:06Z</time>
      </trkpt>
      <trkpt lat="46.30677" lon="4.76806">
        <ele>194.58718774414</ele>
        <time>2017-08-09T16:35:14Z</time>
      </trkpt>
      <trkpt lat="46.30694" lon="4.76798">
        <ele>194.64718774414</ele>
        <time>2017-08-09T16:35:18Z</time>
      </trkpt>
      <trkpt lat="46.30711" lon="4.76791">
        <ele>194.69818774414</ele>
        <time>2017-08-09T16:35:21Z</time>
      </trkpt>
      <trkpt lat="46.30774" lon="4.76758">
        <ele>194.84918774414</ele>
        <time>2017-08-09T16:35:34Z</time>
      </trkpt>
      <trkpt lat="46.30813" lon="4.76731">
        <ele>194.81318774414</ele>
        <time>2017-08-09T16:35:41Z</time>
      </trkpt>
      <trkpt lat="46.30877" lon="4.76661">
        <ele>194.54618774414</ele>
        <time>2017-08-09T16:35:55Z</time>
      </trkpt>
      <trkpt lat="46.30897" lon="4.76632">
        <ele>194.40918774414</ele>
        <time>2017-08-09T16:36:00Z</time>
      </trkpt>
      <trkpt lat="46.30911" lon="4.76606">
        <ele>194.26418774414</ele>
        <time>2017-08-09T16:36:03Z</time>
      </trkpt>
      <trkpt lat="46.31015" lon="4.76382">
        <ele>193.76618774414</ele>
        <time>2017-08-09T16:36:35Z</time>
      </trkpt>
      <trkpt lat="46.31051" lon="4.76326">
        <ele>193.98318774414</ele>
        <time>2017-08-09T16:36:46Z</time>
      </trkpt>
      <trkpt lat="46.31112" lon="4.76251">
        <ele>194.48618774414</ele>
        <time>2017-08-09T16:37:02Z</time>
      </trkpt>
      <trkpt lat="46.31171" lon="4.76186">
        <ele>195.56318774414</ele>
        <time>2017-08-09T16:37:20Z</time>
      </trkpt>
      <trkpt lat="46.31229" lon="4.7614">
        <ele>196.82318774414</ele>
        <time>2017-08-09T16:37:36Z</time>
      </trkpt>
      <trkpt lat="46.31241" lon="4.76131">
        <ele>197.00818774414</ele>
        <time>2017-08-09T16:37:39Z</time>
      </trkpt>
      <trkpt lat="46.31254" lon="4.76126">
        <ele>197.33218774414</ele>
        <time>2017-08-09T16:37:43Z</time>
      </trkpt>
      <trkpt lat="46.31293" lon="4.76105">
        <ele>198.17018774414</ele>
        <time>2017-08-09T16:37:54Z</time>
      </trkpt>
      <trkpt lat="46.31328" lon="4.76092">
        <ele>198.79618774414</ele>
        <time>2017-08-09T16:38:03Z</time>
      </trkpt>
      <trkpt lat="46.31361" lon="4.76086">
        <ele>199.32118774414</ele>
        <time>2017-08-09T16:38:11Z</time>
      </trkpt>
      <trkpt lat="46.31369" lon="4.76085">
        <ele>199.55918774414</ele>
        <time>2017-08-09T16:38:13Z</time>
      </trkpt>
      <trkpt lat="46.31377" lon="4.76084">
        <ele>199.59718774414</ele>
        <time>2017-08-09T16:38:15Z</time>
      </trkpt>
      <trkpt lat="46.31545" lon="4.76062">
        <ele>200.70118774414</ele>
        <time>2017-08-09T16:38:49Z</time>
      </trkpt>
      <trkpt lat="46.31594" lon="4.76052">
        <ele>200.55318774414</ele>
        <time>2017-08-09T16:38:58Z</time>
      </trkpt>
      <trkpt lat="46.31651" lon="4.76027">
        <ele>200.36818774414</ele>
        <time>2017-08-09T16:39:08Z</time>
      </trkpt>
      <trkpt lat="46.31692" lon="4.76005">
        <ele>200.34918774414</ele>
        <time>2017-08-09T16:39:16Z</time>
      </trkpt>
      <trkpt lat="46.31722" lon="4.75984">
        <ele>200.36818774414</ele>
        <time>2017-08-09T16:39:22Z</time>
      </trkpt>
      <trkpt lat="46.31747" lon="4.75963">
        <ele>200.39718774414</ele>
        <time>2017-08-09T16:39:27Z</time>
      </trkpt>
      <trkpt lat="46.3183" lon="4.75892">
        <ele>200.77518774414</ele>
        <time>2017-08-09T16:39:46Z</time>
      </trkpt>
      <trkpt lat="46.31902" lon="4.75824">
        <ele>201.36618774414</ele>
        <time>2017-08-09T16:40:03Z</time>
      </trkpt>
      <trkpt lat="46.31922" lon="4.758">
        <ele>201.57518774414</ele>
        <time>2017-08-09T16:40:09Z</time>
      </trkpt>
      <trkpt lat="46.31928" lon="4.7579">
        <ele>201.63018774414</ele>
        <time>2017-08-09T16:40:11Z</time>
      </trkpt>
      <trkpt lat="46.31943" lon="4.75773">
        <ele>201.78518774414</ele>
        <time>2017-08-09T16:40:15Z</time>
      </trkpt>
      <trkpt lat="46.32078" lon="4.75595">
        <ele>202.93318774414</ele>
        <time>2017-08-09T16:40:52Z</time>
      </trkpt>
      <trkpt lat="46.32087" lon="4.75593">
        <ele>202.99518774414</ele>
        <time>2017-08-09T16:40:54Z</time>
      </trkpt>
      <trkpt lat="46.32098" lon="4.75573">
        <ele>203.07918774414</ele>
        <time>2017-08-09T16:40:57Z</time>
      </trkpt>
      <trkpt lat="46.32142" lon="4.75493">
        <ele>203.45218774414</ele>
        <time>2017-08-09T16:41:11Z</time>
      </trkpt>
      <trkpt lat="46.32143" lon="4.75477">
        <ele>203.50618774414</ele>
        <time>2017-08-09T16:41:13Z</time>
      </trkpt>
      <trkpt lat="46.32162" lon="4.75435">
        <ele>203.78818774414</ele>
        <time>2017-08-09T16:41:21Z</time>
      </trkpt>
      <trkpt lat="46.32168" lon="4.75414">
        <ele>203.86918774414</ele>
        <time>2017-08-09T16:41:24Z</time>
      </trkpt>
      <trkpt lat="46.32227" lon="4.75309">
        <ele>204.20618774414</ele>
        <time>2017-08-09T16:41:42Z</time>
      </trkpt>
      <trkpt lat="46.32231" lon="4.75302">
        <ele>204.20018774414</ele>
        <time>2017-08-09T16:41:43Z</time>
      </trkpt>
      <trkpt lat="46.32241" lon="4.75299">
        <ele>204.18818774414</ele>
        <time>2017-08-09T16:41:45Z</time>
      </trkpt>
      <trkpt lat="46.3225" lon="4.75296">
        <ele>204.17718774414</ele>
        <time>2017-08-09T16:41:46Z</time>
      </trkpt>
      <trkpt lat="46.32257" lon="4.75292">
        <ele>204.21518774414</ele>
        <time>2017-08-09T16:41:48Z</time>
      </trkpt>
      <trkpt lat="46.32262" lon="4.75284">
        <ele>204.17718774414</ele>
        <time>2017-08-09T16:41:49Z</time>
      </trkpt>
      <trkpt lat="46.32294" lon="4.75214">
        <ele>203.95918774414</ele>
        <time>2017-08-09T16:41:59Z</time>
      </trkpt>
      <trkpt lat="46.32292" lon="4.75197">
        <ele>203.94718774414</ele>
        <time>2017-08-09T16:42:01Z</time>
      </trkpt>
      <trkpt lat="46.32284" lon="4.75185">
        <ele>203.89118774414</ele>
        <time>2017-08-09T16:42:03Z</time>
      </trkpt>
      <trkpt lat="46.32284" lon="4.75177">
        <ele>203.80518774414</ele>
        <time>2017-08-09T16:42:04Z</time>
      </trkpt>
      <trkpt lat="46.32284" lon="4.75169">
        <ele>203.80918774414</ele>
        <time>2017-08-09T16:42:05Z</time>
      </trkpt>
      <trkpt lat="46.32294" lon="4.75162">
        <ele>203.81818774414</ele>
        <time>2017-08-09T16:42:07Z</time>
      </trkpt>
      <trkpt lat="46.32299" lon="4.75154">
        <ele>203.77018774414</ele>
        <time>2017-08-09T16:42:08Z</time>
      </trkpt>
      <trkpt lat="46.32316" lon="4.75112">
        <ele>203.59618774414</ele>
        <time>2017-08-09T16:42:13Z</time>
      </trkpt>
      <trkpt lat="46.3232" lon="4.75105">
        <ele>203.54418774414</ele>
        <time>2017-08-09T16:42:14Z</time>
      </trkpt>
      <trkpt lat="46.32321" lon="4.75094">
        <ele>203.42318774414</ele>
        <time>2017-08-09T16:42:16Z</time>
      </trkpt>
      <trkpt lat="46.32335" lon="4.75046">
        <ele>203.19018774414</ele>
        <time>2017-08-09T16:42:22Z</time>
      </trkpt>
      <trkpt lat="46.32375" lon="4.74854">
        <ele>203.47518774414</ele>
        <time>2017-08-09T16:42:49Z</time>
      </trkpt>
      <trkpt lat="46.32396" lon="4.7479">
        <ele>204.16918774414</ele>
        <time>2017-08-09T16:43:01Z</time>
      </trkpt>
      <trkpt lat="46.32411" lon="4.74759">
        <ele>204.59218774414</ele>
        <time>2017-08-09T16:43:07Z</time>
      </trkpt>
      <trkpt lat="46.32419" lon="4.74741">
        <ele>204.93518774414</ele>
        <time>2017-08-09T16:43:11Z</time>
      </trkpt>
      <trkpt lat="46.32454" lon="4.74689">
        <ele>206.00718774414</ele>
        <time>2017-08-09T16:43:24Z</time>
      </trkpt>
      <trkpt lat="46.32497" lon="4.74641">
        <ele>207.49218774414</ele>
        <time>2017-08-09T16:43:40Z</time>
      </trkpt>
      <trkpt lat="46.32526" lon="4.74615">
        <ele>208.49218774414</ele>
        <time>2017-08-09T16:43:50Z</time>
      </trkpt>
      <trkpt lat="46.32578" lon="4.74587">
        <ele>209.84018774414</ele>
        <time>2017-08-09T16:44:05Z</time>
      </trkpt>
      <trkpt lat="46.32659" lon="4.74567">
        <ele>211.47018774414</ele>
        <time>2017-08-09T16:44:26Z</time>
      </trkpt>
      <trkpt lat="46.32867" lon="4.74579">
        <ele>212.20218774414</ele>
        <time>2017-08-09T16:45:07Z</time>
      </trkpt>
      <trkpt lat="46.32925" lon="4.74567">
        <ele>211.59918774414</ele>
        <time>2017-08-09T16:45:16Z</time>
      </trkpt>
      <trkpt lat="46.32998" lon="4.74529">
        <ele>210.60618774414</ele>
        <time>2017-08-09T16:45:28Z</time>
      </trkpt>
      <trkpt lat="46.33038" lon="4.74498">
        <ele>210.05918774414</ele>
        <time>2017-08-09T16:45:35Z</time>
      </trkpt>
      <trkpt lat="46.33099" lon="4.74424">
        <ele>209.62118774414</ele>
        <time>2017-08-09T16:45:48Z</time>
      </trkpt>
      <trkpt lat="46.33114" lon="4.74397">
        <ele>209.62818774414</ele>
        <time>2017-08-09T16:45:53Z</time>
      </trkpt>
      <trkpt lat="46.33123" lon="4.74387">
        <ele>209.62818774414</ele>
        <time>2017-08-09T16:45:54Z</time>
      </trkpt>
      <trkpt lat="46.33132" lon="4.74383">
        <ele>209.66018774414</ele>
        <time>2017-08-09T16:45:56Z</time>
      </trkpt>
      <trkpt lat="46.33139" lon="4.74381">
        <ele>209.67818774414</ele>
        <time>2017-08-09T16:45:58Z</time>
      </trkpt>
      <trkpt lat="46.33145" lon="4.74378">
        <ele>209.67018774414</ele>
        <time>2017-08-09T16:45:59Z</time>
      </trkpt>
      <trkpt lat="46.33152" lon="4.74362">
        <ele>209.68118774414</ele>
        <time>2017-08-09T16:46:01Z</time>
      </trkpt>
      <trkpt lat="46.33158" lon="4.74341">
        <ele>209.74518774414</ele>
        <time>2017-08-09T16:46:04Z</time>
      </trkpt>
      <trkpt lat="46.33189" lon="4.74214">
        <ele>210.03318774414</ele>
        <time>2017-08-09T16:46:22Z</time>
      </trkpt>
      <trkpt lat="46.33226" lon="4.74056">
        <ele>210.56818774414</ele>
        <time>2017-08-09T16:46:45Z</time>
      </trkpt>
      <trkpt lat="46.33305" lon="4.73748">
        <ele>212.94318774414</ele>
        <time>2017-08-09T16:47:35Z</time>
      </trkpt>
      <trkpt lat="46.33344" lon="4.73582">
        <ele>214.33418774414</ele>
        <time>2017-08-09T16:48:02Z</time>
      </trkpt>
      <trkpt lat="46.33346" lon="4.73574">
        <ele>214.34418774414</ele>
        <time>2017-08-09T16:48:03Z</time>
      </trkpt>
      <trkpt lat="46.33362" lon="4.73508">
        <ele>214.83118774414</ele>
        <time>2017-08-09T16:48:13Z</time>
      </trkpt>
      <trkpt lat="46.33373" lon="4.73474">
        <ele>215.00018774414</ele>
        <time>2017-08-09T16:48:19Z</time>
      </trkpt>
      <trkpt lat="46.33397" lon="4.73391">
        <ele>215.30518774414</ele>
        <time>2017-08-09T16:48:31Z</time>
      </trkpt>
      <trkpt lat="46.33406" lon="4.73359">
        <ele>215.41318774414</ele>
        <time>2017-08-09T16:48:36Z</time>
      </trkpt>
      <trkpt lat="46.33454" lon="4.732">
        <ele>216.30318774414</ele>
        <time>2017-08-09T16:49:01Z</time>
      </trkpt>
      <trkpt lat="46.33449" lon="4.73192">
        <ele>216.41118774414</ele>
        <time>2017-08-09T16:49:02Z</time>
      </trkpt>
      <trkpt lat="46.33445" lon="4.73182">
        <ele>216.55418774414</ele>
        <time>2017-08-09T16:49:04Z</time>
      </trkpt>
      <trkpt lat="46.33461" lon="4.73122">
        <ele>217.12418774414</ele>
        <time>2017-08-09T16:49:15Z</time>
      </trkpt>
      <trkpt lat="46.33469" lon="4.73106">
        <ele>217.25318774414</ele>
        <time>2017-08-09T16:49:17Z</time>
      </trkpt>
      <trkpt lat="46.33481" lon="4.73091">
        <ele>217.53718774414</ele>
        <time>2017-08-09T16:49:21Z</time>
      </trkpt>
      <trkpt lat="46.33488" lon="4.73075">
        <ele>217.65118774414</ele>
        <time>2017-08-09T16:49:24Z</time>
      </trkpt>
      <trkpt lat="46.33516" lon="4.72954">
        <ele>218.80518774414</ele>
        <time>2017-08-09T16:49:45Z</time>
      </trkpt>
      <trkpt lat="46.33515" lon="4.72947">
        <ele>218.90018774414</ele>
        <time>2017-08-09T16:49:46Z</time>
      </trkpt>
      <trkpt lat="46.33487" lon="4.7293">
        <ele>219.22118774414</ele>
        <time>2017-08-09T16:49:52Z</time>
      </trkpt>
      <trkpt lat="46.33483" lon="4.72922">
        <ele>219.33918774414</ele>
        <time>2017-08-09T16:49:54Z</time>
      </trkpt>
      <trkpt lat="46.33484" lon="4.7291">
        <ele>219.42318774414</ele>
        <time>2017-08-09T16:49:56Z</time>
      </trkpt>
      <trkpt lat="46.33531" lon="4.72832">
        <ele>220.20518774414</ele>
        <time>2017-08-09T16:50:12Z</time>
      </trkpt>
      <trkpt lat="46.33576" lon="4.72751">
        <ele>220.72418774414</ele>
        <time>2017-08-09T16:50:27Z</time>
      </trkpt>
      <trkpt lat="46.33597" lon="4.72716">
        <ele>220.90818774414</ele>
        <time>2017-08-09T16:50:33Z</time>
      </trkpt>
      <trkpt lat="46.33638" lon="4.72648">
        <ele>221.26018774414</ele>
        <time>2017-08-09T16:50:46Z</time>
      </trkpt>
      <trkpt lat="46.33702" lon="4.72558">
        <ele>221.73018774414</ele>
        <time>2017-08-09T16:51:04Z</time>
      </trkpt>
      <trkpt lat="46.33776" lon="4.72458">
        <ele>222.35418774414</ele>
        <time>2017-08-09T16:51:24Z</time>
      </trkpt>
      <trkpt lat="46.3383" lon="4.72401">
        <ele>222.90018774414</ele>
        <time>2017-08-09T16:51:38Z</time>
      </trkpt>
      <trkpt lat="46.33853" lon="4.72362">
        <ele>223.22018774414</ele>
        <time>2017-08-09T16:51:46Z</time>
      </trkpt>
      <trkpt lat="46.34017" lon="4.7217">
        <ele>224.15618774414</ele>
        <time>2017-08-09T16:52:27Z</time>
      </trkpt>
      <trkpt lat="46.34031" lon="4.72167">
        <ele>224.05618774414</ele>
        <time>2017-08-09T16:52:29Z</time>
      </trkpt>
      <trkpt lat="46.34059" lon="4.72179">
        <ele>224.03218774414</ele>
        <time>2017-08-09T16:52:34Z</time>
      </trkpt>
      <trkpt lat="46.34125" lon="4.72184">
        <ele>224.05618774414</ele>
        <time>2017-08-09T16:52:46Z</time>
      </trkpt>
      <trkpt lat="46.34198" lon="4.72165">
        <ele>224.26018774414</ele>
        <time>2017-08-09T16:53:00Z</time>
      </trkpt>
      <trkpt lat="46.34243" lon="4.72147">
        <ele>224.97318774414</ele>
        <time>2017-08-09T16:53:11Z</time>
      </trkpt>
      <trkpt lat="46.34248" lon="4.72138">
        <ele>225.15818774414</ele>
        <time>2017-08-09T16:53:14Z</time>
      </trkpt>
      <trkpt lat="46.34253" lon="4.72127">
        <ele>225.34918774414</ele>
        <time>2017-08-09T16:53:16Z</time>
      </trkpt>
      <trkpt lat="46.34252" lon="4.72112">
        <ele>225.47318774414</ele>
        <time>2017-08-09T16:53:18Z</time>
      </trkpt>
      <trkpt lat="46.34236" lon="4.72055">
        <ele>226.64118774414</ele>
        <time>2017-08-09T16:53:31Z</time>
      </trkpt>
      <trkpt lat="46.34201" lon="4.7197">
        <ele>228.87118774414</ele>
        <time>2017-08-09T16:53:52Z</time>
      </trkpt>
      <trkpt lat="46.34199" lon="4.71962">
        <ele>229.29318774414</ele>
        <time>2017-08-09T16:53:54Z</time>
      </trkpt>
      <trkpt lat="46.34235" lon="4.7191">
        <ele>231.38618774414</ele>
        <time>2017-08-09T16:54:12Z</time>
      </trkpt>
      <trkpt lat="46.34258" lon="4.71889">
        <ele>232.66218774414</ele>
        <time>2017-08-09T16:54:22Z</time>
      </trkpt>
      <trkpt lat="46.34275" lon="4.7186">
        <ele>233.87118774414</ele>
        <time>2017-08-09T16:54:31Z</time>
      </trkpt>
      <trkpt lat="46.34368" lon="4.7175">
        <ele>238.57618774414</ele>
        <time>2017-08-09T16:55:12Z</time>
      </trkpt>
      <trkpt lat="46.34373" lon="4.71744">
        <ele>238.86118774414</ele>
        <time>2017-08-09T16:55:14Z</time>
      </trkpt>
      <trkpt lat="46.34405" lon="4.71713">
        <ele>239.96718774414</ele>
        <time>2017-08-09T16:55:25Z</time>
      </trkpt>
      <trkpt lat="46.34467" lon="4.71662">
        <ele>241.48818774414</ele>
        <time>2017-08-09T16:55:44Z</time>
      </trkpt>
      <trkpt lat="46.34471" lon="4.71661">
        <ele>241.59718774414</ele>
        <time>2017-08-09T16:55:45Z</time>
      </trkpt>
      <trkpt lat="46.3459" lon="4.71597">
        <ele>242.08918774414</ele>
        <time>2017-08-09T16:56:10Z</time>
      </trkpt>
      <trkpt lat="46.34614" lon="4.71583">
        <ele>242.29718774414</ele>
        <time>2017-08-09T16:56:15Z</time>
      </trkpt>
      <trkpt lat="46.3462" lon="4.71589">
        <ele>242.30318774414</ele>
        <time>2017-08-09T16:56:16Z</time>
      </trkpt>
      <trkpt lat="46.34622" lon="4.71592">
        <ele>242.28118774414</ele>
        <time>2017-08-09T16:56:17Z</time>
      </trkpt>
      <trkpt lat="46.34668" lon="4.71558">
        <ele>242.57018774414</ele>
        <time>2017-08-09T16:56:27Z</time>
      </trkpt>
      <trkpt lat="46.34683" lon="4.71561">
        <ele>242.63318774414</ele>
        <time>2017-08-09T16:56:30Z</time>
      </trkpt>
      <trkpt lat="46.34714" lon="4.71517">
        <ele>243.09418774414</ele>
        <time>2017-08-09T16:56:40Z</time>
      </trkpt>
      <trkpt lat="46.34729" lon="4.71489">
        <ele>243.35218774414</ele>
        <time>2017-08-09T16:56:45Z</time>
      </trkpt>
      <trkpt lat="46.34781" lon="4.71411">
        <ele>244.07718774414</ele>
        <time>2017-08-09T16:57:01Z</time>
      </trkpt>
      <trkpt lat="46.3479" lon="4.71396">
        <ele>244.29618774414</ele>
        <time>2017-08-09T16:57:04Z</time>
      </trkpt>
      <trkpt lat="46.34799" lon="4.71376">
        <ele>244.37218774414</ele>
        <time>2017-08-09T16:57:08Z</time>
      </trkpt>
      <trkpt lat="46.3481" lon="4.71348">
        <ele>244.55518774414</ele>
        <time>2017-08-09T16:57:12Z</time>
      </trkpt>
      <trkpt lat="46.34854" lon="4.71232">
        <ele>244.44918774414</ele>
        <time>2017-08-09T16:57:29Z</time>
      </trkpt>
      <trkpt lat="46.34877" lon="4.71168">
        <ele>244.18018774414</ele>
        <time>2017-08-09T16:57:37Z</time>
      </trkpt>
      <trkpt lat="46.34881" lon="4.71167">
        <ele>244.15318774414</ele>
        <time>2017-08-09T16:57:38Z</time>
      </trkpt>
      <trkpt lat="46.34888" lon="4.71165">
        <ele>244.06418774414</ele>
        <time>2017-08-09T16:57:39Z</time>
      </trkpt>
      <trkpt lat="46.34903" lon="4.71137">
        <ele>243.70618774414</ele>
        <time>2017-08-09T16:57:42Z</time>
      </trkpt>
      <trkpt lat="46.34902" lon="4.71125">
        <ele>243.63618774414</ele>
        <time>2017-08-09T16:57:44Z</time>
      </trkpt>
      <trkpt lat="46.34902" lon="4.71117">
        <ele>243.51218774414</ele>
        <time>2017-08-09T16:57:45Z</time>
      </trkpt>
      <trkpt lat="46.34922" lon="4.71077">
        <ele>243.01118774414</ele>
        <time>2017-08-09T16:57:50Z</time>
      </trkpt>
      <trkpt lat="46.34977" lon="4.70991">
        <ele>241.92318774414</ele>
        <time>2017-08-09T16:58:02Z</time>
      </trkpt>
      <trkpt lat="46.3503" lon="4.70906">
        <ele>241.43718774414</ele>
        <time>2017-08-09T16:58:15Z</time>
      </trkpt>
      <trkpt lat="46.35073" lon="4.70838">
        <ele>241.28118774414</ele>
        <time>2017-08-09T16:58:26Z</time>
      </trkpt>
      <trkpt lat="46.35091" lon="4.70819">
        <ele>241.27418774414</ele>
        <time>2017-08-09T16:58:30Z</time>
      </trkpt>
      <trkpt lat="46.35092" lon="4.70813">
        <ele>241.26218774414</ele>
        <time>2017-08-09T16:58:31Z</time>
      </trkpt>
      <trkpt lat="46.35098" lon="4.70795">
        <ele>241.37918774414</ele>
        <time>2017-08-09T16:58:34Z</time>
      </trkpt>
      <trkpt lat="46.35099" lon="4.70784">
        <ele>241.37618774414</ele>
        <time>2017-08-09T16:58:35Z</time>
      </trkpt>
      <trkpt lat="46.35089" lon="4.70755">
        <ele>241.43018774414</ele>
        <time>2017-08-09T16:58:40Z</time>
      </trkpt>
      <trkpt lat="46.35092" lon="4.70747">
        <ele>241.55218774414</ele>
        <time>2017-08-09T16:58:41Z</time>
      </trkpt>
      <trkpt lat="46.35116" lon="4.70705">
        <ele>241.83818774414</ele>
        <time>2017-08-09T16:58:49Z</time>
      </trkpt>
      <trkpt lat="46.35337" lon="4.70373">
        <ele>244.89418774414</ele>
        <time>2017-08-09T16:59:58Z</time>
      </trkpt>
      <trkpt lat="46.35365" lon="4.70329">
        <ele>245.61618774414</ele>
        <time>2017-08-09T17:00:08Z</time>
      </trkpt>
      <trkpt lat="46.35397" lon="4.70271">
        <ele>246.56918774414</ele>
        <time>2017-08-09T17:00:21Z</time>
      </trkpt>
      <trkpt lat="46.35444" lon="4.7022">
        <ele>247.64518774414</ele>
        <time>2017-08-09T17:00:36Z</time>
      </trkpt>
      <trkpt lat="46.3551" lon="4.70122">
        <ele>249.77318774414</ele>
        <time>2017-08-09T17:01:01Z</time>
      </trkpt>
      <trkpt lat="46.35558" lon="4.70071">
        <ele>250.96418774414</ele>
        <time>2017-08-09T17:01:17Z</time>
      </trkpt>
      <trkpt lat="46.35574" lon="4.70052">
        <ele>251.33218774414</ele>
        <time>2017-08-09T17:01:22Z</time>
      </trkpt>
      <trkpt lat="46.35578" lon="4.70035">
        <ele>251.66718774414</ele>
        <time>2017-08-09T17:01:25Z</time>
      </trkpt>
      <trkpt lat="46.35611" lon="4.69969">
        <ele>252.64618774414</ele>
        <time>2017-08-09T17:01:39Z</time>
      </trkpt>
      <trkpt lat="46.35693" lon="4.69854">
        <ele>253.96818774414</ele>
        <time>2017-08-09T17:02:05Z</time>
      </trkpt>
      <trkpt lat="46.35699" lon="4.69847">
        <ele>253.88218774414</ele>
        <time>2017-08-09T17:02:06Z</time>
      </trkpt>
      <trkpt lat="46.35707" lon="4.69847">
        <ele>253.90418774414</ele>
        <time>2017-08-09T17:02:08Z</time>
      </trkpt>
      <trkpt lat="46.35785" lon="4.69905">
        <ele>254.13418774414</ele>
        <time>2017-08-09T17:02:24Z</time>
      </trkpt>
      <trkpt lat="46.3579" lon="4.69905">
        <ele>254.15918774414</ele>
        <time>2017-08-09T17:02:25Z</time>
      </trkpt>
      <trkpt lat="46.35793" lon="4.699">
        <ele>254.10718774414</ele>
        <time>2017-08-09T17:02:26Z</time>
      </trkpt>
      <trkpt lat="46.35816" lon="4.69831">
        <ele>254.04018774414</ele>
        <time>2017-08-09T17:02:35Z</time>
      </trkpt>
      <trkpt lat="46.35824" lon="4.69809">
        <ele>254.14018774414</ele>
        <time>2017-08-09T17:02:39Z</time>
      </trkpt>
      <trkpt lat="46.35872" lon="4.69731">
        <ele>254.61118774414</ele>
        <time>2017-08-09T17:02:53Z</time>
      </trkpt>
      <trkpt lat="46.3592" lon="4.69675">
        <ele>255.39918774414</ele>
        <time>2017-08-09T17:03:07Z</time>
      </trkpt>
      <trkpt lat="46.35941" lon="4.69599">
        <ele>256.25918774414</ele>
        <time>2017-08-09T17:03:21Z</time>
      </trkpt>
      <trkpt lat="46.35972" lon="4.69526">
        <ele>257.40318774414</ele>
        <time>2017-08-09T17:03:36Z</time>
      </trkpt>
      <trkpt lat="46.35973" lon="4.69515">
        <ele>257.48118774414</ele>
        <time>2017-08-09T17:03:38Z</time>
      </trkpt>
      <trkpt lat="46.35968" lon="4.69498">
        <ele>257.83818774414</ele>
        <time>2017-08-09T17:03:42Z</time>
      </trkpt>
      <trkpt lat="46.35993" lon="4.69466">
        <ele>258.92718774414</ele>
        <time>2017-08-09T17:03:52Z</time>
      </trkpt>
      <trkpt lat="46.36013" lon="4.69448">
        <ele>259.85818774414</ele>
        <time>2017-08-09T17:04:00Z</time>
      </trkpt>
      <trkpt lat="46.36058" lon="4.69438">
        <ele>261.29618774414</ele>
        <time>2017-08-09T17:04:14Z</time>
      </trkpt>
      <trkpt lat="46.36059" lon="4.69433">
        <ele>261.40718774414</ele>
        <time>2017-08-09T17:04:15Z</time>
      </trkpt>
      <trkpt lat="46.36061" lon="4.69427">
        <ele>261.81218774414</ele>
        <time>2017-08-09T17:04:17Z</time>
      </trkpt>
      <trkpt lat="46.3607" lon="4.69418">
        <ele>262.17318774414</ele>
        <time>2017-08-09T17:04:21Z</time>
      </trkpt>
      <trkpt lat="46.36074" lon="4.69407">
        <ele>262.31718774414</ele>
        <time>2017-08-09T17:04:23Z</time>
      </trkpt>
      <trkpt lat="46.36071" lon="4.69372">
        <ele>263.10518774414</ele>
        <time>2017-08-09T17:04:30Z</time>
      </trkpt>
      <trkpt lat="46.36075" lon="4.6937">
        <ele>263.43518774414</ele>
        <time>2017-08-09T17:04:32Z</time>
      </trkpt>
      <trkpt lat="46.36086" lon="4.69365">
        <ele>263.56618774414</ele>
        <time>2017-08-09T17:04:35Z</time>
      </trkpt>
      <trkpt lat="46.36098" lon="4.69359">
        <ele>264.10218774414</ele>
        <time>2017-08-09T17:04:39Z</time>
      </trkpt>
      <trkpt lat="46.36128" lon="4.69355">
        <ele>264.76218774414</ele>
        <time>2017-08-09T17:04:47Z</time>
      </trkpt>
      <trkpt lat="46.36137" lon="4.69345">
        <ele>265.26118774414</ele>
        <time>2017-08-09T17:04:51Z</time>
      </trkpt>
      <trkpt lat="46.36305" lon="4.69311">
        <ele>268.43718774414</ele>
        <time>2017-08-09T17:05:34Z</time>
      </trkpt>
      <trkpt lat="46.36408" lon="4.693">
        <ele>269.34318774414</ele>
        <time>2017-08-09T17:05:56Z</time>
      </trkpt>
      <trkpt lat="46.36427" lon="4.69291">
        <ele>269.68818774414</ele>
        <time>2017-08-09T17:06:01Z</time>
      </trkpt>
      <trkpt lat="46.36431" lon="4.69298">
        <ele>269.75818774414</ele>
        <time>2017-08-09T17:06:02Z</time>
      </trkpt>
      <trkpt lat="46.36436" lon="4.69305">
        <ele>269.79018774414</ele>
        <time>2017-08-09T17:06:04Z</time>
      </trkpt>
      <trkpt lat="46.36441" lon="4.69306">
        <ele>269.82918774414</ele>
        <time>2017-08-09T17:06:05Z</time>
      </trkpt>
      <trkpt lat="46.36447" lon="4.69304">
        <ele>270.03618774414</ele>
        <time>2017-08-09T17:06:07Z</time>
      </trkpt>
      <trkpt lat="46.3654" lon="4.69258">
        <ele>272.16718774414</ele>
        <time>2017-08-09T17:06:33Z</time>
      </trkpt>
      <trkpt lat="46.36582" lon="4.69237">
        <ele>274.02618774414</ele>
        <time>2017-08-09T17:06:48Z</time>
      </trkpt>
      <trkpt lat="46.36594" lon="4.69231">
        <ele>274.50218774414</ele>
        <time>2017-08-09T17:06:52Z</time>
      </trkpt>
      <trkpt lat="46.36615" lon="4.69221">
        <ele>275.61718774414</ele>
        <time>2017-08-09T17:07:01Z</time>
      </trkpt>
      <trkpt lat="46.36629" lon="4.69215">
        <ele>276.24218774414</ele>
        <time>2017-08-09T17:07:06Z</time>
      </trkpt>
      <trkpt lat="46.36655" lon="4.69205">
        <ele>277.78318774414</ele>
        <time>2017-08-09T17:07:17Z</time>
      </trkpt>
      <trkpt lat="46.36775" lon="4.69178">
        <ele>285.28418774414</ele>
        <time>2017-08-09T17:08:08Z</time>
      </trkpt>
      <trkpt lat="46.37009" lon="4.69098">
        <ele>298.31518774414</ele>
        <time>2017-08-09T17:09:43Z</time>
      </trkpt>
      <trkpt lat="46.37097" lon="4.69077">
        <ele>300.07618774414</ele>
        <time>2017-08-09T17:10:06Z</time>
      </trkpt>
      <trkpt lat="46.37126" lon="4.69065">
        <ele>300.24118774414</ele>
        <time>2017-08-09T17:10:12Z</time>
      </trkpt>
      <trkpt lat="46.3724" lon="4.68986">
        <ele>299.20718774414</ele>
        <time>2017-08-09T17:10:33Z</time>
      </trkpt>
      <trkpt lat="46.37319" lon="4.6892">
        <ele>298.64118774414</ele>
        <time>2017-08-09T17:10:48Z</time>
      </trkpt>
      <trkpt lat="46.37356" lon="4.68898">
        <ele>298.78118774414</ele>
        <time>2017-08-09T17:10:55Z</time>
      </trkpt>
      <trkpt lat="46.37414" lon="4.68877">
        <ele>299.45518774414</ele>
        <time>2017-08-09T17:11:09Z</time>
      </trkpt>
      <trkpt lat="46.37581" lon="4.68859">
        <ele>303.94818774414</ele>
        <time>2017-08-09T17:11:56Z</time>
      </trkpt>
      <trkpt lat="46.37771" lon="4.68837">
        <ele>310.83218774414</ele>
        <time>2017-08-09T17:12:58Z</time>
      </trkpt>
      <trkpt lat="46.37791" lon="4.68837">
        <ele>311.44418774414</ele>
        <time>2017-08-09T17:13:04Z</time>
      </trkpt>
      <trkpt lat="46.37835" lon="4.68845">
        <ele>312.79218774414</ele>
        <time>2017-08-09T17:13:17Z</time>
      </trkpt>
      <trkpt lat="46.37914" lon="4.68859">
        <ele>314.60018774414</ele>
        <time>2017-08-09T17:13:39Z</time>
      </trkpt>
      <trkpt lat="46.37961" lon="4.68861">
        <ele>315.30218774414</ele>
        <time>2017-08-09T17:13:50Z</time>
      </trkpt>
      <trkpt lat="46.38013" lon="4.68853">
        <ele>315.70318774414</ele>
        <time>2017-08-09T17:14:01Z</time>
      </trkpt>
      <trkpt lat="46.38061" lon="4.68834">
        <ele>315.86618774414</ele>
        <time>2017-08-09T17:14:10Z</time>
      </trkpt>
      <trkpt lat="46.38131" lon="4.68792">
        <ele>316.13418774414</ele>
        <time>2017-08-09T17:14:25Z</time>
      </trkpt>
      <trkpt lat="46.38183" lon="4.68737">
        <ele>316.94418774414</ele>
        <time>2017-08-09T17:14:39Z</time>
      </trkpt>
      <trkpt lat="46.38249" lon="4.68649">
        <ele>319.17418774414</ele>
        <time>2017-08-09T17:15:04Z</time>
      </trkpt>
      <trkpt lat="46.38279" lon="4.68601">
        <ele>320.78418774414</ele>
        <time>2017-08-09T17:15:19Z</time>
      </trkpt>
      <trkpt lat="46.38365" lon="4.68478">
        <ele>326.98218774414</ele>
        <time>2017-08-09T17:16:05Z</time>
      </trkpt>
      <trkpt lat="46.38415" lon="4.68387">
        <ele>332.13918774414</ele>
        <time>2017-08-09T17:16:40Z</time>
      </trkpt>
      <trkpt lat="46.38429" lon="4.68353">
        <ele>334.07518774414</ele>
        <time>2017-08-09T17:16:53Z</time>
      </trkpt>
      <trkpt lat="46.38734" lon="4.67292">
        <ele>385.38618774414</ele>
        <time>2017-08-09T17:22:40Z</time>
      </trkpt>
      <trkpt lat="46.38986" lon="4.6646">
        <ele>341.96518774414</ele>
        <time>2017-08-09T17:23:55Z</time>
      </trkpt>
      <trkpt lat="46.39026" lon="4.66359">
        <ele>336.48618774414</ele>
        <time>2017-08-09T17:24:05Z</time>
      </trkpt>
      <trkpt lat="46.39053" lon="4.66318">
        <ele>334.62818774414</ele>
        <time>2017-08-09T17:24:11Z</time>
      </trkpt>
      <trkpt lat="46.39077" lon="4.66272">
        <ele>333.57618774414</ele>
        <time>2017-08-09T17:24:16Z</time>
      </trkpt>
      <trkpt lat="46.39082" lon="4.66244">
        <ele>333.20718774414</ele>
        <time>2017-08-09T17:24:19Z</time>
      </trkpt>
      <trkpt lat="46.39078" lon="4.66233">
        <ele>333.23318774414</ele>
        <time>2017-08-09T17:24:21Z</time>
      </trkpt>
      <trkpt lat="46.39071" lon="4.66227">
        <ele>333.01018774414</ele>
        <time>2017-08-09T17:24:22Z</time>
      </trkpt>
      <trkpt lat="46.3906" lon="4.66226">
        <ele>332.84918774414</ele>
        <time>2017-08-09T17:24:24Z</time>
      </trkpt>
      <trkpt lat="46.39047" lon="4.6624">
        <ele>332.94818774414</ele>
        <time>2017-08-09T17:24:27Z</time>
      </trkpt>
      <trkpt lat="46.39019" lon="4.66282">
        <ele>332.96518774414</ele>
        <time>2017-08-09T17:24:34Z</time>
      </trkpt>
      <trkpt lat="46.39009" lon="4.66289">
        <ele>332.89118774414</ele>
        <time>2017-08-09T17:24:36Z</time>
      </trkpt>
      <trkpt lat="46.39" lon="4.66288">
        <ele>332.88518774414</ele>
        <time>2017-08-09T17:24:38Z</time>
      </trkpt>
      <trkpt lat="46.38991" lon="4.66275">
        <ele>333.22618774414</ele>
        <time>2017-08-09T17:24:41Z</time>
      </trkpt>
      <trkpt lat="46.3899" lon="4.66265">
        <ele>333.18118774414</ele>
        <time>2017-08-09T17:24:43Z</time>
      </trkpt>
      <trkpt lat="46.39017" lon="4.66139">
        <ele>333.65218774414</ele>
        <time>2017-08-09T17:25:01Z</time>
      </trkpt>
      <trkpt lat="46.39077" lon="4.6604">
        <ele>330.83818774414</ele>
        <time>2017-08-09T17:25:13Z</time>
      </trkpt>
      <trkpt lat="46.3908" lon="4.66038">
        <ele>330.55218774414</ele>
        <time>2017-08-09T17:25:14Z</time>
      </trkpt>
      <trkpt lat="46.39146" lon="4.6598">
        <ele>325.64618774414</ele>
        <time>2017-08-09T17:25:23Z</time>
      </trkpt>
      <trkpt lat="46.3915" lon="4.65971">
        <ele>325.10418774414</ele>
        <time>2017-08-09T17:25:24Z</time>
      </trkpt>
      <trkpt lat="46.39164" lon="4.65954">
        <ele>323.74718774414</ele>
        <time>2017-08-09T17:25:26Z</time>
      </trkpt>
      <trkpt lat="46.39195" lon="4.65882">
        <ele>318.73918774414</ele>
        <time>2017-08-09T17:25:33Z</time>
      </trkpt>
      <trkpt lat="46.39225" lon="4.65843">
        <ele>315.29018774414</ele>
        <time>2017-08-09T17:25:38Z</time>
      </trkpt>
      <trkpt lat="46.39249" lon="4.6582">
        <ele>312.97518774414</ele>
        <time>2017-08-09T17:25:41Z</time>
      </trkpt>
      <trkpt lat="46.39317" lon="4.65717">
        <ele>305.54118774414</ele>
        <time>2017-08-09T17:25:53Z</time>
      </trkpt>
      <trkpt lat="46.3933" lon="4.65682">
        <ele>303.64818774414</ele>
        <time>2017-08-09T17:25:56Z</time>
      </trkpt>
      <trkpt lat="46.39444" lon="4.65537">
        <ele>293.68818774414</ele>
        <time>2017-08-09T17:26:14Z</time>
      </trkpt>
      <trkpt lat="46.39449" lon="4.65534">
        <ele>293.49218774414</ele>
        <time>2017-08-09T17:26:15Z</time>
      </trkpt>
      <trkpt lat="46.39455" lon="4.65537">
        <ele>293.27318774414</ele>
        <time>2017-08-09T17:26:16Z</time>
      </trkpt>
      <trkpt lat="46.39471" lon="4.65549">
        <ele>292.25818774414</ele>
        <time>2017-08-09T17:26:18Z</time>
      </trkpt>
      <trkpt lat="46.39492" lon="4.65588">
        <ele>291.32718774414</ele>
        <time>2017-08-09T17:26:23Z</time>
      </trkpt>
      <trkpt lat="46.39507" lon="4.6559">
        <ele>291.54018774414</ele>
        <time>2017-08-09T17:26:27Z</time>
      </trkpt>
      <trkpt lat="46.39521" lon="4.65586">
        <ele>291.10718774414</ele>
        <time>2017-08-09T17:26:29Z</time>
      </trkpt>
      <trkpt lat="46.39549" lon="4.65559">
        <ele>291.17518774414</ele>
        <time>2017-08-09T17:26:35Z</time>
      </trkpt>
      <trkpt lat="46.39556" lon="4.65551">
        <ele>290.78518774414</ele>
        <time>2017-08-09T17:26:36Z</time>
      </trkpt>
      <trkpt lat="46.39561" lon="4.65559">
        <ele>291.23118774414</ele>
        <time>2017-08-09T17:26:39Z</time>
      </trkpt>
      <trkpt lat="46.39574" lon="4.65608">
        <ele>291.51218774414</ele>
        <time>2017-08-09T17:26:47Z</time>
      </trkpt>
      <trkpt lat="46.39573" lon="4.65621">
        <ele>291.89318774414</ele>
        <time>2017-08-09T17:26:50Z</time>
      </trkpt>
      <trkpt lat="46.3957" lon="4.65631">
        <ele>291.85018774414</ele>
        <time>2017-08-09T17:26:51Z</time>
      </trkpt>
      <trkpt lat="46.39532" lon="4.65678">
        <ele>292.84118774414</ele>
        <time>2017-08-09T17:27:04Z</time>
      </trkpt>
      <trkpt lat="46.3953" lon="4.65685">
        <ele>293.18418774414</ele>
        <time>2017-08-09T17:27:06Z</time>
      </trkpt>
      <trkpt lat="46.39534" lon="4.65686">
        <ele>293.64518774414</ele>
        <time>2017-08-09T17:27:09Z</time>
      </trkpt>
      <trkpt lat="46.39548" lon="4.65673">
        <ele>293.56118774414</ele>
        <time>2017-08-09T17:27:12Z</time>
      </trkpt>
      <trkpt lat="46.39677" lon="4.65537">
        <ele>295.03918774414</ele>
        <time>2017-08-09T17:27:46Z</time>
      </trkpt>
      <trkpt lat="46.39727" lon="4.65497">
        <ele>294.66418774414</ele>
        <time>2017-08-09T17:27:55Z</time>
      </trkpt>
      <trkpt lat="46.39799" lon="4.65461">
        <ele>294.14518774414</ele>
        <time>2017-08-09T17:28:08Z</time>
      </trkpt>
      <trkpt lat="46.39873" lon="4.65441">
        <ele>293.66218774414</ele>
        <time>2017-08-09T17:28:20Z</time>
      </trkpt>
      <trkpt lat="46.39936" lon="4.65445">
        <ele>293.17418774414</ele>
        <time>2017-08-09T17:28:30Z</time>
      </trkpt>
      <trkpt lat="46.39945" lon="4.65454">
        <ele>293.10018774414</ele>
        <time>2017-08-09T17:28:32Z</time>
      </trkpt>
      <trkpt lat="46.39962" lon="4.65488">
        <ele>292.85318774414</ele>
        <time>2017-08-09T17:28:37Z</time>
      </trkpt>
      <trkpt lat="46.39975" lon="4.65499">
        <ele>292.71918774414</ele>
        <time>2017-08-09T17:28:39Z</time>
      </trkpt>
      <trkpt lat="46.39984" lon="4.65501">
        <ele>292.64318774414</ele>
        <time>2017-08-09T17:28:41Z</time>
      </trkpt>
      <trkpt lat="46.40031" lon="4.65457">
        <ele>291.95218774414</ele>
        <time>2017-08-09T17:28:49Z</time>
      </trkpt>
      <trkpt lat="46.40045" lon="4.65453">
        <ele>291.79618774414</ele>
        <time>2017-08-09T17:28:52Z</time>
      </trkpt>
      <trkpt lat="46.40117" lon="4.6547">
        <ele>291.01718774414</ele>
        <time>2017-08-09T17:29:03Z</time>
      </trkpt>
      <trkpt lat="46.40163" lon="4.6549">
        <ele>290.45518774414</ele>
        <time>2017-08-09T17:29:11Z</time>
      </trkpt>
      <trkpt lat="46.4021" lon="4.65512">
        <ele>289.72618774414</ele>
        <time>2017-08-09T17:29:18Z</time>
      </trkpt>
      <trkpt lat="46.40239" lon="4.65547">
        <ele>288.76118774414</ele>
        <time>2017-08-09T17:29:24Z</time>
      </trkpt>
      <trkpt lat="46.40311" lon="4.65618">
        <ele>286.42018774414</ele>
        <time>2017-08-09T17:29:36Z</time>
      </trkpt>
      <trkpt lat="46.40332" lon="4.6563">
        <ele>285.75018774414</ele>
        <time>2017-08-09T17:29:39Z</time>
      </trkpt>
      <trkpt lat="46.40356" lon="4.65637">
        <ele>284.98118774414</ele>
        <time>2017-08-09T17:29:43Z</time>
      </trkpt>
      <trkpt lat="46.40412" lon="4.65659">
        <ele>283.27118774414</ele>
        <time>2017-08-09T17:29:51Z</time>
      </trkpt>
      <trkpt lat="46.40509" lon="4.65688">
        <ele>282.40518774414</ele>
        <time>2017-08-09T17:30:06Z</time>
      </trkpt>
      <trkpt lat="46.40552" lon="4.65708">
        <ele>281.77318774414</ele>
        <time>2017-08-09T17:30:13Z</time>
      </trkpt>
      <trkpt lat="46.40558" lon="4.65713">
        <ele>281.97318774414</ele>
        <time>2017-08-09T17:30:15Z</time>
      </trkpt>
      <trkpt lat="46.40594" lon="4.65808">
        <ele>280.53818774414</ele>
        <time>2017-08-09T17:30:26Z</time>
      </trkpt>
      <trkpt lat="46.40629" lon="4.65812">
        <ele>279.64418774414</ele>
        <time>2017-08-09T17:30:31Z</time>
      </trkpt>
      <trkpt lat="46.40739" lon="4.65839">
        <ele>274.93018774414</ele>
        <time>2017-08-09T17:30:46Z</time>
      </trkpt>
      <trkpt lat="46.40778" lon="4.65867">
        <ele>272.32318774414</ele>
        <time>2017-08-09T17:30:51Z</time>
      </trkpt>
      <trkpt lat="46.40785" lon="4.65874">
        <ele>271.89318774414</ele>
        <time>2017-08-09T17:30:52Z</time>
      </trkpt>
      <trkpt lat="46.40797" lon="4.659">
        <ele>271.03718774414</ele>
        <time>2017-08-09T17:30:55Z</time>
      </trkpt>
      <trkpt lat="46.40806" lon="4.65915">
        <ele>270.34618774414</ele>
        <time>2017-08-09T17:30:57Z</time>
      </trkpt>
      <trkpt lat="46.40826" lon="4.65923">
        <ele>269.55418774414</ele>
        <time>2017-08-09T17:31:00Z</time>
      </trkpt>
      <trkpt lat="46.40929" lon="4.65953">
        <ele>265.84418774414</ele>
        <time>2017-08-09T17:31:14Z</time>
      </trkpt>
      <trkpt lat="46.40971" lon="4.6596">
        <ele>264.14518774414</ele>
        <time>2017-08-09T17:31:19Z</time>
      </trkpt>
      <trkpt lat="46.41071" lon="4.65997">
        <ele>260.85018774414</ele>
        <time>2017-08-09T17:31:34Z</time>
      </trkpt>
      <trkpt lat="46.41081" lon="4.66003">
        <ele>260.38818774414</ele>
        <time>2017-08-09T17:31:35Z</time>
      </trkpt>
      <trkpt lat="46.41089" lon="4.65997">
        <ele>260.08618774414</ele>
        <time>2017-08-09T17:31:36Z</time>
      </trkpt>
      <trkpt lat="46.41105" lon="4.65967">
        <ele>259.34418774414</ele>
        <time>2017-08-09T17:31:40Z</time>
      </trkpt>
      <trkpt lat="46.41116" lon="4.6596">
        <ele>258.97418774414</ele>
        <time>2017-08-09T17:31:42Z</time>
      </trkpt>
      <trkpt lat="46.41131" lon="4.65957">
        <ele>258.67918774414</ele>
        <time>2017-08-09T17:31:44Z</time>
      </trkpt>
      <trkpt lat="46.41152" lon="4.6596">
        <ele>257.97218774414</ele>
        <time>2017-08-09T17:31:47Z</time>
      </trkpt>
      <trkpt lat="46.41411" lon="4.6611">
        <ele>254.07918774414</ele>
        <time>2017-08-09T17:32:29Z</time>
      </trkpt>
      <trkpt lat="46.41508" lon="4.66169">
        <ele>253.90918774414</ele>
        <time>2017-08-09T17:32:48Z</time>
      </trkpt>
      <trkpt lat="46.41724" lon="4.66341">
        <ele>255.25018774414</ele>
        <time>2017-08-09T17:33:37Z</time>
      </trkpt>
      <trkpt lat="46.41784" lon="4.66399">
        <ele>256.15418774414</ele>
        <time>2017-08-09T17:33:54Z</time>
      </trkpt>
      <trkpt lat="46.41805" lon="4.66422">
        <ele>256.37518774414</ele>
        <time>2017-08-09T17:33:59Z</time>
      </trkpt>
      <trkpt lat="46.41809" lon="4.66437">
        <ele>256.31818774414</ele>
        <time>2017-08-09T17:34:01Z</time>
      </trkpt>
      <trkpt lat="46.41811" lon="4.6648">
        <ele>256.10918774414</ele>
        <time>2017-08-09T17:34:06Z</time>
      </trkpt>
      <trkpt lat="46.4182" lon="4.66506">
        <ele>255.91118774414</ele>
        <time>2017-08-09T17:34:09Z</time>
      </trkpt>
      <trkpt lat="46.41823" lon="4.6651">
        <ele>256.17718774414</ele>
        <time>2017-08-09T17:34:11Z</time>
      </trkpt>
      <trkpt lat="46.41826" lon="4.66512">
        <ele>255.93418774414</ele>
        <time>2017-08-09T17:34:11Z</time>
      </trkpt>
      <trkpt lat="46.41857" lon="4.66455">
        <ele>255.22118774414</ele>
        <time>2017-08-09T17:34:19Z</time>
      </trkpt>
      <trkpt lat="46.41877" lon="4.66415">
        <ele>254.58918774414</ele>
        <time>2017-08-09T17:34:24Z</time>
      </trkpt>
      <trkpt lat="46.41883" lon="4.66404">
        <ele>254.34418774414</ele>
        <time>2017-08-09T17:34:25Z</time>
      </trkpt>
      <trkpt lat="46.41897" lon="4.66383">
        <ele>253.89318774414</ele>
        <time>2017-08-09T17:34:28Z</time>
      </trkpt>
      <trkpt lat="46.41914" lon="4.66363">
        <ele>253.29618774414</ele>
        <time>2017-08-09T17:34:31Z</time>
      </trkpt>
      <trkpt lat="46.41927" lon="4.66358">
        <ele>252.97418774414</ele>
        <time>2017-08-09T17:34:33Z</time>
      </trkpt>
      <trkpt lat="46.41993" lon="4.66361">
        <ele>251.17818774414</ele>
        <time>2017-08-09T17:34:43Z</time>
      </trkpt>
      <trkpt lat="46.42017" lon="4.66371">
        <ele>250.78318774414</ele>
        <time>2017-08-09T17:34:46Z</time>
      </trkpt>
      <trkpt lat="46.421" lon="4.66427">
        <ele>250.48318774414</ele>
        <time>2017-08-09T17:35:02Z</time>
      </trkpt>
      <trkpt lat="46.4212" lon="4.66444">
        <ele>250.63418774414</ele>
        <time>2017-08-09T17:35:07Z</time>
      </trkpt>
      <trkpt lat="46.42198" lon="4.66492">
        <ele>251.20118774414</ele>
        <time>2017-08-09T17:35:24Z</time>
      </trkpt>
      <trkpt lat="46.42308" lon="4.66602">
        <ele>251.30218774414</ele>
        <time>2017-08-09T17:35:48Z</time>
      </trkpt>
      <trkpt lat="46.4235" lon="4.66632">
        <ele>250.77218774414</ele>
        <time>2017-08-09T17:35:55Z</time>
      </trkpt>
      <trkpt lat="46.42367" lon="4.66632">
        <ele>250.52018774414</ele>
        <time>2017-08-09T17:35:58Z</time>
      </trkpt>
      <trkpt lat="46.42386" lon="4.66563">
        <ele>249.69618774414</ele>
        <time>2017-08-09T17:36:06Z</time>
      </trkpt>
      <trkpt lat="46.42443" lon="4.66591">
        <ele>248.65618774414</ele>
        <time>2017-08-09T17:36:15Z</time>
      </trkpt>
      <trkpt lat="46.42513" lon="4.66628">
        <ele>247.52218774414</ele>
        <time>2017-08-09T17:36:26Z</time>
      </trkpt>
      <trkpt lat="46.42543" lon="4.66644">
        <ele>247.27718774414</ele>
        <time>2017-08-09T17:36:31Z</time>
      </trkpt>
      <trkpt lat="46.42619" lon="4.66685">
        <ele>247.07318774414</ele>
        <time>2017-08-09T17:36:45Z</time>
      </trkpt>
      <trkpt lat="46.42663" lon="4.66709">
        <ele>247.16118774414</ele>
        <time>2017-08-09T17:36:54Z</time>
      </trkpt>
      <trkpt lat="46.4271" lon="4.66734">
        <ele>247.37118774414</ele>
        <time>2017-08-09T17:37:04Z</time>
      </trkpt>
      <trkpt lat="46.42774" lon="4.66769">
        <ele>247.72418774414</ele>
        <time>2017-08-09T17:37:17Z</time>
      </trkpt>
      <trkpt lat="46.42819" lon="4.66804">
        <ele>248.00118774414</ele>
        <time>2017-08-09T17:37:28Z</time>
      </trkpt>
      <trkpt lat="46.42881" lon="4.66861">
        <ele>248.36018774414</ele>
        <time>2017-08-09T17:37:42Z</time>
      </trkpt>
      <trkpt lat="46.43045" lon="4.6701">
        <ele>249.69418774414</ele>
        <time>2017-08-09T17:38:22Z</time>
      </trkpt>
      <trkpt lat="46.43186" lon="4.67137">
        <ele>251.43718774414</ele>
        <time>2017-08-09T17:38:58Z</time>
      </trkpt>
      <trkpt lat="46.43295" lon="4.67196">
        <ele>251.77418774414</ele>
        <time>2017-08-09T17:39:20Z</time>
      </trkpt>
      <trkpt lat="46.43406" lon="4.67247">
        <ele>250.66318774414</ele>
        <time>2017-08-09T17:39:39Z</time>
      </trkpt>
      <trkpt lat="46.43511" lon="4.67256">
        <ele>248.85618774414</ele>
        <time>2017-08-09T17:39:55Z</time>
      </trkpt>
      <trkpt lat="46.4352" lon="4.67256">
        <ele>248.60818774414</ele>
        <time>2017-08-09T17:39:56Z</time>
      </trkpt>
      <trkpt lat="46.43527" lon="4.67256">
        <ele>248.49918774414</ele>
        <time>2017-08-09T17:39:57Z</time>
      </trkpt>
      <trkpt lat="46.43534" lon="4.67255">
        <ele>248.38218774414</ele>
        <time>2017-08-09T17:39:58Z</time>
      </trkpt>
      <trkpt lat="46.44016" lon="4.67221">
        <ele>243.36518774414</ele>
        <time>2017-08-09T17:41:15Z</time>
      </trkpt>
      <trkpt lat="46.44128" lon="4.67197">
        <ele>242.66418774414</ele>
        <time>2017-08-09T17:41:33Z</time>
      </trkpt>
      <trkpt lat="46.44254" lon="4.67164">
        <ele>242.37618774414</ele>
        <time>2017-08-09T17:41:55Z</time>
      </trkpt>
      <trkpt lat="46.44372" lon="4.67132">
        <ele>243.45018774414</ele>
        <time>2017-08-09T17:42:21Z</time>
      </trkpt>
      <trkpt lat="46.44427" lon="4.67125">
        <ele>244.79518774414</ele>
        <time>2017-08-09T17:42:36Z</time>
      </trkpt>
      <trkpt lat="46.44477" lon="4.67127">
        <ele>246.25118774414</ele>
        <time>2017-08-09T17:42:51Z</time>
      </trkpt>
      <trkpt lat="46.44605" lon="4.67159">
        <ele>250.05718774414</ele>
        <time>2017-08-09T17:43:29Z</time>
      </trkpt>
      <trkpt lat="46.44726" lon="4.67223">
        <ele>252.24018774414</ele>
        <time>2017-08-09T17:44:01Z</time>
      </trkpt>
      <trkpt lat="46.44836" lon="4.67273">
        <ele>252.72218774414</ele>
        <time>2017-08-09T17:44:23Z</time>
      </trkpt>
      <trkpt lat="46.44872" lon="4.67271">
        <ele>253.11118774414</ele>
        <time>2017-08-09T17:44:31Z</time>
      </trkpt>
      <trkpt lat="46.44911" lon="4.67277">
        <ele>253.45318774414</ele>
        <time>2017-08-09T17:44:40Z</time>
      </trkpt>
      <trkpt lat="46.44942" lon="4.67291">
        <ele>253.67018774414</ele>
        <time>2017-08-09T17:44:46Z</time>
      </trkpt>
      <trkpt lat="46.44969" lon="4.67307">
        <ele>253.82618774414</ele>
        <time>2017-08-09T17:44:52Z</time>
      </trkpt>
      <trkpt lat="46.44998" lon="4.67335">
        <ele>253.95218774414</ele>
        <time>2017-08-09T17:44:59Z</time>
      </trkpt>
      <trkpt lat="46.45023" lon="4.67354">
        <ele>254.00718774414</ele>
        <time>2017-08-09T17:45:04Z</time>
      </trkpt>
      <trkpt lat="46.45296" lon="4.67453">
        <ele>249.82318774414</ele>
        <time>2017-08-09T17:45:47Z</time>
      </trkpt>
      <trkpt lat="46.45346" lon="4.67466">
        <ele>248.23918774414</ele>
        <time>2017-08-09T17:45:54Z</time>
      </trkpt>
      <trkpt lat="46.45504" lon="4.67467">
        <ele>242.19118774414</ele>
        <time>2017-08-09T17:46:15Z</time>
      </trkpt>
      <trkpt lat="46.45571" lon="4.67469">
        <ele>239.97318774414</ele>
        <time>2017-08-09T17:46:24Z</time>
      </trkpt>
      <trkpt lat="46.45612" lon="4.67473">
        <ele>238.89018774414</ele>
        <time>2017-08-09T17:46:30Z</time>
      </trkpt>
      <trkpt lat="46.46462" lon="4.67634">
        <ele>231.44818774414</ele>
        <time>2017-08-09T17:48:48Z</time>
      </trkpt>
      <trkpt lat="46.46619" lon="4.67676">
        <ele>232.30918774414</ele>
        <time>2017-08-09T17:49:20Z</time>
      </trkpt>
      <trkpt lat="46.46628" lon="4.67678">
        <ele>232.47118774414</ele>
        <time>2017-08-09T17:49:22Z</time>
      </trkpt>
      <trkpt lat="46.46637" lon="4.6768">
        <ele>232.54318774414</ele>
        <time>2017-08-09T17:49:24Z</time>
      </trkpt>
      <trkpt lat="46.46855" lon="4.67737">
        <ele>233.67618774414</ele>
        <time>2017-08-09T17:50:08Z</time>
      </trkpt>
      <trkpt lat="46.47304" lon="4.67859">
        <ele>231.17118774414</ele>
        <time>2017-08-09T17:51:24Z</time>
      </trkpt>
      <trkpt lat="46.47614" lon="4.67945">
        <ele>231.32918774414</ele>
        <time>2017-08-09T17:52:21Z</time>
      </trkpt>
      <trkpt lat="46.48229" lon="4.68177">
        <ele>231.04318774414</ele>
        <time>2017-08-09T17:54:13Z</time>
      </trkpt>
      <trkpt lat="46.48331" lon="4.68213">
        <ele>231.81318774414</ele>
        <time>2017-08-09T17:54:35Z</time>
      </trkpt>
      <trkpt lat="46.48529" lon="4.68282">
        <ele>233.50918774414</ele>
        <time>2017-08-09T17:55:18Z</time>
      </trkpt>
      <trkpt lat="46.48634" lon="4.68324">
        <ele>233.07918774414</ele>
        <time>2017-08-09T17:55:36Z</time>
      </trkpt>
      <trkpt lat="46.48743" lon="4.68339">
        <ele>231.41518774414</ele>
        <time>2017-08-09T17:55:53Z</time>
      </trkpt>
      <trkpt lat="46.48807" lon="4.6834">
        <ele>230.11218774414</ele>
        <time>2017-08-09T17:56:02Z</time>
      </trkpt>
      <trkpt lat="46.48853" lon="4.68334">
        <ele>229.15618774414</ele>
        <time>2017-08-09T17:56:09Z</time>
      </trkpt>
      <trkpt lat="46.489" lon="4.68322">
        <ele>228.23418774414</ele>
        <time>2017-08-09T17:56:16Z</time>
      </trkpt>
      <trkpt lat="46.49005" lon="4.68289">
        <ele>226.42518774414</ele>
        <time>2017-08-09T17:56:32Z</time>
      </trkpt>
      <trkpt lat="46.49185" lon="4.68227">
        <ele>224.58718774414</ele>
        <time>2017-08-09T17:57:02Z</time>
      </trkpt>
      <trkpt lat="46.49249" lon="4.68205">
        <ele>224.21218774414</ele>
        <time>2017-08-09T17:57:13Z</time>
      </trkpt>
      <trkpt lat="46.49273" lon="4.68198">
        <ele>224.04418774414</ele>
        <time>2017-08-09T17:57:17Z</time>
      </trkpt>
      <trkpt lat="46.49282" lon="4.68196">
        <ele>224.03018774414</ele>
        <time>2017-08-09T17:57:18Z</time>
      </trkpt>
      <trkpt lat="46.49293" lon="4.68193">
        <ele>223.93318774414</ele>
        <time>2017-08-09T17:57:20Z</time>
      </trkpt>
      <trkpt lat="46.50122" lon="4.67901">
        <ele>215.94718774414</ele>
        <time>2017-08-09T17:59:36Z</time>
      </trkpt>
      <trkpt lat="46.50213" lon="4.67871">
        <ele>215.37218774414</ele>
        <time>2017-08-09T17:59:52Z</time>
      </trkpt>
      <trkpt lat="46.50233" lon="4.67865">
        <ele>215.28918774414</ele>
        <time>2017-08-09T17:59:55Z</time>
      </trkpt>
      <trkpt lat="46.50263" lon="4.67858">
        <ele>215.12418774414</ele>
        <time>2017-08-09T18:00:00Z</time>
      </trkpt>
      <trkpt lat="46.50269" lon="4.67856">
        <ele>215.10818774414</ele>
        <time>2017-08-09T18:00:02Z</time>
      </trkpt>
      <trkpt lat="46.50277" lon="4.67855">
        <ele>215.04818774414</ele>
        <time>2017-08-09T18:00:03Z</time>
      </trkpt>
      <trkpt lat="46.50359" lon="4.67857">
        <ele>214.65618774414</ele>
        <time>2017-08-09T18:00:17Z</time>
      </trkpt>
      <trkpt lat="46.50384" lon="4.67861">
        <ele>214.54018774414</ele>
        <time>2017-08-09T18:00:21Z</time>
      </trkpt>
      <trkpt lat="46.50516" lon="4.67895">
        <ele>213.86918774414</ele>
        <time>2017-08-09T18:00:43Z</time>
      </trkpt>
      <trkpt lat="46.51186" lon="4.68086">
        <ele>212.43118774414</ele>
        <time>2017-08-09T18:02:42Z</time>
      </trkpt>
      <trkpt lat="46.51198" lon="4.68089">
        <ele>212.40818774414</ele>
        <time>2017-08-09T18:02:44Z</time>
      </trkpt>
      <trkpt lat="46.51207" lon="4.68091">
        <ele>212.36818774414</ele>
        <time>2017-08-09T18:02:45Z</time>
      </trkpt>
      <trkpt lat="46.51559" lon="4.6819">
        <ele>211.42518774414</ele>
        <time>2017-08-09T18:03:47Z</time>
      </trkpt>
      <trkpt lat="46.51969" lon="4.68351">
        <ele>211.04418774414</ele>
        <time>2017-08-09T18:05:01Z</time>
      </trkpt>
      <trkpt lat="46.5212" lon="4.68406">
        <ele>210.39418774414</ele>
        <time>2017-08-09T18:05:28Z</time>
      </trkpt>
      <trkpt lat="46.52499" lon="4.68461">
        <ele>207.89918774414</ele>
        <time>2017-08-09T18:06:30Z</time>
      </trkpt>
      <trkpt lat="46.52504" lon="4.68461">
        <ele>207.84718774414</ele>
        <time>2017-08-09T18:06:31Z</time>
      </trkpt>
      <trkpt lat="46.52511" lon="4.68462">
        <ele>207.81518774414</ele>
        <time>2017-08-09T18:06:32Z</time>
      </trkpt>
      <trkpt lat="46.52889" lon="4.68513">
        <ele>207.40418774414</ele>
        <time>2017-08-09T18:07:39Z</time>
      </trkpt>
      <trkpt lat="46.52926" lon="4.68513">
        <ele>207.49518774414</ele>
        <time>2017-08-09T18:07:46Z</time>
      </trkpt>
      <trkpt lat="46.52972" lon="4.68509">
        <ele>207.62918774414</ele>
        <time>2017-08-09T18:07:55Z</time>
      </trkpt>
      <trkpt lat="46.53313" lon="4.68447">
        <ele>209.11318774414</ele>
        <time>2017-08-09T18:09:02Z</time>
      </trkpt>
      <trkpt lat="46.53354" lon="4.6844">
        <ele>209.57418774414</ele>
        <time>2017-08-09T18:09:11Z</time>
      </trkpt>
      <trkpt lat="46.53409" lon="4.68423">
        <ele>210.25918774414</ele>
        <time>2017-08-09T18:09:24Z</time>
      </trkpt>
      <trkpt lat="46.53454" lon="4.68399">
        <ele>210.90118774414</ele>
        <time>2017-08-09T18:09:35Z</time>
      </trkpt>
      <trkpt lat="46.53523" lon="4.6834">
        <ele>211.07918774414</ele>
        <time>2017-08-09T18:09:50Z</time>
      </trkpt>
      <trkpt lat="46.53572" lon="4.68282">
        <ele>210.69418774414</ele>
        <time>2017-08-09T18:10:00Z</time>
      </trkpt>
      <trkpt lat="46.53577" lon="4.68275">
        <ele>210.64518774414</ele>
        <time>2017-08-09T18:10:01Z</time>
      </trkpt>
      <trkpt lat="46.53581" lon="4.68271">
        <ele>210.44518774414</ele>
        <time>2017-08-09T18:10:02Z</time>
      </trkpt>
      <trkpt lat="46.53648" lon="4.68192">
        <ele>209.12018774414</ele>
        <time>2017-08-09T18:10:15Z</time>
      </trkpt>
      <trkpt lat="46.53706" lon="4.6814">
        <ele>207.58018774414</ele>
        <time>2017-08-09T18:10:25Z</time>
      </trkpt>
      <trkpt lat="46.53727" lon="4.68143">
        <ele>207.19018774414</ele>
        <time>2017-08-09T18:10:28Z</time>
      </trkpt>
      <trkpt lat="46.53796" lon="4.68108">
        <ele>206.00918774414</ele>
        <time>2017-08-09T18:10:39Z</time>
      </trkpt>
      <trkpt lat="46.53875" lon="4.68089">
        <ele>205.09618774414</ele>
        <time>2017-08-09T18:10:52Z</time>
      </trkpt>
      <trkpt lat="46.54002" lon="4.6808">
        <ele>204.39718774414</ele>
        <time>2017-08-09T18:11:13Z</time>
      </trkpt>
      <trkpt lat="46.54026" lon="4.68084">
        <ele>204.31518774414</ele>
        <time>2017-08-09T18:11:17Z</time>
      </trkpt>
      <trkpt lat="46.54035" lon="4.68081">
        <ele>204.28918774414</ele>
        <time>2017-08-09T18:11:18Z</time>
      </trkpt>
      <trkpt lat="46.54057" lon="4.68062">
        <ele>204.21218774414</ele>
        <time>2017-08-09T18:11:23Z</time>
      </trkpt>
      <trkpt lat="46.54317" lon="4.68056">
        <ele>203.31618774414</ele>
        <time>2017-08-09T18:12:07Z</time>
      </trkpt>
      <trkpt lat="46.54571" lon="4.6805">
        <ele>203.03718774414</ele>
        <time>2017-08-09T18:12:52Z</time>
      </trkpt>
      <trkpt lat="46.54624" lon="4.68051">
        <ele>203.23418774414</ele>
        <time>2017-08-09T18:13:02Z</time>
      </trkpt>
      <trkpt lat="46.5465" lon="4.6805">
        <ele>203.33318774414</ele>
        <time>2017-08-09T18:13:07Z</time>
      </trkpt>
      <trkpt lat="46.54737" lon="4.68047">
        <ele>203.60818774414</ele>
        <time>2017-08-09T18:13:24Z</time>
      </trkpt>
      <trkpt lat="46.5485" lon="4.68045">
        <ele>204.08518774414</ele>
        <time>2017-08-09T18:13:46Z</time>
      </trkpt>
      <trkpt lat="46.55013" lon="4.68035">
        <ele>204.47218774414</ele>
        <time>2017-08-09T18:14:16Z</time>
      </trkpt>
      <trkpt lat="46.55157" lon="4.68018">
        <ele>205.20618774414</ele>
        <time>2017-08-09T18:14:45Z</time>
      </trkpt>
      <trkpt lat="46.55289" lon="4.67997">
        <ele>205.75318774414</ele>
        <time>2017-08-09T18:15:11Z</time>
      </trkpt>
      <trkpt lat="46.56355" lon="4.67831">
        <ele>205.55618774414</ele>
        <time>2017-08-09T18:18:21Z</time>
      </trkpt>
      <trkpt lat="46.56493" lon="4.67811">
        <ele>203.64718774414</ele>
        <time>2017-08-09T18:18:42Z</time>
      </trkpt>
      <trkpt lat="46.56503" lon="4.67809">
        <ele>203.47718774414</ele>
        <time>2017-08-09T18:18:44Z</time>
      </trkpt>
      <trkpt lat="46.57377" lon="4.67674">
        <ele>196.04618774414</ele>
        <time>2017-08-09T18:21:05Z</time>
      </trkpt>
      <trkpt lat="46.57388" lon="4.67672">
        <ele>196.07718774414</ele>
        <time>2017-08-09T18:21:08Z</time>
      </trkpt>
      <trkpt lat="46.57421" lon="4.67667">
        <ele>196.14918774414</ele>
        <time>2017-08-09T18:21:14Z</time>
      </trkpt>
      <trkpt lat="46.57484" lon="4.67659">
        <ele>196.31718774414</ele>
        <time>2017-08-09T18:21:26Z</time>
      </trkpt>
      <trkpt lat="46.57971" lon="4.67582">
        <ele>194.68718774414</ele>
        <time>2017-08-09T18:22:49Z</time>
      </trkpt>
      <trkpt lat="46.58148" lon="4.67557">
        <ele>194.16618774414</ele>
        <time>2017-08-09T18:23:20Z</time>
      </trkpt>
      <trkpt lat="46.582" lon="4.67554">
        <ele>194.20518774414</ele>
        <time>2017-08-09T18:23:29Z</time>
      </trkpt>
      <trkpt lat="46.58249" lon="4.67559">
        <ele>194.31618774414</ele>
        <time>2017-08-09T18:23:38Z</time>
      </trkpt>
      <trkpt lat="46.58299" lon="4.67569">
        <ele>194.50018774414</ele>
        <time>2017-08-09T18:23:48Z</time>
      </trkpt>
      <trkpt lat="46.58351" lon="4.67588">
        <ele>194.75518774414</ele>
        <time>2017-08-09T18:23:58Z</time>
      </trkpt>
      <trkpt lat="46.58777" lon="4.67796">
        <ele>196.64918774414</ele>
        <time>2017-08-09T18:25:26Z</time>
      </trkpt>
      <trkpt lat="46.58862" lon="4.67833">
        <ele>196.91218774414</ele>
        <time>2017-08-09T18:25:43Z</time>
      </trkpt>
      <trkpt lat="46.58881" lon="4.67838">
        <ele>196.99618774414</ele>
        <time>2017-08-09T18:25:47Z</time>
      </trkpt>
      <trkpt lat="46.58899" lon="4.67841">
        <ele>197.10018774414</ele>
        <time>2017-08-09T18:25:50Z</time>
      </trkpt>
      <trkpt lat="46.58936" lon="4.67845">
        <ele>197.33018774414</ele>
        <time>2017-08-09T18:25:58Z</time>
      </trkpt>
      <trkpt lat="46.58949" lon="4.67845">
        <ele>197.40818774414</ele>
        <time>2017-08-09T18:26:00Z</time>
      </trkpt>
      <trkpt lat="46.59016" lon="4.67845">
        <ele>198.06418774414</ele>
        <time>2017-08-09T18:26:15Z</time>
      </trkpt>
      <trkpt lat="46.59092" lon="4.67829">
        <ele>199.18618774414</ele>
        <time>2017-08-09T18:26:34Z</time>
      </trkpt>
      <trkpt lat="46.5913" lon="4.67814">
        <ele>199.92218774414</ele>
        <time>2017-08-09T18:26:44Z</time>
      </trkpt>
      <trkpt lat="46.59232" lon="4.67756">
        <ele>202.26218774414</ele>
        <time>2017-08-09T18:27:14Z</time>
      </trkpt>
      <trkpt lat="46.59467" lon="4.67543">
        <ele>208.73718774414</ele>
        <time>2017-08-09T18:28:31Z</time>
      </trkpt>
      <trkpt lat="46.60077" lon="4.6699">
        <ele>219.52818774414</ele>
        <time>2017-08-09T18:31:28Z</time>
      </trkpt>
      <trkpt lat="46.60239" lon="4.66842">
        <ele>220.62518774414</ele>
        <time>2017-08-09T18:32:08Z</time>
      </trkpt>
      <trkpt lat="46.60283" lon="4.66803">
        <ele>220.89418774414</ele>
        <time>2017-08-09T18:32:18Z</time>
      </trkpt>
      <trkpt lat="46.60326" lon="4.66776">
        <ele>221.58618774414</ele>
        <time>2017-08-09T18:32:30Z</time>
      </trkpt>
      <trkpt lat="46.60397" lon="4.66752">
        <ele>223.01718774414</ele>
        <time>2017-08-09T18:32:49Z</time>
      </trkpt>
      <trkpt lat="46.60412" lon="4.6675">
        <ele>223.36118774414</ele>
        <time>2017-08-09T18:32:53Z</time>
      </trkpt>
      <trkpt lat="46.6042" lon="4.66749">
        <ele>223.56018774414</ele>
        <time>2017-08-09T18:32:55Z</time>
      </trkpt>
      <trkpt lat="46.60464" lon="4.6675">
        <ele>224.73018774414</ele>
        <time>2017-08-09T18:33:08Z</time>
      </trkpt>
      <trkpt lat="46.60495" lon="4.66756">
        <ele>225.60018774414</ele>
        <time>2017-08-09T18:33:17Z</time>
      </trkpt>
      <trkpt lat="46.60534" lon="4.66769">
        <ele>226.86818774414</ele>
        <time>2017-08-09T18:33:29Z</time>
      </trkpt>
      <trkpt lat="46.60589" lon="4.668">
        <ele>228.94718774414</ele>
        <time>2017-08-09T18:33:48Z</time>
      </trkpt>
      <trkpt lat="46.6063" lon="4.66831">
        <ele>230.15218774414</ele>
        <time>2017-08-09T18:34:01Z</time>
      </trkpt>
      <trkpt lat="46.6064" lon="4.66841">
        <ele>230.51618774414</ele>
        <time>2017-08-09T18:34:05Z</time>
      </trkpt>
      <trkpt lat="46.60649" lon="4.66851">
        <ele>230.80218774414</ele>
        <time>2017-08-09T18:34:08Z</time>
      </trkpt>
      <trkpt lat="46.60666" lon="4.66869">
        <ele>231.30118774414</ele>
        <time>2017-08-09T18:34:14Z</time>
      </trkpt>
      <trkpt lat="46.60681" lon="4.66888">
        <ele>231.82018774414</ele>
        <time>2017-08-09T18:34:19Z</time>
      </trkpt>
      <trkpt lat="46.60735" lon="4.66973">
        <ele>233.75718774414</ele>
        <time>2017-08-09T18:34:41Z</time>
      </trkpt>
      <trkpt lat="46.6079" lon="4.67062">
        <ele>235.57518774414</ele>
        <time>2017-08-09T18:35:03Z</time>
      </trkpt>
      <trkpt lat="46.60834" lon="4.67132">
        <ele>236.58818774414</ele>
        <time>2017-08-09T18:35:19Z</time>
      </trkpt>
      <trkpt lat="46.609" lon="4.67221">
        <ele>237.35518774414</ele>
        <time>2017-08-09T18:35:38Z</time>
      </trkpt>
      <trkpt lat="46.61113" lon="4.67568">
        <ele>234.15218774414</ele>
        <time>2017-08-09T18:36:29Z</time>
      </trkpt>
      <trkpt lat="46.61167" lon="4.67642">
        <ele>232.33718774414</ele>
        <time>2017-08-09T18:36:39Z</time>
      </trkpt>
      <trkpt lat="46.6118" lon="4.67677">
        <ele>231.62418774414</ele>
        <time>2017-08-09T18:36:43Z</time>
      </trkpt>
      <trkpt lat="46.61187" lon="4.67681">
        <ele>231.49318774414</ele>
        <time>2017-08-09T18:36:44Z</time>
      </trkpt>
      <trkpt lat="46.61191" lon="4.67679">
        <ele>231.21618774414</ele>
        <time>2017-08-09T18:36:45Z</time>
      </trkpt>
      <trkpt lat="46.61196" lon="4.67676">
        <ele>231.02618774414</ele>
        <time>2017-08-09T18:36:45Z</time>
      </trkpt>
      <trkpt lat="46.61203" lon="4.6768">
        <ele>230.88418774414</ele>
        <time>2017-08-09T18:36:47Z</time>
      </trkpt>
      <trkpt lat="46.61221" lon="4.67706">
        <ele>230.14018774414</ele>
        <time>2017-08-09T18:36:50Z</time>
      </trkpt>
      <trkpt lat="46.61293" lon="4.67778">
        <ele>227.66218774414</ele>
        <time>2017-08-09T18:37:02Z</time>
      </trkpt>
      <trkpt lat="46.61412" lon="4.67878">
        <ele>224.50918774414</ele>
        <time>2017-08-09T18:37:22Z</time>
      </trkpt>
      <trkpt lat="46.61481" lon="4.67928">
        <ele>223.17318774414</ele>
        <time>2017-08-09T18:37:34Z</time>
      </trkpt>
      <trkpt lat="46.61556" lon="4.67974">
        <ele>222.28618774414</ele>
        <time>2017-08-09T18:37:46Z</time>
      </trkpt>
      <trkpt lat="46.61634" lon="4.68014">
        <ele>221.92018774414</ele>
        <time>2017-08-09T18:38:00Z</time>
      </trkpt>
      <trkpt lat="46.61715" lon="4.68046">
        <ele>222.03718774414</ele>
        <time>2017-08-09T18:38:16Z</time>
      </trkpt>
      <trkpt lat="46.62416" lon="4.68224">
        <ele>228.16518774414</ele>
        <time>2017-08-09T18:40:47Z</time>
      </trkpt>
      <trkpt lat="46.62538" lon="4.68264">
        <ele>230.22218774414</ele>
        <time>2017-08-09T18:41:17Z</time>
      </trkpt>
      <trkpt lat="46.62935" lon="4.68457">
        <ele>235.90618774414</ele>
        <time>2017-08-09T18:42:55Z</time>
      </trkpt>
      <trkpt lat="46.6305" lon="4.68513">
        <ele>235.72218774414</ele>
        <time>2017-08-09T18:43:16Z</time>
      </trkpt>
      <trkpt lat="46.63116" lon="4.68545">
        <ele>235.04518774414</ele>
        <time>2017-08-09T18:43:27Z</time>
      </trkpt>
      <trkpt lat="46.6324" lon="4.68604">
        <ele>234.16018774414</ele>
        <time>2017-08-09T18:43:48Z</time>
      </trkpt>
      <trkpt lat="46.6341" lon="4.68687">
        <ele>234.91318774414</ele>
        <time>2017-08-09T18:44:23Z</time>
      </trkpt>
      <trkpt lat="46.63461" lon="4.68709">
        <ele>235.45118774414</ele>
        <time>2017-08-09T18:44:35Z</time>
      </trkpt>
      <trkpt lat="46.63511" lon="4.68725">
        <ele>235.94518774414</ele>
        <time>2017-08-09T18:44:46Z</time>
      </trkpt>
      <trkpt lat="46.63583" lon="4.68736">
        <ele>236.42518774414</ele>
        <time>2017-08-09T18:45:01Z</time>
      </trkpt>
      <trkpt lat="46.63657" lon="4.68746">
        <ele>236.60318774414</ele>
        <time>2017-08-09T18:45:15Z</time>
      </trkpt>
      <trkpt lat="46.64267" lon="4.68805">
        <ele>233.01718774414</ele>
        <time>2017-08-09T18:46:56Z</time>
      </trkpt>
      <trkpt lat="46.64434" lon="4.68824">
        <ele>232.29918774414</ele>
        <time>2017-08-09T18:47:24Z</time>
      </trkpt>
      <trkpt lat="46.64578" lon="4.68838">
        <ele>231.91218774414</ele>
        <time>2017-08-09T18:47:49Z</time>
      </trkpt>
      <trkpt lat="46.64726" lon="4.68852">
        <ele>233.05218774414</ele>
        <time>2017-08-09T18:48:20Z</time>
      </trkpt>
      <trkpt lat="46.64784" lon="4.68861">
        <ele>233.70418774414</ele>
        <time>2017-08-09T18:48:33Z</time>
      </trkpt>
      <trkpt lat="46.64825" lon="4.6887">
        <ele>233.91718774414</ele>
        <time>2017-08-09T18:48:41Z</time>
      </trkpt>
      <trkpt lat="46.64905" lon="4.68898">
        <ele>233.77218774414</ele>
        <time>2017-08-09T18:48:55Z</time>
      </trkpt>
      <trkpt lat="46.65086" lon="4.68965">
        <ele>229.95118774414</ele>
        <time>2017-08-09T18:49:23Z</time>
      </trkpt>
      <trkpt lat="46.65428" lon="4.69094">
        <ele>222.14918774414</ele>
        <time>2017-08-09T18:50:14Z</time>
      </trkpt>
      <trkpt lat="46.65438" lon="4.69098">
        <ele>222.02518774414</ele>
        <time>2017-08-09T18:50:15Z</time>
      </trkpt>
      <trkpt lat="46.65475" lon="4.69112">
        <ele>221.72818774414</ele>
        <time>2017-08-09T18:50:22Z</time>
      </trkpt>
      <trkpt lat="46.65607" lon="4.69163">
        <ele>222.58118774414</ele>
        <time>2017-08-09T18:50:49Z</time>
      </trkpt>
      <trkpt lat="46.65666" lon="4.69194">
        <ele>223.28018774414</ele>
        <time>2017-08-09T18:51:03Z</time>
      </trkpt>
      <trkpt lat="46.65669" lon="4.69195">
        <ele>223.43818774414</ele>
        <time>2017-08-09T18:51:04Z</time>
      </trkpt>
      <trkpt lat="46.65671" lon="4.69196">
        <ele>223.54818774414</ele>
        <time>2017-08-09T18:51:05Z</time>
      </trkpt>
      <trkpt lat="46.65796" lon="4.69248">
        <ele>224.88718774414</ele>
        <time>2017-08-09T18:51:34Z</time>
      </trkpt>
      <trkpt lat="46.65907" lon="4.69314">
        <ele>225.08218774414</ele>
        <time>2017-08-09T18:51:56Z</time>
      </trkpt>
      <trkpt lat="46.66094" lon="4.69428">
        <ele>224.78518774414</ele>
        <time>2017-08-09T18:52:31Z</time>
      </trkpt>
      <trkpt lat="46.66231" lon="4.69511">
        <ele>225.55418774414</ele>
        <time>2017-08-09T18:53:01Z</time>
      </trkpt>
      <trkpt lat="46.66478" lon="4.69695">
        <ele>227.23118774414</ele>
        <time>2017-08-09T18:53:57Z</time>
      </trkpt>
      <trkpt lat="46.66825" lon="4.69954">
        <ele>229.77218774414</ele>
        <time>2017-08-09T18:55:16Z</time>
      </trkpt>
      <trkpt lat="46.66937" lon="4.70038">
        <ele>231.48518774414</ele>
        <time>2017-08-09T18:55:46Z</time>
      </trkpt>
      <trkpt lat="46.66992" lon="4.70078">
        <ele>232.41418774414</ele>
        <time>2017-08-09T18:56:00Z</time>
      </trkpt>
      <trkpt lat="46.67034" lon="4.70102">
        <ele>233.04418774414</ele>
        <time>2017-08-09T18:56:11Z</time>
      </trkpt>
      <trkpt lat="46.67074" lon="4.70118">
        <ele>233.54718774414</ele>
        <time>2017-08-09T18:56:20Z</time>
      </trkpt>
      <trkpt lat="46.67147" lon="4.70138">
        <ele>234.31318774414</ele>
        <time>2017-08-09T18:56:37Z</time>
      </trkpt>
      <trkpt lat="46.67177" lon="4.70138">
        <ele>234.60218774414</ele>
        <time>2017-08-09T18:56:43Z</time>
      </trkpt>
      <trkpt lat="46.67382" lon="4.70112">
        <ele>235.27618774414</ele>
        <time>2017-08-09T18:57:22Z</time>
      </trkpt>
      <trkpt lat="46.67485" lon="4.70108">
        <ele>233.97018774414</ele>
        <time>2017-08-09T18:57:38Z</time>
      </trkpt>
      <trkpt lat="46.67579" lon="4.70112">
        <ele>231.96718774414</ele>
        <time>2017-08-09T18:57:52Z</time>
      </trkpt>
      <trkpt lat="46.67691" lon="4.70135">
        <ele>229.76218774414</ele>
        <time>2017-08-09T18:58:09Z</time>
      </trkpt>
      <trkpt lat="46.67838" lon="4.70172">
        <ele>227.46918774414</ele>
        <time>2017-08-09T18:58:31Z</time>
      </trkpt>
      <trkpt lat="46.68237" lon="4.70272">
        <ele>221.60318774414</ele>
        <time>2017-08-09T18:59:33Z</time>
      </trkpt>
      <trkpt lat="46.68599" lon="4.70362">
        <ele>227.83818774414</ele>
        <time>2017-08-09T19:01:03Z</time>
      </trkpt>
      <trkpt lat="46.69066" lon="4.70477">
        <ele>224.24518774414</ele>
        <time>2017-08-09T19:02:21Z</time>
      </trkpt>
      <trkpt lat="46.69321" lon="4.7054">
        <ele>221.80918774414</ele>
        <time>2017-08-09T19:03:02Z</time>
      </trkpt>
      <trkpt lat="46.69483" lon="4.70581">
        <ele>221.95918774414</ele>
        <time>2017-08-09T19:03:32Z</time>
      </trkpt>
      <trkpt lat="46.69731" lon="4.70647">
        <ele>224.43518774414</ele>
        <time>2017-08-09T19:04:27Z</time>
      </trkpt>
      <trkpt lat="46.69866" lon="4.70659">
        <ele>225.30418774414</ele>
        <time>2017-08-09T19:04:54Z</time>
      </trkpt>
      <trkpt lat="46.69956" lon="4.70635">
        <ele>224.89618774414</ele>
        <time>2017-08-09T19:05:09Z</time>
      </trkpt>
      <trkpt lat="46.70037" lon="4.70605">
        <ele>223.92818774414</ele>
        <time>2017-08-09T19:05:23Z</time>
      </trkpt>
      <trkpt lat="46.70064" lon="4.70591">
        <ele>223.53918774414</ele>
        <time>2017-08-09T19:05:27Z</time>
      </trkpt>
      <trkpt lat="46.70072" lon="4.70587">
        <ele>223.45318774414</ele>
        <time>2017-08-09T19:05:28Z</time>
      </trkpt>
      <trkpt lat="46.70142" lon="4.7055">
        <ele>222.61518774414</ele>
        <time>2017-08-09T19:05:40Z</time>
      </trkpt>
      <trkpt lat="46.70166" lon="4.70537">
        <ele>222.36118774414</ele>
        <time>2017-08-09T19:05:44Z</time>
      </trkpt>
      <trkpt lat="46.70247" lon="4.70498">
        <ele>222.07618774414</ele>
        <time>2017-08-09T19:05:59Z</time>
      </trkpt>
      <trkpt lat="46.70708" lon="4.70274">
        <ele>226.22218774414</ele>
        <time>2017-08-09T19:07:42Z</time>
      </trkpt>
      <trkpt lat="46.70756" lon="4.7025">
        <ele>227.24518774414</ele>
        <time>2017-08-09T19:07:55Z</time>
      </trkpt>
      <trkpt lat="46.70762" lon="4.70248">
        <ele>227.54818774414</ele>
        <time>2017-08-09T19:07:57Z</time>
      </trkpt>
      <trkpt lat="46.70842" lon="4.70208">
        <ele>229.17818774414</ele>
        <time>2017-08-09T19:08:19Z</time>
      </trkpt>
      <trkpt lat="46.70931" lon="4.70169">
        <ele>230.13218774414</ele>
        <time>2017-08-09T19:08:39Z</time>
      </trkpt>
      <trkpt lat="46.71011" lon="4.70157">
        <ele>229.67618774414</ele>
        <time>2017-08-09T19:08:52Z</time>
      </trkpt>
      <trkpt lat="46.71063" lon="4.7016">
        <ele>229.38018774414</ele>
        <time>2017-08-09T19:09:01Z</time>
      </trkpt>
      <trkpt lat="46.71076" lon="4.70163">
        <ele>229.19518774414</ele>
        <time>2017-08-09T19:09:03Z</time>
      </trkpt>
      <trkpt lat="46.71086" lon="4.70164">
        <ele>229.17318774414</ele>
        <time>2017-08-09T19:09:05Z</time>
      </trkpt>
      <trkpt lat="46.71107" lon="4.7017">
        <ele>229.04918774414</ele>
        <time>2017-08-09T19:09:08Z</time>
      </trkpt>
      <trkpt lat="46.7116" lon="4.70189">
        <ele>228.98818774414</ele>
        <time>2017-08-09T19:09:18Z</time>
      </trkpt>
      <trkpt lat="46.71185" lon="4.70202">
        <ele>229.01818774414</ele>
        <time>2017-08-09T19:09:23Z</time>
      </trkpt>
      <trkpt lat="46.71201" lon="4.70217">
        <ele>229.20418774414</ele>
        <time>2017-08-09T19:09:27Z</time>
      </trkpt>
      <trkpt lat="46.7125" lon="4.70272">
        <ele>230.13918774414</ele>
        <time>2017-08-09T19:09:42Z</time>
      </trkpt>
      <trkpt lat="46.71251" lon="4.70276">
        <ele>230.22918774414</ele>
        <time>2017-08-09T19:09:43Z</time>
      </trkpt>
      <trkpt lat="46.71249" lon="4.70289">
        <ele>230.29118774414</ele>
        <time>2017-08-09T19:09:44Z</time>
      </trkpt>
      <trkpt lat="46.71257" lon="4.70282">
        <ele>230.37818774414</ele>
        <time>2017-08-09T19:09:46Z</time>
      </trkpt>
      <trkpt lat="46.71259" lon="4.70294">
        <ele>230.73318774414</ele>
        <time>2017-08-09T19:09:49Z</time>
      </trkpt>
      <trkpt lat="46.71265" lon="4.70289">
        <ele>230.87318774414</ele>
        <time>2017-08-09T19:09:51Z</time>
      </trkpt>
      <trkpt lat="46.71267" lon="4.70299">
        <ele>230.95918774414</ele>
        <time>2017-08-09T19:09:53Z</time>
      </trkpt>
      <trkpt lat="46.71272" lon="4.70295">
        <ele>231.02318774414</ele>
        <time>2017-08-09T19:09:54Z</time>
      </trkpt>
      <trkpt lat="46.7128" lon="4.70305">
        <ele>231.19518774414</ele>
        <time>2017-08-09T19:09:57Z</time>
      </trkpt>
      <trkpt lat="46.71283" lon="4.70308">
        <ele>231.45418774414</ele>
        <time>2017-08-09T19:09:58Z</time>
      </trkpt>
      <trkpt lat="46.71294" lon="4.7033">
        <ele>231.86818774414</ele>
        <time>2017-08-09T19:10:03Z</time>
      </trkpt>
      <trkpt lat="46.71303" lon="4.70336">
        <ele>231.97718774414</ele>
        <time>2017-08-09T19:10:05Z</time>
      </trkpt>
      <trkpt lat="46.71308" lon="4.70339">
        <ele>232.13518774414</ele>
        <time>2017-08-09T19:10:07Z</time>
      </trkpt>
      <trkpt lat="46.71312" lon="4.70341">
        <ele>232.38418774414</ele>
        <time>2017-08-09T19:10:09Z</time>
      </trkpt>
      <trkpt lat="46.71341" lon="4.70333">
        <ele>232.86118774414</ele>
        <time>2017-08-09T19:10:16Z</time>
      </trkpt>
      <trkpt lat="46.71345" lon="4.7033">
        <ele>233.15518774414</ele>
        <time>2017-08-09T19:10:18Z</time>
      </trkpt>
      <trkpt lat="46.71349" lon="4.70327">
        <ele>233.25418774414</ele>
        <time>2017-08-09T19:10:19Z</time>
      </trkpt>
      <trkpt lat="46.71352" lon="4.70325">
        <ele>233.34418774414</ele>
        <time>2017-08-09T19:10:20Z</time>
      </trkpt>
      <trkpt lat="46.71354" lon="4.70327">
        <ele>233.42318774414</ele>
        <time>2017-08-09T19:10:21Z</time>
      </trkpt>
      <trkpt lat="46.71369" lon="4.70366">
        <ele>233.97118774414</ele>
        <time>2017-08-09T19:10:28Z</time>
      </trkpt>
      <trkpt lat="46.7137" lon="4.70367">
        <ele>233.98618774414</ele>
        <time>2017-08-09T19:10:29Z</time>
      </trkpt>
      <trkpt lat="46.71372" lon="4.70371">
        <ele>234.07318774414</ele>
        <time>2017-08-09T19:10:30Z</time>
      </trkpt>
      <trkpt lat="46.71375" lon="4.70376">
        <ele>234.09618774414</ele>
        <time>2017-08-09T19:10:31Z</time>
      </trkpt>
      <trkpt lat="46.71382" lon="4.70384">
        <ele>234.14118774414</ele>
        <time>2017-08-09T19:10:32Z</time>
      </trkpt>
      <trkpt lat="46.71385" lon="4.70387">
        <ele>234.16118774414</ele>
        <time>2017-08-09T19:10:33Z</time>
      </trkpt>
      <trkpt lat="46.71392" lon="4.70395">
        <ele>234.41918774414</ele>
        <time>2017-08-09T19:10:36Z</time>
      </trkpt>
      <trkpt lat="46.71393" lon="4.70397">
        <ele>234.50918774414</ele>
        <time>2017-08-09T19:10:36Z</time>
      </trkpt>
      <trkpt lat="46.71396" lon="4.70401">
        <ele>234.58118774414</ele>
        <time>2017-08-09T19:10:37Z</time>
      </trkpt>
      <trkpt lat="46.714" lon="4.70405">
        <ele>234.68618774414</ele>
        <time>2017-08-09T19:10:39Z</time>
      </trkpt>
      <trkpt lat="46.71833" lon="4.7085">
        <ele>234.08618774414</ele>
        <time>2017-08-09T19:12:12Z</time>
      </trkpt>
      <trkpt lat="46.71934" lon="4.70956">
        <ele>233.47318774414</ele>
        <time>2017-08-09T19:12:32Z</time>
      </trkpt>
      <trkpt lat="46.72107" lon="4.71136">
        <ele>231.82318774414</ele>
        <time>2017-08-09T19:13:07Z</time>
      </trkpt>
      <trkpt lat="46.72212" lon="4.71245">
        <ele>230.61718774414</ele>
        <time>2017-08-09T19:13:28Z</time>
      </trkpt>
      <trkpt lat="46.72258" lon="4.71292">
        <ele>229.97518774414</ele>
        <time>2017-08-09T19:13:36Z</time>
      </trkpt>
      <trkpt lat="46.72278" lon="4.71312">
        <ele>229.67218774414</ele>
        <time>2017-08-09T19:13:40Z</time>
      </trkpt>
      <trkpt lat="46.7246" lon="4.71505">
        <ele>224.90218774414</ele>
        <time>2017-08-09T19:14:13Z</time>
      </trkpt>
      <trkpt lat="46.72529" lon="4.71575">
        <ele>222.68218774414</ele>
        <time>2017-08-09T19:14:25Z</time>
      </trkpt>
      <trkpt lat="46.72636" lon="4.71654">
        <ele>221.07218774414</ele>
        <time>2017-08-09T19:14:43Z</time>
      </trkpt>
      <trkpt lat="46.72794" lon="4.71752">
        <ele>222.10418774414</ele>
        <time>2017-08-09T19:15:18Z</time>
      </trkpt>
      <trkpt lat="46.73344" lon="4.72085">
        <ele>216.20018774414</ele>
        <time>2017-08-09T19:16:53Z</time>
      </trkpt>
      <trkpt lat="46.73422" lon="4.72108">
        <ele>215.11618774414</ele>
        <time>2017-08-09T19:17:05Z</time>
      </trkpt>
      <trkpt lat="46.73917" lon="4.72194">
        <ele>208.70818774414</ele>
        <time>2017-08-09T19:18:22Z</time>
      </trkpt>
      <trkpt lat="46.73919" lon="4.72195">
        <ele>208.61418774414</ele>
        <time>2017-08-09T19:18:22Z</time>
      </trkpt>
      <trkpt lat="46.7392" lon="4.72195">
        <ele>208.66518774414</ele>
        <time>2017-08-09T19:18:23Z</time>
      </trkpt>
      <trkpt lat="46.74467" lon="4.72291">
        <ele>212.99318774414</ele>
        <time>2017-08-09T19:20:18Z</time>
      </trkpt>
      <trkpt lat="46.74692" lon="4.72331">
        <ele>213.55218774414</ele>
        <time>2017-08-09T19:21:01Z</time>
      </trkpt>
      <trkpt lat="46.74838" lon="4.72357">
        <ele>213.67818774414</ele>
        <time>2017-08-09T19:21:28Z</time>
      </trkpt>
      <trkpt lat="46.74883" lon="4.72369">
        <ele>213.79218774414</ele>
        <time>2017-08-09T19:21:36Z</time>
      </trkpt>
      <trkpt lat="46.74938" lon="4.72393">
        <ele>214.02118774414</ele>
        <time>2017-08-09T19:21:47Z</time>
      </trkpt>
      <trkpt lat="46.75195" lon="4.72551">
        <ele>215.68318774414</ele>
        <time>2017-08-09T19:22:43Z</time>
      </trkpt>
      <trkpt lat="46.7523" lon="4.72575">
        <ele>215.85918774414</ele>
        <time>2017-08-09T19:22:51Z</time>
      </trkpt>
      <trkpt lat="46.75232" lon="4.72577">
        <ele>215.89118774414</ele>
        <time>2017-08-09T19:22:52Z</time>
      </trkpt>
      <trkpt lat="46.75233" lon="4.72578">
        <ele>215.87418774414</ele>
        <time>2017-08-09T19:22:52Z</time>
      </trkpt>
      <trkpt lat="46.75289" lon="4.72629">
        <ele>216.12818774414</ele>
        <time>2017-08-09T19:23:05Z</time>
      </trkpt>
      <trkpt lat="46.75393" lon="4.72758">
        <ele>216.40518774414</ele>
        <time>2017-08-09T19:23:30Z</time>
      </trkpt>
      <trkpt lat="46.75507" lon="4.72902">
        <ele>216.18318774414</ele>
        <time>2017-08-09T19:23:56Z</time>
      </trkpt>
      <trkpt lat="46.75526" lon="4.72927">
        <ele>216.14918774414</ele>
        <time>2017-08-09T19:24:01Z</time>
      </trkpt>
      <trkpt lat="46.75533" lon="4.72935">
        <ele>216.14618774414</ele>
        <time>2017-08-09T19:24:02Z</time>
      </trkpt>
      <trkpt lat="46.75659" lon="4.73094">
        <ele>216.62018774414</ele>
        <time>2017-08-09T19:24:35Z</time>
      </trkpt>
      <trkpt lat="46.75736" lon="4.73192">
        <ele>217.81918774414</ele>
        <time>2017-08-09T19:24:59Z</time>
      </trkpt>
      <trkpt lat="46.75844" lon="4.73328">
        <ele>220.22618774414</ele>
        <time>2017-08-09T19:25:35Z</time>
      </trkpt>
      <trkpt lat="46.75866" lon="4.73404">
        <ele>221.29018774414</ele>
        <time>2017-08-09T19:25:50Z</time>
      </trkpt>
      <trkpt lat="46.75871" lon="4.73418">
        <ele>221.45718774414</ele>
        <time>2017-08-09T19:25:53Z</time>
      </trkpt>
      <trkpt lat="46.75879" lon="4.73429">
        <ele>221.59618774414</ele>
        <time>2017-08-09T19:25:55Z</time>
      </trkpt>
      <trkpt lat="46.75883" lon="4.73431">
        <ele>221.70318774414</ele>
        <time>2017-08-09T19:25:56Z</time>
      </trkpt>
      <trkpt lat="46.75888" lon="4.73434">
        <ele>221.78018774414</ele>
        <time>2017-08-09T19:25:58Z</time>
      </trkpt>
      <trkpt lat="46.75894" lon="4.73437">
        <ele>221.87118774414</ele>
        <time>2017-08-09T19:25:59Z</time>
      </trkpt>
      <trkpt lat="46.75923" lon="4.73444">
        <ele>222.25918774414</ele>
        <time>2017-08-09T19:26:06Z</time>
      </trkpt>
      <trkpt lat="46.75933" lon="4.73448">
        <ele>222.39418774414</ele>
        <time>2017-08-09T19:26:08Z</time>
      </trkpt>
      <trkpt lat="46.75936" lon="4.73449">
        <ele>222.41118774414</ele>
        <time>2017-08-09T19:26:09Z</time>
      </trkpt>
      <trkpt lat="46.75995" lon="4.7352">
        <ele>223.09318774414</ele>
        <time>2017-08-09T19:26:25Z</time>
      </trkpt>
      <trkpt lat="46.76203" lon="4.73784">
        <ele>223.03618774414</ele>
        <time>2017-08-09T19:27:14Z</time>
      </trkpt>
      <trkpt lat="46.76244" lon="4.73832">
        <ele>222.91618774414</ele>
        <time>2017-08-09T19:27:23Z</time>
      </trkpt>
      <trkpt lat="46.76303" lon="4.73896">
        <ele>222.65818774414</ele>
        <time>2017-08-09T19:27:36Z</time>
      </trkpt>
      <trkpt lat="46.76359" lon="4.73944">
        <ele>222.31918774414</ele>
        <time>2017-08-09T19:27:47Z</time>
      </trkpt>
      <trkpt lat="46.76411" lon="4.73987">
        <ele>221.82118774414</ele>
        <time>2017-08-09T19:27:56Z</time>
      </trkpt>
      <trkpt lat="46.76488" lon="4.74034">
        <ele>220.79518774414</ele>
        <time>2017-08-09T19:28:09Z</time>
      </trkpt>
      <trkpt lat="46.76565" lon="4.74077">
        <ele>219.43518774414</ele>
        <time>2017-08-09T19:28:22Z</time>
      </trkpt>
      <trkpt lat="46.76939" lon="4.74287">
        <ele>211.81018774414</ele>
        <time>2017-08-09T19:29:21Z</time>
      </trkpt>
      <trkpt lat="46.77766" lon="4.74753">
        <ele>208.95318774414</ele>
        <time>2017-08-09T19:31:52Z</time>
      </trkpt>
      <trkpt lat="46.77784" lon="4.74763">
        <ele>208.89518774414</ele>
        <time>2017-08-09T19:31:56Z</time>
      </trkpt>
      <trkpt lat="46.77989" lon="4.74879">
        <ele>208.00218774414</ele>
        <time>2017-08-09T19:32:33Z</time>
      </trkpt>
      <trkpt lat="46.78082" lon="4.74933">
        <ele>208.26118774414</ele>
        <time>2017-08-09T19:32:52Z</time>
      </trkpt>
      <trkpt lat="46.7809" lon="4.74937">
        <ele>208.31418774414</ele>
        <time>2017-08-09T19:32:53Z</time>
      </trkpt>
      <trkpt lat="46.78093" lon="4.74937">
        <ele>208.38918774414</ele>
        <time>2017-08-09T19:32:54Z</time>
      </trkpt>
      <trkpt lat="46.78098" lon="4.74931">
        <ele>208.43218774414</ele>
        <time>2017-08-09T19:32:56Z</time>
      </trkpt>
      <trkpt lat="46.78108" lon="4.74894">
        <ele>208.70918774414</ele>
        <time>2017-08-09T19:33:02Z</time>
      </trkpt>
      <trkpt lat="46.78113" lon="4.74892">
        <ele>208.78718774414</ele>
        <time>2017-08-09T19:33:03Z</time>
      </trkpt>
      <trkpt lat="46.78137" lon="4.74905">
        <ele>209.03818774414</ele>
        <time>2017-08-09T19:33:08Z</time>
      </trkpt>
      <trkpt lat="46.78141" lon="4.74909">
        <ele>209.09218774414</ele>
        <time>2017-08-09T19:33:09Z</time>
      </trkpt>
      <trkpt lat="46.78145" lon="4.7492">
        <ele>209.21318774414</ele>
        <time>2017-08-09T19:33:11Z</time>
      </trkpt>
      <trkpt lat="46.78143" lon="4.74933">
        <ele>209.29618774414</ele>
        <time>2017-08-09T19:33:13Z</time>
      </trkpt>
      <trkpt lat="46.78146" lon="4.74935">
        <ele>209.31918774414</ele>
        <time>2017-08-09T19:33:14Z</time>
      </trkpt>
      <trkpt lat="46.78152" lon="4.74905">
        <ele>209.57918774414</ele>
        <time>2017-08-09T19:33:19Z</time>
      </trkpt>
      <trkpt lat="46.78156" lon="4.74883">
        <ele>209.71218774414</ele>
        <time>2017-08-09T19:33:22Z</time>
      </trkpt>
      <trkpt lat="46.78157" lon="4.74876">
        <ele>209.76618774414</ele>
        <time>2017-08-09T19:33:23Z</time>
      </trkpt>
      <trkpt lat="46.78168" lon="4.74815">
        <ele>210.25818774414</ele>
        <time>2017-08-09T19:33:33Z</time>
      </trkpt>
      <trkpt lat="46.78172" lon="4.74819">
        <ele>210.30118774414</ele>
        <time>2017-08-09T19:33:34Z</time>
      </trkpt>
      <trkpt lat="46.78174" lon="4.7482">
        <ele>210.31718774414</ele>
        <time>2017-08-09T19:33:34Z</time>
      </trkpt>
      <trkpt lat="46.78182" lon="4.74827">
        <ele>210.41818774414</ele>
        <time>2017-08-09T19:33:37Z</time>
      </trkpt>
      <trkpt lat="46.78187" lon="4.74831">
        <ele>210.45418774414</ele>
        <time>2017-08-09T19:33:38Z</time>
      </trkpt>
      <trkpt lat="46.78217" lon="4.74855">
        <ele>210.84418774414</ele>
        <time>2017-08-09T19:33:45Z</time>
      </trkpt>
      <trkpt lat="46.78252" lon="4.74873">
        <ele>211.33818774414</ele>
        <time>2017-08-09T19:33:54Z</time>
      </trkpt>
      <trkpt lat="46.78287" lon="4.74897">
        <ele>211.90418774414</ele>
        <time>2017-08-09T19:34:03Z</time>
      </trkpt>
      <trkpt lat="46.78322" lon="4.74925">
        <ele>212.48718774414</ele>
        <time>2017-08-09T19:34:12Z</time>
      </trkpt>
      <trkpt lat="46.78328" lon="4.7493">
        <ele>212.58118774414</ele>
        <time>2017-08-09T19:34:14Z</time>
      </trkpt>
      <trkpt lat="46.78357" lon="4.74953">
        <ele>213.04118774414</ele>
        <time>2017-08-09T19:34:22Z</time>
      </trkpt>
      <trkpt lat="46.78413" lon="4.74999">
        <ele>214.00418774414</ele>
        <time>2017-08-09T19:34:37Z</time>
      </trkpt>
      <trkpt lat="46.78419" lon="4.75003">
        <ele>214.09418774414</ele>
        <time>2017-08-09T19:34:39Z</time>
      </trkpt>
      <trkpt lat="46.78422" lon="4.75006">
        <ele>214.15018774414</ele>
        <time>2017-08-09T19:34:39Z</time>
      </trkpt>
      <trkpt lat="46.78427" lon="4.75011">
        <ele>214.25018774414</ele>
        <time>2017-08-09T19:34:41Z</time>
      </trkpt>
      <trkpt lat="46.78429" lon="4.75013">
        <ele>214.30418774414</ele>
        <time>2017-08-09T19:34:42Z</time>
      </trkpt>
      <trkpt lat="46.78435" lon="4.75019">
        <ele>214.41218774414</ele>
        <time>2017-08-09T19:34:43Z</time>
      </trkpt>
      <trkpt lat="46.78444" lon="4.75028">
        <ele>214.58218774414</ele>
        <time>2017-08-09T19:34:46Z</time>
      </trkpt>
      <trkpt lat="46.78512" lon="4.75097">
        <ele>215.62018774414</ele>
        <time>2017-08-09T19:35:06Z</time>
      </trkpt>
      <trkpt lat="46.78519" lon="4.75104">
        <ele>215.69318774414</ele>
        <time>2017-08-09T19:35:08Z</time>
      </trkpt>
      <trkpt lat="46.78539" lon="4.75121">
        <ele>215.83518774414</ele>
        <time>2017-08-09T19:35:12Z</time>
      </trkpt>
      <trkpt lat="46.78572" lon="4.75149">
        <ele>215.88918774414</ele>
        <time>2017-08-09T19:35:20Z</time>
      </trkpt>
      <trkpt lat="46.78573" lon="4.7515">
        <ele>215.88818774414</ele>
        <time>2017-08-09T19:35:20Z</time>
      </trkpt>
      <trkpt lat="46.78599" lon="4.75173">
        <ele>215.83418774414</ele>
        <time>2017-08-09T19:35:25Z</time>
      </trkpt>
      <trkpt lat="46.78619" lon="4.75189">
        <ele>215.77618774414</ele>
        <time>2017-08-09T19:35:29Z</time>
      </trkpt>
      <trkpt lat="46.78632" lon="4.75199">
        <ele>215.75818774414</ele>
        <time>2017-08-09T19:35:32Z</time>
      </trkpt>
      <trkpt lat="46.78646" lon="4.7521">
        <ele>215.71218774414</ele>
        <time>2017-08-09T19:35:35Z</time>
      </trkpt>
      <trkpt lat="46.78669" lon="4.75233">
        <ele>215.67018774414</ele>
        <time>2017-08-09T19:35:40Z</time>
      </trkpt>
      <trkpt lat="46.78678" lon="4.75242">
        <ele>215.62018774414</ele>
        <time>2017-08-09T19:35:42Z</time>
      </trkpt>
      <trkpt lat="46.78682" lon="4.75243">
        <ele>215.62018774414</ele>
        <time>2017-08-09T19:35:43Z</time>
      </trkpt>
      <trkpt lat="46.78684" lon="4.75244">
        <ele>215.62318774414</ele>
        <time>2017-08-09T19:35:43Z</time>
      </trkpt>
      <trkpt lat="46.78794" lon="4.75292">
        <ele>215.72918774414</ele>
        <time>2017-08-09T19:36:04Z</time>
      </trkpt>
      <trkpt lat="46.78892" lon="4.75334">
        <ele>215.92818774414</ele>
        <time>2017-08-09T19:36:23Z</time>
      </trkpt>
      <trkpt lat="46.7896" lon="4.75363">
        <ele>215.98518774414</ele>
        <time>2017-08-09T19:36:36Z</time>
      </trkpt>
      <trkpt lat="46.78986" lon="4.75375">
        <ele>215.96418774414</ele>
        <time>2017-08-09T19:36:41Z</time>
      </trkpt>
      <trkpt lat="46.79019" lon="4.75389">
        <ele>215.88118774414</ele>
        <time>2017-08-09T19:36:46Z</time>
      </trkpt>
      <trkpt lat="46.79057" lon="4.75405">
        <ele>215.57118774414</ele>
        <time>2017-08-09T19:36:53Z</time>
      </trkpt>
      <trkpt lat="46.79067" lon="4.75409">
        <ele>215.47118774414</ele>
        <time>2017-08-09T19:36:54Z</time>
      </trkpt>
      <trkpt lat="46.79078" lon="4.75415">
        <ele>215.32318774414</ele>
        <time>2017-08-09T19:36:56Z</time>
      </trkpt>
      <trkpt lat="46.79085" lon="4.75419">
        <ele>215.24218774414</ele>
        <time>2017-08-09T19:36:57Z</time>
      </trkpt>
      <trkpt lat="46.79101" lon="4.75431">
        <ele>215.02718774414</ele>
        <time>2017-08-09T19:37:00Z</time>
      </trkpt>
      <trkpt lat="46.79142" lon="4.75475">
        <ele>214.41318774414</ele>
        <time>2017-08-09T19:37:08Z</time>
      </trkpt>
      <trkpt lat="46.79195" lon="4.75529">
        <ele>213.84018774414</ele>
        <time>2017-08-09T19:37:19Z</time>
      </trkpt>
      <trkpt lat="46.79209" lon="4.75543">
        <ele>213.70318774414</ele>
        <time>2017-08-09T19:37:21Z</time>
      </trkpt>
      <trkpt lat="46.7928" lon="4.75617">
        <ele>213.05718774414</ele>
        <time>2017-08-09T19:37:36Z</time>
      </trkpt>
      <trkpt lat="46.79304" lon="4.75633">
        <ele>212.96418774414</ele>
        <time>2017-08-09T19:37:40Z</time>
      </trkpt>
      <trkpt lat="46.79368" lon="4.75634">
        <ele>213.01318774414</ele>
        <time>2017-08-09T19:37:52Z</time>
      </trkpt>
      <trkpt lat="46.79392" lon="4.75644">
        <ele>213.04418774414</ele>
        <time>2017-08-09T19:37:56Z</time>
      </trkpt>
      <trkpt lat="46.79396" lon="4.75648">
        <ele>213.15618774414</ele>
        <time>2017-08-09T19:37:58Z</time>
      </trkpt>
      <trkpt lat="46.79405" lon="4.75661">
        <ele>213.18218774414</ele>
        <time>2017-08-09T19:38:00Z</time>
      </trkpt>
      <trkpt lat="46.79409" lon="4.75672">
        <ele>213.21118774414</ele>
        <time>2017-08-09T19:38:02Z</time>
      </trkpt>
      <trkpt lat="46.79413" lon="4.75706">
        <ele>213.38618774414</ele>
        <time>2017-08-09T19:38:07Z</time>
      </trkpt>
      <trkpt lat="46.79418" lon="4.75752">
        <ele>213.59218774414</ele>
        <time>2017-08-09T19:38:13Z</time>
      </trkpt>
      <trkpt lat="46.79429" lon="4.75775">
        <ele>213.63218774414</ele>
        <time>2017-08-09T19:38:17Z</time>
      </trkpt>
      <trkpt lat="46.79473" lon="4.75822">
        <ele>213.77418774414</ele>
        <time>2017-08-09T19:38:27Z</time>
      </trkpt>
      <trkpt lat="46.79482" lon="4.75831">
        <ele>213.73818774414</ele>
        <time>2017-08-09T19:38:29Z</time>
      </trkpt>
      <trkpt lat="46.79515" lon="4.75866">
        <ele>213.68618774414</ele>
        <time>2017-08-09T19:38:36Z</time>
      </trkpt>
      <trkpt lat="46.7952" lon="4.75871">
        <ele>213.70418774414</ele>
        <time>2017-08-09T19:38:37Z</time>
      </trkpt>
      <trkpt lat="46.79538" lon="4.7589">
        <ele>213.65118774414</ele>
        <time>2017-08-09T19:38:41Z</time>
      </trkpt>
      <trkpt lat="46.79543" lon="4.75893">
        <ele>213.62218774414</ele>
        <time>2017-08-09T19:38:42Z</time>
      </trkpt>
      <trkpt lat="46.79547" lon="4.75894">
        <ele>213.61618774414</ele>
        <time>2017-08-09T19:38:42Z</time>
      </trkpt>
      <trkpt lat="46.79552" lon="4.75895">
        <ele>213.62718774414</ele>
        <time>2017-08-09T19:38:43Z</time>
      </trkpt>
      <trkpt lat="46.79559" lon="4.75901">
        <ele>213.61018774414</ele>
        <time>2017-08-09T19:38:45Z</time>
      </trkpt>
      <trkpt lat="46.79561" lon="4.75905">
        <ele>213.59018774414</ele>
        <time>2017-08-09T19:38:45Z</time>
      </trkpt>
      <trkpt lat="46.79566" lon="4.7592">
        <ele>213.52018774414</ele>
        <time>2017-08-09T19:38:47Z</time>
      </trkpt>
      <trkpt lat="46.7957" lon="4.75929">
        <ele>213.48618774414</ele>
        <time>2017-08-09T19:38:49Z</time>
      </trkpt>
      <trkpt lat="46.79599" lon="4.7596">
        <ele>213.22518774414</ele>
        <time>2017-08-09T19:38:54Z</time>
      </trkpt>
      <trkpt lat="46.79615" lon="4.75977">
        <ele>213.03618774414</ele>
        <time>2017-08-09T19:38:58Z</time>
      </trkpt>
      <trkpt lat="46.79636" lon="4.75999">
        <ele>212.66518774414</ele>
        <time>2017-08-09T19:39:02Z</time>
      </trkpt>
      <trkpt lat="46.79701" lon="4.76068">
        <ele>211.00818774414</ele>
        <time>2017-08-09T19:39:13Z</time>
      </trkpt>
      <trkpt lat="46.79738" lon="4.76094">
        <ele>209.75318774414</ele>
        <time>2017-08-09T19:39:19Z</time>
      </trkpt>
      <trkpt lat="46.79743" lon="4.76097">
        <ele>209.66318774414</ele>
        <time>2017-08-09T19:39:20Z</time>
      </trkpt>
      <trkpt lat="46.79757" lon="4.76106">
        <ele>209.08318774414</ele>
        <time>2017-08-09T19:39:22Z</time>
      </trkpt>
      <trkpt lat="46.79777" lon="4.76118">
        <ele>208.47518774414</ele>
        <time>2017-08-09T19:39:25Z</time>
      </trkpt>
      <trkpt lat="46.79778" lon="4.76143">
        <ele>207.80318774414</ele>
        <time>2017-08-09T19:39:27Z</time>
      </trkpt>
      <trkpt lat="46.79797" lon="4.76194">
        <ele>206.36118774414</ele>
        <time>2017-08-09T19:39:33Z</time>
      </trkpt>
      <trkpt lat="46.79798" lon="4.76201">
        <ele>206.06418774414</ele>
        <time>2017-08-09T19:39:33Z</time>
      </trkpt>
      <trkpt lat="46.79799" lon="4.76206">
        <ele>205.83618774414</ele>
        <time>2017-08-09T19:39:34Z</time>
      </trkpt>
      <trkpt lat="46.79797" lon="4.7622">
        <ele>205.64318774414</ele>
        <time>2017-08-09T19:39:35Z</time>
      </trkpt>
      <trkpt lat="46.79797" lon="4.76224">
        <ele>205.54918774414</ele>
        <time>2017-08-09T19:39:36Z</time>
      </trkpt>
      <trkpt lat="46.79798" lon="4.76237">
        <ele>205.14318774414</ele>
        <time>2017-08-09T19:39:37Z</time>
      </trkpt>
      <trkpt lat="46.79801" lon="4.76257">
        <ele>204.53918774414</ele>
        <time>2017-08-09T19:39:39Z</time>
      </trkpt>
      <trkpt lat="46.79797" lon="4.76296">
        <ele>203.68518774414</ele>
        <time>2017-08-09T19:39:43Z</time>
      </trkpt>
      <trkpt lat="46.7978" lon="4.76349">
        <ele>202.14818774414</ele>
        <time>2017-08-09T19:39:48Z</time>
      </trkpt>
      <trkpt lat="46.79781" lon="4.76355">
        <ele>201.78718774414</ele>
        <time>2017-08-09T19:39:49Z</time>
      </trkpt>
      <trkpt lat="46.79799" lon="4.76362">
        <ele>201.27018774414</ele>
        <time>2017-08-09T19:39:52Z</time>
      </trkpt>
      <trkpt lat="46.79812" lon="4.76356">
        <ele>200.68718774414</ele>
        <time>2017-08-09T19:39:53Z</time>
      </trkpt>
      <trkpt lat="46.79847" lon="4.76325">
        <ele>199.33418774414</ele>
        <time>2017-08-09T19:39:59Z</time>
      </trkpt>
      <trkpt lat="46.79872" lon="4.76346">
        <ele>198.95318774414</ele>
        <time>2017-08-09T19:40:03Z</time>
      </trkpt>
      <trkpt lat="46.79881" lon="4.76352">
        <ele>198.60118774414</ele>
        <time>2017-08-09T19:40:05Z</time>
      </trkpt>
      <trkpt lat="46.79949" lon="4.76402">
        <ele>197.88018774414</ele>
        <time>2017-08-09T19:40:17Z</time>
      </trkpt>
      <trkpt lat="46.7995" lon="4.76403">
        <ele>197.89918774414</ele>
        <time>2017-08-09T19:40:17Z</time>
      </trkpt>
      <trkpt lat="46.79975" lon="4.76422">
        <ele>197.89918774414</ele>
        <time>2017-08-09T19:40:22Z</time>
      </trkpt>
      <trkpt lat="46.79979" lon="4.76426">
        <ele>197.89618774414</ele>
        <time>2017-08-09T19:40:23Z</time>
      </trkpt>
      <trkpt lat="46.79984" lon="4.76428">
        <ele>197.97218774414</ele>
        <time>2017-08-09T19:40:24Z</time>
      </trkpt>
      <trkpt lat="46.79997" lon="4.76436">
        <ele>197.98318774414</ele>
        <time>2017-08-09T19:40:27Z</time>
      </trkpt>
      <trkpt lat="46.8007" lon="4.76488">
        <ele>198.95418774414</ele>
        <time>2017-08-09T19:40:45Z</time>
      </trkpt>
      <trkpt lat="46.80101" lon="4.76511">
        <ele>199.88718774414</ele>
        <time>2017-08-09T19:40:55Z</time>
      </trkpt>
      <trkpt lat="46.80152" lon="4.76552">
        <ele>201.78518774414</ele>
        <time>2017-08-09T19:41:13Z</time>
      </trkpt>
      <trkpt lat="46.80172" lon="4.76574">
        <ele>202.67618774414</ele>
        <time>2017-08-09T19:41:21Z</time>
      </trkpt>
      <trkpt lat="46.80197" lon="4.76616">
        <ele>204.23518774414</ele>
        <time>2017-08-09T19:41:34Z</time>
      </trkpt>
      <trkpt lat="46.80212" lon="4.7664">
        <ele>204.94418774414</ele>
        <time>2017-08-09T19:41:41Z</time>
      </trkpt>
      <trkpt lat="46.80218" lon="4.7665">
        <ele>205.23818774414</ele>
        <time>2017-08-09T19:41:44Z</time>
      </trkpt>
      <trkpt lat="46.80228" lon="4.76669">
        <ele>205.86118774414</ele>
        <time>2017-08-09T19:41:49Z</time>
      </trkpt>
      <trkpt lat="46.80232" lon="4.76676">
        <ele>206.09218774414</ele>
        <time>2017-08-09T19:41:51Z</time>
      </trkpt>
      <trkpt lat="46.80245" lon="4.76703">
        <ele>207.02618774414</ele>
        <time>2017-08-09T19:41:59Z</time>
      </trkpt>
      <trkpt lat="46.8026" lon="4.7673">
        <ele>207.93418774414</ele>
        <time>2017-08-09T19:42:07Z</time>
      </trkpt>
      <trkpt lat="46.80264" lon="4.76735">
        <ele>208.14518774414</ele>
        <time>2017-08-09T19:42:09Z</time>
      </trkpt>
      <trkpt lat="46.80265" lon="4.76737">
        <ele>208.36418774414</ele>
        <time>2017-08-09T19:42:10Z</time>
      </trkpt>
      <trkpt lat="46.803" lon="4.76774">
        <ele>210.11918774414</ele>
        <time>2017-08-09T19:42:24Z</time>
      </trkpt>
      <trkpt lat="46.80318" lon="4.76785">
        <ele>210.80918774414</ele>
        <time>2017-08-09T19:42:31Z</time>
      </trkpt>
      <trkpt lat="46.80359" lon="4.76806">
        <ele>212.31818774414</ele>
        <time>2017-08-09T19:42:44Z</time>
      </trkpt>
      <trkpt lat="46.80385" lon="4.76818">
        <ele>213.21718774414</ele>
        <time>2017-08-09T19:42:53Z</time>
      </trkpt>
      <trkpt lat="46.80426" lon="4.76838">
        <ele>214.45218774414</ele>
        <time>2017-08-09T19:43:05Z</time>
      </trkpt>
      <trkpt lat="46.80555" lon="4.76976">
        <ele>215.20718774414</ele>
        <time>2017-08-09T19:43:37Z</time>
      </trkpt>
      <trkpt lat="46.80558" lon="4.76979">
        <ele>215.16718774414</ele>
        <time>2017-08-09T19:43:38Z</time>
      </trkpt>
      <trkpt lat="46.8056" lon="4.76982">
        <ele>214.98618774414</ele>
        <time>2017-08-09T19:43:38Z</time>
      </trkpt>
      <trkpt lat="46.80601" lon="4.77024">
        <ele>214.39718774414</ele>
        <time>2017-08-09T19:43:46Z</time>
      </trkpt>
      <trkpt lat="46.80605" lon="4.77027">
        <ele>214.22618774414</ele>
        <time>2017-08-09T19:43:47Z</time>
      </trkpt>
      <trkpt lat="46.80622" lon="4.7704">
        <ele>213.81118774414</ele>
        <time>2017-08-09T19:43:50Z</time>
      </trkpt>
      <trkpt lat="46.8065" lon="4.77056">
        <ele>213.30518774414</ele>
        <time>2017-08-09T19:43:54Z</time>
      </trkpt>
      <trkpt lat="46.80664" lon="4.7707">
        <ele>212.94018774414</ele>
        <time>2017-08-09T19:43:57Z</time>
      </trkpt>
      <trkpt lat="46.80676" lon="4.77114">
        <ele>212.09318774414</ele>
        <time>2017-08-09T19:44:02Z</time>
      </trkpt>
      <trkpt lat="46.80696" lon="4.77168">
        <ele>211.18718774414</ele>
        <time>2017-08-09T19:44:08Z</time>
      </trkpt>
      <trkpt lat="46.80791" lon="4.7734">
        <ele>209.45918774414</ele>
        <time>2017-08-09T19:44:33Z</time>
      </trkpt>
      <trkpt lat="46.80796" lon="4.77346">
        <ele>209.37618774414</ele>
        <time>2017-08-09T19:44:34Z</time>
      </trkpt>
      <trkpt lat="46.80797" lon="4.77352">
        <ele>209.38818774414</ele>
        <time>2017-08-09T19:44:35Z</time>
      </trkpt>
      <trkpt lat="46.80743" lon="4.77979">
        <ele>211.33018774414</ele>
        <time>2017-08-09T19:46:03Z</time>
      </trkpt>
      <trkpt lat="46.80736" lon="4.7804">
        <ele>211.33218774414</ele>
        <time>2017-08-09T19:46:11Z</time>
      </trkpt>
      <trkpt lat="46.8065" lon="4.79139">
        <ele>205.54418774414</ele>
        <time>2017-08-09T19:48:20Z</time>
      </trkpt>
      <trkpt lat="46.80645" lon="4.79194">
        <ele>205.09118774414</ele>
        <time>2017-08-09T19:48:26Z</time>
      </trkpt>
      <trkpt lat="46.80719" lon="4.79209">
        <ele>204.50918774414</ele>
        <time>2017-08-09T19:48:39Z</time>
      </trkpt>
      <trkpt lat="46.80735" lon="4.79212">
        <ele>204.45718774414</ele>
        <time>2017-08-09T19:48:42Z</time>
      </trkpt>
      <trkpt lat="46.80798" lon="4.7922">
        <ele>204.37718774414</ele>
        <time>2017-08-09T19:48:53Z</time>
      </trkpt>
      <trkpt lat="46.81051" lon="4.79291">
        <ele>207.34918774414</ele>
        <time>2017-08-09T19:49:53Z</time>
      </trkpt>
      <trkpt lat="46.81111" lon="4.79293">
        <ele>207.53818774414</ele>
        <time>2017-08-09T19:50:05Z</time>
      </trkpt>
      <trkpt lat="46.81168" lon="4.79269">
        <ele>207.51418774414</ele>
        <time>2017-08-09T19:50:16Z</time>
      </trkpt>
      <trkpt lat="46.81193" lon="4.79253">
        <ele>207.53318774414</ele>
        <time>2017-08-09T19:50:21Z</time>
      </trkpt>
      <trkpt lat="46.81199" lon="4.79249">
        <ele>207.42018774414</ele>
        <time>2017-08-09T19:50:22Z</time>
      </trkpt>
      <trkpt lat="46.81298" lon="4.79182">
        <ele>206.79318774414</ele>
        <time>2017-08-09T19:50:41Z</time>
      </trkpt>
      <trkpt lat="46.81356" lon="4.79158">
        <ele>206.36118774414</ele>
        <time>2017-08-09T19:50:51Z</time>
      </trkpt>
      <trkpt lat="46.81415" lon="4.79143">
        <ele>206.04618774414</ele>
        <time>2017-08-09T19:51:02Z</time>
      </trkpt>
      <trkpt lat="46.8148" lon="4.79143">
        <ele>205.82818774414</ele>
        <time>2017-08-09T19:51:13Z</time>
      </trkpt>
      <trkpt lat="46.81631" lon="4.79166">
        <ele>205.88218774414</ele>
        <time>2017-08-09T19:51:42Z</time>
      </trkpt>
      <trkpt lat="46.81657" lon="4.79166">
        <ele>205.97618774414</ele>
        <time>2017-08-09T19:51:47Z</time>
      </trkpt>
      <trkpt lat="46.81698" lon="4.79151">
        <ele>206.20418774414</ele>
        <time>2017-08-09T19:51:56Z</time>
      </trkpt>
      <trkpt lat="46.81726" lon="4.79146">
        <ele>206.33718774414</ele>
        <time>2017-08-09T19:52:01Z</time>
      </trkpt>
      <trkpt lat="46.81759" lon="4.79149">
        <ele>206.46418774414</ele>
        <time>2017-08-09T19:52:08Z</time>
      </trkpt>
      <trkpt lat="46.81843" lon="4.79196">
        <ele>206.62718774414</ele>
        <time>2017-08-09T19:52:25Z</time>
      </trkpt>
      <trkpt lat="46.82357" lon="4.7938">
        <ele>201.39518774414</ele>
        <time>2017-08-09T19:53:53Z</time>
      </trkpt>
      <trkpt lat="46.82399" lon="4.79418">
        <ele>200.86518774414</ele>
        <time>2017-08-09T19:54:02Z</time>
      </trkpt>
      <trkpt lat="46.82418" lon="4.79445">
        <ele>200.61418774414</ele>
        <time>2017-08-09T19:54:06Z</time>
      </trkpt>
      <trkpt lat="46.82448" lon="4.79519">
        <ele>200.25418774414</ele>
        <time>2017-08-09T19:54:16Z</time>
      </trkpt>
      <trkpt lat="46.82501" lon="4.79626">
        <ele>200.05918774414</ele>
        <time>2017-08-09T19:54:32Z</time>
      </trkpt>
      <trkpt lat="46.82503" lon="4.7965">
        <ele>199.98818774414</ele>
        <time>2017-08-09T19:54:35Z</time>
      </trkpt>
      <trkpt lat="46.82503" lon="4.79668">
        <ele>199.99318774414</ele>
        <time>2017-08-09T19:54:38Z</time>
      </trkpt>
      <trkpt lat="46.82457" lon="4.79739">
        <ele>199.52618774414</ele>
        <time>2017-08-09T19:54:49Z</time>
      </trkpt>
      <trkpt lat="46.82454" lon="4.79756">
        <ele>199.44718774414</ele>
        <time>2017-08-09T19:54:51Z</time>
      </trkpt>
      <trkpt lat="46.82454" lon="4.79767">
        <ele>199.45418774414</ele>
        <time>2017-08-09T19:54:53Z</time>
      </trkpt>
      <trkpt lat="46.82454" lon="4.79773">
        <ele>199.31618774414</ele>
        <time>2017-08-09T19:54:53Z</time>
      </trkpt>
      <trkpt lat="46.82482" lon="4.79841">
        <ele>199.10118774414</ele>
        <time>2017-08-09T19:55:03Z</time>
      </trkpt>
      <trkpt lat="46.82489" lon="4.79862">
        <ele>198.96918774414</ele>
        <time>2017-08-09T19:55:06Z</time>
      </trkpt>
      <trkpt lat="46.82496" lon="4.79879">
        <ele>198.92818774414</ele>
        <time>2017-08-09T19:55:08Z</time>
      </trkpt>
      <trkpt lat="46.82501" lon="4.79888">
        <ele>198.88518774414</ele>
        <time>2017-08-09T19:55:09Z</time>
      </trkpt>
      <trkpt lat="46.82532" lon="4.79944">
        <ele>198.56918774414</ele>
        <time>2017-08-09T19:55:18Z</time>
      </trkpt>
      <trkpt lat="46.82638" lon="4.80044">
        <ele>198.58818774414</ele>
        <time>2017-08-09T19:55:41Z</time>
      </trkpt>
      <trkpt lat="46.82752" lon="4.80162">
        <ele>199.83318774414</ele>
        <time>2017-08-09T19:56:12Z</time>
      </trkpt>
      <trkpt lat="46.8279" lon="4.80185">
        <ele>200.16018774414</ele>
        <time>2017-08-09T19:56:21Z</time>
      </trkpt>
      <trkpt lat="46.82878" lon="4.80239">
        <ele>200.67818774414</ele>
        <time>2017-08-09T19:56:41Z</time>
      </trkpt>
      <trkpt lat="46.82914" lon="4.80262">
        <ele>200.80018774414</ele>
        <time>2017-08-09T19:56:49Z</time>
      </trkpt>
      <trkpt lat="46.82946" lon="4.80285">
        <ele>200.87418774414</ele>
        <time>2017-08-09T19:56:56Z</time>
      </trkpt>
      <trkpt lat="46.8297" lon="4.8031">
        <ele>200.95218774414</ele>
        <time>2017-08-09T19:57:01Z</time>
      </trkpt>
      <trkpt lat="46.8302" lon="4.80382">
        <ele>201.59818774414</ele>
        <time>2017-08-09T19:57:17Z</time>
      </trkpt>
      <trkpt lat="46.83062" lon="4.80426">
        <ele>202.34218774414</ele>
        <time>2017-08-09T19:57:30Z</time>
      </trkpt>
      <trkpt lat="46.83094" lon="4.80448">
        <ele>202.73318774414</ele>
        <time>2017-08-09T19:57:38Z</time>
      </trkpt>
      <trkpt lat="46.83097" lon="4.80449">
        <ele>202.77618774414</ele>
        <time>2017-08-09T19:57:38Z</time>
      </trkpt>
      <trkpt lat="46.8313" lon="4.80468">
        <ele>203.10518774414</ele>
        <time>2017-08-09T19:57:46Z</time>
      </trkpt>
      <trkpt lat="46.83169" lon="4.80504">
        <ele>203.15018774414</ele>
        <time>2017-08-09T19:57:55Z</time>
      </trkpt>
      <trkpt lat="46.83223" lon="4.80556">
        <ele>202.79418774414</ele>
        <time>2017-08-09T19:58:06Z</time>
      </trkpt>
      <trkpt lat="46.83257" lon="4.80603">
        <ele>202.25418774414</ele>
        <time>2017-08-09T19:58:14Z</time>
      </trkpt>
      <trkpt lat="46.83262" lon="4.80619">
        <ele>201.87118774414</ele>
        <time>2017-08-09T19:58:16Z</time>
      </trkpt>
      <trkpt lat="46.83271" lon="4.80642">
        <ele>201.37318774414</ele>
        <time>2017-08-09T19:58:18Z</time>
      </trkpt>
      <trkpt lat="46.83281" lon="4.80688">
        <ele>200.14918774414</ele>
        <time>2017-08-09T19:58:23Z</time>
      </trkpt>
      <trkpt lat="46.83288" lon="4.80767">
        <ele>198.37418774414</ele>
        <time>2017-08-09T19:58:30Z</time>
      </trkpt>
      <trkpt lat="46.83288" lon="4.80776">
        <ele>198.07318774414</ele>
        <time>2017-08-09T19:58:31Z</time>
      </trkpt>
      <trkpt lat="46.83288" lon="4.80788">
        <ele>197.84418774414</ele>
        <time>2017-08-09T19:58:32Z</time>
      </trkpt>
      <trkpt lat="46.83288" lon="4.80797">
        <ele>197.66318774414</ele>
        <time>2017-08-09T19:58:33Z</time>
      </trkpt>
      <trkpt lat="46.83288" lon="4.80825">
        <ele>197.09818774414</ele>
        <time>2017-08-09T19:58:36Z</time>
      </trkpt>
      <trkpt lat="46.83289" lon="4.80833">
        <ele>196.88618774414</ele>
        <time>2017-08-09T19:58:36Z</time>
      </trkpt>
      <trkpt lat="46.83295" lon="4.80867">
        <ele>196.39718774414</ele>
        <time>2017-08-09T19:58:40Z</time>
      </trkpt>
      <trkpt lat="46.83305" lon="4.80884">
        <ele>196.09218774414</ele>
        <time>2017-08-09T19:58:42Z</time>
      </trkpt>
      <trkpt lat="46.83312" lon="4.80895">
        <ele>195.92318774414</ele>
        <time>2017-08-09T19:58:44Z</time>
      </trkpt>
      <trkpt lat="46.83334" lon="4.80916">
        <ele>195.49918774414</ele>
        <time>2017-08-09T19:58:48Z</time>
      </trkpt>
      <trkpt lat="46.83385" lon="4.8094">
        <ele>194.79918774414</ele>
        <time>2017-08-09T19:58:56Z</time>
      </trkpt>
      <trkpt lat="46.83388" lon="4.80941">
        <ele>194.74718774414</ele>
        <time>2017-08-09T19:58:56Z</time>
      </trkpt>
      <trkpt lat="46.83391" lon="4.80943">
        <ele>194.77218774414</ele>
        <time>2017-08-09T19:58:57Z</time>
      </trkpt>
      <trkpt lat="46.83429" lon="4.80957">
        <ele>194.54818774414</ele>
        <time>2017-08-09T19:59:04Z</time>
      </trkpt>
      <trkpt lat="46.83507" lon="4.80995">
        <ele>194.84018774414</ele>
        <time>2017-08-09T19:59:20Z</time>
      </trkpt>
      <trkpt lat="46.83516" lon="4.80999">
        <ele>194.89518774414</ele>
        <time>2017-08-09T19:59:22Z</time>
      </trkpt>
      <trkpt lat="46.83551" lon="4.81014">
        <ele>195.15018774414</ele>
        <time>2017-08-09T19:59:30Z</time>
      </trkpt>
      <trkpt lat="46.83583" lon="4.81016">
        <ele>195.39418774414</ele>
        <time>2017-08-09T19:59:37Z</time>
      </trkpt>
      <trkpt lat="46.83755" lon="4.8101">
        <ele>196.16318774414</ele>
        <time>2017-08-09T20:00:12Z</time>
      </trkpt>
      <trkpt lat="46.83782" lon="4.81014">
        <ele>196.13918774414</ele>
        <time>2017-08-09T20:00:17Z</time>
      </trkpt>
      <trkpt lat="46.83806" lon="4.81018">
        <ele>196.00018774414</ele>
        <time>2017-08-09T20:00:21Z</time>
      </trkpt>
      <trkpt lat="46.84005" lon="4.81131">
        <ele>193.81518774414</ele>
        <time>2017-08-09T20:00:57Z</time>
      </trkpt>
      <trkpt lat="46.84145" lon="4.81164">
        <ele>192.92818774414</ele>
        <time>2017-08-09T20:01:21Z</time>
      </trkpt>
      <trkpt lat="46.8418" lon="4.81169">
        <ele>192.88618774414</ele>
        <time>2017-08-09T20:01:27Z</time>
      </trkpt>
      <trkpt lat="46.84184" lon="4.8117">
        <ele>192.89418774414</ele>
        <time>2017-08-09T20:01:28Z</time>
      </trkpt>
      <trkpt lat="46.842" lon="4.81169">
        <ele>192.88118774414</ele>
        <time>2017-08-09T20:01:31Z</time>
      </trkpt>
      <trkpt lat="46.84226" lon="4.81162">
        <ele>192.88718774414</ele>
        <time>2017-08-09T20:01:36Z</time>
      </trkpt>
      <trkpt lat="46.84242" lon="4.81151">
        <ele>192.88118774414</ele>
        <time>2017-08-09T20:01:39Z</time>
      </trkpt>
      <trkpt lat="46.84252" lon="4.81147">
        <ele>192.89218774414</ele>
        <time>2017-08-09T20:01:41Z</time>
      </trkpt>
      <trkpt lat="46.84256" lon="4.81146">
        <ele>192.89818774414</ele>
        <time>2017-08-09T20:01:42Z</time>
      </trkpt>
      <trkpt lat="46.84339" lon="4.81124">
        <ele>192.51318774414</ele>
        <time>2017-08-09T20:01:57Z</time>
      </trkpt>
      <trkpt lat="46.84394" lon="4.81102">
        <ele>191.90018774414</ele>
        <time>2017-08-09T20:02:06Z</time>
      </trkpt>
      <trkpt lat="46.84398" lon="4.81102">
        <ele>191.86518774414</ele>
        <time>2017-08-09T20:02:07Z</time>
      </trkpt>
      <trkpt lat="46.84414" lon="4.81101">
        <ele>191.61818774414</ele>
        <time>2017-08-09T20:02:10Z</time>
      </trkpt>
      <trkpt lat="46.84448" lon="4.81106">
        <ele>191.10018774414</ele>
        <time>2017-08-09T20:02:15Z</time>
      </trkpt>
      <trkpt lat="46.84475" lon="4.81118">
        <ele>190.61518774414</ele>
        <time>2017-08-09T20:02:19Z</time>
      </trkpt>
      <trkpt lat="46.84483" lon="4.81122">
        <ele>190.45218774414</ele>
        <time>2017-08-09T20:02:21Z</time>
      </trkpt>
      <trkpt lat="46.84496" lon="4.81115">
        <ele>190.05518774414</ele>
        <time>2017-08-09T20:02:23Z</time>
      </trkpt>
      <trkpt lat="46.84503" lon="4.81096">
        <ele>189.75918774414</ele>
        <time>2017-08-09T20:02:25Z</time>
      </trkpt>
      <trkpt lat="46.84518" lon="4.81079">
        <ele>189.32018774414</ele>
        <time>2017-08-09T20:02:28Z</time>
      </trkpt>
      <trkpt lat="46.84601" lon="4.81015">
        <ele>188.02518774414</ele>
        <time>2017-08-09T20:02:43Z</time>
      </trkpt>
      <trkpt lat="46.84622" lon="4.81001">
        <ele>187.61818774414</ele>
        <time>2017-08-09T20:02:46Z</time>
      </trkpt>
      <trkpt lat="46.84629" lon="4.80995">
        <ele>187.62718774414</ele>
        <time>2017-08-09T20:02:48Z</time>
      </trkpt>
      <trkpt lat="46.84715" lon="4.80932">
        <ele>186.74618774414</ele>
        <time>2017-08-09T20:03:04Z</time>
      </trkpt>
      <trkpt lat="46.8473" lon="4.80918">
        <ele>186.82718774414</ele>
        <time>2017-08-09T20:03:08Z</time>
      </trkpt>
      <trkpt lat="46.84733" lon="4.80887">
        <ele>186.61418774414</ele>
        <time>2017-08-09T20:03:11Z</time>
      </trkpt>
      <trkpt lat="46.84736" lon="4.80822">
        <ele>186.84918774414</ele>
        <time>2017-08-09T20:03:20Z</time>
      </trkpt>
      <trkpt lat="46.84739" lon="4.80798">
        <ele>186.90118774414</ele>
        <time>2017-08-09T20:03:24Z</time>
      </trkpt>
      <trkpt lat="46.84741" lon="4.80795">
        <ele>186.90118774414</ele>
        <time>2017-08-09T20:03:24Z</time>
      </trkpt>
      <trkpt lat="46.84743" lon="4.80794">
        <ele>186.87918774414</ele>
        <time>2017-08-09T20:03:25Z</time>
      </trkpt>
      <trkpt lat="46.84766" lon="4.80711">
        <ele>187.06118774414</ele>
        <time>2017-08-09T20:03:37Z</time>
      </trkpt>
      <trkpt lat="46.84874" lon="4.80343">
        <ele>188.78518774414</ele>
        <time>2017-08-09T20:04:35Z</time>
      </trkpt>
      <trkpt lat="46.84894" lon="4.80282">
        <ele>189.05918774414</ele>
        <time>2017-08-09T20:04:44Z</time>
      </trkpt>
      <trkpt lat="46.84921" lon="4.80241">
        <ele>189.27318774414</ele>
        <time>2017-08-09T20:04:52Z</time>
      </trkpt>
      <trkpt lat="46.85123" lon="4.80078">
        <ele>190.40618774414</ele>
        <time>2017-08-09T20:05:40Z</time>
      </trkpt>
      <trkpt lat="46.85205" lon="4.80051">
        <ele>190.87818774414</ele>
        <time>2017-08-09T20:05:57Z</time>
      </trkpt>
      <trkpt lat="46.85238" lon="4.80048">
        <ele>191.06718774414</ele>
        <time>2017-08-09T20:06:04Z</time>
      </trkpt>
      <trkpt lat="46.85326" lon="4.8007">
        <ele>191.56118774414</ele>
        <time>2017-08-09T20:06:23Z</time>
      </trkpt>
      <trkpt lat="46.85366" lon="4.80061">
        <ele>191.73718774414</ele>
        <time>2017-08-09T20:06:31Z</time>
      </trkpt>
      <trkpt lat="46.8538" lon="4.80051">
        <ele>191.79218774414</ele>
        <time>2017-08-09T20:06:34Z</time>
      </trkpt>
      <trkpt lat="46.85448" lon="4.79973">
        <ele>192.01718774414</ele>
        <time>2017-08-09T20:06:51Z</time>
      </trkpt>
      <trkpt lat="46.85655" lon="4.79863">
        <ele>191.80918774414</ele>
        <time>2017-08-09T20:07:31Z</time>
      </trkpt>
      <trkpt lat="46.85727" lon="4.79819">
        <ele>191.85718774414</ele>
        <time>2017-08-09T20:07:46Z</time>
      </trkpt>
      <trkpt lat="46.85801" lon="4.79764">
        <ele>192.16918774414</ele>
        <time>2017-08-09T20:08:03Z</time>
      </trkpt>
      <trkpt lat="46.85815" lon="4.79749">
        <ele>192.22718774414</ele>
        <time>2017-08-09T20:08:06Z</time>
      </trkpt>
      <trkpt lat="46.8582" lon="4.79744">
        <ele>192.32018774414</ele>
        <time>2017-08-09T20:08:08Z</time>
      </trkpt>
      <trkpt lat="46.85833" lon="4.79736">
        <ele>192.34718774414</ele>
        <time>2017-08-09T20:08:10Z</time>
      </trkpt>
      <trkpt lat="46.85848" lon="4.79739">
        <ele>192.39318774414</ele>
        <time>2017-08-09T20:08:13Z</time>
      </trkpt>
      <trkpt lat="46.85855" lon="4.79736">
        <ele>192.48818774414</ele>
        <time>2017-08-09T20:08:15Z</time>
      </trkpt>
      <trkpt lat="46.85859" lon="4.79721">
        <ele>192.47818774414</ele>
        <time>2017-08-09T20:08:17Z</time>
      </trkpt>
      <trkpt lat="46.85862" lon="4.79712">
        <ele>192.56518774414</ele>
        <time>2017-08-09T20:08:19Z</time>
      </trkpt>
      <trkpt lat="46.85874" lon="4.79704">
        <ele>192.58718774414</ele>
        <time>2017-08-09T20:08:21Z</time>
      </trkpt>
      <trkpt lat="46.85944" lon="4.79667">
        <ele>193.02518774414</ele>
        <time>2017-08-09T20:08:37Z</time>
      </trkpt>
      <trkpt lat="46.86104" lon="4.79564">
        <ele>193.11818774414</ele>
        <time>2017-08-09T20:09:09Z</time>
      </trkpt>
      <trkpt lat="46.86129" lon="4.79545">
        <ele>193.09918774414</ele>
        <time>2017-08-09T20:09:15Z</time>
      </trkpt>
      <trkpt lat="46.86441" lon="4.7924">
        <ele>192.87218774414</ele>
        <time>2017-08-09T20:10:24Z</time>
      </trkpt>
      <trkpt lat="46.86461" lon="4.79228">
        <ele>192.88718774414</ele>
        <time>2017-08-09T20:10:28Z</time>
      </trkpt>
      <trkpt lat="46.8651" lon="4.79212">
        <ele>192.99718774414</ele>
        <time>2017-08-09T20:10:37Z</time>
      </trkpt>
      <trkpt lat="46.86559" lon="4.79199">
        <ele>193.16718774414</ele>
        <time>2017-08-09T20:10:47Z</time>
      </trkpt>
      <trkpt lat="46.86596" lon="4.79188">
        <ele>193.36218774414</ele>
        <time>2017-08-09T20:10:55Z</time>
      </trkpt>
      <trkpt lat="46.86636" lon="4.79167">
        <ele>193.63918774414</ele>
        <time>2017-08-09T20:11:04Z</time>
      </trkpt>
      <trkpt lat="46.86667" lon="4.79136">
        <ele>193.92218774414</ele>
        <time>2017-08-09T20:11:12Z</time>
      </trkpt>
      <trkpt lat="46.86744" lon="4.79029">
        <ele>194.80418774414</ele>
        <time>2017-08-09T20:11:35Z</time>
      </trkpt>
      <trkpt lat="46.86757" lon="4.7899">
        <ele>194.99318774414</ele>
        <time>2017-08-09T20:11:42Z</time>
      </trkpt>
      <trkpt lat="46.86767" lon="4.78923">
        <ele>195.26418774414</ele>
        <time>2017-08-09T20:11:51Z</time>
      </trkpt>
      <trkpt lat="46.86776" lon="4.78892">
        <ele>195.37818774414</ele>
        <time>2017-08-09T20:11:56Z</time>
      </trkpt>
      <trkpt lat="46.86896" lon="4.78698">
        <ele>196.32818774414</ele>
        <time>2017-08-09T20:12:33Z</time>
      </trkpt>
      <trkpt lat="46.86916" lon="4.78674">
        <ele>196.51318774414</ele>
        <time>2017-08-09T20:12:39Z</time>
      </trkpt>
      <trkpt lat="46.86928" lon="4.78665">
        <ele>196.62018774414</ele>
        <time>2017-08-09T20:12:42Z</time>
      </trkpt>
      <trkpt lat="46.87005" lon="4.78633">
        <ele>197.20818774414</ele>
        <time>2017-08-09T20:12:59Z</time>
      </trkpt>
      <trkpt lat="46.87026" lon="4.78618">
        <ele>197.38218774414</ele>
        <time>2017-08-09T20:13:04Z</time>
      </trkpt>
      <trkpt lat="46.8704" lon="4.78597">
        <ele>197.52918774414</ele>
        <time>2017-08-09T20:13:08Z</time>
      </trkpt>
      <trkpt lat="46.87051" lon="4.78564">
        <ele>197.69318774414</ele>
        <time>2017-08-09T20:13:14Z</time>
      </trkpt>
      <trkpt lat="46.87089" lon="4.784">
        <ele>198.05218774414</ele>
        <time>2017-08-09T20:13:37Z</time>
      </trkpt>
      <trkpt lat="46.87142" lon="4.7825">
        <ele>197.66418774414</ele>
        <time>2017-08-09T20:13:58Z</time>
      </trkpt>
      <trkpt lat="46.87181" lon="4.78054">
        <ele>196.79618774414</ele>
        <time>2017-08-09T20:14:22Z</time>
      </trkpt>
      <trkpt lat="46.87195" lon="4.78005">
        <ele>196.60818774414</ele>
        <time>2017-08-09T20:14:28Z</time>
      </trkpt>
      <trkpt lat="46.87216" lon="4.7798">
        <ele>196.50318774414</ele>
        <time>2017-08-09T20:14:33Z</time>
      </trkpt>
      <trkpt lat="46.87309" lon="4.77925">
        <ele>196.39418774414</ele>
        <time>2017-08-09T20:14:51Z</time>
      </trkpt>
      <trkpt lat="46.87349" lon="4.77896">
        <ele>196.47918774414</ele>
        <time>2017-08-09T20:15:00Z</time>
      </trkpt>
      <trkpt lat="46.87499" lon="4.77758">
        <ele>197.23318774414</ele>
        <time>2017-08-09T20:15:36Z</time>
      </trkpt>
      <trkpt lat="46.87549" lon="4.77704">
        <ele>197.59418774414</ele>
        <time>2017-08-09T20:15:49Z</time>
      </trkpt>
      <trkpt lat="46.87563" lon="4.77683">
        <ele>197.72318774414</ele>
        <time>2017-08-09T20:15:53Z</time>
      </trkpt>
      <trkpt lat="46.87576" lon="4.77651">
        <ele>197.88418774414</ele>
        <time>2017-08-09T20:15:58Z</time>
      </trkpt>
      <trkpt lat="46.8762" lon="4.77375">
        <ele>199.62618774414</ele>
        <time>2017-08-09T20:16:41Z</time>
      </trkpt>
      <trkpt lat="46.87628" lon="4.77354">
        <ele>199.81818774414</ele>
        <time>2017-08-09T20:16:45Z</time>
      </trkpt>
      <trkpt lat="46.87642" lon="4.77333">
        <ele>200.05818774414</ele>
        <time>2017-08-09T20:16:50Z</time>
      </trkpt>
      <trkpt lat="46.87717" lon="4.77274">
        <ele>201.13118774414</ele>
        <time>2017-08-09T20:17:10Z</time>
      </trkpt>
      <trkpt lat="46.87766" lon="4.7723">
        <ele>201.87118774414</ele>
        <time>2017-08-09T20:17:23Z</time>
      </trkpt>
      <trkpt lat="46.87791" lon="4.77202">
        <ele>202.26918774414</ele>
        <time>2017-08-09T20:17:31Z</time>
      </trkpt>
      <trkpt lat="46.87895" lon="4.77013">
        <ele>204.15318774414</ele>
        <time>2017-08-09T20:18:09Z</time>
      </trkpt>
      <trkpt lat="46.87924" lon="4.76945">
        <ele>204.74818774414</ele>
        <time>2017-08-09T20:18:22Z</time>
      </trkpt>
      <trkpt lat="46.87938" lon="4.76921">
        <ele>204.98318774414</ele>
        <time>2017-08-09T20:18:27Z</time>
      </trkpt>
      <trkpt lat="46.87963" lon="4.76896">
        <ele>205.31218774414</ele>
        <time>2017-08-09T20:18:33Z</time>
      </trkpt>
      <trkpt lat="46.88069" lon="4.76815">
        <ele>206.76418774414</ele>
        <time>2017-08-09T20:19:01Z</time>
      </trkpt>
      <trkpt lat="46.88088" lon="4.76793">
        <ele>207.07618774414</ele>
        <time>2017-08-09T20:19:07Z</time>
      </trkpt>
      <trkpt lat="46.88108" lon="4.76757">
        <ele>207.50918774414</ele>
        <time>2017-08-09T20:19:15Z</time>
      </trkpt>
      <trkpt lat="46.88138" lon="4.76692">
        <ele>208.33418774414</ele>
        <time>2017-08-09T20:19:28Z</time>
      </trkpt>
      <trkpt lat="46.88154" lon="4.76657">
        <ele>208.71518774414</ele>
        <time>2017-08-09T20:19:35Z</time>
      </trkpt>
      <trkpt lat="46.88175" lon="4.76614">
        <ele>209.22718774414</ele>
        <time>2017-08-09T20:19:44Z</time>
      </trkpt>
      <trkpt lat="46.88176" lon="4.7661">
        <ele>209.28118774414</ele>
        <time>2017-08-09T20:19:44Z</time>
      </trkpt>
      <trkpt lat="46.88192" lon="4.76576">
        <ele>209.66618774414</ele>
        <time>2017-08-09T20:19:51Z</time>
      </trkpt>
      <trkpt lat="46.88193" lon="4.76574">
        <ele>209.69018774414</ele>
        <time>2017-08-09T20:19:52Z</time>
      </trkpt>
      <trkpt lat="46.88199" lon="4.76558">
        <ele>209.91718774414</ele>
        <time>2017-08-09T20:19:55Z</time>
      </trkpt>
      <trkpt lat="46.88216" lon="4.76517">
        <ele>210.37318774414</ele>
        <time>2017-08-09T20:20:03Z</time>
      </trkpt>
      <trkpt lat="46.88245" lon="4.76477">
        <ele>210.91718774414</ele>
        <time>2017-08-09T20:20:12Z</time>
      </trkpt>
      <trkpt lat="46.88266" lon="4.76462">
        <ele>211.17818774414</ele>
        <time>2017-08-09T20:20:18Z</time>
      </trkpt>
      <trkpt lat="46.8829" lon="4.76453">
        <ele>211.50118774414</ele>
        <time>2017-08-09T20:20:24Z</time>
      </trkpt>
      <trkpt lat="46.88352" lon="4.76456">
        <ele>212.18618774414</ele>
        <time>2017-08-09T20:20:38Z</time>
      </trkpt>
      <trkpt lat="46.88486" lon="4.76494">
        <ele>213.65618774414</ele>
        <time>2017-08-09T20:21:09Z</time>
      </trkpt>
      <trkpt lat="46.88554" lon="4.76503">
        <ele>214.28818774414</ele>
        <time>2017-08-09T20:21:24Z</time>
      </trkpt>
      <trkpt lat="46.88643" lon="4.76492">
        <ele>215.06518774414</ele>
        <time>2017-08-09T20:21:44Z</time>
      </trkpt>
      <trkpt lat="46.88795" lon="4.76425">
        <ele>216.33818774414</ele>
        <time>2017-08-09T20:22:18Z</time>
      </trkpt>
      <trkpt lat="46.88812" lon="4.76413">
        <ele>216.49318774414</ele>
        <time>2017-08-09T20:22:22Z</time>
      </trkpt>
      <trkpt lat="46.88824" lon="4.76398">
        <ele>216.62718774414</ele>
        <time>2017-08-09T20:22:26Z</time>
      </trkpt>
      <trkpt lat="46.88838" lon="4.76371">
        <ele>216.82818774414</ele>
        <time>2017-08-09T20:22:31Z</time>
      </trkpt>
      <trkpt lat="46.8895" lon="4.76103">
        <ele>219.43718774414</ele>
        <time>2017-08-09T20:23:21Z</time>
      </trkpt>
      <trkpt lat="46.88956" lon="4.76087">
        <ele>219.74518774414</ele>
        <time>2017-08-09T20:23:25Z</time>
      </trkpt>
      <trkpt lat="46.88979" lon="4.76028">
        <ele>220.64018774414</ele>
        <time>2017-08-09T20:23:37Z</time>
      </trkpt>
      <trkpt lat="46.89007" lon="4.7596">
        <ele>221.74918774414</ele>
        <time>2017-08-09T20:23:52Z</time>
      </trkpt>
      <trkpt lat="46.89029" lon="4.75909">
        <ele>222.60718774414</ele>
        <time>2017-08-09T20:24:03Z</time>
      </trkpt>
      <trkpt lat="46.89079" lon="4.75782">
        <ele>224.25418774414</ele>
        <time>2017-08-09T20:24:28Z</time>
      </trkpt>
      <trkpt lat="46.89114" lon="4.75714">
        <ele>224.87918774414</ele>
        <time>2017-08-09T20:24:41Z</time>
      </trkpt>
      <trkpt lat="46.89132" lon="4.75694">
        <ele>224.99718774414</ele>
        <time>2017-08-09T20:24:46Z</time>
      </trkpt>
      <trkpt lat="46.89166" lon="4.75677">
        <ele>225.16218774414</ele>
        <time>2017-08-09T20:24:53Z</time>
      </trkpt>
      <trkpt lat="46.90207" lon="4.75335">
        <ele>226.17218774414</ele>
        <time>2017-08-09T20:28:15Z</time>
      </trkpt>
      <trkpt lat="46.90212" lon="4.7533">
        <ele>226.09718774414</ele>
        <time>2017-08-09T20:28:16Z</time>
      </trkpt>
      <trkpt lat="46.90215" lon="4.75323">
        <ele>226.01318774414</ele>
        <time>2017-08-09T20:28:17Z</time>
      </trkpt>
      <trkpt lat="46.90216" lon="4.75312">
        <ele>225.84418774414</ele>
        <time>2017-08-09T20:28:18Z</time>
      </trkpt>
      <trkpt lat="46.90218" lon="4.75312">
        <ele>225.77618774414</ele>
        <time>2017-08-09T20:28:18Z</time>
      </trkpt>
      <trkpt lat="46.90231" lon="4.75295">
        <ele>225.50018774414</ele>
        <time>2017-08-09T20:28:21Z</time>
      </trkpt>
      <trkpt lat="46.90239" lon="4.75268">
        <ele>225.05618774414</ele>
        <time>2017-08-09T20:28:24Z</time>
      </trkpt>
      <trkpt lat="46.90247" lon="4.7525">
        <ele>224.81318774414</ele>
        <time>2017-08-09T20:28:26Z</time>
      </trkpt>
      <trkpt lat="46.90257" lon="4.75239">
        <ele>224.60218774414</ele>
        <time>2017-08-09T20:28:28Z</time>
      </trkpt>
      <trkpt lat="46.90262" lon="4.75235">
        <ele>224.43218774414</ele>
        <time>2017-08-09T20:28:29Z</time>
      </trkpt>
      <trkpt lat="46.9027" lon="4.75235">
        <ele>224.29418774414</ele>
        <time>2017-08-09T20:28:30Z</time>
      </trkpt>
      <trkpt lat="46.90278" lon="4.75227">
        <ele>224.13418774414</ele>
        <time>2017-08-09T20:28:32Z</time>
      </trkpt>
      <trkpt lat="46.9028" lon="4.75211">
        <ele>223.93318774414</ele>
        <time>2017-08-09T20:28:34Z</time>
      </trkpt>
      <trkpt lat="46.90282" lon="4.75204">
        <ele>223.80818774414</ele>
        <time>2017-08-09T20:28:34Z</time>
      </trkpt>
      <trkpt lat="46.90284" lon="4.75189">
        <ele>223.58818774414</ele>
        <time>2017-08-09T20:28:36Z</time>
      </trkpt>
      <trkpt lat="46.90299" lon="4.75102">
        <ele>222.40618774414</ele>
        <time>2017-08-09T20:28:45Z</time>
      </trkpt>
      <trkpt lat="46.90302" lon="4.75081">
        <ele>222.16218774414</ele>
        <time>2017-08-09T20:28:48Z</time>
      </trkpt>
      <trkpt lat="46.90309" lon="4.75034">
        <ele>221.65518774414</ele>
        <time>2017-08-09T20:28:53Z</time>
      </trkpt>
      <trkpt lat="46.90325" lon="4.74994">
        <ele>221.25218774414</ele>
        <time>2017-08-09T20:28:58Z</time>
      </trkpt>
      <trkpt lat="46.90347" lon="4.74969">
        <ele>221.01018774414</ele>
        <time>2017-08-09T20:29:03Z</time>
      </trkpt>
      <trkpt lat="46.90427" lon="4.7493">
        <ele>220.63418774414</ele>
        <time>2017-08-09T20:29:18Z</time>
      </trkpt>
      <trkpt lat="46.90451" lon="4.74912">
        <ele>220.51418774414</ele>
        <time>2017-08-09T20:29:22Z</time>
      </trkpt>
      <trkpt lat="46.90556" lon="4.74766">
        <ele>219.82618774414</ele>
        <time>2017-08-09T20:29:48Z</time>
      </trkpt>
      <trkpt lat="46.90642" lon="4.74647">
        <ele>219.82618774414</ele>
        <time>2017-08-09T20:30:10Z</time>
      </trkpt>
      <trkpt lat="46.90645" lon="4.74639">
        <ele>219.84518774414</ele>
        <time>2017-08-09T20:30:11Z</time>
      </trkpt>
      <trkpt lat="46.90646" lon="4.74632">
        <ele>219.86718774414</ele>
        <time>2017-08-09T20:30:12Z</time>
      </trkpt>
      <trkpt lat="46.90645" lon="4.74622">
        <ele>219.88718774414</ele>
        <time>2017-08-09T20:30:13Z</time>
      </trkpt>
      <trkpt lat="46.90649" lon="4.74617">
        <ele>219.91418774414</ele>
        <time>2017-08-09T20:30:14Z</time>
      </trkpt>
      <trkpt lat="46.90657" lon="4.74619">
        <ele>219.93918774414</ele>
        <time>2017-08-09T20:30:16Z</time>
      </trkpt>
      <trkpt lat="46.90663" lon="4.74621">
        <ele>219.97118774414</ele>
        <time>2017-08-09T20:30:17Z</time>
      </trkpt>
      <trkpt lat="46.90674" lon="4.7464">
        <ele>220.03618774414</ele>
        <time>2017-08-09T20:30:21Z</time>
      </trkpt>
      <trkpt lat="46.90678" lon="4.74647">
        <ele>220.06618774414</ele>
        <time>2017-08-09T20:30:22Z</time>
      </trkpt>
      <trkpt lat="46.90711" lon="4.74607">
        <ele>220.22718774414</ele>
        <time>2017-08-09T20:30:30Z</time>
      </trkpt>
      <trkpt lat="46.9076" lon="4.74557">
        <ele>220.42518774414</ele>
        <time>2017-08-09T20:30:42Z</time>
      </trkpt>
      <trkpt lat="46.90784" lon="4.74533">
        <ele>220.51618774414</ele>
        <time>2017-08-09T20:30:48Z</time>
      </trkpt>
      <trkpt lat="46.90814" lon="4.74492">
        <ele>220.58718774414</ele>
        <time>2017-08-09T20:30:55Z</time>
      </trkpt>
      <trkpt lat="46.90853" lon="4.74415">
        <ele>220.50518774414</ele>
        <time>2017-08-09T20:31:07Z</time>
      </trkpt>
      <trkpt lat="46.90869" lon="4.74396">
        <ele>220.43718774414</ele>
        <time>2017-08-09T20:31:10Z</time>
      </trkpt>
      <trkpt lat="46.90894" lon="4.74375">
        <ele>220.33818774414</ele>
        <time>2017-08-09T20:31:15Z</time>
      </trkpt>
      <trkpt lat="46.90993" lon="4.74335">
        <ele>220.27318774414</ele>
        <time>2017-08-09T20:31:33Z</time>
      </trkpt>
      <trkpt lat="46.91027" lon="4.74303">
        <ele>220.46118774414</ele>
        <time>2017-08-09T20:31:41Z</time>
      </trkpt>
      <trkpt lat="46.91062" lon="4.74262">
        <ele>220.88618774414</ele>
        <time>2017-08-09T20:31:51Z</time>
      </trkpt>
      <trkpt lat="46.91098" lon="4.74183">
        <ele>221.87918774414</ele>
        <time>2017-08-09T20:32:07Z</time>
      </trkpt>
      <trkpt lat="46.91105" lon="4.74156">
        <ele>222.27118774414</ele>
        <time>2017-08-09T20:32:12Z</time>
      </trkpt>
      <trkpt lat="46.91104" lon="4.74099">
        <ele>223.09918774414</ele>
        <time>2017-08-09T20:32:22Z</time>
      </trkpt>
      <trkpt lat="46.911" lon="4.7407">
        <ele>223.56118774414</ele>
        <time>2017-08-09T20:32:28Z</time>
      </trkpt>
      <trkpt lat="46.91068" lon="4.73951">
        <ele>225.57118774414</ele>
        <time>2017-08-09T20:32:51Z</time>
      </trkpt>
      <trkpt lat="46.9105" lon="4.73896">
        <ele>226.34718774414</ele>
        <time>2017-08-09T20:33:02Z</time>
      </trkpt>
      <trkpt lat="46.91034" lon="4.73828">
        <ele>227.01818774414</ele>
        <time>2017-08-09T20:33:13Z</time>
      </trkpt>
      <trkpt lat="46.91025" lon="4.73761">
        <ele>227.35218774414</ele>
        <time>2017-08-09T20:33:23Z</time>
      </trkpt>
      <trkpt lat="46.91025" lon="4.73665">
        <ele>227.34518774414</ele>
        <time>2017-08-09T20:33:34Z</time>
      </trkpt>
      <trkpt lat="46.90975" lon="4.73419">
        <ele>226.14718774414</ele>
        <time>2017-08-09T20:34:03Z</time>
      </trkpt>
      <trkpt lat="46.90962" lon="4.73377">
        <ele>225.94818774414</ele>
        <time>2017-08-09T20:34:08Z</time>
      </trkpt>
      <trkpt lat="46.90937" lon="4.73335">
        <ele>225.77518774414</ele>
        <time>2017-08-09T20:34:15Z</time>
      </trkpt>
      <trkpt lat="46.90893" lon="4.73307">
        <ele>225.65518774414</ele>
        <time>2017-08-09T20:34:23Z</time>
      </trkpt>
      <trkpt lat="46.90876" lon="4.73287">
        <ele>225.46918774414</ele>
        <time>2017-08-09T20:34:27Z</time>
      </trkpt>
      <trkpt lat="46.90869" lon="4.73267">
        <ele>225.52118774414</ele>
        <time>2017-08-09T20:34:30Z</time>
      </trkpt>
      <trkpt lat="46.90865" lon="4.73257">
        <ele>225.39918774414</ele>
        <time>2017-08-09T20:34:31Z</time>
      </trkpt>
      <trkpt lat="46.90864" lon="4.73237">
        <ele>225.34918774414</ele>
        <time>2017-08-09T20:34:33Z</time>
      </trkpt>
      <trkpt lat="46.90869" lon="4.73158">
        <ele>225.22318774414</ele>
        <time>2017-08-09T20:34:42Z</time>
      </trkpt>
      <trkpt lat="46.90862" lon="4.73111">
        <ele>225.13018774414</ele>
        <time>2017-08-09T20:34:48Z</time>
      </trkpt>
      <trkpt lat="46.90843" lon="4.73064">
        <ele>224.94118774414</ele>
        <time>2017-08-09T20:34:54Z</time>
      </trkpt>
      <trkpt lat="46.90747" lon="4.72906">
        <ele>224.59018774414</ele>
        <time>2017-08-09T20:35:19Z</time>
      </trkpt>
      <trkpt lat="46.9073" lon="4.72853">
        <ele>224.72618774414</ele>
        <time>2017-08-09T20:35:27Z</time>
      </trkpt>
      <trkpt lat="46.9073" lon="4.72734">
        <ele>225.22318774414</ele>
        <time>2017-08-09T20:35:43Z</time>
      </trkpt>
      <trkpt lat="46.90728" lon="4.72717">
        <ele>225.32318774414</ele>
        <time>2017-08-09T20:35:46Z</time>
      </trkpt>
      <trkpt lat="46.90708" lon="4.72673">
        <ele>225.65518774414</ele>
        <time>2017-08-09T20:35:54Z</time>
      </trkpt>
      <trkpt lat="46.90684" lon="4.72601">
        <ele>226.19918774414</ele>
        <time>2017-08-09T20:36:06Z</time>
      </trkpt>
      <trkpt lat="46.90675" lon="4.72539">
        <ele>226.57318774414</ele>
        <time>2017-08-09T20:36:15Z</time>
      </trkpt>
      <trkpt lat="46.90672" lon="4.72449">
        <ele>226.97318774414</ele>
        <time>2017-08-09T20:36:27Z</time>
      </trkpt>
      <trkpt lat="46.90663" lon="4.7241">
        <ele>227.12718774414</ele>
        <time>2017-08-09T20:36:33Z</time>
      </trkpt>
      <trkpt lat="46.9064" lon="4.72345">
        <ele>227.34418774414</ele>
        <time>2017-08-09T20:36:43Z</time>
      </trkpt>
      <trkpt lat="46.90627" lon="4.72294">
        <ele>227.30918774414</ele>
        <time>2017-08-09T20:36:49Z</time>
      </trkpt>
      <trkpt lat="46.90624" lon="4.72243">
        <ele>227.22018774414</ele>
        <time>2017-08-09T20:36:55Z</time>
      </trkpt>
      <trkpt lat="46.90627" lon="4.7219">
        <ele>227.06618774414</ele>
        <time>2017-08-09T20:37:02Z</time>
      </trkpt>
      <trkpt lat="46.90633" lon="4.72141">
        <ele>226.44818774414</ele>
        <time>2017-08-09T20:37:07Z</time>
      </trkpt>
      <trkpt lat="46.90641" lon="4.72099">
        <ele>225.81518774414</ele>
        <time>2017-08-09T20:37:13Z</time>
      </trkpt>
      <trkpt lat="46.90644" lon="4.72092">
        <ele>225.69818774414</ele>
        <time>2017-08-09T20:37:14Z</time>
      </trkpt>
      <trkpt lat="46.90656" lon="4.72135">
        <ele>224.72418774414</ele>
        <time>2017-08-09T20:37:18Z</time>
      </trkpt>
      <trkpt lat="46.90682" lon="4.72161">
        <ele>223.50818774414</ele>
        <time>2017-08-09T20:37:22Z</time>
      </trkpt>
      <trkpt lat="46.90694" lon="4.72177">
        <ele>223.00518774414</ele>
        <time>2017-08-09T20:37:24Z</time>
      </trkpt>
      <trkpt lat="46.90705" lon="4.72166">
        <ele>222.58018774414</ele>
        <time>2017-08-09T20:37:26Z</time>
      </trkpt>
      <trkpt lat="46.90709" lon="4.72162">
        <ele>222.03218774414</ele>
        <time>2017-08-09T20:37:27Z</time>
      </trkpt>
      <trkpt lat="46.90743" lon="4.72121">
        <ele>219.86318774414</ele>
        <time>2017-08-09T20:37:33Z</time>
      </trkpt>
      <trkpt lat="46.90755" lon="4.72112">
        <ele>219.33518774414</ele>
        <time>2017-08-09T20:37:35Z</time>
      </trkpt>
      <trkpt lat="46.90786" lon="4.72086">
        <ele>217.52518774414</ele>
        <time>2017-08-09T20:37:40Z</time>
      </trkpt>
      <trkpt lat="46.90826" lon="4.72053">
        <ele>215.33518774414</ele>
        <time>2017-08-09T20:37:46Z</time>
      </trkpt>
      <trkpt lat="46.90835" lon="4.72043">
        <ele>214.50018774414</ele>
        <time>2017-08-09T20:37:47Z</time>
      </trkpt>
      <trkpt lat="46.90869" lon="4.72013">
        <ele>212.97518774414</ele>
        <time>2017-08-09T20:37:53Z</time>
      </trkpt>
      <trkpt lat="46.90872" lon="4.72015">
        <ele>212.80418774414</ele>
        <time>2017-08-09T20:37:53Z</time>
      </trkpt>
      <trkpt lat="46.90891" lon="4.72022">
        <ele>212.14718774414</ele>
        <time>2017-08-09T20:37:56Z</time>
      </trkpt>
      <trkpt lat="46.90931" lon="4.72044">
        <ele>210.82518774414</ele>
        <time>2017-08-09T20:38:02Z</time>
      </trkpt>
      <trkpt lat="46.91038" lon="4.72134">
        <ele>209.04018774414</ele>
        <time>2017-08-09T20:38:22Z</time>
      </trkpt>
      <trkpt lat="46.91056" lon="4.7215">
        <ele>208.89518774414</ele>
        <time>2017-08-09T20:38:25Z</time>
      </trkpt>
      <trkpt lat="46.91075" lon="4.72163">
        <ele>208.81518774414</ele>
        <time>2017-08-09T20:38:29Z</time>
      </trkpt>
      <trkpt lat="46.91119" lon="4.72193">
        <ele>208.71018774414</ele>
        <time>2017-08-09T20:38:38Z</time>
      </trkpt>
      <trkpt lat="46.91142" lon="4.72208">
        <ele>208.70918774414</ele>
        <time>2017-08-09T20:38:43Z</time>
      </trkpt>
      <trkpt lat="46.91147" lon="4.72211">
        <ele>208.69318774414</ele>
        <time>2017-08-09T20:38:43Z</time>
      </trkpt>
      <trkpt lat="46.91154" lon="4.72216">
        <ele>208.73018774414</ele>
        <time>2017-08-09T20:38:45Z</time>
      </trkpt>
      <trkpt lat="46.9117" lon="4.72228">
        <ele>208.77118774414</ele>
        <time>2017-08-09T20:38:49Z</time>
      </trkpt>
      <trkpt lat="46.912" lon="4.72238">
        <ele>208.83718774414</ele>
        <time>2017-08-09T20:38:54Z</time>
      </trkpt>
      <trkpt lat="46.91205" lon="4.72237">
        <ele>208.82318774414</ele>
        <time>2017-08-09T20:38:55Z</time>
      </trkpt>
      <trkpt lat="46.91228" lon="4.72233">
        <ele>208.86418774414</ele>
        <time>2017-08-09T20:39:00Z</time>
      </trkpt>
      <trkpt lat="46.91286" lon="4.7223">
        <ele>208.86618774414</ele>
        <time>2017-08-09T20:39:11Z</time>
      </trkpt>
      <trkpt lat="46.91305" lon="4.7223">
        <ele>209.00718774414</ele>
        <time>2017-08-09T20:39:15Z</time>
      </trkpt>
      <trkpt lat="46.91314" lon="4.7223">
        <ele>208.97618774414</ele>
        <time>2017-08-09T20:39:16Z</time>
      </trkpt>
      <trkpt lat="46.91321" lon="4.7223">
        <ele>208.98318774414</ele>
        <time>2017-08-09T20:39:18Z</time>
      </trkpt>
      <trkpt lat="46.91327" lon="4.7223">
        <ele>209.02118774414</ele>
        <time>2017-08-09T20:39:19Z</time>
      </trkpt>
      <trkpt lat="46.91332" lon="4.72231">
        <ele>209.06518774414</ele>
        <time>2017-08-09T20:39:20Z</time>
      </trkpt>
      <trkpt lat="46.91343" lon="4.72234">
        <ele>209.12318774414</ele>
        <time>2017-08-09T20:39:22Z</time>
      </trkpt>
      <trkpt lat="46.91361" lon="4.72246">
        <ele>209.14418774414</ele>
        <time>2017-08-09T20:39:26Z</time>
      </trkpt>
      <trkpt lat="46.91376" lon="4.72256">
        <ele>209.25118774414</ele>
        <time>2017-08-09T20:39:30Z</time>
      </trkpt>
      <trkpt lat="46.91396" lon="4.72293">
        <ele>209.31418774414</ele>
        <time>2017-08-09T20:39:36Z</time>
      </trkpt>
      <trkpt lat="46.91406" lon="4.72306">
        <ele>209.29818774414</ele>
        <time>2017-08-09T20:39:38Z</time>
      </trkpt>
      <trkpt lat="46.9143" lon="4.72289">
        <ele>209.44218774414</ele>
        <time>2017-08-09T20:39:44Z</time>
      </trkpt>
      <trkpt lat="46.9148" lon="4.72243">
        <ele>209.63318774414</ele>
        <time>2017-08-09T20:39:55Z</time>
      </trkpt>
      <trkpt lat="46.91528" lon="4.72218">
        <ele>210.13018774414</ele>
        <time>2017-08-09T20:40:07Z</time>
      </trkpt>
      <trkpt lat="46.91536" lon="4.72214">
        <ele>210.27618774414</ele>
        <time>2017-08-09T20:40:09Z</time>
      </trkpt>
      <trkpt lat="46.91548" lon="4.72209">
        <ele>210.51518774414</ele>
        <time>2017-08-09T20:40:12Z</time>
      </trkpt>
      <trkpt lat="46.91572" lon="4.72211">
        <ele>211.00618774414</ele>
        <time>2017-08-09T20:40:19Z</time>
      </trkpt>
      <trkpt lat="46.91609" lon="4.72229">
        <ele>211.77218774414</ele>
        <time>2017-08-09T20:40:29Z</time>
      </trkpt>
      <trkpt lat="46.91643" lon="4.72274">
        <ele>212.77718774414</ele>
        <time>2017-08-09T20:40:41Z</time>
      </trkpt>
      <trkpt lat="46.91651" lon="4.72276">
        <ele>212.96218774414</ele>
        <time>2017-08-09T20:40:44Z</time>
      </trkpt>
      <trkpt lat="46.91674" lon="4.7228">
        <ele>213.59718774414</ele>
        <time>2017-08-09T20:40:51Z</time>
      </trkpt>
      <trkpt lat="46.91752" lon="4.72272">
        <ele>215.71118774414</ele>
        <time>2017-08-09T20:41:14Z</time>
      </trkpt>
      <trkpt lat="46.91803" lon="4.72279">
        <ele>217.30218774414</ele>
        <time>2017-08-09T20:41:29Z</time>
      </trkpt>
      <trkpt lat="46.91869" lon="4.72257">
        <ele>219.20418774414</ele>
        <time>2017-08-09T20:41:50Z</time>
      </trkpt>
      <trkpt lat="46.91928" lon="4.72264">
        <ele>220.62618774414</ele>
        <time>2017-08-09T20:42:06Z</time>
      </trkpt>
      <trkpt lat="46.92002" lon="4.72281">
        <ele>221.95118774414</ele>
        <time>2017-08-09T20:42:25Z</time>
      </trkpt>
      <trkpt lat="46.92016" lon="4.72284">
        <ele>222.15518774414</ele>
        <time>2017-08-09T20:42:29Z</time>
      </trkpt>
      <trkpt lat="46.92176" lon="4.72451">
        <ele>222.29218774414</ele>
        <time>2017-08-09T20:43:06Z</time>
      </trkpt>
      <trkpt lat="46.92178" lon="4.72452">
        <ele>222.20818774414</ele>
        <time>2017-08-09T20:43:06Z</time>
      </trkpt>
      <trkpt lat="46.92202" lon="4.72465">
        <ele>222.05318774414</ele>
        <time>2017-08-09T20:43:11Z</time>
      </trkpt>
      <trkpt lat="46.92275" lon="4.72508">
        <ele>221.43918774414</ele>
        <time>2017-08-09T20:43:24Z</time>
      </trkpt>
      <trkpt lat="46.92304" lon="4.72519">
        <ele>221.20318774414</ele>
        <time>2017-08-09T20:43:29Z</time>
      </trkpt>
      <trkpt lat="46.92326" lon="4.7252">
        <ele>221.02818774414</ele>
        <time>2017-08-09T20:43:33Z</time>
      </trkpt>
      <trkpt lat="46.92356" lon="4.72515">
        <ele>220.89218774414</ele>
        <time>2017-08-09T20:43:38Z</time>
      </trkpt>
      <trkpt lat="46.92397" lon="4.72527">
        <ele>220.71018774414</ele>
        <time>2017-08-09T20:43:45Z</time>
      </trkpt>
      <trkpt lat="46.92467" lon="4.72596">
        <ele>220.31218774414</ele>
        <time>2017-08-09T20:44:00Z</time>
      </trkpt>
      <trkpt lat="46.92513" lon="4.72644">
        <ele>220.11018774414</ele>
        <time>2017-08-09T20:44:10Z</time>
      </trkpt>
      <trkpt lat="46.92517" lon="4.72648">
        <ele>220.06918774414</ele>
        <time>2017-08-09T20:44:11Z</time>
      </trkpt>
      <trkpt lat="46.92605" lon="4.72738">
        <ele>219.77818774414</ele>
        <time>2017-08-09T20:44:30Z</time>
      </trkpt>
      <trkpt lat="46.92648" lon="4.72793">
        <ele>219.72518774414</ele>
        <time>2017-08-09T20:44:41Z</time>
      </trkpt>
      <trkpt lat="46.92684" lon="4.7283">
        <ele>219.76618774414</ele>
        <time>2017-08-09T20:44:49Z</time>
      </trkpt>
      <trkpt lat="46.92743" lon="4.72873">
        <ele>219.95618774414</ele>
        <time>2017-08-09T20:45:02Z</time>
      </trkpt>
      <trkpt lat="46.92771" lon="4.7289">
        <ele>220.10118774414</ele>
        <time>2017-08-09T20:45:08Z</time>
      </trkpt>
      <trkpt lat="46.92857" lon="4.72959">
        <ele>220.57818774414</ele>
        <time>2017-08-09T20:45:28Z</time>
      </trkpt>
      <trkpt lat="46.92862" lon="4.72963">
        <ele>220.65318774414</ele>
        <time>2017-08-09T20:45:30Z</time>
      </trkpt>
      <trkpt lat="46.92942" lon="4.73045">
        <ele>221.31118774414</ele>
        <time>2017-08-09T20:45:50Z</time>
      </trkpt>
      <trkpt lat="46.92992" lon="4.73088">
        <ele>221.77618774414</ele>
        <time>2017-08-09T20:46:03Z</time>
      </trkpt>
      <trkpt lat="46.93" lon="4.73099">
        <ele>221.85818774414</ele>
        <time>2017-08-09T20:46:05Z</time>
      </trkpt>
      <trkpt lat="46.9301" lon="4.731">
        <ele>221.95118774414</ele>
        <time>2017-08-09T20:46:08Z</time>
      </trkpt>
      <trkpt lat="46.93013" lon="4.73105">
        <ele>221.99418774414</ele>
        <time>2017-08-09T20:46:09Z</time>
      </trkpt>
      <trkpt lat="46.93045" lon="4.73135">
        <ele>222.34018774414</ele>
        <time>2017-08-09T20:46:17Z</time>
      </trkpt>
      <trkpt lat="46.93067" lon="4.73164">
        <ele>222.70018774414</ele>
        <time>2017-08-09T20:46:24Z</time>
      </trkpt>
      <trkpt lat="46.93109" lon="4.73231">
        <ele>223.49418774414</ele>
        <time>2017-08-09T20:46:39Z</time>
      </trkpt>
      <trkpt lat="46.9316" lon="4.73273">
        <ele>224.25118774414</ele>
        <time>2017-08-09T20:46:53Z</time>
      </trkpt>
      <trkpt lat="46.93162" lon="4.73275">
        <ele>224.33818774414</ele>
        <time>2017-08-09T20:46:53Z</time>
      </trkpt>
      <trkpt lat="46.93215" lon="4.73311">
        <ele>225.14818774414</ele>
        <time>2017-08-09T20:47:07Z</time>
      </trkpt>
      <trkpt lat="46.93243" lon="4.73317">
        <ele>225.61718774414</ele>
        <time>2017-08-09T20:47:15Z</time>
      </trkpt>
      <trkpt lat="46.93309" lon="4.73311">
        <ele>227.00618774414</ele>
        <time>2017-08-09T20:47:32Z</time>
      </trkpt>
      <trkpt lat="46.9333" lon="4.73323">
        <ele>227.48418774414</ele>
        <time>2017-08-09T20:47:39Z</time>
      </trkpt>
      <trkpt lat="46.93377" lon="4.73357">
        <ele>228.43618774414</ele>
        <time>2017-08-09T20:47:52Z</time>
      </trkpt>
      <trkpt lat="46.93395" lon="4.73362">
        <ele>228.83518774414</ele>
        <time>2017-08-09T20:47:57Z</time>
      </trkpt>
      <trkpt lat="46.93428" lon="4.73387">
        <ele>229.55618774414</ele>
        <time>2017-08-09T20:48:07Z</time>
      </trkpt>
      <trkpt lat="46.9347" lon="4.73411">
        <ele>230.40718774414</ele>
        <time>2017-08-09T20:48:19Z</time>
      </trkpt>
      <trkpt lat="46.93507" lon="4.73419">
        <ele>231.21618774414</ele>
        <time>2017-08-09T20:48:29Z</time>
      </trkpt>
      <trkpt lat="46.93542" lon="4.73438">
        <ele>232.06518774414</ele>
        <time>2017-08-09T20:48:39Z</time>
      </trkpt>
      <trkpt lat="46.93568" lon="4.73447">
        <ele>232.59918774414</ele>
        <time>2017-08-09T20:48:46Z</time>
      </trkpt>
      <trkpt lat="46.93607" lon="4.73459">
        <ele>233.18518774414</ele>
        <time>2017-08-09T20:48:56Z</time>
      </trkpt>
      <trkpt lat="46.93626" lon="4.73466">
        <ele>233.45118774414</ele>
        <time>2017-08-09T20:49:01Z</time>
      </trkpt>
      <trkpt lat="46.93719" lon="4.73501">
        <ele>233.86118774414</ele>
        <time>2017-08-09T20:49:20Z</time>
      </trkpt>
      <trkpt lat="46.93797" lon="4.7356">
        <ele>233.49118774414</ele>
        <time>2017-08-09T20:49:36Z</time>
      </trkpt>
      <trkpt lat="46.93808" lon="4.73565">
        <ele>233.34318774414</ele>
        <time>2017-08-09T20:49:37Z</time>
      </trkpt>
      <trkpt lat="46.93877" lon="4.7368">
        <ele>232.48918774414</ele>
        <time>2017-08-09T20:49:55Z</time>
      </trkpt>
      <trkpt lat="46.93913" lon="4.73691">
        <ele>232.33918774414</ele>
        <time>2017-08-09T20:50:02Z</time>
      </trkpt>
      <trkpt lat="46.93918" lon="4.73692">
        <ele>232.34318774414</ele>
        <time>2017-08-09T20:50:03Z</time>
      </trkpt>
      <trkpt lat="46.93931" lon="4.73675">
        <ele>232.39818774414</ele>
        <time>2017-08-09T20:50:06Z</time>
      </trkpt>
      <trkpt lat="46.93935" lon="4.73678">
        <ele>232.38918774414</ele>
        <time>2017-08-09T20:50:07Z</time>
      </trkpt>
      <trkpt lat="46.93965" lon="4.73702">
        <ele>232.54818774414</ele>
        <time>2017-08-09T20:50:14Z</time>
      </trkpt>
      <trkpt lat="46.9402" lon="4.73759">
        <ele>233.17418774414</ele>
        <time>2017-08-09T20:50:29Z</time>
      </trkpt>
      <trkpt lat="46.94046" lon="4.73794">
        <ele>233.88218774414</ele>
        <time>2017-08-09T20:50:38Z</time>
      </trkpt>
      <trkpt lat="46.94084" lon="4.73869">
        <ele>235.16118774414</ele>
        <time>2017-08-09T20:50:55Z</time>
      </trkpt>
      <trkpt lat="46.94105" lon="4.73917">
        <ele>235.99818774414</ele>
        <time>2017-08-09T20:51:06Z</time>
      </trkpt>
      <trkpt lat="46.94114" lon="4.73945">
        <ele>236.42418774414</ele>
        <time>2017-08-09T20:51:11Z</time>
      </trkpt>
      <trkpt lat="46.94125" lon="4.73955">
        <ele>236.77718774414</ele>
        <time>2017-08-09T20:51:15Z</time>
      </trkpt>
      <trkpt lat="46.94173" lon="4.74006">
        <ele>238.09718774414</ele>
        <time>2017-08-09T20:51:31Z</time>
      </trkpt>
      <trkpt lat="46.94178" lon="4.74005">
        <ele>238.22118774414</ele>
        <time>2017-08-09T20:51:33Z</time>
      </trkpt>
      <trkpt lat="46.94186" lon="4.73984">
        <ele>238.61218774414</ele>
        <time>2017-08-09T20:51:37Z</time>
      </trkpt>
      <trkpt lat="46.94192" lon="4.73981">
        <ele>238.75518774414</ele>
        <time>2017-08-09T20:51:39Z</time>
      </trkpt>
      <trkpt lat="46.94285" lon="4.74055">
        <ele>240.61118774414</ele>
        <time>2017-08-09T20:52:06Z</time>
      </trkpt>
      <trkpt lat="46.94307" lon="4.74081">
        <ele>240.82118774414</ele>
        <time>2017-08-09T20:52:12Z</time>
      </trkpt>
      <trkpt lat="46.94334" lon="4.7413">
        <ele>241.03618774414</ele>
        <time>2017-08-09T20:52:21Z</time>
      </trkpt>
      <trkpt lat="46.94351" lon="4.74156">
        <ele>241.00318774414</ele>
        <time>2017-08-09T20:52:26Z</time>
      </trkpt>
      <trkpt lat="46.94397" lon="4.74198">
        <ele>240.84918774414</ele>
        <time>2017-08-09T20:52:35Z</time>
      </trkpt>
      <trkpt lat="46.94447" lon="4.74251">
        <ele>240.41918774414</ele>
        <time>2017-08-09T20:52:46Z</time>
      </trkpt>
      <trkpt lat="46.94477" lon="4.7428">
        <ele>240.07018774414</ele>
        <time>2017-08-09T20:52:52Z</time>
      </trkpt>
      <trkpt lat="46.94565" lon="4.74336">
        <ele>239.27618774414</ele>
        <time>2017-08-09T20:53:08Z</time>
      </trkpt>
      <trkpt lat="46.94632" lon="4.74366">
        <ele>238.89418774414</ele>
        <time>2017-08-09T20:53:20Z</time>
      </trkpt>
      <trkpt lat="46.94645" lon="4.74376">
        <ele>238.82318774414</ele>
        <time>2017-08-09T20:53:23Z</time>
      </trkpt>
      <trkpt lat="46.94675" lon="4.74398">
        <ele>238.63318774414</ele>
        <time>2017-08-09T20:53:29Z</time>
      </trkpt>
      <trkpt lat="46.94704" lon="4.7442">
        <ele>238.37618774414</ele>
        <time>2017-08-09T20:53:34Z</time>
      </trkpt>
      <trkpt lat="46.94733" lon="4.74417">
        <ele>238.11318774414</ele>
        <time>2017-08-09T20:53:39Z</time>
      </trkpt>
      <trkpt lat="46.94745" lon="4.74421">
        <ele>237.98018774414</ele>
        <time>2017-08-09T20:53:41Z</time>
      </trkpt>
      <trkpt lat="46.94771" lon="4.74442">
        <ele>237.71118774414</ele>
        <time>2017-08-09T20:53:46Z</time>
      </trkpt>
      <trkpt lat="46.94779" lon="4.74446">
        <ele>237.67618774414</ele>
        <time>2017-08-09T20:53:47Z</time>
      </trkpt>
      <trkpt lat="46.9479" lon="4.74449">
        <ele>237.68218774414</ele>
        <time>2017-08-09T20:53:49Z</time>
      </trkpt>
      <trkpt lat="46.94832" lon="4.74454">
        <ele>237.59118774414</ele>
        <time>2017-08-09T20:53:57Z</time>
      </trkpt>
      <trkpt lat="46.94854" lon="4.74457">
        <ele>237.57118774414</ele>
        <time>2017-08-09T20:54:01Z</time>
      </trkpt>
      <trkpt lat="46.94904" lon="4.74466">
        <ele>237.88618774414</ele>
        <time>2017-08-09T20:54:12Z</time>
      </trkpt>
      <trkpt lat="46.94906" lon="4.74469">
        <ele>237.82618774414</ele>
        <time>2017-08-09T20:54:12Z</time>
      </trkpt>
      <trkpt lat="46.94925" lon="4.7445">
        <ele>238.28418774414</ele>
        <time>2017-08-09T20:54:18Z</time>
      </trkpt>
      <trkpt lat="46.94951" lon="4.74427">
        <ele>238.79518774414</ele>
        <time>2017-08-09T20:54:26Z</time>
      </trkpt>
      <trkpt lat="46.94961" lon="4.74404">
        <ele>239.08318774414</ele>
        <time>2017-08-09T20:54:31Z</time>
      </trkpt>
      <trkpt lat="46.94984" lon="4.74321">
        <ele>240.48218774414</ele>
        <time>2017-08-09T20:54:48Z</time>
      </trkpt>
      <trkpt lat="46.95" lon="4.74266">
        <ele>241.40918774414</ele>
        <time>2017-08-09T20:54:59Z</time>
      </trkpt>
      <trkpt lat="46.95011" lon="4.74279">
        <ele>241.61418774414</ele>
        <time>2017-08-09T20:55:02Z</time>
      </trkpt>
      <trkpt lat="46.95027" lon="4.7429">
        <ele>241.93618774414</ele>
        <time>2017-08-09T20:55:07Z</time>
      </trkpt>
      <trkpt lat="46.95059" lon="4.74302">
        <ele>242.42518774414</ele>
        <time>2017-08-09T20:55:14Z</time>
      </trkpt>
      <trkpt lat="46.95111" lon="4.7434">
        <ele>243.06818774414</ele>
        <time>2017-08-09T20:55:27Z</time>
      </trkpt>
      <trkpt lat="46.95115" lon="4.74342">
        <ele>243.10418774414</ele>
        <time>2017-08-09T20:55:28Z</time>
      </trkpt>
      <trkpt lat="46.95138" lon="4.74356">
        <ele>243.20018774414</ele>
        <time>2017-08-09T20:55:33Z</time>
      </trkpt>
      <trkpt lat="46.95229" lon="4.74449">
        <ele>243.75018774414</ele>
        <time>2017-08-09T20:55:55Z</time>
      </trkpt>
      <trkpt lat="46.95282" lon="4.7451">
        <ele>244.98318774414</ele>
        <time>2017-08-09T20:56:12Z</time>
      </trkpt>
      <trkpt lat="46.95303" lon="4.7453">
        <ele>245.44818774414</ele>
        <time>2017-08-09T20:56:18Z</time>
      </trkpt>
      <trkpt lat="46.95306" lon="4.74534">
        <ele>245.75318774414</ele>
        <time>2017-08-09T20:56:20Z</time>
      </trkpt>
      <trkpt lat="46.95407" lon="4.74602">
        <ele>249.58018774414</ele>
        <time>2017-08-09T20:56:55Z</time>
      </trkpt>
      <trkpt lat="46.95431" lon="4.74626">
        <ele>250.74018774414</ele>
        <time>2017-08-09T20:57:05Z</time>
      </trkpt>
      <trkpt lat="46.95472" lon="4.74676">
        <ele>252.90218774414</ele>
        <time>2017-08-09T20:57:23Z</time>
      </trkpt>
      <trkpt lat="46.95492" lon="4.74694">
        <ele>253.56918774414</ele>
        <time>2017-08-09T20:57:30Z</time>
      </trkpt>
      <trkpt lat="46.95548" lon="4.74727">
        <ele>254.80918774414</ele>
        <time>2017-08-09T20:57:46Z</time>
      </trkpt>
      <trkpt lat="46.95562" lon="4.74743">
        <ele>255.19418774414</ele>
        <time>2017-08-09T20:57:50Z</time>
      </trkpt>
      <trkpt lat="46.95571" lon="4.74754">
        <ele>255.21418774414</ele>
        <time>2017-08-09T20:57:53Z</time>
      </trkpt>
      <trkpt lat="46.95584" lon="4.74771">
        <ele>255.32418774414</ele>
        <time>2017-08-09T20:57:56Z</time>
      </trkpt>
      <trkpt lat="46.95674" lon="4.74897">
        <ele>254.64218774414</ele>
        <time>2017-08-09T20:58:17Z</time>
      </trkpt>
      <trkpt lat="46.95688" lon="4.74916">
        <ele>254.16918774414</ele>
        <time>2017-08-09T20:58:20Z</time>
      </trkpt>
      <trkpt lat="46.95767" lon="4.75007">
        <ele>252.49518774414</ele>
        <time>2017-08-09T20:58:35Z</time>
      </trkpt>
      <trkpt lat="46.95776" lon="4.75024">
        <ele>252.27218774414</ele>
        <time>2017-08-09T20:58:37Z</time>
      </trkpt>
      <trkpt lat="46.95787" lon="4.75046">
        <ele>252.12418774414</ele>
        <time>2017-08-09T20:58:40Z</time>
      </trkpt>
      <trkpt lat="46.95806" lon="4.75069">
        <ele>251.89318774414</ele>
        <time>2017-08-09T20:58:44Z</time>
      </trkpt>
      <trkpt lat="46.95856" lon="4.75111">
        <ele>251.67718774414</ele>
        <time>2017-08-09T20:58:54Z</time>
      </trkpt>
      <trkpt lat="46.95864" lon="4.75117">
        <ele>251.61618774414</ele>
        <time>2017-08-09T20:58:55Z</time>
      </trkpt>
      <trkpt lat="46.95887" lon="4.75135">
        <ele>251.63018774414</ele>
        <time>2017-08-09T20:59:00Z</time>
      </trkpt>
      <trkpt lat="46.95969" lon="4.7519">
        <ele>251.89018774414</ele>
        <time>2017-08-09T20:59:17Z</time>
      </trkpt>
      <trkpt lat="46.96035" lon="4.7525">
        <ele>252.12918774414</ele>
        <time>2017-08-09T20:59:32Z</time>
      </trkpt>
      <trkpt lat="46.9616" lon="4.75361">
        <ele>251.46618774414</ele>
        <time>2017-08-09T20:59:56Z</time>
      </trkpt>
      <trkpt lat="46.96211" lon="4.75401">
        <ele>250.59418774414</ele>
        <time>2017-08-09T21:00:05Z</time>
      </trkpt>
      <trkpt lat="46.96237" lon="4.7542">
        <ele>249.95918774414</ele>
        <time>2017-08-09T21:00:09Z</time>
      </trkpt>
      <trkpt lat="46.9625" lon="4.75435">
        <ele>249.60218774414</ele>
        <time>2017-08-09T21:00:12Z</time>
      </trkpt>
      <trkpt lat="46.96261" lon="4.75446">
        <ele>249.20418774414</ele>
        <time>2017-08-09T21:00:14Z</time>
      </trkpt>
      <trkpt lat="46.96295" lon="4.75503">
        <ele>247.90118774414</ele>
        <time>2017-08-09T21:00:21Z</time>
      </trkpt>
      <trkpt lat="46.96306" lon="4.75518">
        <ele>247.37018774414</ele>
        <time>2017-08-09T21:00:23Z</time>
      </trkpt>
      <trkpt lat="46.96364" lon="4.75585">
        <ele>244.98118774414</ele>
        <time>2017-08-09T21:00:33Z</time>
      </trkpt>
      <trkpt lat="46.96428" lon="4.75683">
        <ele>241.89018774414</ele>
        <time>2017-08-09T21:00:46Z</time>
      </trkpt>
      <trkpt lat="46.9645" lon="4.75707">
        <ele>241.01518774414</ele>
        <time>2017-08-09T21:00:49Z</time>
      </trkpt>
      <trkpt lat="46.96465" lon="4.75731">
        <ele>240.35418774414</ele>
        <time>2017-08-09T21:00:53Z</time>
      </trkpt>
      <trkpt lat="46.96484" lon="4.75782">
        <ele>239.24418774414</ele>
        <time>2017-08-09T21:00:58Z</time>
      </trkpt>
      <trkpt lat="46.96578" lon="4.75974">
        <ele>235.45018774414</ele>
        <time>2017-08-09T21:01:21Z</time>
      </trkpt>
      <trkpt lat="46.96582" lon="4.75985">
        <ele>235.21118774414</ele>
        <time>2017-08-09T21:01:22Z</time>
      </trkpt>
      <trkpt lat="46.96599" lon="4.76028">
        <ele>234.80518774414</ele>
        <time>2017-08-09T21:01:28Z</time>
      </trkpt>
      <trkpt lat="46.9662" lon="4.76056">
        <ele>234.62518774414</ele>
        <time>2017-08-09T21:01:32Z</time>
      </trkpt>
      <trkpt lat="46.96625" lon="4.76065">
        <ele>234.45218774414</ele>
        <time>2017-08-09T21:01:34Z</time>
      </trkpt>
      <trkpt lat="46.96667" lon="4.76071">
        <ele>234.22318774414</ele>
        <time>2017-08-09T21:01:41Z</time>
      </trkpt>
      <trkpt lat="46.96683" lon="4.76069">
        <ele>234.23218774414</ele>
        <time>2017-08-09T21:01:43Z</time>
      </trkpt>
      <trkpt lat="46.96722" lon="4.76078">
        <ele>234.18518774414</ele>
        <time>2017-08-09T21:01:50Z</time>
      </trkpt>
      <trkpt lat="46.96801" lon="4.76079">
        <ele>233.93918774414</ele>
        <time>2017-08-09T21:02:04Z</time>
      </trkpt>
      <trkpt lat="46.96806" lon="4.76076">
        <ele>233.90918774414</ele>
        <time>2017-08-09T21:02:05Z</time>
      </trkpt>
      <trkpt lat="46.96812" lon="4.76073">
        <ele>233.88118774414</ele>
        <time>2017-08-09T21:02:06Z</time>
      </trkpt>
      <trkpt lat="46.9684" lon="4.76073">
        <ele>233.66318774414</ele>
        <time>2017-08-09T21:02:10Z</time>
      </trkpt>
      <trkpt lat="46.9687" lon="4.76088">
        <ele>233.39018774414</ele>
        <time>2017-08-09T21:02:16Z</time>
      </trkpt>
      <trkpt lat="46.96877" lon="4.76094">
        <ele>233.31718774414</ele>
        <time>2017-08-09T21:02:17Z</time>
      </trkpt>
      <trkpt lat="46.96888" lon="4.76108">
        <ele>233.18018774414</ele>
        <time>2017-08-09T21:02:19Z</time>
      </trkpt>
      <trkpt lat="46.96905" lon="4.76129">
        <ele>232.93318774414</ele>
        <time>2017-08-09T21:02:23Z</time>
      </trkpt>
      <trkpt lat="46.96996" lon="4.76258">
        <ele>231.37118774414</ele>
        <time>2017-08-09T21:02:42Z</time>
      </trkpt>
      <trkpt lat="46.97036" lon="4.76297">
        <ele>231.03618774414</ele>
        <time>2017-08-09T21:02:50Z</time>
      </trkpt>
      <trkpt lat="46.97041" lon="4.76313">
        <ele>231.00118774414</ele>
        <time>2017-08-09T21:02:52Z</time>
      </trkpt>
      <trkpt lat="46.97047" lon="4.76344">
        <ele>230.95518774414</ele>
        <time>2017-08-09T21:02:56Z</time>
      </trkpt>
      <trkpt lat="46.9702" lon="4.76377">
        <ele>230.92918774414</ele>
        <time>2017-08-09T21:03:03Z</time>
      </trkpt>
      <trkpt lat="46.97028" lon="4.76382">
        <ele>230.95218774414</ele>
        <time>2017-08-09T21:03:04Z</time>
      </trkpt>
      <trkpt lat="46.97053" lon="4.76407">
        <ele>230.98418774414</ele>
        <time>2017-08-09T21:03:10Z</time>
      </trkpt>
      <trkpt lat="46.97109" lon="4.7645">
        <ele>231.32718774414</ele>
        <time>2017-08-09T21:03:23Z</time>
      </trkpt>
      <trkpt lat="46.97176" lon="4.76524">
        <ele>231.95818774414</ele>
        <time>2017-08-09T21:03:41Z</time>
      </trkpt>
      <trkpt lat="46.97195" lon="4.76552">
        <ele>232.23618774414</ele>
        <time>2017-08-09T21:03:47Z</time>
      </trkpt>
      <trkpt lat="46.97238" lon="4.76601">
        <ele>232.83118774414</ele>
        <time>2017-08-09T21:04:00Z</time>
      </trkpt>
      <trkpt lat="46.97298" lon="4.76654">
        <ele>233.62918774414</ele>
        <time>2017-08-09T21:04:16Z</time>
      </trkpt>
      <trkpt lat="46.97376" lon="4.76713">
        <ele>234.38218774414</ele>
        <time>2017-08-09T21:04:35Z</time>
      </trkpt>
      <trkpt lat="46.97382" lon="4.76702">
        <ele>234.44118774414</ele>
        <time>2017-08-09T21:04:37Z</time>
      </trkpt>
      <trkpt lat="46.97488" lon="4.76777">
        <ele>235.58218774414</ele>
        <time>2017-08-09T21:05:04Z</time>
      </trkpt>
      <trkpt lat="46.97517" lon="4.76798">
        <ele>236.05318774414</ele>
        <time>2017-08-09T21:05:12Z</time>
      </trkpt>
      <trkpt lat="46.97531" lon="4.76801">
        <ele>236.29918774414</ele>
        <time>2017-08-09T21:05:15Z</time>
      </trkpt>
      <trkpt lat="46.97546" lon="4.768">
        <ele>236.51918774414</ele>
        <time>2017-08-09T21:05:19Z</time>
      </trkpt>
      <trkpt lat="46.97566" lon="4.76793">
        <ele>236.98218774414</ele>
        <time>2017-08-09T21:05:25Z</time>
      </trkpt>
      <trkpt lat="46.97582" lon="4.76794">
        <ele>237.30518774414</ele>
        <time>2017-08-09T21:05:29Z</time>
      </trkpt>
      <trkpt lat="46.97593" lon="4.76801">
        <ele>237.61518774414</ele>
        <time>2017-08-09T21:05:32Z</time>
      </trkpt>
      <trkpt lat="46.97666" lon="4.76864">
        <ele>240.84918774414</ele>
        <time>2017-08-09T21:06:01Z</time>
      </trkpt>
      <trkpt lat="46.97727" lon="4.76876">
        <ele>243.21818774414</ele>
        <time>2017-08-09T21:06:22Z</time>
      </trkpt>
      <trkpt lat="46.97761" lon="4.76894">
        <ele>244.53718774414</ele>
        <time>2017-08-09T21:06:34Z</time>
      </trkpt>
      <trkpt lat="46.97771" lon="4.76901">
        <ele>245.18018774414</ele>
        <time>2017-08-09T21:06:38Z</time>
      </trkpt>
      <trkpt lat="46.97795" lon="4.76914">
        <ele>245.71518774414</ele>
        <time>2017-08-09T21:06:45Z</time>
      </trkpt>
      <trkpt lat="46.9781" lon="4.76921">
        <ele>246.34618774414</ele>
        <time>2017-08-09T21:06:51Z</time>
      </trkpt>
      <trkpt lat="46.97817" lon="4.76925">
        <ele>246.45418774414</ele>
        <time>2017-08-09T21:06:53Z</time>
      </trkpt>
      <trkpt lat="46.9783" lon="4.76931">
        <ele>246.68618774414</ele>
        <time>2017-08-09T21:06:56Z</time>
      </trkpt>
      <trkpt lat="46.97831" lon="4.76931">
        <ele>246.75218774414</ele>
        <time>2017-08-09T21:06:57Z</time>
      </trkpt>
      <trkpt lat="46.97837" lon="4.76934">
        <ele>247.03318774414</ele>
        <time>2017-08-09T21:06:59Z</time>
      </trkpt>
      <trkpt lat="46.97843" lon="4.76938">
        <ele>247.18218774414</ele>
        <time>2017-08-09T21:07:01Z</time>
      </trkpt>
      <trkpt lat="46.97846" lon="4.76938">
        <ele>247.20218774414</ele>
        <time>2017-08-09T21:07:01Z</time>
      </trkpt>
      <trkpt lat="46.97855" lon="4.76941">
        <ele>247.30018774414</ele>
        <time>2017-08-09T21:07:03Z</time>
      </trkpt>
      <trkpt lat="46.97861" lon="4.7694">
        <ele>247.33818774414</ele>
        <time>2017-08-09T21:07:05Z</time>
      </trkpt>
      <trkpt lat="46.97881" lon="4.76934">
        <ele>247.81018774414</ele>
        <time>2017-08-09T21:07:10Z</time>
      </trkpt>
      <trkpt lat="46.97915" lon="4.76932">
        <ele>248.20118774414</ele>
        <time>2017-08-09T21:07:18Z</time>
      </trkpt>
      <trkpt lat="46.97928" lon="4.76929">
        <ele>248.14618774414</ele>
        <time>2017-08-09T21:07:20Z</time>
      </trkpt>
      <trkpt lat="46.97937" lon="4.76921">
        <ele>248.10718774414</ele>
        <time>2017-08-09T21:07:22Z</time>
      </trkpt>
      <trkpt lat="46.9794" lon="4.76899">
        <ele>248.03718774414</ele>
        <time>2017-08-09T21:07:25Z</time>
      </trkpt>
      <trkpt lat="46.9795" lon="4.76898">
        <ele>247.97318774414</ele>
        <time>2017-08-09T21:07:27Z</time>
      </trkpt>
      <trkpt lat="46.97954" lon="4.76896">
        <ele>247.92818774414</ele>
        <time>2017-08-09T21:07:28Z</time>
      </trkpt>
      <trkpt lat="46.9797" lon="4.7689">
        <ele>247.81118774414</ele>
        <time>2017-08-09T21:07:30Z</time>
      </trkpt>
      <trkpt lat="46.97983" lon="4.76883">
        <ele>247.73418774414</ele>
        <time>2017-08-09T21:07:33Z</time>
      </trkpt>
      <trkpt lat="46.9799" lon="4.76879">
        <ele>247.67618774414</ele>
        <time>2017-08-09T21:07:34Z</time>
      </trkpt>
      <trkpt lat="46.98017" lon="4.76874">
        <ele>247.42718774414</ele>
        <time>2017-08-09T21:07:38Z</time>
      </trkpt>
      <trkpt lat="46.98063" lon="4.76864">
        <ele>246.91118774414</ele>
        <time>2017-08-09T21:07:46Z</time>
      </trkpt>
      <trkpt lat="46.98064" lon="4.76869">
        <ele>246.91318774414</ele>
        <time>2017-08-09T21:07:47Z</time>
      </trkpt>
      <trkpt lat="46.98072" lon="4.7691">
        <ele>246.50018774414</ele>
        <time>2017-08-09T21:07:52Z</time>
      </trkpt>
      <trkpt lat="46.98065" lon="4.7698">
        <ele>245.97318774414</ele>
        <time>2017-08-09T21:07:59Z</time>
      </trkpt>
      <trkpt lat="46.98088" lon="4.76989">
        <ele>245.57918774414</ele>
        <time>2017-08-09T21:08:03Z</time>
      </trkpt>
      <trkpt lat="46.98202" lon="4.77092">
        <ele>243.62018774414</ele>
        <time>2017-08-09T21:08:25Z</time>
      </trkpt>
      <trkpt lat="46.98231" lon="4.77125">
        <ele>242.96318774414</ele>
        <time>2017-08-09T21:08:30Z</time>
      </trkpt>
      <trkpt lat="46.98349" lon="4.77206">
        <ele>241.03818774414</ele>
        <time>2017-08-09T21:08:51Z</time>
      </trkpt>
      <trkpt lat="46.98357" lon="4.77215">
        <ele>240.92718774414</ele>
        <time>2017-08-09T21:08:53Z</time>
      </trkpt>
      <trkpt lat="46.98361" lon="4.77242">
        <ele>240.70418774414</ele>
        <time>2017-08-09T21:08:56Z</time>
      </trkpt>
      <trkpt lat="46.98372" lon="4.77254">
        <ele>240.66918774414</ele>
        <time>2017-08-09T21:08:58Z</time>
      </trkpt>
      <trkpt lat="46.98457" lon="4.77313">
        <ele>240.55418774414</ele>
        <time>2017-08-09T21:09:15Z</time>
      </trkpt>
      <trkpt lat="46.98464" lon="4.77318">
        <ele>240.64818774414</ele>
        <time>2017-08-09T21:09:17Z</time>
      </trkpt>
      <trkpt lat="46.98483" lon="4.77326">
        <ele>240.60718774414</ele>
        <time>2017-08-09T21:09:21Z</time>
      </trkpt>
      <trkpt lat="46.98517" lon="4.7733">
        <ele>240.73718774414</ele>
        <time>2017-08-09T21:09:28Z</time>
      </trkpt>
      <trkpt lat="46.98527" lon="4.77322">
        <ele>240.84118774414</ele>
        <time>2017-08-09T21:09:30Z</time>
      </trkpt>
      <trkpt lat="46.98555" lon="4.7739">
        <ele>241.14818774414</ele>
        <time>2017-08-09T21:09:42Z</time>
      </trkpt>
      <trkpt lat="46.9857" lon="4.7741">
        <ele>241.32418774414</ele>
        <time>2017-08-09T21:09:46Z</time>
      </trkpt>
      <trkpt lat="46.98637" lon="4.77474">
        <ele>241.76218774414</ele>
        <time>2017-08-09T21:10:03Z</time>
      </trkpt>
      <trkpt lat="46.98652" lon="4.77498">
        <ele>241.77218774414</ele>
        <time>2017-08-09T21:10:07Z</time>
      </trkpt>
      <trkpt lat="46.98651" lon="4.77509">
        <ele>241.79418774414</ele>
        <time>2017-08-09T21:10:08Z</time>
      </trkpt>
      <trkpt lat="46.9864" lon="4.77545">
        <ele>241.79718774414</ele>
        <time>2017-08-09T21:10:13Z</time>
      </trkpt>
      <trkpt lat="46.98648" lon="4.77565">
        <ele>241.82318774414</ele>
        <time>2017-08-09T21:10:16Z</time>
      </trkpt>
      <trkpt lat="46.9866" lon="4.77584">
        <ele>241.81718774414</ele>
        <time>2017-08-09T21:10:20Z</time>
      </trkpt>
      <trkpt lat="46.98688" lon="4.77609">
        <ele>241.69918774414</ele>
        <time>2017-08-09T21:10:26Z</time>
      </trkpt>
      <trkpt lat="46.98737" lon="4.77639">
        <ele>241.13018774414</ele>
        <time>2017-08-09T21:10:34Z</time>
      </trkpt>
      <trkpt lat="46.98768" lon="4.77668">
        <ele>240.61418774414</ele>
        <time>2017-08-09T21:10:40Z</time>
      </trkpt>
      <trkpt lat="46.98788" lon="4.77692">
        <ele>240.20318774414</ele>
        <time>2017-08-09T21:10:44Z</time>
      </trkpt>
      <trkpt lat="46.9879" lon="4.77695">
        <ele>240.19218774414</ele>
        <time>2017-08-09T21:10:45Z</time>
      </trkpt>
      <trkpt lat="46.98774" lon="4.77771">
        <ele>239.33118774414</ele>
        <time>2017-08-09T21:10:53Z</time>
      </trkpt>
      <trkpt lat="46.98776" lon="4.77781">
        <ele>239.10818774414</ele>
        <time>2017-08-09T21:10:54Z</time>
      </trkpt>
      <trkpt lat="46.98774" lon="4.7782">
        <ele>238.74718774414</ele>
        <time>2017-08-09T21:10:59Z</time>
      </trkpt>
      <trkpt lat="46.98761" lon="4.77883">
        <ele>237.87218774414</ele>
        <time>2017-08-09T21:11:06Z</time>
      </trkpt>
      <trkpt lat="46.98762" lon="4.77902">
        <ele>237.74618774414</ele>
        <time>2017-08-09T21:11:08Z</time>
      </trkpt>
      <trkpt lat="46.98774" lon="4.77924">
        <ele>237.40618774414</ele>
        <time>2017-08-09T21:11:11Z</time>
      </trkpt>
      <trkpt lat="46.98806" lon="4.77966">
        <ele>236.85318774414</ele>
        <time>2017-08-09T21:11:18Z</time>
      </trkpt>
      <trkpt lat="46.98836" lon="4.77989">
        <ele>236.80418774414</ele>
        <time>2017-08-09T21:11:24Z</time>
      </trkpt>
      <trkpt lat="46.98905" lon="4.78021">
        <ele>236.94318774414</ele>
        <time>2017-08-09T21:11:38Z</time>
      </trkpt>
      <trkpt lat="46.9895" lon="4.78036">
        <ele>237.18218774414</ele>
        <time>2017-08-09T21:11:47Z</time>
      </trkpt>
      <trkpt lat="46.99011" lon="4.78065">
        <ele>237.51418774414</ele>
        <time>2017-08-09T21:12:01Z</time>
      </trkpt>
      <trkpt lat="46.99041" lon="4.78088">
        <ele>237.69018774414</ele>
        <time>2017-08-09T21:12:08Z</time>
      </trkpt>
      <trkpt lat="46.99062" lon="4.78116">
        <ele>237.85218774414</ele>
        <time>2017-08-09T21:12:14Z</time>
      </trkpt>
      <trkpt lat="46.99071" lon="4.78142">
        <ele>237.97418774414</ele>
        <time>2017-08-09T21:12:18Z</time>
      </trkpt>
      <trkpt lat="46.9908" lon="4.78166">
        <ele>238.06718774414</ele>
        <time>2017-08-09T21:12:22Z</time>
      </trkpt>
      <trkpt lat="46.99114" lon="4.78196">
        <ele>238.30518774414</ele>
        <time>2017-08-09T21:12:30Z</time>
      </trkpt>
      <trkpt lat="46.9915" lon="4.78236">
        <ele>238.61918774414</ele>
        <time>2017-08-09T21:12:40Z</time>
      </trkpt>
      <trkpt lat="46.99175" lon="4.78257">
        <ele>238.83618774414</ele>
        <time>2017-08-09T21:12:46Z</time>
      </trkpt>
      <trkpt lat="46.99218" lon="4.78275">
        <ele>239.21718774414</ele>
        <time>2017-08-09T21:12:56Z</time>
      </trkpt>
      <trkpt lat="46.99332" lon="4.78336">
        <ele>240.70318774414</ele>
        <time>2017-08-09T21:13:24Z</time>
      </trkpt>
      <trkpt lat="46.99472" lon="4.78452">
        <ele>242.75118774414</ele>
        <time>2017-08-09T21:14:02Z</time>
      </trkpt>
      <trkpt lat="46.99496" lon="4.78481">
        <ele>243.16318774414</ele>
        <time>2017-08-09T21:14:09Z</time>
      </trkpt>
      <trkpt lat="46.99542" lon="4.78525">
        <ele>244.50918774414</ele>
        <time>2017-08-09T21:14:25Z</time>
      </trkpt>
      <trkpt lat="46.99604" lon="4.78562">
        <ele>246.43518774414</ele>
        <time>2017-08-09T21:14:45Z</time>
      </trkpt>
      <trkpt lat="46.99631" lon="4.78583">
        <ele>247.43318774414</ele>
        <time>2017-08-09T21:14:55Z</time>
      </trkpt>
      <trkpt lat="46.9964" lon="4.78564">
        <ele>248.18018774414</ele>
        <time>2017-08-09T21:15:01Z</time>
      </trkpt>
      <trkpt lat="46.9965" lon="4.78549">
        <ele>248.63918774414</ele>
        <time>2017-08-09T21:15:05Z</time>
      </trkpt>
      <trkpt lat="46.99663" lon="4.78541">
        <ele>249.23118774414</ele>
        <time>2017-08-09T21:15:10Z</time>
      </trkpt>
      <trkpt lat="46.99685" lon="4.78535">
        <ele>250.16418774414</ele>
        <time>2017-08-09T21:15:18Z</time>
      </trkpt>
      <trkpt lat="46.99702" lon="4.78519">
        <ele>251.16418774414</ele>
        <time>2017-08-09T21:15:26Z</time>
      </trkpt>
      <trkpt lat="46.99718" lon="4.78513">
        <ele>251.87818774414</ele>
        <time>2017-08-09T21:15:32Z</time>
      </trkpt>
      <trkpt lat="46.99745" lon="4.78492">
        <ele>253.57718774414</ele>
        <time>2017-08-09T21:15:44Z</time>
      </trkpt>
      <trkpt lat="46.99777" lon="4.78486">
        <ele>255.60918774414</ele>
        <time>2017-08-09T21:15:58Z</time>
      </trkpt>
      <trkpt lat="46.99787" lon="4.78479">
        <ele>256.22718774414</ele>
        <time>2017-08-09T21:16:03Z</time>
      </trkpt>
      <trkpt lat="46.99817" lon="4.78414">
        <ele>259.68518774414</ele>
        <time>2017-08-09T21:16:27Z</time>
      </trkpt>
      <trkpt lat="46.99846" lon="4.78368">
        <ele>262.58018774414</ele>
        <time>2017-08-09T21:16:46Z</time>
      </trkpt>
      <trkpt lat="46.99854" lon="4.78377">
        <ele>263.15818774414</ele>
        <time>2017-08-09T21:16:50Z</time>
      </trkpt>
      <trkpt lat="46.99888" lon="4.78318">
        <ele>267.01218774414</ele>
        <time>2017-08-09T21:17:15Z</time>
      </trkpt>
      <trkpt lat="46.99937" lon="4.7822">
        <ele>273.57918774414</ele>
        <time>2017-08-09T21:17:57Z</time>
      </trkpt>
      <trkpt lat="46.99967" lon="4.78168">
        <ele>277.06118774414</ele>
        <time>2017-08-09T21:18:20Z</time>
      </trkpt>
      <trkpt lat="46.99998" lon="4.781">
        <ele>280.33818774414</ele>
        <time>2017-08-09T21:18:43Z</time>
      </trkpt>
      <trkpt lat="47.00009" lon="4.78073">
        <ele>281.75218774414</ele>
        <time>2017-08-09T21:18:53Z</time>
      </trkpt>
      <trkpt lat="47.00026" lon="4.78078">
        <ele>282.35618774414</ele>
        <time>2017-08-09T21:18:58Z</time>
      </trkpt>
      <trkpt lat="47.00075" lon="4.78087">
        <ele>284.03918774414</ele>
        <time>2017-08-09T21:19:14Z</time>
      </trkpt>
      <trkpt lat="47.00102" lon="4.78089">
        <ele>284.46318774414</ele>
        <time>2017-08-09T21:19:21Z</time>
      </trkpt>
      <trkpt lat="47.00119" lon="4.7809">
        <ele>284.81618774414</ele>
        <time>2017-08-09T21:19:26Z</time>
      </trkpt>
      <trkpt lat="47.00126" lon="4.78089">
        <ele>284.83918774414</ele>
        <time>2017-08-09T21:19:27Z</time>
      </trkpt>
      <trkpt lat="47.00158" lon="4.78101">
        <ele>285.14718774414</ele>
        <time>2017-08-09T21:19:34Z</time>
      </trkpt>
      <trkpt lat="47.00153" lon="4.78109">
        <ele>285.02018774414</ele>
        <time>2017-08-09T21:19:36Z</time>
      </trkpt>
      <trkpt lat="47.00146" lon="4.78127">
        <ele>284.83018774414</ele>
        <time>2017-08-09T21:19:38Z</time>
      </trkpt>
      <trkpt lat="47.00137" lon="4.7815">
        <ele>284.70118774414</ele>
        <time>2017-08-09T21:19:41Z</time>
      </trkpt>
      <trkpt lat="47.00138" lon="4.78169">
        <ele>284.48418774414</ele>
        <time>2017-08-09T21:19:43Z</time>
      </trkpt>
      <trkpt lat="47.00131" lon="4.78184">
        <ele>284.30018774414</ele>
        <time>2017-08-09T21:19:45Z</time>
      </trkpt>
      <trkpt lat="47.00135" lon="4.78192">
        <ele>284.30818774414</ele>
        <time>2017-08-09T21:19:46Z</time>
      </trkpt>
      <trkpt lat="47.00149" lon="4.78211">
        <ele>283.96618774414</ele>
        <time>2017-08-09T21:19:49Z</time>
      </trkpt>
      <trkpt lat="47.00163" lon="4.78229">
        <ele>283.77018774414</ele>
        <time>2017-08-09T21:19:52Z</time>
      </trkpt>
      <trkpt lat="47.00167" lon="4.78237">
        <ele>283.63118774414</ele>
        <time>2017-08-09T21:19:53Z</time>
      </trkpt>
      <trkpt lat="47.00174" lon="4.78248">
        <ele>283.40018774414</ele>
        <time>2017-08-09T21:19:55Z</time>
      </trkpt>
      <trkpt lat="47.00179" lon="4.78255">
        <ele>283.26218774414</ele>
        <time>2017-08-09T21:19:56Z</time>
      </trkpt>
      <trkpt lat="47.00192" lon="4.78276">
        <ele>282.89318774414</ele>
        <time>2017-08-09T21:19:59Z</time>
      </trkpt>
      <trkpt lat="47.00201" lon="4.78285">
        <ele>282.60018774414</ele>
        <time>2017-08-09T21:20:00Z</time>
      </trkpt>
      <trkpt lat="47.00219" lon="4.78314">
        <ele>282.11618774414</ele>
        <time>2017-08-09T21:20:05Z</time>
      </trkpt>
      <trkpt lat="47.00231" lon="4.7833">
        <ele>281.79418774414</ele>
        <time>2017-08-09T21:20:07Z</time>
      </trkpt>
      <trkpt lat="47.00246" lon="4.7835">
        <ele>281.62218774414</ele>
        <time>2017-08-09T21:20:11Z</time>
      </trkpt>
      <trkpt lat="47.00289" lon="4.78381">
        <ele>281.05518774414</ele>
        <time>2017-08-09T21:20:18Z</time>
      </trkpt>
      <trkpt lat="47.00314" lon="4.7839">
        <ele>280.78018774414</ele>
        <time>2017-08-09T21:20:23Z</time>
      </trkpt>
      <trkpt lat="47.00341" lon="4.78407">
        <ele>280.35418774414</ele>
        <time>2017-08-09T21:20:27Z</time>
      </trkpt>
      <trkpt lat="47.00405" lon="4.78498">
        <ele>278.91018774414</ele>
        <time>2017-08-09T21:20:41Z</time>
      </trkpt>
      <trkpt lat="47.00424" lon="4.78517">
        <ele>278.47418774414</ele>
        <time>2017-08-09T21:20:45Z</time>
      </trkpt>
      <trkpt lat="47.00465" lon="4.78547">
        <ele>277.05418774414</ele>
        <time>2017-08-09T21:20:52Z</time>
      </trkpt>
      <trkpt lat="47.00469" lon="4.78554">
        <ele>276.79318774414</ele>
        <time>2017-08-09T21:20:53Z</time>
      </trkpt>
      <trkpt lat="47.00485" lon="4.78612">
        <ele>275.11118774414</ele>
        <time>2017-08-09T21:20:58Z</time>
      </trkpt>
      <trkpt lat="47.00542" lon="4.78671">
        <ele>271.94418774414</ele>
        <time>2017-08-09T21:21:08Z</time>
      </trkpt>
      <trkpt lat="47.00548" lon="4.78676">
        <ele>271.51318774414</ele>
        <time>2017-08-09T21:21:09Z</time>
      </trkpt>
      <trkpt lat="47.00539" lon="4.7871">
        <ele>270.31818774414</ele>
        <time>2017-08-09T21:21:12Z</time>
      </trkpt>
      <trkpt lat="47.00538" lon="4.78722">
        <ele>269.90418774414</ele>
        <time>2017-08-09T21:21:13Z</time>
      </trkpt>
      <trkpt lat="47.00551" lon="4.78745">
        <ele>268.87118774414</ele>
        <time>2017-08-09T21:21:16Z</time>
      </trkpt>
      <trkpt lat="47.0056" lon="4.78767">
        <ele>267.95418774414</ele>
        <time>2017-08-09T21:21:18Z</time>
      </trkpt>
      <trkpt lat="47.00615" lon="4.7884">
        <ele>263.56618774414</ele>
        <time>2017-08-09T21:21:28Z</time>
      </trkpt>
      <trkpt lat="47.00631" lon="4.78877">
        <ele>261.84418774414</ele>
        <time>2017-08-09T21:21:32Z</time>
      </trkpt>
      <trkpt lat="47.00642" lon="4.7892">
        <ele>260.42018774414</ele>
        <time>2017-08-09T21:21:36Z</time>
      </trkpt>
      <trkpt lat="47.00659" lon="4.78982">
        <ele>258.24018774414</ele>
        <time>2017-08-09T21:21:42Z</time>
      </trkpt>
      <trkpt lat="47.0067" lon="4.79003">
        <ele>257.56718774414</ele>
        <time>2017-08-09T21:21:45Z</time>
      </trkpt>
      <trkpt lat="47.00677" lon="4.79023">
        <ele>256.77218774414</ele>
        <time>2017-08-09T21:21:47Z</time>
      </trkpt>
      <trkpt lat="47.00712" lon="4.79102">
        <ele>254.27818774414</ele>
        <time>2017-08-09T21:21:56Z</time>
      </trkpt>
      <trkpt lat="47.00746" lon="4.79164">
        <ele>252.33318774414</ele>
        <time>2017-08-09T21:22:03Z</time>
      </trkpt>
      <trkpt lat="47.00799" lon="4.79301">
        <ele>249.70918774414</ele>
        <time>2017-08-09T21:22:20Z</time>
      </trkpt>
      <trkpt lat="47.00805" lon="4.79311">
        <ele>249.46918774414</ele>
        <time>2017-08-09T21:22:21Z</time>
      </trkpt>
      <trkpt lat="47.00812" lon="4.79317">
        <ele>249.33618774414</ele>
        <time>2017-08-09T21:22:22Z</time>
      </trkpt>
      <trkpt lat="47.00829" lon="4.79331">
        <ele>249.04018774414</ele>
        <time>2017-08-09T21:22:25Z</time>
      </trkpt>
      <trkpt lat="47.00853" lon="4.7935">
        <ele>248.61418774414</ele>
        <time>2017-08-09T21:22:30Z</time>
      </trkpt>
      <trkpt lat="47.00896" lon="4.79407">
        <ele>248.03618774414</ele>
        <time>2017-08-09T21:22:39Z</time>
      </trkpt>
      <trkpt lat="47.00913" lon="4.79426">
        <ele>247.99018774414</ele>
        <time>2017-08-09T21:22:43Z</time>
      </trkpt>
      <trkpt lat="47.00923" lon="4.79436">
        <ele>247.88418774414</ele>
        <time>2017-08-09T21:22:45Z</time>
      </trkpt>
      <trkpt lat="47.00931" lon="4.79446">
        <ele>247.90518774414</ele>
        <time>2017-08-09T21:22:47Z</time>
      </trkpt>
      <trkpt lat="47.00945" lon="4.79441">
        <ele>247.96218774414</ele>
        <time>2017-08-09T21:22:50Z</time>
      </trkpt>
      <trkpt lat="47.00948" lon="4.79441">
        <ele>247.96318774414</ele>
        <time>2017-08-09T21:22:51Z</time>
      </trkpt>
      <trkpt lat="47.00967" lon="4.79468">
        <ele>248.02718774414</ele>
        <time>2017-08-09T21:22:56Z</time>
      </trkpt>
      <trkpt lat="47.00978" lon="4.7948">
        <ele>248.06018774414</ele>
        <time>2017-08-09T21:22:58Z</time>
      </trkpt>
      <trkpt lat="47.0098" lon="4.79482">
        <ele>248.06218774414</ele>
        <time>2017-08-09T21:22:59Z</time>
      </trkpt>
      <trkpt lat="47.00981" lon="4.79483">
        <ele>248.06418774414</ele>
        <time>2017-08-09T21:22:59Z</time>
      </trkpt>
      <trkpt lat="47.01002" lon="4.79503">
        <ele>248.21018774414</ele>
        <time>2017-08-09T21:23:04Z</time>
      </trkpt>
      <trkpt lat="47.01034" lon="4.79547">
        <ele>248.52218774414</ele>
        <time>2017-08-09T21:23:14Z</time>
      </trkpt>
      <trkpt lat="47.01049" lon="4.7959">
        <ele>248.86018774414</ele>
        <time>2017-08-09T21:23:21Z</time>
      </trkpt>
      <trkpt lat="47.01115" lon="4.79652">
        <ele>249.63618774414</ele>
        <time>2017-08-09T21:23:39Z</time>
      </trkpt>
      <trkpt lat="47.01175" lon="4.79702">
        <ele>250.18018774414</ele>
        <time>2017-08-09T21:23:54Z</time>
      </trkpt>
      <trkpt lat="47.01183" lon="4.79724">
        <ele>250.27818774414</ele>
        <time>2017-08-09T21:23:57Z</time>
      </trkpt>
      <trkpt lat="47.01224" lon="4.79772">
        <ele>250.37218774414</ele>
        <time>2017-08-09T21:24:07Z</time>
      </trkpt>
      <trkpt lat="47.01229" lon="4.79777">
        <ele>250.42018774414</ele>
        <time>2017-08-09T21:24:09Z</time>
      </trkpt>
      <trkpt lat="47.01237" lon="4.79789">
        <ele>250.43918774414</ele>
        <time>2017-08-09T21:24:11Z</time>
      </trkpt>
      <trkpt lat="47.01249" lon="4.79821">
        <ele>250.43118774414</ele>
        <time>2017-08-09T21:24:16Z</time>
      </trkpt>
      <trkpt lat="47.01291" lon="4.79882">
        <ele>250.25118774414</ele>
        <time>2017-08-09T21:24:26Z</time>
      </trkpt>
      <trkpt lat="47.01295" lon="4.79893">
        <ele>250.20718774414</ele>
        <time>2017-08-09T21:24:28Z</time>
      </trkpt>
      <trkpt lat="47.01296" lon="4.7991">
        <ele>250.17518774414</ele>
        <time>2017-08-09T21:24:30Z</time>
      </trkpt>
      <trkpt lat="47.01289" lon="4.79949">
        <ele>249.98118774414</ele>
        <time>2017-08-09T21:24:34Z</time>
      </trkpt>
      <trkpt lat="47.01291" lon="4.79959">
        <ele>249.93718774414</ele>
        <time>2017-08-09T21:24:36Z</time>
      </trkpt>
      <trkpt lat="47.01318" lon="4.80007">
        <ele>249.46718774414</ele>
        <time>2017-08-09T21:24:43Z</time>
      </trkpt>
      <trkpt lat="47.01329" lon="4.80055">
        <ele>248.99518774414</ele>
        <time>2017-08-09T21:24:48Z</time>
      </trkpt>
      <trkpt lat="47.0135" lon="4.80108">
        <ele>248.40118774414</ele>
        <time>2017-08-09T21:24:55Z</time>
      </trkpt>
      <trkpt lat="47.01368" lon="4.8018">
        <ele>247.65218774414</ele>
        <time>2017-08-09T21:25:03Z</time>
      </trkpt>
      <trkpt lat="47.0139" lon="4.80252">
        <ele>246.87018774414</ele>
        <time>2017-08-09T21:25:12Z</time>
      </trkpt>
      <trkpt lat="47.01417" lon="4.8034">
        <ele>245.96718774414</ele>
        <time>2017-08-09T21:25:23Z</time>
      </trkpt>
      <trkpt lat="47.01422" lon="4.8039">
        <ele>245.51318774414</ele>
        <time>2017-08-09T21:25:28Z</time>
      </trkpt>
      <trkpt lat="47.01422" lon="4.80458">
        <ele>244.81718774414</ele>
        <time>2017-08-09T21:25:36Z</time>
      </trkpt>
      <trkpt lat="47.01426" lon="4.80477">
        <ele>244.60418774414</ele>
        <time>2017-08-09T21:25:38Z</time>
      </trkpt>
      <trkpt lat="47.01429" lon="4.80491">
        <ele>244.43618774414</ele>
        <time>2017-08-09T21:25:39Z</time>
      </trkpt>
      <trkpt lat="47.01448" lon="4.80532">
        <ele>243.91618774414</ele>
        <time>2017-08-09T21:25:45Z</time>
      </trkpt>
      <trkpt lat="47.01465" lon="4.8061">
        <ele>243.15818774414</ele>
        <time>2017-08-09T21:25:54Z</time>
      </trkpt>
      <trkpt lat="47.01474" lon="4.80641">
        <ele>242.82418774414</ele>
        <time>2017-08-09T21:25:57Z</time>
      </trkpt>
      <trkpt lat="47.01482" lon="4.8067">
        <ele>242.57218774414</ele>
        <time>2017-08-09T21:26:01Z</time>
      </trkpt>
      <trkpt lat="47.01496" lon="4.80717">
        <ele>242.17418774414</ele>
        <time>2017-08-09T21:26:07Z</time>
      </trkpt>
      <trkpt lat="47.01504" lon="4.80742">
        <ele>241.96018774414</ele>
        <time>2017-08-09T21:26:10Z</time>
      </trkpt>
      <trkpt lat="47.01523" lon="4.80767">
        <ele>241.50918774414</ele>
        <time>2017-08-09T21:26:14Z</time>
      </trkpt>
      <trkpt lat="47.01613" lon="4.80863">
        <ele>239.85618774414</ele>
        <time>2017-08-09T21:26:32Z</time>
      </trkpt>
      <trkpt lat="47.01618" lon="4.80874">
        <ele>239.76918774414</ele>
        <time>2017-08-09T21:26:33Z</time>
      </trkpt>
      <trkpt lat="47.01625" lon="4.80899">
        <ele>239.41618774414</ele>
        <time>2017-08-09T21:26:36Z</time>
      </trkpt>
      <trkpt lat="47.01646" lon="4.80951">
        <ele>238.43418774414</ele>
        <time>2017-08-09T21:26:42Z</time>
      </trkpt>
      <trkpt lat="47.01669" lon="4.81022">
        <ele>236.98018774414</ele>
        <time>2017-08-09T21:26:50Z</time>
      </trkpt>
      <trkpt lat="47.01678" lon="4.81066">
        <ele>236.03118774414</ele>
        <time>2017-08-09T21:26:55Z</time>
      </trkpt>
      <trkpt lat="47.01687" lon="4.81091">
        <ele>235.57018774414</ele>
        <time>2017-08-09T21:26:57Z</time>
      </trkpt>
      <trkpt lat="47.01689" lon="4.81097">
        <ele>235.32218774414</ele>
        <time>2017-08-09T21:26:58Z</time>
      </trkpt>
      <trkpt lat="47.01695" lon="4.81116">
        <ele>234.87218774414</ele>
        <time>2017-08-09T21:27:00Z</time>
      </trkpt>
      <trkpt lat="47.01704" lon="4.81193">
        <ele>233.47018774414</ele>
        <time>2017-08-09T21:27:08Z</time>
      </trkpt>
      <trkpt lat="47.01706" lon="4.8121">
        <ele>232.95018774414</ele>
        <time>2017-08-09T21:27:10Z</time>
      </trkpt>
      <trkpt lat="47.01712" lon="4.81224">
        <ele>232.72318774414</ele>
        <time>2017-08-09T21:27:11Z</time>
      </trkpt>
      <trkpt lat="47.01722" lon="4.81243">
        <ele>232.22818774414</ele>
        <time>2017-08-09T21:27:14Z</time>
      </trkpt>
      <trkpt lat="47.01765" lon="4.81305">
        <ele>230.57018774414</ele>
        <time>2017-08-09T21:27:23Z</time>
      </trkpt>
      <trkpt lat="47.01772" lon="4.81315">
        <ele>230.28818774414</ele>
        <time>2017-08-09T21:27:24Z</time>
      </trkpt>
      <trkpt lat="47.01803" lon="4.81368">
        <ele>229.27418774414</ele>
        <time>2017-08-09T21:27:31Z</time>
      </trkpt>
      <trkpt lat="47.01827" lon="4.81436">
        <ele>228.66418774414</ele>
        <time>2017-08-09T21:27:40Z</time>
      </trkpt>
      <trkpt lat="47.01832" lon="4.81467">
        <ele>228.42018774414</ele>
        <time>2017-08-09T21:27:43Z</time>
      </trkpt>
      <trkpt lat="47.01835" lon="4.81511">
        <ele>228.22118774414</ele>
        <time>2017-08-09T21:27:49Z</time>
      </trkpt>
      <trkpt lat="47.01839" lon="4.81529">
        <ele>228.18818774414</ele>
        <time>2017-08-09T21:27:51Z</time>
      </trkpt>
      <trkpt lat="47.01847" lon="4.81547">
        <ele>228.17718774414</ele>
        <time>2017-08-09T21:27:54Z</time>
      </trkpt>
      <trkpt lat="47.01891" lon="4.81612">
        <ele>228.28718774414</ele>
        <time>2017-08-09T21:28:06Z</time>
      </trkpt>
      <trkpt lat="47.01896" lon="4.81629">
        <ele>228.32518774414</ele>
        <time>2017-08-09T21:28:08Z</time>
      </trkpt>
      <trkpt lat="47.01902" lon="4.81627">
        <ele>228.36918774414</ele>
        <time>2017-08-09T21:28:09Z</time>
      </trkpt>
      <trkpt lat="47.01909" lon="4.81628">
        <ele>228.39718774414</ele>
        <time>2017-08-09T21:28:11Z</time>
      </trkpt>
      <trkpt lat="47.01938" lon="4.81653">
        <ele>228.82718774414</ele>
        <time>2017-08-09T21:28:19Z</time>
      </trkpt>
      <trkpt lat="47.01984" lon="4.81682">
        <ele>229.44318774414</ele>
        <time>2017-08-09T21:28:31Z</time>
      </trkpt>
      <trkpt lat="47.02012" lon="4.81689">
        <ele>229.71718774414</ele>
        <time>2017-08-09T21:28:37Z</time>
      </trkpt>
      <trkpt lat="47.02031" lon="4.81684">
        <ele>229.86018774414</ele>
        <time>2017-08-09T21:28:41Z</time>
      </trkpt>
      <trkpt lat="47.02042" lon="4.81676">
        <ele>229.94018774414</ele>
        <time>2017-08-09T21:28:44Z</time>
      </trkpt>
      <trkpt lat="47.02048" lon="4.81677">
        <ele>230.09518774414</ele>
        <time>2017-08-09T21:28:45Z</time>
      </trkpt>
      <trkpt lat="47.02053" lon="4.81685">
        <ele>230.11318774414</ele>
        <time>2017-08-09T21:28:47Z</time>
      </trkpt>
      <trkpt lat="47.02152" lon="4.81804">
        <ele>230.23718774414</ele>
        <time>2017-08-09T21:29:11Z</time>
      </trkpt>
      <trkpt lat="47.02211" lon="4.81884">
        <ele>229.46718774414</ele>
        <time>2017-08-09T21:29:25Z</time>
      </trkpt>
      <trkpt lat="47.02245" lon="4.81916">
        <ele>228.99118774414</ele>
        <time>2017-08-09T21:29:31Z</time>
      </trkpt>
      <trkpt lat="47.0227" lon="4.81949">
        <ele>228.53418774414</ele>
        <time>2017-08-09T21:29:37Z</time>
      </trkpt>
      <trkpt lat="47.02277" lon="4.81965">
        <ele>228.30018774414</ele>
        <time>2017-08-09T21:29:39Z</time>
      </trkpt>
      <trkpt lat="47.02291" lon="4.81989">
        <ele>228.05818774414</ele>
        <time>2017-08-09T21:29:42Z</time>
      </trkpt>
      <trkpt lat="47.02336" lon="4.82027">
        <ele>227.31718774414</ele>
        <time>2017-08-09T21:29:50Z</time>
      </trkpt>
      <trkpt lat="47.02361" lon="4.82044">
        <ele>226.79718774414</ele>
        <time>2017-08-09T21:29:55Z</time>
      </trkpt>
      <trkpt lat="47.02367" lon="4.82044">
        <ele>226.65218774414</ele>
        <time>2017-08-09T21:29:56Z</time>
      </trkpt>
      <trkpt lat="47.02373" lon="4.82055">
        <ele>226.45718774414</ele>
        <time>2017-08-09T21:29:57Z</time>
      </trkpt>
      <trkpt lat="47.02402" lon="4.82088">
        <ele>225.72818774414</ele>
        <time>2017-08-09T21:30:03Z</time>
      </trkpt>
      <trkpt lat="47.02441" lon="4.82149">
        <ele>224.63018774414</ele>
        <time>2017-08-09T21:30:12Z</time>
      </trkpt>
      <trkpt lat="47.02445" lon="4.82165">
        <ele>224.40118774414</ele>
        <time>2017-08-09T21:30:14Z</time>
      </trkpt>
      <trkpt lat="47.02438" lon="4.82186">
        <ele>224.03718774414</ele>
        <time>2017-08-09T21:30:16Z</time>
      </trkpt>
      <trkpt lat="47.02403" lon="4.82265">
        <ele>223.02018774414</ele>
        <time>2017-08-09T21:30:26Z</time>
      </trkpt>
      <trkpt lat="47.02383" lon="4.8232">
        <ele>222.32718774414</ele>
        <time>2017-08-09T21:30:33Z</time>
      </trkpt>
      <trkpt lat="47.02363" lon="4.82375">
        <ele>221.66718774414</ele>
        <time>2017-08-09T21:30:40Z</time>
      </trkpt>
      <trkpt lat="47.0233" lon="4.82482">
        <ele>220.95618774414</ele>
        <time>2017-08-09T21:30:53Z</time>
      </trkpt>
      <trkpt lat="47.02327" lon="4.82579">
        <ele>220.65318774414</ele>
        <time>2017-08-09T21:31:05Z</time>
      </trkpt>
      <trkpt lat="47.02489" lon="4.82728">
        <ele>219.11718774414</ele>
        <time>2017-08-09T21:31:37Z</time>
      </trkpt>
      <trkpt lat="47.02494" lon="4.82729">
        <ele>219.06018774414</ele>
        <time>2017-08-09T21:31:38Z</time>
      </trkpt>
      <trkpt lat="47.02501" lon="4.82731">
        <ele>218.96018774414</ele>
        <time>2017-08-09T21:31:39Z</time>
      </trkpt>
      <trkpt lat="47.02586" lon="4.82803">
        <ele>218.04118774414</ele>
        <time>2017-08-09T21:31:56Z</time>
      </trkpt>
      <trkpt lat="47.02593" lon="4.82809">
        <ele>217.93618774414</ele>
        <time>2017-08-09T21:31:57Z</time>
      </trkpt>
      <trkpt lat="47.02605" lon="4.8282">
        <ele>217.82218774414</ele>
        <time>2017-08-09T21:31:59Z</time>
      </trkpt>
      <trkpt lat="47.02618" lon="4.82831">
        <ele>217.70918774414</ele>
        <time>2017-08-09T21:32:02Z</time>
      </trkpt>
      <trkpt lat="47.0262" lon="4.82832">
        <ele>217.69218774414</ele>
        <time>2017-08-09T21:32:02Z</time>
      </trkpt>
      <trkpt lat="47.02637" lon="4.82848">
        <ele>217.51718774414</ele>
        <time>2017-08-09T21:32:06Z</time>
      </trkpt>
      <trkpt lat="47.02647" lon="4.82857">
        <ele>217.45018774414</ele>
        <time>2017-08-09T21:32:08Z</time>
      </trkpt>
      <trkpt lat="47.02654" lon="4.82868">
        <ele>217.40218774414</ele>
        <time>2017-08-09T21:32:09Z</time>
      </trkpt>
      <trkpt lat="47.02669" lon="4.82892">
        <ele>217.30118774414</ele>
        <time>2017-08-09T21:32:13Z</time>
      </trkpt>
      <trkpt lat="47.02676" lon="4.82904">
        <ele>217.29618774414</ele>
        <time>2017-08-09T21:32:15Z</time>
      </trkpt>
      <trkpt lat="47.02706" lon="4.82916">
        <ele>217.15718774414</ele>
        <time>2017-08-09T21:32:21Z</time>
      </trkpt>
      <trkpt lat="47.02738" lon="4.82916">
        <ele>217.01418774414</ele>
        <time>2017-08-09T21:32:26Z</time>
      </trkpt>
      <trkpt lat="47.02804" lon="4.82899">
        <ele>216.82118774414</ele>
        <time>2017-08-09T21:32:38Z</time>
      </trkpt>
      <trkpt lat="47.02826" lon="4.829">
        <ele>216.91418774414</ele>
        <time>2017-08-09T21:32:43Z</time>
      </trkpt>
      <trkpt lat="47.02819" lon="4.8292">
        <ele>216.86418774414</ele>
        <time>2017-08-09T21:32:46Z</time>
      </trkpt>
      <trkpt lat="47.02777" lon="4.83015">
        <ele>217.11918774414</ele>
        <time>2017-08-09T21:33:01Z</time>
      </trkpt>
      <trkpt lat="47.0278" lon="4.8302">
        <ele>217.16418774414</ele>
        <time>2017-08-09T21:33:02Z</time>
      </trkpt>
      <trkpt lat="47.02784" lon="4.83027">
        <ele>217.22118774414</ele>
        <time>2017-08-09T21:33:03Z</time>
      </trkpt>
      <trkpt lat="47.02828" lon="4.83107">
        <ele>217.49618774414</ele>
        <time>2017-08-09T21:33:17Z</time>
      </trkpt>
      <trkpt lat="47.0286" lon="4.83167">
        <ele>217.86518774414</ele>
        <time>2017-08-09T21:33:29Z</time>
      </trkpt>
      <trkpt lat="47.02887" lon="4.83218">
        <ele>218.31118774414</ele>
        <time>2017-08-09T21:33:38Z</time>
      </trkpt>
      <trkpt lat="47.02916" lon="4.8325">
        <ele>218.66218774414</ele>
        <time>2017-08-09T21:33:47Z</time>
      </trkpt>
      <trkpt lat="47.02929" lon="4.83275">
        <ele>218.86618774414</ele>
        <time>2017-08-09T21:33:51Z</time>
      </trkpt>
      <trkpt lat="47.02978" lon="4.83312">
        <ele>219.41618774414</ele>
        <time>2017-08-09T21:34:04Z</time>
      </trkpt>
      <trkpt lat="47.0298" lon="4.83314">
        <ele>219.44318774414</ele>
        <time>2017-08-09T21:34:04Z</time>
      </trkpt>
      <trkpt lat="47.02985" lon="4.83318">
        <ele>219.50018774414</ele>
        <time>2017-08-09T21:34:06Z</time>
      </trkpt>
      <trkpt lat="47.0303" lon="4.83353">
        <ele>220.01718774414</ele>
        <time>2017-08-09T21:34:17Z</time>
      </trkpt>
      <trkpt lat="47.03057" lon="4.83368">
        <ele>220.33818774414</ele>
        <time>2017-08-09T21:34:24Z</time>
      </trkpt>
      <trkpt lat="47.03088" lon="4.83384">
        <ele>220.70818774414</ele>
        <time>2017-08-09T21:34:31Z</time>
      </trkpt>
      <trkpt lat="47.03136" lon="4.83409">
        <ele>221.21518774414</ele>
        <time>2017-08-09T21:34:43Z</time>
      </trkpt>
      <trkpt lat="47.0315" lon="4.83417">
        <ele>221.39018774414</ele>
        <time>2017-08-09T21:34:46Z</time>
      </trkpt>
      <trkpt lat="47.032" lon="4.83446">
        <ele>221.87818774414</ele>
        <time>2017-08-09T21:34:58Z</time>
      </trkpt>
      <trkpt lat="47.03256" lon="4.83488">
        <ele>222.26318774414</ele>
        <time>2017-08-09T21:35:11Z</time>
      </trkpt>
      <trkpt lat="47.03293" lon="4.83518">
        <ele>222.46018774414</ele>
        <time>2017-08-09T21:35:20Z</time>
      </trkpt>
      <trkpt lat="47.03317" lon="4.83537">
        <ele>222.52718774414</ele>
        <time>2017-08-09T21:35:25Z</time>
      </trkpt>
      <trkpt lat="47.03344" lon="4.83567">
        <ele>222.60018774414</ele>
        <time>2017-08-09T21:35:32Z</time>
      </trkpt>
      <trkpt lat="47.0338" lon="4.83603">
        <ele>222.66818774414</ele>
        <time>2017-08-09T21:35:40Z</time>
      </trkpt>
      <trkpt lat="47.03387" lon="4.83612">
        <ele>222.70518774414</ele>
        <time>2017-08-09T21:35:42Z</time>
      </trkpt>
      <trkpt lat="47.03481" lon="4.83719">
        <ele>223.04618774414</ele>
        <time>2017-08-09T21:36:06Z</time>
      </trkpt>
      <trkpt lat="47.03503" lon="4.83755">
        <ele>223.31118774414</ele>
        <time>2017-08-09T21:36:13Z</time>
      </trkpt>
      <trkpt lat="47.03514" lon="4.83785">
        <ele>223.49618774414</ele>
        <time>2017-08-09T21:36:18Z</time>
      </trkpt>
      <trkpt lat="47.0352" lon="4.83806">
        <ele>223.63418774414</ele>
        <time>2017-08-09T21:36:21Z</time>
      </trkpt>
      <trkpt lat="47.03534" lon="4.83801">
        <ele>223.74018774414</ele>
        <time>2017-08-09T21:36:25Z</time>
      </trkpt>
      <trkpt lat="47.03582" lon="4.83788">
        <ele>224.18118774414</ele>
        <time>2017-08-09T21:36:35Z</time>
      </trkpt>
      <trkpt lat="47.03586" lon="4.8383">
        <ele>224.44118774414</ele>
        <time>2017-08-09T21:36:42Z</time>
      </trkpt>
      <trkpt lat="47.0359" lon="4.83835">
        <ele>224.49718774414</ele>
        <time>2017-08-09T21:36:43Z</time>
      </trkpt>
      <trkpt lat="47.03615" lon="4.83847">
        <ele>224.71518774414</ele>
        <time>2017-08-09T21:36:49Z</time>
      </trkpt>
      <trkpt lat="47.0362" lon="4.83857">
        <ele>224.80918774414</ele>
        <time>2017-08-09T21:36:50Z</time>
      </trkpt>
      <trkpt lat="47.03617" lon="4.83866">
        <ele>224.87018774414</ele>
        <time>2017-08-09T21:36:52Z</time>
      </trkpt>
      <trkpt lat="47.03614" lon="4.83866">
        <ele>224.89818774414</ele>
        <time>2017-08-09T21:36:53Z</time>
      </trkpt>
      <trkpt lat="47.03592" lon="4.83862">
        <ele>225.04918774414</ele>
        <time>2017-08-09T21:36:57Z</time>
      </trkpt>
      <trkpt lat="47.03588" lon="4.83886">
        <ele>225.18718774414</ele>
        <time>2017-08-09T21:37:01Z</time>
      </trkpt>
      <trkpt lat="47.03591" lon="4.839">
        <ele>225.23918774414</ele>
        <time>2017-08-09T21:37:03Z</time>
      </trkpt>
      <trkpt lat="47.03651" lon="4.83918">
        <ele>225.43918774414</ele>
        <time>2017-08-09T21:37:15Z</time>
      </trkpt>
      <trkpt lat="47.03653" lon="4.8394">
        <ele>225.43818774414</ele>
        <time>2017-08-09T21:37:18Z</time>
      </trkpt>
      <trkpt lat="47.03657" lon="4.83989">
        <ele>225.45918774414</ele>
        <time>2017-08-09T21:37:24Z</time>
      </trkpt>
      <trkpt lat="47.03661" lon="4.8407">
        <ele>225.47718774414</ele>
        <time>2017-08-09T21:37:35Z</time>
      </trkpt>
      <trkpt lat="47.03662" lon="4.84158">
        <ele>225.50718774414</ele>
        <time>2017-08-09T21:37:46Z</time>
      </trkpt>
      <trkpt lat="47.0366" lon="4.84228">
        <ele>225.55418774414</ele>
        <time>2017-08-09T21:37:55Z</time>
      </trkpt>
      <trkpt lat="47.03668" lon="4.84272">
        <ele>225.60718774414</ele>
        <time>2017-08-09T21:38:01Z</time>
      </trkpt>
      <trkpt lat="47.03672" lon="4.84313">
        <ele>225.70518774414</ele>
        <time>2017-08-09T21:38:07Z</time>
      </trkpt>
      <trkpt lat="47.03687" lon="4.84313">
        <ele>225.77818774414</ele>
        <time>2017-08-09T21:38:10Z</time>
      </trkpt>
      <trkpt lat="47.0372" lon="4.84317">
        <ele>225.94218774414</ele>
        <time>2017-08-09T21:38:17Z</time>
      </trkpt>
      <trkpt lat="47.03748" lon="4.84332">
        <ele>226.11318774414</ele>
        <time>2017-08-09T21:38:23Z</time>
      </trkpt>
      <trkpt lat="47.03779" lon="4.84363">
        <ele>226.37218774414</ele>
        <time>2017-08-09T21:38:31Z</time>
      </trkpt>
      <trkpt lat="47.03952" lon="4.84571">
        <ele>228.02518774414</ele>
        <time>2017-08-09T21:39:19Z</time>
      </trkpt>
      <trkpt lat="47.03903" lon="4.84699">
        <ele>228.48218774414</ele>
        <time>2017-08-09T21:39:39Z</time>
      </trkpt>
      <trkpt lat="47.03901" lon="4.84724">
        <ele>228.51118774414</ele>
        <time>2017-08-09T21:39:43Z</time>
      </trkpt>
      <trkpt lat="47.03903" lon="4.84751">
        <ele>228.60318774414</ele>
        <time>2017-08-09T21:39:46Z</time>
      </trkpt>
      <trkpt lat="47.03907" lon="4.84765">
        <ele>228.60818774414</ele>
        <time>2017-08-09T21:39:48Z</time>
      </trkpt>
      <trkpt lat="47.03915" lon="4.84758">
        <ele>228.64718774414</ele>
        <time>2017-08-09T21:39:50Z</time>
      </trkpt>
      <trkpt lat="47.03924" lon="4.84756">
        <ele>228.69118774414</ele>
        <time>2017-08-09T21:39:52Z</time>
      </trkpt>
      <trkpt lat="47.03942" lon="4.84763">
        <ele>228.73418774414</ele>
        <time>2017-08-09T21:39:56Z</time>
      </trkpt>
      <trkpt lat="47.03953" lon="4.84785">
        <ele>228.83418774414</ele>
        <time>2017-08-09T21:40:00Z</time>
      </trkpt>
      <trkpt lat="47.03954" lon="4.84799">
        <ele>228.88418774414</ele>
        <time>2017-08-09T21:40:01Z</time>
      </trkpt>
      <trkpt lat="47.03953" lon="4.84807">
        <ele>228.88418774414</ele>
        <time>2017-08-09T21:40:02Z</time>
      </trkpt>
      <trkpt lat="47.03952" lon="4.84814">
        <ele>228.89718774414</ele>
        <time>2017-08-09T21:40:04Z</time>
      </trkpt>
      <trkpt lat="47.04091" lon="4.84849">
        <ele>229.54418774414</ele>
        <time>2017-08-09T21:40:31Z</time>
      </trkpt>
      <trkpt lat="47.04138" lon="4.8486">
        <ele>229.71218774414</ele>
        <time>2017-08-09T21:40:40Z</time>
      </trkpt>
      <trkpt lat="47.04163" lon="4.84866">
        <ele>229.72718774414</ele>
        <time>2017-08-09T21:40:45Z</time>
      </trkpt>
      <trkpt lat="47.04205" lon="4.84876">
        <ele>229.74618774414</ele>
        <time>2017-08-09T21:40:53Z</time>
      </trkpt>
      <trkpt lat="47.04285" lon="4.849">
        <ele>229.63018774414</ele>
        <time>2017-08-09T21:41:07Z</time>
      </trkpt>
      <trkpt lat="47.04302" lon="4.84912">
        <ele>229.53218774414</ele>
        <time>2017-08-09T21:41:10Z</time>
      </trkpt>
      <trkpt lat="47.04307" lon="4.84917">
        <ele>229.49618774414</ele>
        <time>2017-08-09T21:41:11Z</time>
      </trkpt>
      <trkpt lat="47.04308" lon="4.84923">
        <ele>229.48318774414</ele>
        <time>2017-08-09T21:41:12Z</time>
      </trkpt>
      <trkpt lat="47.04315" lon="4.84938">
        <ele>229.46118774414</ele>
        <time>2017-08-09T21:41:14Z</time>
      </trkpt>
      <trkpt lat="47.04323" lon="4.84944">
        <ele>229.44118774414</ele>
        <time>2017-08-09T21:41:15Z</time>
      </trkpt>
      <trkpt lat="47.04337" lon="4.84942">
        <ele>229.39318774414</ele>
        <time>2017-08-09T21:41:18Z</time>
      </trkpt>
      <trkpt lat="47.04343" lon="4.84936">
        <ele>229.37018774414</ele>
        <time>2017-08-09T21:41:19Z</time>
      </trkpt>
      <trkpt lat="47.04352" lon="4.84938">
        <ele>229.35018774414</ele>
        <time>2017-08-09T21:41:21Z</time>
      </trkpt>
      <trkpt lat="47.04383" lon="4.84959">
        <ele>229.23618774414</ele>
        <time>2017-08-09T21:41:26Z</time>
      </trkpt>
      <trkpt lat="47.04454" lon="4.85025">
        <ele>228.99618774414</ele>
        <time>2017-08-09T21:41:41Z</time>
      </trkpt>
      <trkpt lat="47.0446" lon="4.85031">
        <ele>229.00018774414</ele>
        <time>2017-08-09T21:41:42Z</time>
      </trkpt>
      <trkpt lat="47.04469" lon="4.8504">
        <ele>228.97518774414</ele>
        <time>2017-08-09T21:41:44Z</time>
      </trkpt>
      <trkpt lat="47.04534" lon="4.85101">
        <ele>229.15818774414</ele>
        <time>2017-08-09T21:41:59Z</time>
      </trkpt>
      <trkpt lat="47.04591" lon="4.85153">
        <ele>229.45018774414</ele>
        <time>2017-08-09T21:42:12Z</time>
      </trkpt>
      <trkpt lat="47.04627" lon="4.85191">
        <ele>229.77118774414</ele>
        <time>2017-08-09T21:42:21Z</time>
      </trkpt>
      <trkpt lat="47.0488" lon="4.85395">
        <ele>232.05218774414</ele>
        <time>2017-08-09T21:43:21Z</time>
      </trkpt>
      <trkpt lat="47.04912" lon="4.8542">
        <ele>232.12718774414</ele>
        <time>2017-08-09T21:43:28Z</time>
      </trkpt>
      <trkpt lat="47.04919" lon="4.85425">
        <ele>232.13318774414</ele>
        <time>2017-08-09T21:43:30Z</time>
      </trkpt>
      <trkpt lat="47.05045" lon="4.85523">
        <ele>231.85318774414</ele>
        <time>2017-08-09T21:43:54Z</time>
      </trkpt>
      <trkpt lat="47.05088" lon="4.85558">
        <ele>231.81018774414</ele>
        <time>2017-08-09T21:44:03Z</time>
      </trkpt>
      <trkpt lat="47.0509" lon="4.85555">
        <ele>231.87418774414</ele>
        <time>2017-08-09T21:44:04Z</time>
      </trkpt>
      <trkpt lat="47.0511" lon="4.85525">
        <ele>231.88718774414</ele>
        <time>2017-08-09T21:44:09Z</time>
      </trkpt>
      <trkpt lat="47.05183" lon="4.85389">
        <ele>232.61718774414</ele>
        <time>2017-08-09T21:44:33Z</time>
      </trkpt>
      <trkpt lat="47.05207" lon="4.85321">
        <ele>232.94118774414</ele>
        <time>2017-08-09T21:44:43Z</time>
      </trkpt>
      <trkpt lat="47.05216" lon="4.85294">
        <ele>233.09718774414</ele>
        <time>2017-08-09T21:44:48Z</time>
      </trkpt>
      <trkpt lat="47.0522" lon="4.85293">
        <ele>233.10218774414</ele>
        <time>2017-08-09T21:44:48Z</time>
      </trkpt>
      <trkpt lat="47.05242" lon="4.85297">
        <ele>233.18718774414</ele>
        <time>2017-08-09T21:44:53Z</time>
      </trkpt>
      <trkpt lat="47.05293" lon="4.8532">
        <ele>233.31618774414</ele>
        <time>2017-08-09T21:45:03Z</time>
      </trkpt>
      <trkpt lat="47.05339" lon="4.85349">
        <ele>233.31318774414</ele>
        <time>2017-08-09T21:45:13Z</time>
      </trkpt>
      <trkpt lat="47.05403" lon="4.85398">
        <ele>233.11518774414</ele>
        <time>2017-08-09T21:45:25Z</time>
      </trkpt>
      <trkpt lat="47.05419" lon="4.85406">
        <ele>233.04618774414</ele>
        <time>2017-08-09T21:45:29Z</time>
      </trkpt>
      <trkpt lat="47.05443" lon="4.85412">
        <ele>232.96518774414</ele>
        <time>2017-08-09T21:45:33Z</time>
      </trkpt>
      <trkpt lat="47.05505" lon="4.85415">
        <ele>232.65318774414</ele>
        <time>2017-08-09T21:45:44Z</time>
      </trkpt>
      <trkpt lat="47.05546" lon="4.85427">
        <ele>232.41618774414</ele>
        <time>2017-08-09T21:45:51Z</time>
      </trkpt>
      <trkpt lat="47.05556" lon="4.85431">
        <ele>232.38618774414</ele>
        <time>2017-08-09T21:45:53Z</time>
      </trkpt>
      <trkpt lat="47.05558" lon="4.85435">
        <ele>232.32318774414</ele>
        <time>2017-08-09T21:45:53Z</time>
      </trkpt>
      <trkpt lat="47.05575" lon="4.85452">
        <ele>232.19218774414</ele>
        <time>2017-08-09T21:45:57Z</time>
      </trkpt>
      <trkpt lat="47.05624" lon="4.85478">
        <ele>231.62718774414</ele>
        <time>2017-08-09T21:46:05Z</time>
      </trkpt>
      <trkpt lat="47.05706" lon="4.85505">
        <ele>230.63318774414</ele>
        <time>2017-08-09T21:46:19Z</time>
      </trkpt>
      <trkpt lat="47.05711" lon="4.85524">
        <ele>230.45918774414</ele>
        <time>2017-08-09T21:46:21Z</time>
      </trkpt>
      <trkpt lat="47.05705" lon="4.85559">
        <ele>230.17518774414</ele>
        <time>2017-08-09T21:46:25Z</time>
      </trkpt>
      <trkpt lat="47.05702" lon="4.85582">
        <ele>229.97118774414</ele>
        <time>2017-08-09T21:46:28Z</time>
      </trkpt>
      <trkpt lat="47.05704" lon="4.85581">
        <ele>229.87818774414</ele>
        <time>2017-08-09T21:46:28Z</time>
      </trkpt>
      <trkpt lat="47.05852" lon="4.85612">
        <ele>229.08518774414</ele>
        <time>2017-08-09T21:46:53Z</time>
      </trkpt>
      <trkpt lat="47.05916" lon="4.85634">
        <ele>229.59018774414</ele>
        <time>2017-08-09T21:47:07Z</time>
      </trkpt>
      <trkpt lat="47.05937" lon="4.85641">
        <ele>229.80918774414</ele>
        <time>2017-08-09T21:47:12Z</time>
      </trkpt>
      <trkpt lat="47.06043" lon="4.8568">
        <ele>231.23118774414</ele>
        <time>2017-08-09T21:47:37Z</time>
      </trkpt>
      <trkpt lat="47.0605" lon="4.85684">
        <ele>231.39218774414</ele>
        <time>2017-08-09T21:47:39Z</time>
      </trkpt>
      <trkpt lat="47.06075" lon="4.85701">
        <ele>231.75618774414</ele>
        <time>2017-08-09T21:47:45Z</time>
      </trkpt>
      <trkpt lat="47.06155" lon="4.85752">
        <ele>232.92418774414</ele>
        <time>2017-08-09T21:48:05Z</time>
      </trkpt>
      <trkpt lat="47.06172" lon="4.85757">
        <ele>233.10718774414</ele>
        <time>2017-08-09T21:48:09Z</time>
      </trkpt>
      <trkpt lat="47.0621" lon="4.85759">
        <ele>233.61318774414</ele>
        <time>2017-08-09T21:48:18Z</time>
      </trkpt>
      <trkpt lat="47.06237" lon="4.85772">
        <ele>233.91918774414</ele>
        <time>2017-08-09T21:48:24Z</time>
      </trkpt>
      <trkpt lat="47.06378" lon="4.85917">
        <ele>235.73218774414</ele>
        <time>2017-08-09T21:49:02Z</time>
      </trkpt>
      <trkpt lat="47.06389" lon="4.85919">
        <ele>236.00618774414</ele>
        <time>2017-08-09T21:49:05Z</time>
      </trkpt>
      <trkpt lat="47.06393" lon="4.85918">
        <ele>236.11518774414</ele>
        <time>2017-08-09T21:49:06Z</time>
      </trkpt>
      <trkpt lat="47.06396" lon="4.85926">
        <ele>236.17918774414</ele>
        <time>2017-08-09T21:49:08Z</time>
      </trkpt>
      <trkpt lat="47.064" lon="4.85934">
        <ele>236.25818774414</ele>
        <time>2017-08-09T21:49:09Z</time>
      </trkpt>
      <trkpt lat="47.064" lon="4.85996">
        <ele>237.01418774414</ele>
        <time>2017-08-09T21:49:20Z</time>
      </trkpt>
      <trkpt lat="47.06411" lon="4.85974">
        <ele>237.56818774414</ele>
        <time>2017-08-09T21:49:25Z</time>
      </trkpt>
      <trkpt lat="47.06434" lon="4.85932">
        <ele>238.69118774414</ele>
        <time>2017-08-09T21:49:36Z</time>
      </trkpt>
      <trkpt lat="47.06445" lon="4.85913">
        <ele>239.26718774414</ele>
        <time>2017-08-09T21:49:42Z</time>
      </trkpt>
      <trkpt lat="47.06448" lon="4.8591">
        <ele>239.51918774414</ele>
        <time>2017-08-09T21:49:43Z</time>
      </trkpt>
      <trkpt lat="47.06458" lon="4.85909">
        <ele>239.96418774414</ele>
        <time>2017-08-09T21:49:47Z</time>
      </trkpt>
      <trkpt lat="47.06503" lon="4.85923">
        <ele>241.89218774414</ele>
        <time>2017-08-09T21:50:03Z</time>
      </trkpt>
      <trkpt lat="47.06529" lon="4.85929">
        <ele>243.41418774414</ele>
        <time>2017-08-09T21:50:14Z</time>
      </trkpt>
      <trkpt lat="47.06561" lon="4.85939">
        <ele>245.01218774414</ele>
        <time>2017-08-09T21:50:26Z</time>
      </trkpt>
      <trkpt lat="47.06592" lon="4.85951">
        <ele>246.49618774414</ele>
        <time>2017-08-09T21:50:38Z</time>
      </trkpt>
      <trkpt lat="47.06592" lon="4.85959">
        <ele>246.68718774414</ele>
        <time>2017-08-09T21:50:39Z</time>
      </trkpt>
      <trkpt lat="47.06598" lon="4.85968">
        <ele>246.85618774414</ele>
        <time>2017-08-09T21:50:42Z</time>
      </trkpt>
      <trkpt lat="47.06612" lon="4.85976">
        <ele>247.43018774414</ele>
        <time>2017-08-09T21:50:47Z</time>
      </trkpt>
      <trkpt lat="47.06615" lon="4.85975">
        <ele>247.64818774414</ele>
        <time>2017-08-09T21:50:48Z</time>
      </trkpt>
      <trkpt lat="47.06635" lon="4.85992">
        <ele>248.25618774414</ele>
        <time>2017-08-09T21:50:55Z</time>
      </trkpt>
      <trkpt lat="47.06648" lon="4.86004">
        <ele>249.09418774414</ele>
        <time>2017-08-09T21:51:01Z</time>
      </trkpt>
      <trkpt lat="47.06641" lon="4.86021">
        <ele>249.37918774414</ele>
        <time>2017-08-09T21:51:04Z</time>
      </trkpt>
      <trkpt lat="47.06649" lon="4.86027">
        <ele>249.61918774414</ele>
        <time>2017-08-09T21:51:07Z</time>
      </trkpt>
      <trkpt lat="47.06649" lon="4.86031">
        <ele>249.65718774414</ele>
        <time>2017-08-09T21:51:08Z</time>
      </trkpt>
      <trkpt lat="47.06646" lon="4.8605">
        <ele>250.42518774414</ele>
        <time>2017-08-09T21:51:13Z</time>
      </trkpt>
      <trkpt lat="47.06698" lon="4.86123">
        <ele>252.56518774414</ele>
        <time>2017-08-09T21:51:35Z</time>
      </trkpt>
      <trkpt lat="47.06714" lon="4.86147">
        <ele>252.72118774414</ele>
        <time>2017-08-09T21:51:39Z</time>
      </trkpt>
      <trkpt lat="47.06722" lon="4.86157">
        <ele>253.06218774414</ele>
        <time>2017-08-09T21:51:43Z</time>
      </trkpt>
      <trkpt lat="47.06754" lon="4.86191">
        <ele>253.29018774414</ele>
        <time>2017-08-09T21:51:51Z</time>
      </trkpt>
      <trkpt lat="47.06776" lon="4.86206">
        <ele>253.45718774414</ele>
        <time>2017-08-09T21:51:56Z</time>
      </trkpt>
      <trkpt lat="47.06786" lon="4.86215">
        <ele>253.57918774414</ele>
        <time>2017-08-09T21:51:58Z</time>
      </trkpt>
      <trkpt lat="47.06815" lon="4.86245">
        <ele>253.86218774414</ele>
        <time>2017-08-09T21:52:05Z</time>
      </trkpt>
      <trkpt lat="47.06833" lon="4.86267">
        <ele>253.97618774414</ele>
        <time>2017-08-09T21:52:10Z</time>
      </trkpt>
      <trkpt lat="47.06868" lon="4.86317">
        <ele>254.05218774414</ele>
        <time>2017-08-09T21:52:19Z</time>
      </trkpt>
      <trkpt lat="47.06954" lon="4.86427">
        <ele>252.23918774414</ele>
        <time>2017-08-09T21:52:36Z</time>
      </trkpt>
      <trkpt lat="47.06955" lon="4.86433">
        <ele>252.13418774414</ele>
        <time>2017-08-09T21:52:37Z</time>
      </trkpt>
      <trkpt lat="47.06956" lon="4.86457">
        <ele>251.79118774414</ele>
        <time>2017-08-09T21:52:40Z</time>
      </trkpt>
      <trkpt lat="47.06956" lon="4.86474">
        <ele>251.55018774414</ele>
        <time>2017-08-09T21:52:41Z</time>
      </trkpt>
      <trkpt lat="47.06962" lon="4.86488">
        <ele>251.29218774414</ele>
        <time>2017-08-09T21:52:43Z</time>
      </trkpt>
      <trkpt lat="47.07022" lon="4.86595">
        <ele>248.83918774414</ele>
        <time>2017-08-09T21:52:57Z</time>
      </trkpt>
      <trkpt lat="47.07046" lon="4.8663">
        <ele>247.92218774414</ele>
        <time>2017-08-09T21:53:02Z</time>
      </trkpt>
      <trkpt lat="47.07064" lon="4.86707">
        <ele>246.96618774414</ele>
        <time>2017-08-09T21:53:11Z</time>
      </trkpt>
      <trkpt lat="47.07066" lon="4.86715">
        <ele>246.74418774414</ele>
        <time>2017-08-09T21:53:11Z</time>
      </trkpt>
      <trkpt lat="47.07067" lon="4.86727">
        <ele>246.57018774414</ele>
        <time>2017-08-09T21:53:13Z</time>
      </trkpt>
      <trkpt lat="47.0707" lon="4.86768">
        <ele>246.17818774414</ele>
        <time>2017-08-09T21:53:17Z</time>
      </trkpt>
      <trkpt lat="47.07101" lon="4.8681">
        <ele>245.61418774414</ele>
        <time>2017-08-09T21:53:24Z</time>
      </trkpt>
      <trkpt lat="47.07155" lon="4.86875">
        <ele>244.78818774414</ele>
        <time>2017-08-09T21:53:35Z</time>
      </trkpt>
      <trkpt lat="47.07208" lon="4.86948">
        <ele>244.35118774414</ele>
        <time>2017-08-09T21:53:48Z</time>
      </trkpt>
      <trkpt lat="47.07225" lon="4.86974">
        <ele>244.21218774414</ele>
        <time>2017-08-09T21:53:52Z</time>
      </trkpt>
      <trkpt lat="47.07243" lon="4.87">
        <ele>243.85618774414</ele>
        <time>2017-08-09T21:53:56Z</time>
      </trkpt>
      <trkpt lat="47.07265" lon="4.87048">
        <ele>243.49718774414</ele>
        <time>2017-08-09T21:54:03Z</time>
      </trkpt>
      <trkpt lat="47.07322" lon="4.87149">
        <ele>242.87218774414</ele>
        <time>2017-08-09T21:54:18Z</time>
      </trkpt>
      <trkpt lat="47.07327" lon="4.87155">
        <ele>242.71218774414</ele>
        <time>2017-08-09T21:54:19Z</time>
      </trkpt>
      <trkpt lat="47.07353" lon="4.87191">
        <ele>242.34418774414</ele>
        <time>2017-08-09T21:54:25Z</time>
      </trkpt>
      <trkpt lat="47.07386" lon="4.87234">
        <ele>241.97518774414</ele>
        <time>2017-08-09T21:54:33Z</time>
      </trkpt>
      <trkpt lat="47.07419" lon="4.87254">
        <ele>241.55818774414</ele>
        <time>2017-08-09T21:54:38Z</time>
      </trkpt>
      <trkpt lat="47.07454" lon="4.87283">
        <ele>240.43118774414</ele>
        <time>2017-08-09T21:54:44Z</time>
      </trkpt>
      <trkpt lat="47.07458" lon="4.87284">
        <ele>239.93118774414</ele>
        <time>2017-08-09T21:54:45Z</time>
      </trkpt>
      <trkpt lat="47.07515" lon="4.8741">
        <ele>236.08618774414</ele>
        <time>2017-08-09T21:54:59Z</time>
      </trkpt>
      <trkpt lat="47.07515" lon="4.87416">
        <ele>235.50618774414</ele>
        <time>2017-08-09T21:55:00Z</time>
      </trkpt>
      <trkpt lat="47.07514" lon="4.87422">
        <ele>235.03618774414</ele>
        <time>2017-08-09T21:55:00Z</time>
      </trkpt>
      <trkpt lat="47.07502" lon="4.87467">
        <ele>233.36218774414</ele>
        <time>2017-08-09T21:55:05Z</time>
      </trkpt>
      <trkpt lat="47.07517" lon="4.87501">
        <ele>231.96218774414</ele>
        <time>2017-08-09T21:55:08Z</time>
      </trkpt>
      <trkpt lat="47.07521" lon="4.87536">
        <ele>230.34218774414</ele>
        <time>2017-08-09T21:55:11Z</time>
      </trkpt>
      <trkpt lat="47.0752" lon="4.87543">
        <ele>229.93618774414</ele>
        <time>2017-08-09T21:55:12Z</time>
      </trkpt>
      <trkpt lat="47.07502" lon="4.87584">
        <ele>227.94318774414</ele>
        <time>2017-08-09T21:55:16Z</time>
      </trkpt>
      <trkpt lat="47.07451" lon="4.87682">
        <ele>223.59018774414</ele>
        <time>2017-08-09T21:55:27Z</time>
      </trkpt>
      <trkpt lat="47.07449" lon="4.87686">
        <ele>223.26718774414</ele>
        <time>2017-08-09T21:55:28Z</time>
      </trkpt>
      <trkpt lat="47.07398" lon="4.8777">
        <ele>220.74518774414</ele>
        <time>2017-08-09T21:55:39Z</time>
      </trkpt>
      <trkpt lat="47.07355" lon="4.87836">
        <ele>219.94918774414</ele>
        <time>2017-08-09T21:55:49Z</time>
      </trkpt>
      <trkpt lat="47.07348" lon="4.87847">
        <ele>219.66318774414</ele>
        <time>2017-08-09T21:55:50Z</time>
      </trkpt>
      <trkpt lat="47.07341" lon="4.87839">
        <ele>219.63818774414</ele>
        <time>2017-08-09T21:55:52Z</time>
      </trkpt>
      <trkpt lat="47.07337" lon="4.87844">
        <ele>219.62318774414</ele>
        <time>2017-08-09T21:55:53Z</time>
      </trkpt>
      <trkpt lat="47.07334" lon="4.87848">
        <ele>219.60718774414</ele>
        <time>2017-08-09T21:55:54Z</time>
      </trkpt>
      <trkpt lat="47.07323" lon="4.87863">
        <ele>219.57218774414</ele>
        <time>2017-08-09T21:55:56Z</time>
      </trkpt>
      <trkpt lat="47.0735" lon="4.87939">
        <ele>219.64318774414</ele>
        <time>2017-08-09T21:56:07Z</time>
      </trkpt>
      <trkpt lat="47.07399" lon="4.88087">
        <ele>220.34718774414</ele>
        <time>2017-08-09T21:56:31Z</time>
      </trkpt>
      <trkpt lat="47.07406" lon="4.88109">
        <ele>220.45118774414</ele>
        <time>2017-08-09T21:56:34Z</time>
      </trkpt>
      <trkpt lat="47.07441" lon="4.88207">
        <ele>220.87818774414</ele>
        <time>2017-08-09T21:56:50Z</time>
      </trkpt>
      <trkpt lat="47.07479" lon="4.88314">
        <ele>221.13718774414</ele>
        <time>2017-08-09T21:57:06Z</time>
      </trkpt>
      <trkpt lat="47.07491" lon="4.8833">
        <ele>221.17118774414</ele>
        <time>2017-08-09T21:57:09Z</time>
      </trkpt>
      <trkpt lat="47.07517" lon="4.88407">
        <ele>221.26118774414</ele>
        <time>2017-08-09T21:57:21Z</time>
      </trkpt>
      <trkpt lat="47.07541" lon="4.88496">
        <ele>221.40818774414</ele>
        <time>2017-08-09T21:57:33Z</time>
      </trkpt>
      <trkpt lat="47.0755" lon="4.88535">
        <ele>221.46618774414</ele>
        <time>2017-08-09T21:57:39Z</time>
      </trkpt>
      <trkpt lat="47.07561" lon="4.88583">
        <ele>221.56818774414</ele>
        <time>2017-08-09T21:57:46Z</time>
      </trkpt>
      <trkpt lat="47.07563" lon="4.88596">
        <ele>221.62218774414</ele>
        <time>2017-08-09T21:57:48Z</time>
      </trkpt>
      <trkpt lat="47.07614" lon="4.88786">
        <ele>222.21118774414</ele>
        <time>2017-08-09T21:58:15Z</time>
      </trkpt>
      <trkpt lat="47.07653" lon="4.88906">
        <ele>222.77518774414</ele>
        <time>2017-08-09T21:58:33Z</time>
      </trkpt>
      <trkpt lat="47.07676" lon="4.8906">
        <ele>223.30918774414</ele>
        <time>2017-08-09T21:58:54Z</time>
      </trkpt>
      <trkpt lat="47.07686" lon="4.89097">
        <ele>223.37218774414</ele>
        <time>2017-08-09T21:58:59Z</time>
      </trkpt>
      <trkpt lat="47.07688" lon="4.891">
        <ele>223.39818774414</ele>
        <time>2017-08-09T21:59:00Z</time>
      </trkpt>
      <trkpt lat="47.07697" lon="4.8912">
        <ele>223.43718774414</ele>
        <time>2017-08-09T21:59:03Z</time>
      </trkpt>
      <trkpt lat="47.07712" lon="4.89167">
        <ele>223.49518774414</ele>
        <time>2017-08-09T21:59:10Z</time>
      </trkpt>
      <trkpt lat="47.07791" lon="4.89328">
        <ele>223.42918774414</ele>
        <time>2017-08-09T21:59:34Z</time>
      </trkpt>
      <trkpt lat="47.07805" lon="4.89369">
        <ele>223.39318774414</ele>
        <time>2017-08-09T21:59:39Z</time>
      </trkpt>
      <trkpt lat="47.07822" lon="4.8946">
        <ele>223.55518774414</ele>
        <time>2017-08-09T21:59:51Z</time>
      </trkpt>
      <trkpt lat="47.07842" lon="4.89547">
        <ele>223.98418774414</ele>
        <time>2017-08-09T22:00:04Z</time>
      </trkpt>
      <trkpt lat="47.07875" lon="4.89658">
        <ele>225.05718774414</ele>
        <time>2017-08-09T22:00:23Z</time>
      </trkpt>
      <trkpt lat="47.07899" lon="4.89712">
        <ele>225.83018774414</ele>
        <time>2017-08-09T22:00:34Z</time>
      </trkpt>
      <trkpt lat="47.07925" lon="4.89743">
        <ele>226.53118774414</ele>
        <time>2017-08-09T22:00:43Z</time>
      </trkpt>
      <trkpt lat="47.07946" lon="4.89781">
        <ele>227.25918774414</ele>
        <time>2017-08-09T22:00:52Z</time>
      </trkpt>
      <trkpt lat="47.07978" lon="4.89851">
        <ele>228.49818774414</ele>
        <time>2017-08-09T22:01:07Z</time>
      </trkpt>
      <trkpt lat="47.08066" lon="4.90079">
        <ele>231.84018774414</ele>
        <time>2017-08-09T22:01:52Z</time>
      </trkpt>
      <trkpt lat="47.08092" lon="4.90155">
        <ele>232.54818774414</ele>
        <time>2017-08-09T22:02:05Z</time>
      </trkpt>
      <trkpt lat="47.08212" lon="4.9041">
        <ele>233.44418774414</ele>
        <time>2017-08-09T22:02:46Z</time>
      </trkpt>
      <trkpt lat="47.08258" lon="4.90501">
        <ele>233.34818774414</ele>
        <time>2017-08-09T22:03:00Z</time>
      </trkpt>
      <trkpt lat="47.08306" lon="4.90578">
        <ele>233.23018774414</ele>
        <time>2017-08-09T22:03:12Z</time>
      </trkpt>
      <trkpt lat="47.08328" lon="4.90605">
        <ele>233.18018774414</ele>
        <time>2017-08-09T22:03:17Z</time>
      </trkpt>
      <trkpt lat="47.08365" lon="4.9064">
        <ele>233.18418774414</ele>
        <time>2017-08-09T22:03:25Z</time>
      </trkpt>
      <trkpt lat="47.08373" lon="4.90643">
        <ele>233.18518774414</ele>
        <time>2017-08-09T22:03:27Z</time>
      </trkpt>
      <trkpt lat="47.08385" lon="4.90649">
        <ele>233.23118774414</ele>
        <time>2017-08-09T22:03:29Z</time>
      </trkpt>
      <trkpt lat="47.08462" lon="4.907">
        <ele>233.52718774414</ele>
        <time>2017-08-09T22:03:46Z</time>
      </trkpt>
      <trkpt lat="47.08488" lon="4.9072">
        <ele>233.68318774414</ele>
        <time>2017-08-09T22:03:52Z</time>
      </trkpt>
      <trkpt lat="47.08544" lon="4.90765">
        <ele>234.01118774414</ele>
        <time>2017-08-09T22:04:05Z</time>
      </trkpt>
      <trkpt lat="47.08579" lon="4.90804">
        <ele>234.09018774414</ele>
        <time>2017-08-09T22:04:14Z</time>
      </trkpt>
      <trkpt lat="47.08586" lon="4.90815">
        <ele>234.09518774414</ele>
        <time>2017-08-09T22:04:16Z</time>
      </trkpt>
      <trkpt lat="47.08628" lon="4.90883">
        <ele>234.06518774414</ele>
        <time>2017-08-09T22:04:27Z</time>
      </trkpt>
      <trkpt lat="47.0867" lon="4.90962">
        <ele>233.74618774414</ele>
        <time>2017-08-09T22:04:39Z</time>
      </trkpt>
      <trkpt lat="47.0871" lon="4.91054">
        <ele>233.24418774414</ele>
        <time>2017-08-09T22:04:52Z</time>
      </trkpt>
      <trkpt lat="47.08769" lon="4.91144">
        <ele>232.48818774414</ele>
        <time>2017-08-09T22:05:06Z</time>
      </trkpt>
      <trkpt lat="47.08834" lon="4.91224">
        <ele>232.00218774414</ele>
        <time>2017-08-09T22:05:21Z</time>
      </trkpt>
      <trkpt lat="47.08845" lon="4.91235">
        <ele>231.86918774414</ele>
        <time>2017-08-09T22:05:23Z</time>
      </trkpt>
      <trkpt lat="47.08869" lon="4.9125">
        <ele>231.77018774414</ele>
        <time>2017-08-09T22:05:28Z</time>
      </trkpt>
      <trkpt lat="47.08919" lon="4.91269">
        <ele>231.56518774414</ele>
        <time>2017-08-09T22:05:37Z</time>
      </trkpt>
      <trkpt lat="47.08964" lon="4.91301">
        <ele>231.51718774414</ele>
        <time>2017-08-09T22:05:46Z</time>
      </trkpt>
      <trkpt lat="47.09019" lon="4.91327">
        <ele>231.52318774414</ele>
        <time>2017-08-09T22:05:57Z</time>
      </trkpt>
      <trkpt lat="47.09016" lon="4.91333">
        <ele>231.54718774414</ele>
        <time>2017-08-09T22:05:58Z</time>
      </trkpt>
      <trkpt lat="47.09049" lon="4.91348">
        <ele>231.64118774414</ele>
        <time>2017-08-09T22:06:04Z</time>
      </trkpt>
      <trkpt lat="47.091" lon="4.91366">
        <ele>231.83018774414</ele>
        <time>2017-08-09T22:06:15Z</time>
      </trkpt>
      <trkpt lat="47.09147" lon="4.91397">
        <ele>232.14318774414</ele>
        <time>2017-08-09T22:06:26Z</time>
      </trkpt>
      <trkpt lat="47.09232" lon="4.91467">
        <ele>232.68418774414</ele>
        <time>2017-08-09T22:06:46Z</time>
      </trkpt>
      <trkpt lat="47.09236" lon="4.91472">
        <ele>232.74818774414</ele>
        <time>2017-08-09T22:06:47Z</time>
      </trkpt>
      <trkpt lat="47.09244" lon="4.91483">
        <ele>232.78518774414</ele>
        <time>2017-08-09T22:06:49Z</time>
      </trkpt>
      <trkpt lat="47.0929" lon="4.91593">
        <ele>233.09018774414</ele>
        <time>2017-08-09T22:07:07Z</time>
      </trkpt>
      <trkpt lat="47.0931" lon="4.91625">
        <ele>233.17218774414</ele>
        <time>2017-08-09T22:07:13Z</time>
      </trkpt>
      <trkpt lat="47.09473" lon="4.91828">
        <ele>232.34118774414</ele>
        <time>2017-08-09T22:07:50Z</time>
      </trkpt>
      <trkpt lat="47.09518" lon="4.91891">
        <ele>231.78418774414</ele>
        <time>2017-08-09T22:08:01Z</time>
      </trkpt>
      <trkpt lat="47.09547" lon="4.91934">
        <ele>231.40418774414</ele>
        <time>2017-08-09T22:08:08Z</time>
      </trkpt>
      <trkpt lat="47.09567" lon="4.91959">
        <ele>231.16518774414</ele>
        <time>2017-08-09T22:08:12Z</time>
      </trkpt>
      <trkpt lat="47.09621" lon="4.91999">
        <ele>230.62718774414</ele>
        <time>2017-08-09T22:08:22Z</time>
      </trkpt>
      <trkpt lat="47.0969" lon="4.92041">
        <ele>230.21518774414</ele>
        <time>2017-08-09T22:08:35Z</time>
      </trkpt>
      <trkpt lat="47.09787" lon="4.92107">
        <ele>229.81518774414</ele>
        <time>2017-08-09T22:08:54Z</time>
      </trkpt>
      <trkpt lat="47.09877" lon="4.92168">
        <ele>229.58518774414</ele>
        <time>2017-08-09T22:09:12Z</time>
      </trkpt>
      <trkpt lat="47.09912" lon="4.92197">
        <ele>229.60218774414</ele>
        <time>2017-08-09T22:09:20Z</time>
      </trkpt>
      <trkpt lat="47.09912" lon="4.92203">
        <ele>229.61018774414</ele>
        <time>2017-08-09T22:09:21Z</time>
      </trkpt>
      <trkpt lat="47.09912" lon="4.92207">
        <ele>229.59318774414</ele>
        <time>2017-08-09T22:09:21Z</time>
      </trkpt>
      <trkpt lat="47.09947" lon="4.92204">
        <ele>229.68618774414</ele>
        <time>2017-08-09T22:09:27Z</time>
      </trkpt>
      <trkpt lat="47.09985" lon="4.92196">
        <ele>229.88518774414</ele>
        <time>2017-08-09T22:09:35Z</time>
      </trkpt>
      <trkpt lat="47.10017" lon="4.92133">
        <ele>230.44318774414</ele>
        <time>2017-08-09T22:09:47Z</time>
      </trkpt>
      <trkpt lat="47.10047" lon="4.92082">
        <ele>231.19618774414</ele>
        <time>2017-08-09T22:09:58Z</time>
      </trkpt>
      <trkpt lat="47.10073" lon="4.92079">
        <ele>231.74118774414</ele>
        <time>2017-08-09T22:10:05Z</time>
      </trkpt>
      <trkpt lat="47.10098" lon="4.92096">
        <ele>232.37118774414</ele>
        <time>2017-08-09T22:10:12Z</time>
      </trkpt>
      <trkpt lat="47.10124" lon="4.92095">
        <ele>232.96318774414</ele>
        <time>2017-08-09T22:10:19Z</time>
      </trkpt>
      <trkpt lat="47.10164" lon="4.92099">
        <ele>233.99918774414</ele>
        <time>2017-08-09T22:10:31Z</time>
      </trkpt>
      <trkpt lat="47.10224" lon="4.92098">
        <ele>235.75618774414</ele>
        <time>2017-08-09T22:10:48Z</time>
      </trkpt>
      <trkpt lat="47.10255" lon="4.92116">
        <ele>236.74918774414</ele>
        <time>2017-08-09T22:10:58Z</time>
      </trkpt>
      <trkpt lat="47.10284" lon="4.9215">
        <ele>237.89418774414</ele>
        <time>2017-08-09T22:11:09Z</time>
      </trkpt>
      <trkpt lat="47.10304" lon="4.92168">
        <ele>238.54518774414</ele>
        <time>2017-08-09T22:11:16Z</time>
      </trkpt>
      <trkpt lat="47.10322" lon="4.92178">
        <ele>239.16918774414</ele>
        <time>2017-08-09T22:11:22Z</time>
      </trkpt>
      <trkpt lat="47.10355" lon="4.92196">
        <ele>240.09818774414</ele>
        <time>2017-08-09T22:11:32Z</time>
      </trkpt>
      <trkpt lat="47.10373" lon="4.92203">
        <ele>240.49418774414</ele>
        <time>2017-08-09T22:11:37Z</time>
      </trkpt>
      <trkpt lat="47.10416" lon="4.922">
        <ele>241.47518774414</ele>
        <time>2017-08-09T22:11:49Z</time>
      </trkpt>
      <trkpt lat="47.10421" lon="4.922">
        <ele>241.67418774414</ele>
        <time>2017-08-09T22:11:50Z</time>
      </trkpt>
      <trkpt lat="47.10426" lon="4.92199">
        <ele>241.81818774414</ele>
        <time>2017-08-09T22:11:52Z</time>
      </trkpt>
      <trkpt lat="47.10636" lon="4.92178">
        <ele>245.57018774414</ele>
        <time>2017-08-09T22:12:46Z</time>
      </trkpt>
      <trkpt lat="47.10657" lon="4.92185">
        <ele>245.96918774414</ele>
        <time>2017-08-09T22:12:51Z</time>
      </trkpt>
      <trkpt lat="47.10744" lon="4.92257">
        <ele>247.80018774414</ele>
        <time>2017-08-09T22:13:17Z</time>
      </trkpt>
      <trkpt lat="47.10774" lon="4.92272">
        <ele>248.36018774414</ele>
        <time>2017-08-09T22:13:25Z</time>
      </trkpt>
      <trkpt lat="47.10803" lon="4.92304">
        <ele>248.95218774414</ele>
        <time>2017-08-09T22:13:34Z</time>
      </trkpt>
      <trkpt lat="47.1084" lon="4.92365">
        <ele>249.90318774414</ele>
        <time>2017-08-09T22:13:49Z</time>
      </trkpt>
      <trkpt lat="47.10873" lon="4.92431">
        <ele>250.80918774414</ele>
        <time>2017-08-09T22:14:03Z</time>
      </trkpt>
      <trkpt lat="47.10907" lon="4.9248">
        <ele>251.37518774414</ele>
        <time>2017-08-09T22:14:13Z</time>
      </trkpt>
      <trkpt lat="47.10929" lon="4.92505">
        <ele>251.36218774414</ele>
        <time>2017-08-09T22:14:19Z</time>
      </trkpt>
      <trkpt lat="47.10935" lon="4.92512">
        <ele>251.45118774414</ele>
        <time>2017-08-09T22:14:21Z</time>
      </trkpt>
      <trkpt lat="47.10976" lon="4.92565">
        <ele>251.01418774414</ele>
        <time>2017-08-09T22:14:30Z</time>
      </trkpt>
      <trkpt lat="47.1099" lon="4.92582">
        <ele>250.85418774414</ele>
        <time>2017-08-09T22:14:33Z</time>
      </trkpt>
      <trkpt lat="47.11008" lon="4.92603">
        <ele>250.33218774414</ele>
        <time>2017-08-09T22:14:36Z</time>
      </trkpt>
      <trkpt lat="47.11083" lon="4.92707">
        <ele>246.70018774414</ele>
        <time>2017-08-09T22:14:51Z</time>
      </trkpt>
      <trkpt lat="47.11125" lon="4.92831">
        <ele>241.33518774414</ele>
        <time>2017-08-09T22:15:03Z</time>
      </trkpt>
      <trkpt lat="47.11179" lon="4.92939">
        <ele>240.37118774414</ele>
        <time>2017-08-09T22:15:18Z</time>
      </trkpt>
      <trkpt lat="47.11181" lon="4.92964">
        <ele>239.91218774414</ele>
        <time>2017-08-09T22:15:21Z</time>
      </trkpt>
      <trkpt lat="47.11193" lon="4.92967">
        <ele>240.27618774414</ele>
        <time>2017-08-09T22:15:25Z</time>
      </trkpt>
      <trkpt lat="47.11229" lon="4.92975">
        <ele>240.96118774414</ele>
        <time>2017-08-09T22:15:34Z</time>
      </trkpt>
      <trkpt lat="47.11234" lon="4.92976">
        <ele>241.36918774414</ele>
        <time>2017-08-09T22:15:37Z</time>
      </trkpt>
      <trkpt lat="47.1127" lon="4.92978">
        <ele>242.64918774414</ele>
        <time>2017-08-09T22:15:48Z</time>
      </trkpt>
      <trkpt lat="47.11284" lon="4.92982">
        <ele>242.89518774414</ele>
        <time>2017-08-09T22:15:52Z</time>
      </trkpt>
      <trkpt lat="47.11307" lon="4.92998">
        <ele>244.51918774414</ele>
        <time>2017-08-09T22:16:03Z</time>
      </trkpt>
      <trkpt lat="47.11344" lon="4.93034">
        <ele>247.30518774414</ele>
        <time>2017-08-09T22:16:23Z</time>
      </trkpt>
      <trkpt lat="47.11422" lon="4.93094">
        <ele>252.79718774414</ele>
        <time>2017-08-09T22:17:01Z</time>
      </trkpt>
      <trkpt lat="47.11477" lon="4.93113">
        <ele>254.90818774414</ele>
        <time>2017-08-09T22:17:20Z</time>
      </trkpt>
      <trkpt lat="47.11511" lon="4.93118">
        <ele>256.00518774414</ele>
        <time>2017-08-09T22:17:31Z</time>
      </trkpt>
      <trkpt lat="47.11541" lon="4.93153">
        <ele>256.89918774414</ele>
        <time>2017-08-09T22:17:43Z</time>
      </trkpt>
      <trkpt lat="47.1157" lon="4.932">
        <ele>257.65318774414</ele>
        <time>2017-08-09T22:17:56Z</time>
      </trkpt>
      <trkpt lat="47.11581" lon="4.93212">
        <ele>257.84818774414</ele>
        <time>2017-08-09T22:18:00Z</time>
      </trkpt>
      <trkpt lat="47.11671" lon="4.93287">
        <ele>258.69718774414</ele>
        <time>2017-08-09T22:18:28Z</time>
      </trkpt>
      <trkpt lat="47.11687" lon="4.93294">
        <ele>258.90818774414</ele>
        <time>2017-08-09T22:18:33Z</time>
      </trkpt>
      <trkpt lat="47.11709" lon="4.93292">
        <ele>259.13718774414</ele>
        <time>2017-08-09T22:18:39Z</time>
      </trkpt>
      <trkpt lat="47.11755" lon="4.93277">
        <ele>259.65018774414</ele>
        <time>2017-08-09T22:18:52Z</time>
      </trkpt>
      <trkpt lat="47.11781" lon="4.9329">
        <ele>259.83418774414</ele>
        <time>2017-08-09T22:18:59Z</time>
      </trkpt>
      <trkpt lat="47.11798" lon="4.93303">
        <ele>260.02118774414</ele>
        <time>2017-08-09T22:19:04Z</time>
      </trkpt>
      <trkpt lat="47.11812" lon="4.93312">
        <ele>260.02918774414</ele>
        <time>2017-08-09T22:19:08Z</time>
      </trkpt>
      <trkpt lat="47.11859" lon="4.93354">
        <ele>260.16818774414</ele>
        <time>2017-08-09T22:19:21Z</time>
      </trkpt>
      <trkpt lat="47.1195" lon="4.93494">
        <ele>258.31918774414</ele>
        <time>2017-08-09T22:19:49Z</time>
      </trkpt>
      <trkpt lat="47.12032" lon="4.93555">
        <ele>256.13518774414</ele>
        <time>2017-08-09T22:20:07Z</time>
      </trkpt>
      <trkpt lat="47.12111" lon="4.93589">
        <ele>254.50318774414</ele>
        <time>2017-08-09T22:20:23Z</time>
      </trkpt>
      <trkpt lat="47.12153" lon="4.93597">
        <ele>253.86518774414</ele>
        <time>2017-08-09T22:20:32Z</time>
      </trkpt>
      <trkpt lat="47.12201" lon="4.93619">
        <ele>253.31518774414</ele>
        <time>2017-08-09T22:20:43Z</time>
      </trkpt>
      <trkpt lat="47.12228" lon="4.93619">
        <ele>253.11918774414</ele>
        <time>2017-08-09T22:20:48Z</time>
      </trkpt>
      <trkpt lat="47.12265" lon="4.93637">
        <ele>252.93218774414</ele>
        <time>2017-08-09T22:20:57Z</time>
      </trkpt>
      <trkpt lat="47.12356" lon="4.93668">
        <ele>252.86818774414</ele>
        <time>2017-08-09T22:21:19Z</time>
      </trkpt>
      <trkpt lat="47.12374" lon="4.93678">
        <ele>252.90218774414</ele>
        <time>2017-08-09T22:21:24Z</time>
      </trkpt>
      <trkpt lat="47.12393" lon="4.93702">
        <ele>252.99118774414</ele>
        <time>2017-08-09T22:21:30Z</time>
      </trkpt>
      <trkpt lat="47.12418" lon="4.93732">
        <ele>253.01618774414</ele>
        <time>2017-08-09T22:21:37Z</time>
      </trkpt>
      <trkpt lat="47.1244" lon="4.93773">
        <ele>252.86318774414</ele>
        <time>2017-08-09T22:21:45Z</time>
      </trkpt>
      <trkpt lat="47.12455" lon="4.93787">
        <ele>252.75918774414</ele>
        <time>2017-08-09T22:21:49Z</time>
      </trkpt>
      <trkpt lat="47.12491" lon="4.93803">
        <ele>252.40418774414</ele>
        <time>2017-08-09T22:21:58Z</time>
      </trkpt>
      <trkpt lat="47.12522" lon="4.93822">
        <ele>251.95418774414</ele>
        <time>2017-08-09T22:22:04Z</time>
      </trkpt>
      <trkpt lat="47.12484" lon="4.93903">
        <ele>250.36618774414</ele>
        <time>2017-08-09T22:22:15Z</time>
      </trkpt>
      <trkpt lat="47.1246" lon="4.93994">
        <ele>248.41918774414</ele>
        <time>2017-08-09T22:22:24Z</time>
      </trkpt>
      <trkpt lat="47.1245" lon="4.94039">
        <ele>247.32618774414</ele>
        <time>2017-08-09T22:22:29Z</time>
      </trkpt>
      <trkpt lat="47.12483" lon="4.94057">
        <ele>246.17618774414</ele>
        <time>2017-08-09T22:22:34Z</time>
      </trkpt>
      <trkpt lat="47.12549" lon="4.94087">
        <ele>244.15418774414</ele>
        <time>2017-08-09T22:22:44Z</time>
      </trkpt>
      <trkpt lat="47.12568" lon="4.94101">
        <ele>243.58718774414</ele>
        <time>2017-08-09T22:22:47Z</time>
      </trkpt>
      <trkpt lat="47.12607" lon="4.94157">
        <ele>242.33218774414</ele>
        <time>2017-08-09T22:22:55Z</time>
      </trkpt>
      <trkpt lat="47.12623" lon="4.94166">
        <ele>242.09018774414</ele>
        <time>2017-08-09T22:22:58Z</time>
      </trkpt>
      <trkpt lat="47.12689" lon="4.94207">
        <ele>241.16918774414</ele>
        <time>2017-08-09T22:23:10Z</time>
      </trkpt>
      <trkpt lat="47.1271" lon="4.9421">
        <ele>240.95418774414</ele>
        <time>2017-08-09T22:23:13Z</time>
      </trkpt>
      <trkpt lat="47.12761" lon="4.94237">
        <ele>240.62318774414</ele>
        <time>2017-08-09T22:23:22Z</time>
      </trkpt>
      <trkpt lat="47.12819" lon="4.94251">
        <ele>240.45218774414</ele>
        <time>2017-08-09T22:23:33Z</time>
      </trkpt>
      <trkpt lat="47.12848" lon="4.94269">
        <ele>240.46618774414</ele>
        <time>2017-08-09T22:23:39Z</time>
      </trkpt>
      <trkpt lat="47.12877" lon="4.9428">
        <ele>240.55318774414</ele>
        <time>2017-08-09T22:23:45Z</time>
      </trkpt>
      <trkpt lat="47.12898" lon="4.94293">
        <ele>240.61418774414</ele>
        <time>2017-08-09T22:23:49Z</time>
      </trkpt>
      <trkpt lat="47.12938" lon="4.94325">
        <ele>240.74218774414</ele>
        <time>2017-08-09T22:23:58Z</time>
      </trkpt>
      <trkpt lat="47.12961" lon="4.9435">
        <ele>240.81918774414</ele>
        <time>2017-08-09T22:24:04Z</time>
      </trkpt>
      <trkpt lat="47.12964" lon="4.94351">
        <ele>240.83418774414</ele>
        <time>2017-08-09T22:24:04Z</time>
      </trkpt>
      <trkpt lat="47.13004" lon="4.94365">
        <ele>240.95618774414</ele>
        <time>2017-08-09T22:24:13Z</time>
      </trkpt>
      <trkpt lat="47.13014" lon="4.94367">
        <ele>240.98018774414</ele>
        <time>2017-08-09T22:24:14Z</time>
      </trkpt>
      <trkpt lat="47.13057" lon="4.94375">
        <ele>241.06918774414</ele>
        <time>2017-08-09T22:24:23Z</time>
      </trkpt>
      <trkpt lat="47.13121" lon="4.94368">
        <ele>241.24418774414</ele>
        <time>2017-08-09T22:24:35Z</time>
      </trkpt>
      <trkpt lat="47.13145" lon="4.94372">
        <ele>241.32918774414</ele>
        <time>2017-08-09T22:24:40Z</time>
      </trkpt>
      <trkpt lat="47.13191" lon="4.94383">
        <ele>241.53218774414</ele>
        <time>2017-08-09T22:24:50Z</time>
      </trkpt>
      <trkpt lat="47.13261" lon="4.94418">
        <ele>241.91818774414</ele>
        <time>2017-08-09T22:25:05Z</time>
      </trkpt>
      <trkpt lat="47.13275" lon="4.9442">
        <ele>241.99918774414</ele>
        <time>2017-08-09T22:25:08Z</time>
      </trkpt>
      <trkpt lat="47.13339" lon="4.94405">
        <ele>242.39218774414</ele>
        <time>2017-08-09T22:25:22Z</time>
      </trkpt>
      <trkpt lat="47.13383" lon="4.94407">
        <ele>242.63218774414</ele>
        <time>2017-08-09T22:25:30Z</time>
      </trkpt>
      <trkpt lat="47.13425" lon="4.94399">
        <ele>242.80918774414</ele>
        <time>2017-08-09T22:25:39Z</time>
      </trkpt>
      <trkpt lat="47.13453" lon="4.944">
        <ele>242.87218774414</ele>
        <time>2017-08-09T22:25:44Z</time>
      </trkpt>
      <trkpt lat="47.1348" lon="4.94411">
        <ele>242.93418774414</ele>
        <time>2017-08-09T22:25:50Z</time>
      </trkpt>
      <trkpt lat="47.13512" lon="4.94435">
        <ele>242.95718774414</ele>
        <time>2017-08-09T22:25:57Z</time>
      </trkpt>
      <trkpt lat="47.1353" lon="4.94437">
        <ele>242.94718774414</ele>
        <time>2017-08-09T22:26:00Z</time>
      </trkpt>
      <trkpt lat="47.13571" lon="4.94434">
        <ele>242.92218774414</ele>
        <time>2017-08-09T22:26:08Z</time>
      </trkpt>
      <trkpt lat="47.13572" lon="4.94473">
        <ele>242.86318774414</ele>
        <time>2017-08-09T22:26:12Z</time>
      </trkpt>
      <trkpt lat="47.13588" lon="4.9447">
        <ele>242.79718774414</ele>
        <time>2017-08-09T22:26:15Z</time>
      </trkpt>
      <trkpt lat="47.13662" lon="4.94462">
        <ele>242.38818774414</ele>
        <time>2017-08-09T22:26:28Z</time>
      </trkpt>
      <trkpt lat="47.1371" lon="4.94402">
        <ele>242.16618774414</ele>
        <time>2017-08-09T22:26:39Z</time>
      </trkpt>
      <trkpt lat="47.13721" lon="4.94397">
        <ele>242.08418774414</ele>
        <time>2017-08-09T22:26:41Z</time>
      </trkpt>
      <trkpt lat="47.13745" lon="4.94386">
        <ele>242.06018774414</ele>
        <time>2017-08-09T22:26:46Z</time>
      </trkpt>
      <trkpt lat="47.13801" lon="4.94349">
        <ele>241.97918774414</ele>
        <time>2017-08-09T22:26:57Z</time>
      </trkpt>
      <trkpt lat="47.13841" lon="4.94306">
        <ele>241.90618774414</ele>
        <time>2017-08-09T22:27:06Z</time>
      </trkpt>
      <trkpt lat="47.1387" lon="4.9429">
        <ele>241.91018774414</ele>
        <time>2017-08-09T22:27:12Z</time>
      </trkpt>
      <trkpt lat="47.13894" lon="4.94272">
        <ele>241.99918774414</ele>
        <time>2017-08-09T22:27:17Z</time>
      </trkpt>
      <trkpt lat="47.13904" lon="4.943">
        <ele>241.96418774414</ele>
        <time>2017-08-09T22:27:21Z</time>
      </trkpt>
      <trkpt lat="47.13922" lon="4.94286">
        <ele>241.93418774414</ele>
        <time>2017-08-09T22:27:25Z</time>
      </trkpt>
      <trkpt lat="47.13926" lon="4.94285">
        <ele>241.92118774414</ele>
        <time>2017-08-09T22:27:25Z</time>
      </trkpt>
      <trkpt lat="47.13932" lon="4.94284">
        <ele>241.91518774414</ele>
        <time>2017-08-09T22:27:26Z</time>
      </trkpt>
      <trkpt lat="47.1401" lon="4.94309">
        <ele>241.87118774414</ele>
        <time>2017-08-09T22:27:41Z</time>
      </trkpt>
      <trkpt lat="47.14017" lon="4.94318">
        <ele>241.89518774414</ele>
        <time>2017-08-09T22:27:43Z</time>
      </trkpt>
      <trkpt lat="47.14023" lon="4.94339">
        <ele>241.85518774414</ele>
        <time>2017-08-09T22:27:46Z</time>
      </trkpt>
      <trkpt lat="47.14026" lon="4.94359">
        <ele>241.87518774414</ele>
        <time>2017-08-09T22:27:49Z</time>
      </trkpt>
      <trkpt lat="47.14026" lon="4.94368">
        <ele>241.86518774414</ele>
        <time>2017-08-09T22:27:50Z</time>
      </trkpt>
      <trkpt lat="47.14026" lon="4.94374">
        <ele>241.86518774414</ele>
        <time>2017-08-09T22:27:50Z</time>
      </trkpt>
      <trkpt lat="47.14028" lon="4.9439">
        <ele>241.88918774414</ele>
        <time>2017-08-09T22:27:52Z</time>
      </trkpt>
      <trkpt lat="47.14029" lon="4.94408">
        <ele>241.94918774414</ele>
        <time>2017-08-09T22:27:55Z</time>
      </trkpt>
      <trkpt lat="47.14041" lon="4.94415">
        <ele>241.95818774414</ele>
        <time>2017-08-09T22:27:57Z</time>
      </trkpt>
      <trkpt lat="47.14054" lon="4.94417">
        <ele>241.98018774414</ele>
        <time>2017-08-09T22:28:00Z</time>
      </trkpt>
      <trkpt lat="47.14086" lon="4.94406">
        <ele>242.06118774414</ele>
        <time>2017-08-09T22:28:06Z</time>
      </trkpt>
      <trkpt lat="47.14131" lon="4.94445">
        <ele>242.25018774414</ele>
        <time>2017-08-09T22:28:17Z</time>
      </trkpt>
      <trkpt lat="47.14167" lon="4.94469">
        <ele>242.43618774414</ele>
        <time>2017-08-09T22:28:25Z</time>
      </trkpt>
      <trkpt lat="47.14227" lon="4.94512">
        <ele>242.93218774414</ele>
        <time>2017-08-09T22:28:39Z</time>
      </trkpt>
      <trkpt lat="47.1424" lon="4.94487">
        <ele>243.13918774414</ele>
        <time>2017-08-09T22:28:44Z</time>
      </trkpt>
      <trkpt lat="47.14253" lon="4.94468">
        <ele>243.30918774414</ele>
        <time>2017-08-09T22:28:48Z</time>
      </trkpt>
      <trkpt lat="47.14263" lon="4.94444">
        <ele>243.48118774414</ele>
        <time>2017-08-09T22:28:52Z</time>
      </trkpt>
      <trkpt lat="47.14282" lon="4.94411">
        <ele>243.69018774414</ele>
        <time>2017-08-09T22:28:58Z</time>
      </trkpt>
      <trkpt lat="47.14297" lon="4.94405">
        <ele>243.77818774414</ele>
        <time>2017-08-09T22:29:01Z</time>
      </trkpt>
      <trkpt lat="47.14361" lon="4.94386">
        <ele>244.06318774414</ele>
        <time>2017-08-09T22:29:14Z</time>
      </trkpt>
      <trkpt lat="47.144" lon="4.94373">
        <ele>244.14118774414</ele>
        <time>2017-08-09T22:29:21Z</time>
      </trkpt>
      <trkpt lat="47.1448" lon="4.94347">
        <ele>244.53518774414</ele>
        <time>2017-08-09T22:29:38Z</time>
      </trkpt>
      <trkpt lat="47.14522" lon="4.94333">
        <ele>244.88018774414</ele>
        <time>2017-08-09T22:29:47Z</time>
      </trkpt>
      <trkpt lat="47.14562" lon="4.94374">
        <ele>245.35518774414</ele>
        <time>2017-08-09T22:29:58Z</time>
      </trkpt>
      <trkpt lat="47.14609" lon="4.94423">
        <ele>246.04518774414</ele>
        <time>2017-08-09T22:30:11Z</time>
      </trkpt>
      <trkpt lat="47.14648" lon="4.94472">
        <ele>246.76918774414</ele>
        <time>2017-08-09T22:30:23Z</time>
      </trkpt>
      <trkpt lat="47.14656" lon="4.9448">
        <ele>246.96818774414</ele>
        <time>2017-08-09T22:30:26Z</time>
      </trkpt>
      <trkpt lat="47.1473" lon="4.94534">
        <ele>248.44718774414</ele>
        <time>2017-08-09T22:30:47Z</time>
      </trkpt>
      <trkpt lat="47.14778" lon="4.94584">
        <ele>249.28818774414</ele>
        <time>2017-08-09T22:31:01Z</time>
      </trkpt>
      <trkpt lat="47.14827" lon="4.94616">
        <ele>249.84118774414</ele>
        <time>2017-08-09T22:31:14Z</time>
      </trkpt>
      <trkpt lat="47.1492" lon="4.94716">
        <ele>250.85518774414</ele>
        <time>2017-08-09T22:31:39Z</time>
      </trkpt>
      <trkpt lat="47.14966" lon="4.94757">
        <ele>251.15118774414</ele>
        <time>2017-08-09T22:31:50Z</time>
      </trkpt>
      <trkpt lat="47.14997" lon="4.94794">
        <ele>251.17018774414</ele>
        <time>2017-08-09T22:31:58Z</time>
      </trkpt>
      <trkpt lat="47.15021" lon="4.94812">
        <ele>251.05918774414</ele>
        <time>2017-08-09T22:32:02Z</time>
      </trkpt>
      <trkpt lat="47.15095" lon="4.94847">
        <ele>250.42218774414</ele>
        <time>2017-08-09T22:32:16Z</time>
      </trkpt>
      <trkpt lat="47.1513" lon="4.94865">
        <ele>249.92818774414</ele>
        <time>2017-08-09T22:32:22Z</time>
      </trkpt>
      <trkpt lat="47.15154" lon="4.9488">
        <ele>249.51418774414</ele>
        <time>2017-08-09T22:32:26Z</time>
      </trkpt>
      <trkpt lat="47.15184" lon="4.94893">
        <ele>248.96618774414</ele>
        <time>2017-08-09T22:32:31Z</time>
      </trkpt>
      <trkpt lat="47.15246" lon="4.94895">
        <ele>247.78518774414</ele>
        <time>2017-08-09T22:32:40Z</time>
      </trkpt>
      <trkpt lat="47.15324" lon="4.94939">
        <ele>246.34218774414</ele>
        <time>2017-08-09T22:32:53Z</time>
      </trkpt>
      <trkpt lat="47.15399" lon="4.94969">
        <ele>245.56418774414</ele>
        <time>2017-08-09T22:33:06Z</time>
      </trkpt>
      <trkpt lat="47.15421" lon="4.94974">
        <ele>245.46318774414</ele>
        <time>2017-08-09T22:33:10Z</time>
      </trkpt>
      <trkpt lat="47.15481" lon="4.9497">
        <ele>245.48818774414</ele>
        <time>2017-08-09T22:33:21Z</time>
      </trkpt>
      <trkpt lat="47.155" lon="4.94975">
        <ele>245.59318774414</ele>
        <time>2017-08-09T22:33:25Z</time>
      </trkpt>
      <trkpt lat="47.15586" lon="4.95007">
        <ele>246.47918774414</ele>
        <time>2017-08-09T22:33:46Z</time>
      </trkpt>
      <trkpt lat="47.15682" lon="4.95063">
        <ele>247.64818774414</ele>
        <time>2017-08-09T22:34:09Z</time>
      </trkpt>
      <trkpt lat="47.1578" lon="4.951">
        <ele>248.00818774414</ele>
        <time>2017-08-09T22:34:29Z</time>
      </trkpt>
      <trkpt lat="47.15836" lon="4.95112">
        <ele>247.54218774414</ele>
        <time>2017-08-09T22:34:39Z</time>
      </trkpt>
      <trkpt lat="47.15849" lon="4.95118">
        <ele>247.35618774414</ele>
        <time>2017-08-09T22:34:41Z</time>
      </trkpt>
      <trkpt lat="47.15861" lon="4.95132">
        <ele>247.27118774414</ele>
        <time>2017-08-09T22:34:44Z</time>
      </trkpt>
      <trkpt lat="47.15892" lon="4.95197">
        <ele>246.65018774414</ele>
        <time>2017-08-09T22:34:53Z</time>
      </trkpt>
      <trkpt lat="47.15909" lon="4.95218">
        <ele>246.65718774414</ele>
        <time>2017-08-09T22:34:57Z</time>
      </trkpt>
      <trkpt lat="47.15918" lon="4.95223">
        <ele>246.52018774414</ele>
        <time>2017-08-09T22:34:58Z</time>
      </trkpt>
      <trkpt lat="47.15966" lon="4.95231">
        <ele>246.70218774414</ele>
        <time>2017-08-09T22:35:08Z</time>
      </trkpt>
      <trkpt lat="47.16013" lon="4.95244">
        <ele>247.16418774414</ele>
        <time>2017-08-09T22:35:19Z</time>
      </trkpt>
      <trkpt lat="47.16036" lon="4.95256">
        <ele>247.65418774414</ele>
        <time>2017-08-09T22:35:25Z</time>
      </trkpt>
      <trkpt lat="47.16046" lon="4.95204">
        <ele>248.57618774414</ele>
        <time>2017-08-09T22:35:36Z</time>
      </trkpt>
      <trkpt lat="47.16054" lon="4.9518">
        <ele>249.12818774414</ele>
        <time>2017-08-09T22:35:41Z</time>
      </trkpt>
      <trkpt lat="47.16073" lon="4.95152">
        <ele>249.96818774414</ele>
        <time>2017-08-09T22:35:50Z</time>
      </trkpt>
      <trkpt lat="47.16087" lon="4.95107">
        <ele>251.20718774414</ele>
        <time>2017-08-09T22:36:01Z</time>
      </trkpt>
      <trkpt lat="47.16095" lon="4.95071">
        <ele>252.24518774414</ele>
        <time>2017-08-09T22:36:10Z</time>
      </trkpt>
      <trkpt lat="47.16139" lon="4.95081">
        <ele>253.95818774414</ele>
        <time>2017-08-09T22:36:25Z</time>
      </trkpt>
      <trkpt lat="47.16166" lon="4.95087">
        <ele>254.88818774414</ele>
        <time>2017-08-09T22:36:34Z</time>
      </trkpt>
      <trkpt lat="47.16191" lon="4.95084">
        <ele>255.62618774414</ele>
        <time>2017-08-09T22:36:41Z</time>
      </trkpt>
      <trkpt lat="47.16206" lon="4.95078">
        <ele>256.10418774414</ele>
        <time>2017-08-09T22:36:46Z</time>
      </trkpt>
      <trkpt lat="47.16218" lon="4.95072">
        <ele>256.47718774414</ele>
        <time>2017-08-09T22:36:50Z</time>
      </trkpt>
      <trkpt lat="47.1624" lon="4.95068">
        <ele>257.10918774414</ele>
        <time>2017-08-09T22:36:57Z</time>
      </trkpt>
      <trkpt lat="47.16256" lon="4.95069">
        <ele>257.44518774414</ele>
        <time>2017-08-09T22:37:01Z</time>
      </trkpt>
      <trkpt lat="47.16285" lon="4.95076">
        <ele>257.98118774414</ele>
        <time>2017-08-09T22:37:09Z</time>
      </trkpt>
      <trkpt lat="47.16306" lon="4.95079">
        <ele>258.27518774414</ele>
        <time>2017-08-09T22:37:14Z</time>
      </trkpt>
      <trkpt lat="47.1635" lon="4.9507">
        <ele>258.77818774414</ele>
        <time>2017-08-09T22:37:24Z</time>
      </trkpt>
      <trkpt lat="47.16371" lon="4.95058">
        <ele>258.89418774414</ele>
        <time>2017-08-09T22:37:28Z</time>
      </trkpt>
      <trkpt lat="47.16393" lon="4.95023">
        <ele>258.92218774414</ele>
        <time>2017-08-09T22:37:35Z</time>
      </trkpt>
      <trkpt lat="47.16421" lon="4.95024">
        <ele>258.87518774414</ele>
        <time>2017-08-09T22:37:40Z</time>
      </trkpt>
      <trkpt lat="47.16442" lon="4.95027">
        <ele>258.86618774414</ele>
        <time>2017-08-09T22:37:43Z</time>
      </trkpt>
      <trkpt lat="47.16435" lon="4.95046">
        <ele>258.74618774414</ele>
        <time>2017-08-09T22:37:46Z</time>
      </trkpt>
      <trkpt lat="47.16427" lon="4.95091">
        <ele>258.64718774414</ele>
        <time>2017-08-09T22:37:51Z</time>
      </trkpt>
      <trkpt lat="47.1642" lon="4.95153">
        <ele>258.44918774414</ele>
        <time>2017-08-09T22:37:58Z</time>
      </trkpt>
      <trkpt lat="47.16453" lon="4.95157">
        <ele>258.29118774414</ele>
        <time>2017-08-09T22:38:04Z</time>
      </trkpt>
      <trkpt lat="47.16549" lon="4.95175">
        <ele>257.97218774414</ele>
        <time>2017-08-09T22:38:22Z</time>
      </trkpt>
      <trkpt lat="47.16575" lon="4.95174">
        <ele>257.97218774414</ele>
        <time>2017-08-09T22:38:26Z</time>
      </trkpt>
      <trkpt lat="47.16625" lon="4.95164">
        <ele>257.96218774414</ele>
        <time>2017-08-09T22:38:36Z</time>
      </trkpt>
      <trkpt lat="47.16719" lon="4.95171">
        <ele>257.52918774414</ele>
        <time>2017-08-09T22:38:52Z</time>
      </trkpt>
      <trkpt lat="47.16774" lon="4.95174">
        <ele>257.15218774414</ele>
        <time>2017-08-09T22:39:02Z</time>
      </trkpt>
      <trkpt lat="47.16801" lon="4.95178">
        <ele>256.94518774414</ele>
        <time>2017-08-09T22:39:06Z</time>
      </trkpt>
      <trkpt lat="47.16901" lon="4.95211">
        <ele>256.65918774414</ele>
        <time>2017-08-09T22:39:25Z</time>
      </trkpt>
      <trkpt lat="47.16934" lon="4.95226">
        <ele>256.74618774414</ele>
        <time>2017-08-09T22:39:31Z</time>
      </trkpt>
      <trkpt lat="47.16961" lon="4.95234">
        <ele>257.04418774414</ele>
        <time>2017-08-09T22:39:38Z</time>
      </trkpt>
      <trkpt lat="47.16992" lon="4.95243">
        <ele>257.44318774414</ele>
        <time>2017-08-09T22:39:45Z</time>
      </trkpt>
      <trkpt lat="47.1704" lon="4.95265">
        <ele>258.12718774414</ele>
        <time>2017-08-09T22:39:57Z</time>
      </trkpt>
      <trkpt lat="47.17068" lon="4.95271">
        <ele>258.57518774414</ele>
        <time>2017-08-09T22:40:04Z</time>
      </trkpt>
      <trkpt lat="47.1709" lon="4.9527">
        <ele>258.97918774414</ele>
        <time>2017-08-09T22:40:10Z</time>
      </trkpt>
      <trkpt lat="47.17107" lon="4.95268">
        <ele>259.27918774414</ele>
        <time>2017-08-09T22:40:14Z</time>
      </trkpt>
      <trkpt lat="47.17164" lon="4.95274">
        <ele>260.10818774414</ele>
        <time>2017-08-09T22:40:28Z</time>
      </trkpt>
      <trkpt lat="47.17244" lon="4.95294">
        <ele>260.72618774414</ele>
        <time>2017-08-09T22:40:46Z</time>
      </trkpt>
      <trkpt lat="47.17306" lon="4.95301">
        <ele>260.41818774414</ele>
        <time>2017-08-09T22:40:56Z</time>
      </trkpt>
      <trkpt lat="47.1732" lon="4.95307">
        <ele>260.39118774414</ele>
        <time>2017-08-09T22:40:59Z</time>
      </trkpt>
      <trkpt lat="47.1733" lon="4.95313">
        <ele>260.33418774414</ele>
        <time>2017-08-09T22:41:01Z</time>
      </trkpt>
      <trkpt lat="47.17338" lon="4.95318">
        <ele>260.04518774414</ele>
        <time>2017-08-09T22:41:02Z</time>
      </trkpt>
      <trkpt lat="47.17367" lon="4.95332">
        <ele>259.72618774414</ele>
        <time>2017-08-09T22:41:07Z</time>
      </trkpt>
      <trkpt lat="47.1739" lon="4.95352">
        <ele>259.35918774414</ele>
        <time>2017-08-09T22:41:12Z</time>
      </trkpt>
      <trkpt lat="47.17468" lon="4.95361">
        <ele>258.13318774414</ele>
        <time>2017-08-09T22:41:24Z</time>
      </trkpt>
      <trkpt lat="47.17481" lon="4.95362">
        <ele>257.70418774414</ele>
        <time>2017-08-09T22:41:26Z</time>
      </trkpt>
      <trkpt lat="47.17488" lon="4.95367">
        <ele>257.61418774414</ele>
        <time>2017-08-09T22:41:27Z</time>
      </trkpt>
      <trkpt lat="47.17513" lon="4.95389">
        <ele>257.24318774414</ele>
        <time>2017-08-09T22:41:32Z</time>
      </trkpt>
      <trkpt lat="47.17561" lon="4.95448">
        <ele>256.97818774414</ele>
        <time>2017-08-09T22:41:43Z</time>
      </trkpt>
      <trkpt lat="47.17588" lon="4.95471">
        <ele>256.98318774414</ele>
        <time>2017-08-09T22:41:49Z</time>
      </trkpt>
      <trkpt lat="47.17629" lon="4.955">
        <ele>257.05518774414</ele>
        <time>2017-08-09T22:41:57Z</time>
      </trkpt>
      <trkpt lat="47.17642" lon="4.95493">
        <ele>257.18018774414</ele>
        <time>2017-08-09T22:42:01Z</time>
      </trkpt>
      <trkpt lat="47.17677" lon="4.95487">
        <ele>257.37918774414</ele>
        <time>2017-08-09T22:42:08Z</time>
      </trkpt>
      <trkpt lat="47.17697" lon="4.955">
        <ele>257.45118774414</ele>
        <time>2017-08-09T22:42:12Z</time>
      </trkpt>
      <trkpt lat="47.17699" lon="4.95501">
        <ele>257.62718774414</ele>
        <time>2017-08-09T22:42:13Z</time>
      </trkpt>
      <trkpt lat="47.17708" lon="4.95511">
        <ele>257.68318774414</ele>
        <time>2017-08-09T22:42:16Z</time>
      </trkpt>
      <trkpt lat="47.17818" lon="4.95567">
        <ele>259.33918774414</ele>
        <time>2017-08-09T22:42:44Z</time>
      </trkpt>
      <trkpt lat="47.179" lon="4.95614">
        <ele>261.09218774414</ele>
        <time>2017-08-09T22:43:07Z</time>
      </trkpt>
      <trkpt lat="47.17966" lon="4.9563">
        <ele>262.58618774414</ele>
        <time>2017-08-09T22:43:25Z</time>
      </trkpt>
      <trkpt lat="47.17986" lon="4.95639">
        <ele>263.04918774414</ele>
        <time>2017-08-09T22:43:31Z</time>
      </trkpt>
      <trkpt lat="47.18031" lon="4.9568">
        <ele>264.09418774414</ele>
        <time>2017-08-09T22:43:45Z</time>
      </trkpt>
      <trkpt lat="47.1815" lon="4.95755">
        <ele>265.60218774414</ele>
        <time>2017-08-09T22:44:15Z</time>
      </trkpt>
      <trkpt lat="47.18169" lon="4.95772">
        <ele>265.93418774414</ele>
        <time>2017-08-09T22:44:21Z</time>
      </trkpt>
      <trkpt lat="47.18178" lon="4.95775">
        <ele>265.91418774414</ele>
        <time>2017-08-09T22:44:22Z</time>
      </trkpt>
      <trkpt lat="47.18206" lon="4.95749">
        <ele>266.31118774414</ele>
        <time>2017-08-09T22:44:30Z</time>
      </trkpt>
      <trkpt lat="47.18228" lon="4.95726">
        <ele>266.66918774414</ele>
        <time>2017-08-09T22:44:36Z</time>
      </trkpt>
      <trkpt lat="47.18238" lon="4.95715">
        <ele>266.74818774414</ele>
        <time>2017-08-09T22:44:39Z</time>
      </trkpt>
      <trkpt lat="47.18245" lon="4.95707">
        <ele>266.87718774414</ele>
        <time>2017-08-09T22:44:41Z</time>
      </trkpt>
      <trkpt lat="47.18249" lon="4.95703">
        <ele>266.98518774414</ele>
        <time>2017-08-09T22:44:42Z</time>
      </trkpt>
      <trkpt lat="47.1828" lon="4.95663">
        <ele>267.54018774414</ele>
        <time>2017-08-09T22:44:52Z</time>
      </trkpt>
      <trkpt lat="47.18311" lon="4.95625">
        <ele>268.16618774414</ele>
        <time>2017-08-09T22:45:01Z</time>
      </trkpt>
      <trkpt lat="47.18344" lon="4.95578">
        <ele>269.07618774414</ele>
        <time>2017-08-09T22:45:13Z</time>
      </trkpt>
      <trkpt lat="47.18372" lon="4.9553">
        <ele>269.98018774414</ele>
        <time>2017-08-09T22:45:24Z</time>
      </trkpt>
      <trkpt lat="47.1844" lon="4.95404">
        <ele>272.64018774414</ele>
        <time>2017-08-09T22:45:55Z</time>
      </trkpt>
      <trkpt lat="47.18452" lon="4.9538">
        <ele>273.38718774414</ele>
        <time>2017-08-09T22:46:01Z</time>
      </trkpt>
      <trkpt lat="47.18465" lon="4.95343">
        <ele>274.39918774414</ele>
        <time>2017-08-09T22:46:10Z</time>
      </trkpt>
      <trkpt lat="47.18482" lon="4.953">
        <ele>275.66118774414</ele>
        <time>2017-08-09T22:46:21Z</time>
      </trkpt>
      <trkpt lat="47.18485" lon="4.95294">
        <ele>275.90618774414</ele>
        <time>2017-08-09T22:46:23Z</time>
      </trkpt>
      <trkpt lat="47.18488" lon="4.95286">
        <ele>276.19818774414</ele>
        <time>2017-08-09T22:46:25Z</time>
      </trkpt>
      <trkpt lat="47.18494" lon="4.95255">
        <ele>277.07718774414</ele>
        <time>2017-08-09T22:46:33Z</time>
      </trkpt>
      <trkpt lat="47.18496" lon="4.95226">
        <ele>277.85518774414</ele>
        <time>2017-08-09T22:46:39Z</time>
      </trkpt>
      <trkpt lat="47.18498" lon="4.95189">
        <ele>278.95618774414</ele>
        <time>2017-08-09T22:46:48Z</time>
      </trkpt>
      <trkpt lat="47.18497" lon="4.95161">
        <ele>279.45718774414</ele>
        <time>2017-08-09T22:46:54Z</time>
      </trkpt>
      <trkpt lat="47.18498" lon="4.95153">
        <ele>279.77218774414</ele>
        <time>2017-08-09T22:46:56Z</time>
      </trkpt>
      <trkpt lat="47.18502" lon="4.95121">
        <ele>280.39718774414</ele>
        <time>2017-08-09T22:47:02Z</time>
      </trkpt>
      <trkpt lat="47.18515" lon="4.95068">
        <ele>281.58418774414</ele>
        <time>2017-08-09T22:47:14Z</time>
      </trkpt>
      <trkpt lat="47.18523" lon="4.95031">
        <ele>282.56018774414</ele>
        <time>2017-08-09T22:47:23Z</time>
      </trkpt>
      <trkpt lat="47.18535" lon="4.95031">
        <ele>282.83118774414</ele>
        <time>2017-08-09T22:47:26Z</time>
      </trkpt>
      <trkpt lat="47.18574" lon="4.95022">
        <ele>284.40718774414</ele>
        <time>2017-08-09T22:47:39Z</time>
      </trkpt>
      <trkpt lat="47.18582" lon="4.95019">
        <ele>284.81218774414</ele>
        <time>2017-08-09T22:47:42Z</time>
      </trkpt>
      <trkpt lat="47.18604" lon="4.95011">
        <ele>285.48618774414</ele>
        <time>2017-08-09T22:47:49Z</time>
      </trkpt>
      <trkpt lat="47.18612" lon="4.95002">
        <ele>285.76618774414</ele>
        <time>2017-08-09T22:47:52Z</time>
      </trkpt>
      <trkpt lat="47.18616" lon="4.94991">
        <ele>286.10518774414</ele>
        <time>2017-08-09T22:47:55Z</time>
      </trkpt>
      <trkpt lat="47.18629" lon="4.9495">
        <ele>287.09918774414</ele>
        <time>2017-08-09T22:48:04Z</time>
      </trkpt>
      <trkpt lat="47.18649" lon="4.94905">
        <ele>288.77618774414</ele>
        <time>2017-08-09T22:48:18Z</time>
      </trkpt>
      <trkpt lat="47.18651" lon="4.949">
        <ele>289.08218774414</ele>
        <time>2017-08-09T22:48:19Z</time>
      </trkpt>
      <trkpt lat="47.18703" lon="4.94802">
        <ele>295.28318774414</ele>
        <time>2017-08-09T22:48:59Z</time>
      </trkpt>
      <trkpt lat="47.18722" lon="4.94757">
        <ele>298.33518774414</ele>
        <time>2017-08-09T22:49:18Z</time>
      </trkpt>
      <trkpt lat="47.1873" lon="4.94734">
        <ele>299.76618774414</ele>
        <time>2017-08-09T22:49:27Z</time>
      </trkpt>
      <trkpt lat="47.18735" lon="4.94709">
        <ele>301.15518774414</ele>
        <time>2017-08-09T22:49:36Z</time>
      </trkpt>
      <trkpt lat="47.18741" lon="4.94678">
        <ele>302.76418774414</ele>
        <time>2017-08-09T22:49:46Z</time>
      </trkpt>
      <trkpt lat="47.18745" lon="4.9466">
        <ele>303.63718774414</ele>
        <time>2017-08-09T22:49:52Z</time>
      </trkpt>
      <trkpt lat="47.18753" lon="4.94602">
        <ele>306.55218774414</ele>
        <time>2017-08-09T22:50:11Z</time>
      </trkpt>
      <trkpt lat="47.18755" lon="4.94585">
        <ele>307.46918774414</ele>
        <time>2017-08-09T22:50:16Z</time>
      </trkpt>
      <trkpt lat="47.18769" lon="4.94512">
        <ele>311.05718774414</ele>
        <time>2017-08-09T22:50:40Z</time>
      </trkpt>
      <trkpt lat="47.18789" lon="4.94446">
        <ele>313.57618774414</ele>
        <time>2017-08-09T22:50:59Z</time>
      </trkpt>
      <trkpt lat="47.18834" lon="4.94352">
        <ele>316.70118774414</ele>
        <time>2017-08-09T22:51:25Z</time>
      </trkpt>
      <trkpt lat="47.18873" lon="4.94249">
        <ele>320.08918774414</ele>
        <time>2017-08-09T22:51:53Z</time>
      </trkpt>
      <trkpt lat="47.18883" lon="4.94229">
        <ele>320.96018774414</ele>
        <time>2017-08-09T22:51:59Z</time>
      </trkpt>
      <trkpt lat="47.18906" lon="4.94201">
        <ele>322.58218774414</ele>
        <time>2017-08-09T22:52:11Z</time>
      </trkpt>
      <trkpt lat="47.18976" lon="4.94161">
        <ele>327.21118774414</ele>
        <time>2017-08-09T22:52:43Z</time>
      </trkpt>
      <trkpt lat="47.18991" lon="4.94137">
        <ele>328.62318774414</ele>
        <time>2017-08-09T22:52:53Z</time>
      </trkpt>
      <trkpt lat="47.19012" lon="4.94038">
        <ele>334.81018774414</ele>
        <time>2017-08-09T22:53:30Z</time>
      </trkpt>
      <trkpt lat="47.19037" lon="4.93954">
        <ele>341.51218774414</ele>
        <time>2017-08-09T22:54:08Z</time>
      </trkpt>
      <trkpt lat="47.19043" lon="4.93895">
        <ele>345.83818774414</ele>
        <time>2017-08-09T22:54:33Z</time>
      </trkpt>
      <trkpt lat="47.1905" lon="4.93872">
        <ele>347.81118774414</ele>
        <time>2017-08-09T22:54:44Z</time>
      </trkpt>
      <trkpt lat="47.19053" lon="4.93862">
        <ele>348.58218774414</ele>
        <time>2017-08-09T22:54:48Z</time>
      </trkpt>
      <trkpt lat="47.19054" lon="4.93859">
        <ele>349.20918774414</ele>
        <time>2017-08-09T22:54:51Z</time>
      </trkpt>
      <trkpt lat="47.19072" lon="4.93813">
        <ele>353.30718774414</ele>
        <time>2017-08-09T22:55:14Z</time>
      </trkpt>
      <trkpt lat="47.19078" lon="4.93771">
        <ele>356.30618774414</ele>
        <time>2017-08-09T22:55:31Z</time>
      </trkpt>
      <trkpt lat="47.19085" lon="4.93754">
        <ele>357.93018774414</ele>
        <time>2017-08-09T22:55:40Z</time>
      </trkpt>
      <trkpt lat="47.19125" lon="4.93689">
        <ele>364.69418774414</ele>
        <time>2017-08-09T22:56:18Z</time>
      </trkpt>
      <trkpt lat="47.19136" lon="4.93666">
        <ele>366.74818774414</ele>
        <time>2017-08-09T22:56:29Z</time>
      </trkpt>
      <trkpt lat="47.19138" lon="4.93648">
        <ele>367.70818774414</ele>
        <time>2017-08-09T22:56:35Z</time>
      </trkpt>
      <trkpt lat="47.19134" lon="4.93576">
        <ele>371.55818774414</ele>
        <time>2017-08-09T22:57:00Z</time>
      </trkpt>
      <trkpt lat="47.19143" lon="4.9346">
        <ele>377.26718774414</ele>
        <time>2017-08-09T22:57:37Z</time>
      </trkpt>
      <trkpt lat="47.19172" lon="4.93346">
        <ele>381.65918774414</ele>
        <time>2017-08-09T22:58:09Z</time>
      </trkpt>
      <trkpt lat="47.19182" lon="4.93325">
        <ele>382.42818774414</ele>
        <time>2017-08-09T22:58:15Z</time>
      </trkpt>
      <trkpt lat="47.19207" lon="4.93296">
        <ele>383.75918774414</ele>
        <time>2017-08-09T22:58:26Z</time>
      </trkpt>
      <trkpt lat="47.19272" lon="4.93276">
        <ele>386.09818774414</ele>
        <time>2017-08-09T22:58:47Z</time>
      </trkpt>
      <trkpt lat="47.19298" lon="4.93244">
        <ele>387.19418774414</ele>
        <time>2017-08-09T22:58:58Z</time>
      </trkpt>
      <trkpt lat="47.19339" lon="4.93169">
        <ele>389.27018774414</ele>
        <time>2017-08-09T22:59:18Z</time>
      </trkpt>
      <trkpt lat="47.19352" lon="4.93157">
        <ele>390.11218774414</ele>
        <time>2017-08-09T22:59:24Z</time>
      </trkpt>
      <trkpt lat="47.19381" lon="4.93146">
        <ele>391.41418774414</ele>
        <time>2017-08-09T22:59:34Z</time>
      </trkpt>
      <trkpt lat="47.19428" lon="4.93153">
        <ele>393.44718774414</ele>
        <time>2017-08-09T22:59:51Z</time>
      </trkpt>
      <trkpt lat="47.19448" lon="4.93161">
        <ele>394.38618774414</ele>
        <time>2017-08-09T22:59:58Z</time>
      </trkpt>
      <trkpt lat="47.19471" lon="4.93183">
        <ele>395.53218774414</ele>
        <time>2017-08-09T23:00:08Z</time>
      </trkpt>
      <trkpt lat="47.19478" lon="4.93189">
        <ele>396.05118774414</ele>
        <time>2017-08-09T23:00:11Z</time>
      </trkpt>
      <trkpt lat="47.19485" lon="4.9319">
        <ele>396.51118774414</ele>
        <time>2017-08-09T23:00:14Z</time>
      </trkpt>
      <trkpt lat="47.19544" lon="4.93157">
        <ele>399.47718774414</ele>
        <time>2017-08-09T23:00:38Z</time>
      </trkpt>
      <trkpt lat="47.1958" lon="4.93136">
        <ele>401.58618774414</ele>
        <time>2017-08-09T23:00:53Z</time>
      </trkpt>
      <trkpt lat="47.19596" lon="4.93119">
        <ele>402.61018774414</ele>
        <time>2017-08-09T23:01:01Z</time>
      </trkpt>
      <trkpt lat="47.19615" lon="4.93073">
        <ele>404.54718774414</ele>
        <time>2017-08-09T23:01:15Z</time>
      </trkpt>
      <trkpt lat="47.1962" lon="4.93054">
        <ele>404.99718774414</ele>
        <time>2017-08-09T23:01:19Z</time>
      </trkpt>
      <trkpt lat="47.19622" lon="4.93042">
        <ele>405.65618774414</ele>
        <time>2017-08-09T23:01:23Z</time>
      </trkpt>
      <trkpt lat="47.19645" lon="4.92934">
        <ele>408.82918774414</ele>
        <time>2017-08-09T23:01:50Z</time>
      </trkpt>
      <trkpt lat="47.19662" lon="4.92892">
        <ele>410.15518774414</ele>
        <time>2017-08-09T23:02:01Z</time>
      </trkpt>
      <trkpt lat="47.19676" lon="4.92874">
        <ele>410.64918774414</ele>
        <time>2017-08-09T23:02:06Z</time>
      </trkpt>
      <trkpt lat="47.19693" lon="4.92867">
        <ele>411.55918774414</ele>
        <time>2017-08-09T23:02:13Z</time>
      </trkpt>
      <trkpt lat="47.19783" lon="4.92928">
        <ele>414.89618774414</ele>
        <time>2017-08-09T23:02:44Z</time>
      </trkpt>
      <trkpt lat="47.19798" lon="4.9293">
        <ele>415.42318774414</ele>
        <time>2017-08-09T23:02:49Z</time>
      </trkpt>
      <trkpt lat="47.19809" lon="4.92925">
        <ele>415.79218774414</ele>
        <time>2017-08-09T23:02:52Z</time>
      </trkpt>
      <trkpt lat="47.19834" lon="4.92899">
        <ele>416.77418774414</ele>
        <time>2017-08-09T23:03:02Z</time>
      </trkpt>
      <trkpt lat="47.19878" lon="4.92834">
        <ele>418.99418774414</ele>
        <time>2017-08-09T23:03:22Z</time>
      </trkpt>
      <trkpt lat="47.19923" lon="4.92787">
        <ele>421.29718774414</ele>
        <time>2017-08-09T23:03:41Z</time>
      </trkpt>
      <trkpt lat="47.19932" lon="4.92772">
        <ele>421.72418774414</ele>
        <time>2017-08-09T23:03:45Z</time>
      </trkpt>
      <trkpt lat="47.19942" lon="4.92723">
        <ele>423.09618774414</ele>
        <time>2017-08-09T23:03:56Z</time>
      </trkpt>
      <trkpt lat="47.19949" lon="4.92687">
        <ele>424.14118774414</ele>
        <time>2017-08-09T23:04:05Z</time>
      </trkpt>
      <trkpt lat="47.19956" lon="4.92671">
        <ele>424.50618774414</ele>
        <time>2017-08-09T23:04:09Z</time>
      </trkpt>
      <trkpt lat="47.19966" lon="4.92645">
        <ele>425.31218774414</ele>
        <time>2017-08-09T23:04:16Z</time>
      </trkpt>
      <trkpt lat="47.19987" lon="4.92606">
        <ele>426.50118774414</ele>
        <time>2017-08-09T23:04:27Z</time>
      </trkpt>
      <trkpt lat="47.20024" lon="4.92553">
        <ele>428.26918774414</ele>
        <time>2017-08-09T23:04:43Z</time>
      </trkpt>
      <trkpt lat="47.20041" lon="4.92535">
        <ele>429.18618774414</ele>
        <time>2017-08-09T23:04:50Z</time>
      </trkpt>
      <trkpt lat="47.20054" lon="4.92527">
        <ele>429.61518774414</ele>
        <time>2017-08-09T23:04:55Z</time>
      </trkpt>
      <trkpt lat="47.20094" lon="4.92515">
        <ele>430.73318774414</ele>
        <time>2017-08-09T23:05:06Z</time>
      </trkpt>
      <trkpt lat="47.20147" lon="4.92485">
        <ele>432.18918774414</ele>
        <time>2017-08-09T23:05:22Z</time>
      </trkpt>
      <trkpt lat="47.20189" lon="4.92461">
        <ele>433.51618774414</ele>
        <time>2017-08-09T23:05:35Z</time>
      </trkpt>
      <trkpt lat="47.20224" lon="4.92433">
        <ele>434.94818774414</ele>
        <time>2017-08-09T23:05:48Z</time>
      </trkpt>
      <trkpt lat="47.20261" lon="4.92383">
        <ele>436.92618774414</ele>
        <time>2017-08-09T23:06:05Z</time>
      </trkpt>
      <trkpt lat="47.20277" lon="4.92359">
        <ele>437.79118774414</ele>
        <time>2017-08-09T23:06:13Z</time>
      </trkpt>
      <trkpt lat="47.20281" lon="4.92352">
        <ele>438.08718774414</ele>
        <time>2017-08-09T23:06:15Z</time>
      </trkpt>
      <trkpt lat="47.203" lon="4.9232">
        <ele>439.17618774414</ele>
        <time>2017-08-09T23:06:25Z</time>
      </trkpt>
      <trkpt lat="47.20339" lon="4.92248">
        <ele>441.89418774414</ele>
        <time>2017-08-09T23:06:47Z</time>
      </trkpt>
      <trkpt lat="47.20354" lon="4.92225">
        <ele>442.86118774414</ele>
        <time>2017-08-09T23:06:54Z</time>
      </trkpt>
      <trkpt lat="47.20376" lon="4.92201">
        <ele>444.14118774414</ele>
        <time>2017-08-09T23:07:04Z</time>
      </trkpt>
      <trkpt lat="47.20396" lon="4.92185">
        <ele>445.14218774414</ele>
        <time>2017-08-09T23:07:12Z</time>
      </trkpt>
      <trkpt lat="47.2047" lon="4.92143">
        <ele>448.38918774414</ele>
        <time>2017-08-09T23:07:40Z</time>
      </trkpt>
      <trkpt lat="47.20503" lon="4.92118">
        <ele>449.63218774414</ele>
        <time>2017-08-09T23:07:51Z</time>
      </trkpt>
      <trkpt lat="47.20574" lon="4.92043">
        <ele>452.28318774414</ele>
        <time>2017-08-09T23:08:17Z</time>
      </trkpt>
      <trkpt lat="47.20623" lon="4.91961">
        <ele>454.21218774414</ele>
        <time>2017-08-09T23:08:38Z</time>
      </trkpt>
      <trkpt lat="47.20652" lon="4.919">
        <ele>455.46718774414</ele>
        <time>2017-08-09T23:08:52Z</time>
      </trkpt>
      <trkpt lat="47.20671" lon="4.91838">
        <ele>456.40918774414</ele>
        <time>2017-08-09T23:09:04Z</time>
      </trkpt>
      <trkpt lat="47.20673" lon="4.91817">
        <ele>456.62318774414</ele>
        <time>2017-08-09T23:09:08Z</time>
      </trkpt>
      <trkpt lat="47.20671" lon="4.91777">
        <ele>456.97518774414</ele>
        <time>2017-08-09T23:09:14Z</time>
      </trkpt>
      <trkpt lat="47.20663" lon="4.9173">
        <ele>457.27618774414</ele>
        <time>2017-08-09T23:09:21Z</time>
      </trkpt>
      <trkpt lat="47.20659" lon="4.91704">
        <ele>457.35318774414</ele>
        <time>2017-08-09T23:09:24Z</time>
      </trkpt>
      <trkpt lat="47.20647" lon="4.91638">
        <ele>457.39718774414</ele>
        <time>2017-08-09T23:09:33Z</time>
      </trkpt>
      <trkpt lat="47.20641" lon="4.91598">
        <ele>457.39118774414</ele>
        <time>2017-08-09T23:09:38Z</time>
      </trkpt>
      <trkpt lat="47.20638" lon="4.91551">
        <ele>457.41118774414</ele>
        <time>2017-08-09T23:09:44Z</time>
      </trkpt>
      <trkpt lat="47.20636" lon="4.91463">
        <ele>457.47518774414</ele>
        <time>2017-08-09T23:09:55Z</time>
      </trkpt>
      <trkpt lat="47.20637" lon="4.91433">
        <ele>457.46218774414</ele>
        <time>2017-08-09T23:09:58Z</time>
      </trkpt>
      <trkpt lat="47.20669" lon="4.91502">
        <ele>457.92418774414</ele>
        <time>2017-08-09T23:10:10Z</time>
      </trkpt>
      <trkpt lat="47.20686" lon="4.91537">
        <ele>458.28918774414</ele>
        <time>2017-08-09T23:10:17Z</time>
      </trkpt>
      <trkpt lat="47.20703" lon="4.91569">
        <ele>458.64418774414</ele>
        <time>2017-08-09T23:10:23Z</time>
      </trkpt>
      <trkpt lat="47.20713" lon="4.91584">
        <ele>458.92518774414</ele>
        <time>2017-08-09T23:10:27Z</time>
      </trkpt>
      <trkpt lat="47.20753" lon="4.91617">
        <ele>459.71618774414</ele>
        <time>2017-08-09T23:10:38Z</time>
      </trkpt>
      <trkpt lat="47.20762" lon="4.91621">
        <ele>459.93218774414</ele>
        <time>2017-08-09T23:10:41Z</time>
      </trkpt>
      <trkpt lat="47.20774" lon="4.91625">
        <ele>460.23118774414</ele>
        <time>2017-08-09T23:10:44Z</time>
      </trkpt>
      <trkpt lat="47.20874" lon="4.9164">
        <ele>462.42518774414</ele>
        <time>2017-08-09T23:11:11Z</time>
      </trkpt>
      <trkpt lat="47.20909" lon="4.91654">
        <ele>463.09018774414</ele>
        <time>2017-08-09T23:11:20Z</time>
      </trkpt>
      <trkpt lat="47.20925" lon="4.91666">
        <ele>463.38518774414</ele>
        <time>2017-08-09T23:11:24Z</time>
      </trkpt>
      <trkpt lat="47.20937" lon="4.91675">
        <ele>463.62218774414</ele>
        <time>2017-08-09T23:11:28Z</time>
      </trkpt>
      <trkpt lat="47.20949" lon="4.91685">
        <ele>463.76418774414</ele>
        <time>2017-08-09T23:11:31Z</time>
      </trkpt>
      <trkpt lat="47.20963" lon="4.91692">
        <ele>464.04318774414</ele>
        <time>2017-08-09T23:11:34Z</time>
      </trkpt>
      <trkpt lat="47.20967" lon="4.91694">
        <ele>464.11418774414</ele>
        <time>2017-08-09T23:11:35Z</time>
      </trkpt>
      <trkpt lat="47.20992" lon="4.91697">
        <ele>464.46918774414</ele>
        <time>2017-08-09T23:11:41Z</time>
      </trkpt>
      <trkpt lat="47.21174" lon="4.91685">
        <ele>467.62018774414</ele>
        <time>2017-08-09T23:12:26Z</time>
      </trkpt>
      <trkpt lat="47.21245" lon="4.91683">
        <ele>468.73618774414</ele>
        <time>2017-08-09T23:12:44Z</time>
      </trkpt>
      <trkpt lat="47.21289" lon="4.91681">
        <ele>469.39018774414</ele>
        <time>2017-08-09T23:12:54Z</time>
      </trkpt>
      <trkpt lat="47.21313" lon="4.91692">
        <ele>469.71218774414</ele>
        <time>2017-08-09T23:13:00Z</time>
      </trkpt>
      <trkpt lat="47.21636" lon="4.91959">
        <ele>472.53318774414</ele>
        <time>2017-08-09T23:14:17Z</time>
      </trkpt>
      <trkpt lat="47.21681" lon="4.9199">
        <ele>473.34518774414</ele>
        <time>2017-08-09T23:14:29Z</time>
      </trkpt>
      <trkpt lat="47.21721" lon="4.92006">
        <ele>474.10218774414</ele>
        <time>2017-08-09T23:14:39Z</time>
      </trkpt>
      <trkpt lat="47.21776" lon="4.92012">
        <ele>475.10418774414</ele>
        <time>2017-08-09T23:14:53Z</time>
      </trkpt>
      <trkpt lat="47.21844" lon="4.92003">
        <ele>475.67018774414</ele>
        <time>2017-08-09T23:15:08Z</time>
      </trkpt>
      <trkpt lat="47.21881" lon="4.9199">
        <ele>475.68618774414</ele>
        <time>2017-08-09T23:15:15Z</time>
      </trkpt>
      <trkpt lat="47.21893" lon="4.91984">
        <ele>475.66818774414</ele>
        <time>2017-08-09T23:15:17Z</time>
      </trkpt>
      <trkpt lat="47.21904" lon="4.91977">
        <ele>475.54518774414</ele>
        <time>2017-08-09T23:15:19Z</time>
      </trkpt>
      <trkpt lat="47.21917" lon="4.91968">
        <ele>475.48318774414</ele>
        <time>2017-08-09T23:15:21Z</time>
      </trkpt>
      <trkpt lat="47.21933" lon="4.91955">
        <ele>475.26118774414</ele>
        <time>2017-08-09T23:15:24Z</time>
      </trkpt>
      <trkpt lat="47.22042" lon="4.91845">
        <ele>472.74518774414</ele>
        <time>2017-08-09T23:15:44Z</time>
      </trkpt>
      <trkpt lat="47.2206" lon="4.91817">
        <ele>472.14318774414</ele>
        <time>2017-08-09T23:15:47Z</time>
      </trkpt>
      <trkpt lat="47.22079" lon="4.91776">
        <ele>471.46618774414</ele>
        <time>2017-08-09T23:15:52Z</time>
      </trkpt>
      <trkpt lat="47.22161" lon="4.91553">
        <ele>468.21618774414</ele>
        <time>2017-08-09T23:16:18Z</time>
      </trkpt>
      <trkpt lat="47.22181" lon="4.9152">
        <ele>467.76518774414</ele>
        <time>2017-08-09T23:16:22Z</time>
      </trkpt>
      <trkpt lat="47.22224" lon="4.91464">
        <ele>467.09518774414</ele>
        <time>2017-08-09T23:16:31Z</time>
      </trkpt>
      <trkpt lat="47.22247" lon="4.91433">
        <ele>466.81818774414</ele>
        <time>2017-08-09T23:16:36Z</time>
      </trkpt>
      <trkpt lat="47.22254" lon="4.91423">
        <ele>466.81518774414</ele>
        <time>2017-08-09T23:16:38Z</time>
      </trkpt>
      <trkpt lat="47.2227" lon="4.91394">
        <ele>466.62718774414</ele>
        <time>2017-08-09T23:16:42Z</time>
      </trkpt>
      <trkpt lat="47.22284" lon="4.91345">
        <ele>466.50918774414</ele>
        <time>2017-08-09T23:16:48Z</time>
      </trkpt>
      <trkpt lat="47.223" lon="4.91278">
        <ele>466.50018774414</ele>
        <time>2017-08-09T23:16:57Z</time>
      </trkpt>
      <trkpt lat="47.22313" lon="4.91223">
        <ele>466.57218774414</ele>
        <time>2017-08-09T23:17:04Z</time>
      </trkpt>
      <trkpt lat="47.22346" lon="4.91087">
        <ele>466.97318774414</ele>
        <time>2017-08-09T23:17:24Z</time>
      </trkpt>
      <trkpt lat="47.22384" lon="4.91012">
        <ele>467.13418774414</ele>
        <time>2017-08-09T23:17:35Z</time>
      </trkpt>
      <trkpt lat="47.22398" lon="4.90987">
        <ele>467.12918774414</ele>
        <time>2017-08-09T23:17:39Z</time>
      </trkpt>
      <trkpt lat="47.22401" lon="4.90971">
        <ele>467.18618774414</ele>
        <time>2017-08-09T23:17:42Z</time>
      </trkpt>
      <trkpt lat="47.22469" lon="4.9079">
        <ele>467.10218774414</ele>
        <time>2017-08-09T23:18:08Z</time>
      </trkpt>
      <trkpt lat="47.2254" lon="4.90619">
        <ele>466.32618774414</ele>
        <time>2017-08-09T23:18:31Z</time>
      </trkpt>
      <trkpt lat="47.22585" lon="4.90476">
        <ele>465.62318774414</ele>
        <time>2017-08-09T23:18:50Z</time>
      </trkpt>
      <trkpt lat="47.22604" lon="4.90415">
        <ele>465.44418774414</ele>
        <time>2017-08-09T23:18:58Z</time>
      </trkpt>
      <trkpt lat="47.22621" lon="4.9042">
        <ele>465.48318774414</ele>
        <time>2017-08-09T23:19:01Z</time>
      </trkpt>
      <trkpt lat="47.22736" lon="4.9046">
        <ele>466.71718774414</ele>
        <time>2017-08-09T23:19:28Z</time>
      </trkpt>
      <trkpt lat="47.22751" lon="4.90467">
        <ele>467.17618774414</ele>
        <time>2017-08-09T23:19:33Z</time>
      </trkpt>
      <trkpt lat="47.22772" lon="4.90479">
        <ele>467.81118774414</ele>
        <time>2017-08-09T23:19:39Z</time>
      </trkpt>
      <trkpt lat="47.22857" lon="4.90524">
        <ele>470.41218774414</ele>
        <time>2017-08-09T23:20:07Z</time>
      </trkpt>
      <trkpt lat="47.22883" lon="4.90546">
        <ele>471.18318774414</ele>
        <time>2017-08-09T23:20:15Z</time>
      </trkpt>
      <trkpt lat="47.22888" lon="4.90545">
        <ele>471.29518774414</ele>
        <time>2017-08-09T23:20:17Z</time>
      </trkpt>
      <trkpt lat="47.22892" lon="4.90542">
        <ele>471.46018774414</ele>
        <time>2017-08-09T23:20:18Z</time>
      </trkpt>
      <trkpt lat="47.22899" lon="4.9053">
        <ele>471.66918774414</ele>
        <time>2017-08-09T23:20:21Z</time>
      </trkpt>
      <trkpt lat="47.22905" lon="4.90503">
        <ele>471.98418774414</ele>
        <time>2017-08-09T23:20:25Z</time>
      </trkpt>
      <trkpt lat="47.22911" lon="4.90472">
        <ele>472.40318774414</ele>
        <time>2017-08-09T23:20:31Z</time>
      </trkpt>
      <trkpt lat="47.22918" lon="4.90421">
        <ele>472.77218774414</ele>
        <time>2017-08-09T23:20:39Z</time>
      </trkpt>
      <trkpt lat="47.22921" lon="4.90397">
        <ele>473.02718774414</ele>
        <time>2017-08-09T23:20:43Z</time>
      </trkpt>
      <trkpt lat="47.22922" lon="4.90373">
        <ele>473.16918774414</ele>
        <time>2017-08-09T23:20:46Z</time>
      </trkpt>
      <trkpt lat="47.22912" lon="4.90311">
        <ele>473.40818774414</ele>
        <time>2017-08-09T23:20:55Z</time>
      </trkpt>
      <trkpt lat="47.22909" lon="4.90247">
        <ele>473.70318774414</ele>
        <time>2017-08-09T23:21:04Z</time>
      </trkpt>
      <trkpt lat="47.22911" lon="4.90204">
        <ele>473.71118774414</ele>
        <time>2017-08-09T23:21:09Z</time>
      </trkpt>
      <trkpt lat="47.22917" lon="4.902">
        <ele>473.91018774414</ele>
        <time>2017-08-09T23:21:11Z</time>
      </trkpt>
      <trkpt lat="47.2293" lon="4.90185">
        <ele>473.98518774414</ele>
        <time>2017-08-09T23:21:14Z</time>
      </trkpt>
      <trkpt lat="47.22996" lon="4.90074">
        <ele>475.82518774414</ele>
        <time>2017-08-09T23:21:40Z</time>
      </trkpt>
      <trkpt lat="47.23049" lon="4.89944">
        <ele>478.78618774414</ele>
        <time>2017-08-09T23:22:10Z</time>
      </trkpt>
      <trkpt lat="47.23089" lon="4.89872">
        <ele>480.12818774414</ele>
        <time>2017-08-09T23:22:26Z</time>
      </trkpt>
      <trkpt lat="47.23156" lon="4.89774">
        <ele>480.83218774414</ele>
        <time>2017-08-09T23:22:46Z</time>
      </trkpt>
      <trkpt lat="47.23164" lon="4.89746">
        <ele>480.68818774414</ele>
        <time>2017-08-09T23:22:50Z</time>
      </trkpt>
      <trkpt lat="47.23211" lon="4.89541">
        <ele>477.22718774414</ele>
        <time>2017-08-09T23:23:11Z</time>
      </trkpt>
      <trkpt lat="47.23228" lon="4.89464">
        <ele>475.55418774414</ele>
        <time>2017-08-09T23:23:18Z</time>
      </trkpt>
      <trkpt lat="47.23248" lon="4.89372">
        <ele>473.83518774414</ele>
        <time>2017-08-09T23:23:28Z</time>
      </trkpt>
      <trkpt lat="47.23271" lon="4.89268">
        <ele>472.23318774414</ele>
        <time>2017-08-09T23:23:38Z</time>
      </trkpt>
      <trkpt lat="47.23283" lon="4.89245">
        <ele>471.96318774414</ele>
        <time>2017-08-09T23:23:41Z</time>
      </trkpt>
      <trkpt lat="47.23323" lon="4.89215">
        <ele>471.43518774414</ele>
        <time>2017-08-09T23:23:48Z</time>
      </trkpt>
      <trkpt lat="47.23337" lon="4.89198">
        <ele>471.23618774414</ele>
        <time>2017-08-09T23:23:51Z</time>
      </trkpt>
      <trkpt lat="47.23378" lon="4.89116">
        <ele>470.39618774414</ele>
        <time>2017-08-09T23:24:02Z</time>
      </trkpt>
      <trkpt lat="47.23401" lon="4.89083">
        <ele>469.91018774414</ele>
        <time>2017-08-09T23:24:07Z</time>
      </trkpt>
      <trkpt lat="47.23464" lon="4.89048">
        <ele>468.68118774414</ele>
        <time>2017-08-09T23:24:17Z</time>
      </trkpt>
      <trkpt lat="47.23483" lon="4.8902">
        <ele>468.10218774414</ele>
        <time>2017-08-09T23:24:21Z</time>
      </trkpt>
      <trkpt lat="47.23588" lon="4.88737">
        <ele>461.57718774414</ele>
        <time>2017-08-09T23:24:51Z</time>
      </trkpt>
      <trkpt lat="47.23606" lon="4.88695">
        <ele>460.39618774414</ele>
        <time>2017-08-09T23:24:56Z</time>
      </trkpt>
      <trkpt lat="47.23636" lon="4.88644">
        <ele>458.84818774414</ele>
        <time>2017-08-09T23:25:02Z</time>
      </trkpt>
      <trkpt lat="47.23647" lon="4.8863">
        <ele>458.24018774414</ele>
        <time>2017-08-09T23:25:04Z</time>
      </trkpt>
      <trkpt lat="47.23655" lon="4.88622">
        <ele>457.90118774414</ele>
        <time>2017-08-09T23:25:05Z</time>
      </trkpt>
      <trkpt lat="47.237" lon="4.88577">
        <ele>455.98718774414</ele>
        <time>2017-08-09T23:25:12Z</time>
      </trkpt>
      <trkpt lat="47.23743" lon="4.88555">
        <ele>454.38218774414</ele>
        <time>2017-08-09T23:25:19Z</time>
      </trkpt>
      <trkpt lat="47.23843" lon="4.88545">
        <ele>451.59718774414</ele>
        <time>2017-08-09T23:25:33Z</time>
      </trkpt>
      <trkpt lat="47.23906" lon="4.88557">
        <ele>449.74518774414</ele>
        <time>2017-08-09T23:25:41Z</time>
      </trkpt>
      <trkpt lat="47.23925" lon="4.88558">
        <ele>449.11818774414</ele>
        <time>2017-08-09T23:25:44Z</time>
      </trkpt>
      <trkpt lat="47.23931" lon="4.88554">
        <ele>448.88918774414</ele>
        <time>2017-08-09T23:25:45Z</time>
      </trkpt>
      <trkpt lat="47.2394" lon="4.88538">
        <ele>448.40718774414</ele>
        <time>2017-08-09T23:25:47Z</time>
      </trkpt>
      <trkpt lat="47.23942" lon="4.88527">
        <ele>448.10718774414</ele>
        <time>2017-08-09T23:25:48Z</time>
      </trkpt>
      <trkpt lat="47.2392" lon="4.88384">
        <ele>442.64718774414</ele>
        <time>2017-08-09T23:26:00Z</time>
      </trkpt>
      <trkpt lat="47.23926" lon="4.88359">
        <ele>441.22918774414</ele>
        <time>2017-08-09T23:26:02Z</time>
      </trkpt>
      <trkpt lat="47.23943" lon="4.8833">
        <ele>438.99218774414</ele>
        <time>2017-08-09T23:26:05Z</time>
      </trkpt>
      <trkpt lat="47.23961" lon="4.88321">
        <ele>437.07718774414</ele>
        <time>2017-08-09T23:26:08Z</time>
      </trkpt>
      <trkpt lat="47.2398" lon="4.88317">
        <ele>434.93118774414</ele>
        <time>2017-08-09T23:26:10Z</time>
      </trkpt>
      <trkpt lat="47.24035" lon="4.88331">
        <ele>428.30618774414</ele>
        <time>2017-08-09T23:26:16Z</time>
      </trkpt>
      <trkpt lat="47.24051" lon="4.88332">
        <ele>426.18618774414</ele>
        <time>2017-08-09T23:26:18Z</time>
      </trkpt>
      <trkpt lat="47.24076" lon="4.88325">
        <ele>422.92918774414</ele>
        <time>2017-08-09T23:26:20Z</time>
      </trkpt>
      <trkpt lat="47.24114" lon="4.88302">
        <ele>417.36318774414</ele>
        <time>2017-08-09T23:26:25Z</time>
      </trkpt>
      <trkpt lat="47.24159" lon="4.88287">
        <ele>411.23218774414</ele>
        <time>2017-08-09T23:26:30Z</time>
      </trkpt>
      <trkpt lat="47.24185" lon="4.88269">
        <ele>407.69818774414</ele>
        <time>2017-08-09T23:26:33Z</time>
      </trkpt>
      <trkpt lat="47.24233" lon="4.88225">
        <ele>401.07118774414</ele>
        <time>2017-08-09T23:26:39Z</time>
      </trkpt>
      <trkpt lat="47.24285" lon="4.88197">
        <ele>395.57418774414</ele>
        <time>2017-08-09T23:26:46Z</time>
      </trkpt>
      <trkpt lat="47.24338" lon="4.8815">
        <ele>390.39718774414</ele>
        <time>2017-08-09T23:26:53Z</time>
      </trkpt>
      <trkpt lat="47.24392" lon="4.8812">
        <ele>386.07518774414</ele>
        <time>2017-08-09T23:27:00Z</time>
      </trkpt>
      <trkpt lat="47.24445" lon="4.88097">
        <ele>382.88418774414</ele>
        <time>2017-08-09T23:27:07Z</time>
      </trkpt>
      <trkpt lat="47.24451" lon="4.88097">
        <ele>382.29818774414</ele>
        <time>2017-08-09T23:27:07Z</time>
      </trkpt>
      <trkpt lat="47.24444" lon="4.88066">
        <ele>381.31918774414</ele>
        <time>2017-08-09T23:27:10Z</time>
      </trkpt>
      <trkpt lat="47.24451" lon="4.88097">
        <ele>380.22018774414</ele>
        <time>2017-08-09T23:27:13Z</time>
      </trkpt>
      <trkpt lat="47.24457" lon="4.881">
        <ele>379.83218774414</ele>
        <time>2017-08-09T23:27:14Z</time>
      </trkpt>
      <trkpt lat="47.24519" lon="4.88171">
        <ele>377.26618774414</ele>
        <time>2017-08-09T23:27:25Z</time>
      </trkpt>
      <trkpt lat="47.24554" lon="4.88197">
        <ele>376.63318774414</ele>
        <time>2017-08-09T23:27:31Z</time>
      </trkpt>
      <trkpt lat="47.24588" lon="4.88228">
        <ele>376.67618774414</ele>
        <time>2017-08-09T23:27:38Z</time>
      </trkpt>
      <trkpt lat="47.24593" lon="4.88232">
        <ele>376.63818774414</ele>
        <time>2017-08-09T23:27:39Z</time>
      </trkpt>
      <trkpt lat="47.24625" lon="4.88235">
        <ele>376.67618774414</ele>
        <time>2017-08-09T23:27:45Z</time>
      </trkpt>
      <trkpt lat="47.24632" lon="4.88233">
        <ele>376.59518774414</ele>
        <time>2017-08-09T23:27:46Z</time>
      </trkpt>
      <trkpt lat="47.24652" lon="4.88224">
        <ele>376.81018774414</ele>
        <time>2017-08-09T23:27:50Z</time>
      </trkpt>
      <trkpt lat="47.24712" lon="4.88228">
        <ele>376.33818774414</ele>
        <time>2017-08-09T23:28:00Z</time>
      </trkpt>
      <trkpt lat="47.24718" lon="4.8823">
        <ele>376.54818774414</ele>
        <time>2017-08-09T23:28:02Z</time>
      </trkpt>
      <trkpt lat="47.24716" lon="4.88194">
        <ele>376.09418774414</ele>
        <time>2017-08-09T23:28:06Z</time>
      </trkpt>
      <trkpt lat="47.24705" lon="4.88154">
        <ele>375.83318774414</ele>
        <time>2017-08-09T23:28:11Z</time>
      </trkpt>
      <trkpt lat="47.24692" lon="4.88087">
        <ele>375.11218774414</ele>
        <time>2017-08-09T23:28:18Z</time>
      </trkpt>
      <trkpt lat="47.2469" lon="4.88038">
        <ele>374.30618774414</ele>
        <time>2017-08-09T23:28:23Z</time>
      </trkpt>
      <trkpt lat="47.24704" lon="4.8793">
        <ele>371.93418774414</ele>
        <time>2017-08-09T23:28:42Z</time>
      </trkpt>
      <trkpt lat="47.24697" lon="4.87888">
        <ele>371.07518774414</ele>
        <time>2017-08-09T23:28:49Z</time>
      </trkpt>
      <trkpt lat="47.24659" lon="4.87775">
        <ele>368.96618774414</ele>
        <time>2017-08-09T23:29:11Z</time>
      </trkpt>
      <trkpt lat="47.24662" lon="4.87687">
        <ele>367.98218774414</ele>
        <time>2017-08-09T23:29:27Z</time>
      </trkpt>
      <trkpt lat="47.24665" lon="4.8763">
        <ele>367.42918774414</ele>
        <time>2017-08-09T23:29:37Z</time>
      </trkpt>
      <trkpt lat="47.24695" lon="4.87482">
        <ele>365.73918774414</ele>
        <time>2017-08-09T23:30:05Z</time>
      </trkpt>
      <trkpt lat="47.2472" lon="4.8739">
        <ele>364.48918774414</ele>
        <time>2017-08-09T23:30:23Z</time>
      </trkpt>
      <trkpt lat="47.24727" lon="4.87347">
        <ele>363.95218774414</ele>
        <time>2017-08-09T23:30:31Z</time>
      </trkpt>
      <trkpt lat="47.24728" lon="4.87331">
        <ele>363.69018774414</ele>
        <time>2017-08-09T23:30:33Z</time>
      </trkpt>
      <trkpt lat="47.24738" lon="4.87294">
        <ele>363.20218774414</ele>
        <time>2017-08-09T23:30:41Z</time>
      </trkpt>
      <trkpt lat="47.24807" lon="4.87187">
        <ele>361.37618774414</ele>
        <time>2017-08-09T23:31:07Z</time>
      </trkpt>
      <trkpt lat="47.24835" lon="4.87148">
        <ele>360.73518774414</ele>
        <time>2017-08-09T23:31:17Z</time>
      </trkpt>
      <trkpt lat="47.24862" lon="4.87121">
        <ele>360.47318774414</ele>
        <time>2017-08-09T23:31:26Z</time>
      </trkpt>
      <trkpt lat="47.24919" lon="4.87077">
        <ele>360.15618774414</ele>
        <time>2017-08-09T23:31:45Z</time>
      </trkpt>
      <trkpt lat="47.24956" lon="4.87056">
        <ele>360.05018774414</ele>
        <time>2017-08-09T23:31:56Z</time>
      </trkpt>
      <trkpt lat="47.2519" lon="4.86979">
        <ele>361.17318774414</ele>
        <time>2017-08-09T23:33:12Z</time>
      </trkpt>
      <trkpt lat="47.25243" lon="4.86973">
        <ele>361.85118774414</ele>
        <time>2017-08-09T23:33:30Z</time>
      </trkpt>
      <trkpt lat="47.2529" lon="4.86988">
        <ele>362.17718774414</ele>
        <time>2017-08-09T23:33:46Z</time>
      </trkpt>
      <trkpt lat="47.25318" lon="4.87006">
        <ele>362.38418774414</ele>
        <time>2017-08-09T23:33:56Z</time>
      </trkpt>
      <trkpt lat="47.25338" lon="4.87018">
        <ele>362.55118774414</ele>
        <time>2017-08-09T23:34:03Z</time>
      </trkpt>
      <trkpt lat="47.25364" lon="4.87034">
        <ele>362.66118774414</ele>
        <time>2017-08-09T23:34:12Z</time>
      </trkpt>
      <trkpt lat="47.25367" lon="4.87035">
        <ele>362.71618774414</ele>
        <time>2017-08-09T23:34:13Z</time>
      </trkpt>
      <trkpt lat="47.25388" lon="4.87043">
        <ele>362.70418774414</ele>
        <time>2017-08-09T23:34:19Z</time>
      </trkpt>
      <trkpt lat="47.25409" lon="4.87052">
        <ele>362.80818774414</ele>
        <time>2017-08-09T23:34:26Z</time>
      </trkpt>
      <trkpt lat="47.25426" lon="4.87054">
        <ele>362.75618774414</ele>
        <time>2017-08-09T23:34:31Z</time>
      </trkpt>
      <trkpt lat="47.25441" lon="4.87049">
        <ele>362.80918774414</ele>
        <time>2017-08-09T23:34:36Z</time>
      </trkpt>
      <trkpt lat="47.25458" lon="4.87011">
        <ele>362.69018774414</ele>
        <time>2017-08-09T23:34:44Z</time>
      </trkpt>
      <trkpt lat="47.25467" lon="4.86981">
        <ele>362.46318774414</ele>
        <time>2017-08-09T23:34:51Z</time>
      </trkpt>
      <trkpt lat="47.25485" lon="4.86952">
        <ele>362.28018774414</ele>
        <time>2017-08-09T23:34:58Z</time>
      </trkpt>
      <trkpt lat="47.25525" lon="4.86909">
        <ele>362.09318774414</ele>
        <time>2017-08-09T23:35:12Z</time>
      </trkpt>
      <trkpt lat="47.25532" lon="4.86892">
        <ele>362.05818774414</ele>
        <time>2017-08-09T23:35:16Z</time>
      </trkpt>
      <trkpt lat="47.25524" lon="4.8684">
        <ele>362.11518774414</ele>
        <time>2017-08-09T23:35:27Z</time>
      </trkpt>
      <trkpt lat="47.25512" lon="4.8682">
        <ele>362.22318774414</ele>
        <time>2017-08-09T23:35:33Z</time>
      </trkpt>
      <trkpt lat="47.25506" lon="4.86793">
        <ele>362.30718774414</ele>
        <time>2017-08-09T23:35:39Z</time>
      </trkpt>
      <trkpt lat="47.25508" lon="4.86773">
        <ele>362.42018774414</ele>
        <time>2017-08-09T23:35:44Z</time>
      </trkpt>
      <trkpt lat="47.2556" lon="4.86714">
        <ele>362.88218774414</ele>
        <time>2017-08-09T23:36:05Z</time>
      </trkpt>
      <trkpt lat="47.25584" lon="4.86701">
        <ele>363.02218774414</ele>
        <time>2017-08-09T23:36:13Z</time>
      </trkpt>
      <trkpt lat="47.25612" lon="4.86697">
        <ele>363.10618774414</ele>
        <time>2017-08-09T23:36:22Z</time>
      </trkpt>
      <trkpt lat="47.25656" lon="4.86709">
        <ele>363.02418774414</ele>
        <time>2017-08-09T23:36:35Z</time>
      </trkpt>
      <trkpt lat="47.25711" lon="4.8673">
        <ele>362.76918774414</ele>
        <time>2017-08-09T23:36:51Z</time>
      </trkpt>
      <trkpt lat="47.2578" lon="4.86772">
        <ele>361.91318774414</ele>
        <time>2017-08-09T23:37:12Z</time>
      </trkpt>
      <trkpt lat="47.25813" lon="4.86769">
        <ele>361.20718774414</ele>
        <time>2017-08-09T23:37:20Z</time>
      </trkpt>
      <trkpt lat="47.25834" lon="4.86753">
        <ele>360.59018774414</ele>
        <time>2017-08-09T23:37:26Z</time>
      </trkpt>
      <trkpt lat="47.25854" lon="4.86717">
        <ele>359.68718774414</ele>
        <time>2017-08-09T23:37:34Z</time>
      </trkpt>
      <trkpt lat="47.25866" lon="4.8671">
        <ele>359.33018774414</ele>
        <time>2017-08-09T23:37:37Z</time>
      </trkpt>
      <trkpt lat="47.25903" lon="4.86714">
        <ele>358.46418774414</ele>
        <time>2017-08-09T23:37:47Z</time>
      </trkpt>
      <trkpt lat="47.2593" lon="4.86739">
        <ele>357.83418774414</ele>
        <time>2017-08-09T23:37:55Z</time>
      </trkpt>
      <trkpt lat="47.25961" lon="4.86762">
        <ele>357.11018774414</ele>
        <time>2017-08-09T23:38:04Z</time>
      </trkpt>
      <trkpt lat="47.25985" lon="4.86765">
        <ele>356.55918774414</ele>
        <time>2017-08-09T23:38:10Z</time>
      </trkpt>
      <trkpt lat="47.26003" lon="4.86761">
        <ele>356.12418774414</ele>
        <time>2017-08-09T23:38:15Z</time>
      </trkpt>
      <trkpt lat="47.26033" lon="4.86745">
        <ele>355.34618774414</ele>
        <time>2017-08-09T23:38:23Z</time>
      </trkpt>
      <trkpt lat="47.26058" lon="4.86737">
        <ele>354.76318774414</ele>
        <time>2017-08-09T23:38:30Z</time>
      </trkpt>
      <trkpt lat="47.26173" lon="4.86731">
        <ele>352.61318774414</ele>
        <time>2017-08-09T23:39:00Z</time>
      </trkpt>
      <trkpt lat="47.26219" lon="4.86736">
        <ele>352.22818774414</ele>
        <time>2017-08-09T23:39:13Z</time>
      </trkpt>
      <trkpt lat="47.26252" lon="4.86741">
        <ele>352.09918774414</ele>
        <time>2017-08-09T23:39:22Z</time>
      </trkpt>
      <trkpt lat="47.26278" lon="4.86709">
        <ele>352.11218774414</ele>
        <time>2017-08-09T23:39:32Z</time>
      </trkpt>
      <trkpt lat="47.26296" lon="4.86689">
        <ele>352.21518774414</ele>
        <time>2017-08-09T23:39:39Z</time>
      </trkpt>
      <trkpt lat="47.26327" lon="4.86687">
        <ele>352.41318774414</ele>
        <time>2017-08-09T23:39:49Z</time>
      </trkpt>
      <trkpt lat="47.2637" lon="4.86693">
        <ele>352.70118774414</ele>
        <time>2017-08-09T23:40:03Z</time>
      </trkpt>
      <trkpt lat="47.26389" lon="4.86701">
        <ele>352.86118774414</ele>
        <time>2017-08-09T23:40:10Z</time>
      </trkpt>
      <trkpt lat="47.26453" lon="4.86768">
        <ele>353.37718774414</ele>
        <time>2017-08-09T23:40:35Z</time>
      </trkpt>
      <trkpt lat="47.26479" lon="4.86785">
        <ele>353.13218774414</ele>
        <time>2017-08-09T23:40:43Z</time>
      </trkpt>
      <trkpt lat="47.26537" lon="4.86777">
        <ele>351.76318774414</ele>
        <time>2017-08-09T23:40:58Z</time>
      </trkpt>
      <trkpt lat="47.26553" lon="4.86765">
        <ele>351.17818774414</ele>
        <time>2017-08-09T23:41:02Z</time>
      </trkpt>
      <trkpt lat="47.26564" lon="4.86743">
        <ele>350.53118774414</ele>
        <time>2017-08-09T23:41:07Z</time>
      </trkpt>
      <trkpt lat="47.26571" lon="4.86711">
        <ele>349.68918774414</ele>
        <time>2017-08-09T23:41:12Z</time>
      </trkpt>
      <trkpt lat="47.26562" lon="4.86614">
        <ele>346.97718774414</ele>
        <time>2017-08-09T23:41:28Z</time>
      </trkpt>
      <trkpt lat="47.26562" lon="4.8658">
        <ele>346.00018774414</ele>
        <time>2017-08-09T23:41:34Z</time>
      </trkpt>
      <trkpt lat="47.26569" lon="4.86543">
        <ele>344.92218774414</ele>
        <time>2017-08-09T23:41:40Z</time>
      </trkpt>
      <trkpt lat="47.26576" lon="4.86526">
        <ele>344.33718774414</ele>
        <time>2017-08-09T23:41:43Z</time>
      </trkpt>
      <trkpt lat="47.26606" lon="4.8649">
        <ele>342.78718774414</ele>
        <time>2017-08-09T23:41:52Z</time>
      </trkpt>
      <trkpt lat="47.26743" lon="4.86413">
        <ele>338.92518774414</ele>
        <time>2017-08-09T23:42:29Z</time>
      </trkpt>
      <trkpt lat="47.26837" lon="4.86324">
        <ele>337.53218774414</ele>
        <time>2017-08-09T23:43:00Z</time>
      </trkpt>
      <trkpt lat="47.26878" lon="4.86259">
        <ele>337.39718774414</ele>
        <time>2017-08-09T23:43:17Z</time>
      </trkpt>
      <trkpt lat="47.26891" lon="4.86243">
        <ele>337.55818774414</ele>
        <time>2017-08-09T23:43:23Z</time>
      </trkpt>
      <trkpt lat="47.2691" lon="4.86231">
        <ele>337.35618774414</ele>
        <time>2017-08-09T23:43:29Z</time>
      </trkpt>
      <trkpt lat="47.26955" lon="4.86233">
        <ele>337.31718774414</ele>
        <time>2017-08-09T23:43:42Z</time>
      </trkpt>
      <trkpt lat="47.27025" lon="4.8625">
        <ele>337.18018774414</ele>
        <time>2017-08-09T23:44:03Z</time>
      </trkpt>
      <trkpt lat="47.27037" lon="4.8625">
        <ele>337.39118774414</ele>
        <time>2017-08-09T23:44:07Z</time>
      </trkpt>
      <trkpt lat="47.27048" lon="4.8625">
        <ele>337.08618774414</ele>
        <time>2017-08-09T23:44:10Z</time>
      </trkpt>
      <trkpt lat="47.27071" lon="4.86243">
        <ele>337.23118774414</ele>
        <time>2017-08-09T23:44:17Z</time>
      </trkpt>
      <trkpt lat="47.27091" lon="4.86223">
        <ele>336.90118774414</ele>
        <time>2017-08-09T23:44:24Z</time>
      </trkpt>
      <trkpt lat="47.27102" lon="4.86201">
        <ele>336.89418774414</ele>
        <time>2017-08-09T23:44:29Z</time>
      </trkpt>
      <trkpt lat="47.27115" lon="4.86163">
        <ele>336.78818774414</ele>
        <time>2017-08-09T23:44:38Z</time>
      </trkpt>
      <trkpt lat="47.27129" lon="4.86029">
        <ele>335.82718774414</ele>
        <time>2017-08-09T23:45:03Z</time>
      </trkpt>
      <trkpt lat="47.27126" lon="4.85909">
        <ele>335.51018774414</ele>
        <time>2017-08-09T23:45:27Z</time>
      </trkpt>
      <trkpt lat="47.27133" lon="4.85868">
        <ele>335.36818774414</ele>
        <time>2017-08-09T23:45:35Z</time>
      </trkpt>
      <trkpt lat="47.27142" lon="4.8584">
        <ele>335.26018774414</ele>
        <time>2017-08-09T23:45:41Z</time>
      </trkpt>
      <trkpt lat="47.27158" lon="4.85805">
        <ele>335.04318774414</ele>
        <time>2017-08-09T23:45:49Z</time>
      </trkpt>
      <trkpt lat="47.27193" lon="4.85764">
        <ele>334.60318774414</ele>
        <time>2017-08-09T23:46:01Z</time>
      </trkpt>
      <trkpt lat="47.27252" lon="4.85718">
        <ele>333.69218774414</ele>
        <time>2017-08-09T23:46:19Z</time>
      </trkpt>
      <trkpt lat="47.27319" lon="4.85639">
        <ele>332.02018774414</ele>
        <time>2017-08-09T23:46:42Z</time>
      </trkpt>
      <trkpt lat="47.27345" lon="4.8562">
        <ele>331.36318774414</ele>
        <time>2017-08-09T23:46:49Z</time>
      </trkpt>
      <trkpt lat="47.27378" lon="4.85607">
        <ele>330.61118774414</ele>
        <time>2017-08-09T23:46:58Z</time>
      </trkpt>
      <trkpt lat="47.27402" lon="4.85591">
        <ele>330.00518774414</ele>
        <time>2017-08-09T23:47:05Z</time>
      </trkpt>
      <trkpt lat="47.27418" lon="4.85572">
        <ele>329.53318774414</ele>
        <time>2017-08-09T23:47:10Z</time>
      </trkpt>
      <trkpt lat="47.27537" lon="4.8551">
        <ele>326.54018774414</ele>
        <time>2017-08-09T23:47:42Z</time>
      </trkpt>
      <trkpt lat="47.27569" lon="4.855">
        <ele>325.54418774414</ele>
        <time>2017-08-09T23:47:50Z</time>
      </trkpt>
      <trkpt lat="47.276" lon="4.85498">
        <ele>324.59718774414</ele>
        <time>2017-08-09T23:47:58Z</time>
      </trkpt>
      <trkpt lat="47.27628" lon="4.85493">
        <ele>323.86018774414</ele>
        <time>2017-08-09T23:48:05Z</time>
      </trkpt>
      <trkpt lat="47.27644" lon="4.85491">
        <ele>323.10618774414</ele>
        <time>2017-08-09T23:48:09Z</time>
      </trkpt>
      <trkpt lat="47.27669" lon="4.8549">
        <ele>322.38718774414</ele>
        <time>2017-08-09T23:48:15Z</time>
      </trkpt>
      <trkpt lat="47.27703" lon="4.85497">
        <ele>321.42718774414</ele>
        <time>2017-08-09T23:48:24Z</time>
      </trkpt>
      <trkpt lat="47.27706" lon="4.85498">
        <ele>321.14618774414</ele>
        <time>2017-08-09T23:48:24Z</time>
      </trkpt>
      <trkpt lat="47.27783" lon="4.8551">
        <ele>318.68918774414</ele>
        <time>2017-08-09T23:48:43Z</time>
      </trkpt>
      <trkpt lat="47.27874" lon="4.85547">
        <ele>316.61118774414</ele>
        <time>2017-08-09T23:49:08Z</time>
      </trkpt>
      <trkpt lat="47.27913" lon="4.85558">
        <ele>316.02118774414</ele>
        <time>2017-08-09T23:49:19Z</time>
      </trkpt>
      <trkpt lat="47.28029" lon="4.85561">
        <ele>314.84818774414</ele>
        <time>2017-08-09T23:49:50Z</time>
      </trkpt>
      <trkpt lat="47.28093" lon="4.85592">
        <ele>314.24418774414</ele>
        <time>2017-08-09T23:50:09Z</time>
      </trkpt>
      <trkpt lat="47.28167" lon="4.856">
        <ele>313.41018774414</ele>
        <time>2017-08-09T23:50:29Z</time>
      </trkpt>
      <trkpt lat="47.28277" lon="4.85634">
        <ele>311.47818774414</ele>
        <time>2017-08-09T23:50:59Z</time>
      </trkpt>
      <trkpt lat="47.28621" lon="4.85727">
        <ele>301.71918774414</ele>
        <time>2017-08-09T23:52:27Z</time>
      </trkpt>
      <trkpt lat="47.28688" lon="4.85744">
        <ele>299.77418774414</ele>
        <time>2017-08-09T23:52:44Z</time>
      </trkpt>
      <trkpt lat="47.28719" lon="4.85755">
        <ele>298.94418774414</ele>
        <time>2017-08-09T23:52:52Z</time>
      </trkpt>
      <trkpt lat="47.288" lon="4.85785">
        <ele>297.07218774414</ele>
        <time>2017-08-09T23:53:13Z</time>
      </trkpt>
      <trkpt lat="47.28923" lon="4.85821">
        <ele>295.50218774414</ele>
        <time>2017-08-09T23:53:47Z</time>
      </trkpt>
      <trkpt lat="47.2907" lon="4.85849">
        <ele>294.88218774414</ele>
        <time>2017-08-09T23:54:30Z</time>
      </trkpt>
      <trkpt lat="47.29107" lon="4.85858">
        <ele>295.17318774414</ele>
        <time>2017-08-09T23:54:42Z</time>
      </trkpt>
      <trkpt lat="47.29122" lon="4.8587">
        <ele>295.36018774414</ele>
        <time>2017-08-09T23:54:46Z</time>
      </trkpt>
      <trkpt lat="47.29187" lon="4.85899">
        <ele>296.18218774414</ele>
        <time>2017-08-09T23:55:02Z</time>
      </trkpt>
      <trkpt lat="47.29202" lon="4.85905">
        <ele>296.41118774414</ele>
        <time>2017-08-09T23:55:06Z</time>
      </trkpt>
      <trkpt lat="47.29243" lon="4.85923">
        <ele>296.94218774414</ele>
        <time>2017-08-09T23:55:16Z</time>
      </trkpt>
      <trkpt lat="47.29331" lon="4.85941">
        <ele>297.76118774414</ele>
        <time>2017-08-09T23:55:36Z</time>
      </trkpt>
      <trkpt lat="47.29373" lon="4.85956">
        <ele>297.43718774414</ele>
        <time>2017-08-09T23:55:43Z</time>
      </trkpt>
      <trkpt lat="47.29412" lon="4.8598">
        <ele>296.27718774414</ele>
        <time>2017-08-09T23:55:49Z</time>
      </trkpt>
      <trkpt lat="47.2944" lon="4.85991">
        <ele>295.39818774414</ele>
        <time>2017-08-09T23:55:53Z</time>
      </trkpt>
      <trkpt lat="47.29477" lon="4.85986">
        <ele>294.10818774414</ele>
        <time>2017-08-09T23:55:58Z</time>
      </trkpt>
      <trkpt lat="47.29522" lon="4.8597">
        <ele>292.28618774414</ele>
        <time>2017-08-09T23:56:05Z</time>
      </trkpt>
      <trkpt lat="47.2953" lon="4.85968">
        <ele>291.86618774414</ele>
        <time>2017-08-09T23:56:06Z</time>
      </trkpt>
      <trkpt lat="47.29581" lon="4.85972">
        <ele>290.06618774414</ele>
        <time>2017-08-09T23:56:13Z</time>
      </trkpt>
      <trkpt lat="47.29649" lon="4.85988">
        <ele>287.57218774414</ele>
        <time>2017-08-09T23:56:23Z</time>
      </trkpt>
      <trkpt lat="47.29784" lon="4.86048">
        <ele>285.76518774414</ele>
        <time>2017-08-09T23:56:46Z</time>
      </trkpt>
      <trkpt lat="47.29864" lon="4.86068">
        <ele>285.60218774414</ele>
        <time>2017-08-09T23:57:00Z</time>
      </trkpt>
      <trkpt lat="47.29928" lon="4.8607">
        <ele>285.70318774414</ele>
        <time>2017-08-09T23:57:13Z</time>
      </trkpt>
      <trkpt lat="47.30009" lon="4.86063">
        <ele>286.57218774414</ele>
        <time>2017-08-09T23:57:31Z</time>
      </trkpt>
      <trkpt lat="47.30067" lon="4.86048">
        <ele>287.37818774414</ele>
        <time>2017-08-09T23:57:45Z</time>
      </trkpt>
      <trkpt lat="47.30085" lon="4.86044">
        <ele>287.70918774414</ele>
        <time>2017-08-09T23:57:50Z</time>
      </trkpt>
      <trkpt lat="47.30096" lon="4.86042">
        <ele>287.85518774414</ele>
        <time>2017-08-09T23:57:53Z</time>
      </trkpt>
      <trkpt lat="47.30115" lon="4.86037">
        <ele>288.23618774414</ele>
        <time>2017-08-09T23:57:58Z</time>
      </trkpt>
      <trkpt lat="47.30168" lon="4.86024">
        <ele>289.01518774414</ele>
        <time>2017-08-09T23:58:11Z</time>
      </trkpt>
      <trkpt lat="47.30243" lon="4.86014">
        <ele>290.16218774414</ele>
        <time>2017-08-09T23:58:29Z</time>
      </trkpt>
      <trkpt lat="47.30473" lon="4.85903">
        <ele>290.21918774414</ele>
        <time>2017-08-09T23:59:14Z</time>
      </trkpt>
      <trkpt lat="47.30523" lon="4.85868">
        <ele>288.96318774414</ele>
        <time>2017-08-09T23:59:23Z</time>
      </trkpt>
      <trkpt lat="47.30529" lon="4.85865">
        <ele>288.74618774414</ele>
        <time>2017-08-09T23:59:24Z</time>
      </trkpt>
      <trkpt lat="47.30594" lon="4.85847">
        <ele>286.32018774414</ele>
        <time>2017-08-09T23:59:33Z</time>
      </trkpt>
      <trkpt lat="47.30647" lon="4.85841">
        <ele>284.19218774414</ele>
        <time>2017-08-09T23:59:40Z</time>
      </trkpt>
      <trkpt lat="47.30648" lon="4.85865">
        <ele>283.27818774414</ele>
        <time>2017-08-09T23:59:42Z</time>
      </trkpt>
      <trkpt lat="47.30651" lon="4.85883">
        <ele>282.81818774414</ele>
        <time>2017-08-09T23:59:44Z</time>
      </trkpt>
      <trkpt lat="47.30659" lon="4.85899">
        <ele>282.29818774414</ele>
        <time>2017-08-09T23:59:46Z</time>
      </trkpt>
      <trkpt lat="47.30682" lon="4.85937">
        <ele>281.01518774414</ele>
        <time>2017-08-09T23:59:51Z</time>
      </trkpt>
      <trkpt lat="47.30695" lon="4.85968">
        <ele>280.08818774414</ele>
        <time>2017-08-09T23:59:54Z</time>
      </trkpt>
      <trkpt lat="47.30705" lon="4.86009">
        <ele>278.95518774414</ele>
        <time>2017-08-09T23:59:59Z</time>
      </trkpt>
      <trkpt lat="47.30713" lon="4.86051">
        <ele>277.96418774414</ele>
        <time>2017-08-10T00:00:03Z</time>
      </trkpt>
      <trkpt lat="47.30733" lon="4.86254">
        <ele>279.29918774414</ele>
        <time>2017-08-10T00:00:34Z</time>
      </trkpt>
      <trkpt lat="47.30738" lon="4.86286">
        <ele>280.00918774414</ele>
        <time>2017-08-10T00:00:41Z</time>
      </trkpt>
      <trkpt lat="47.30742" lon="4.8631">
        <ele>280.64918774414</ele>
        <time>2017-08-10T00:00:47Z</time>
      </trkpt>
      <trkpt lat="47.30762" lon="4.86411">
        <ele>283.15718774414</ele>
        <time>2017-08-10T00:01:10Z</time>
      </trkpt>
      <trkpt lat="47.30764" lon="4.86436">
        <ele>283.66718774414</ele>
        <time>2017-08-10T00:01:15Z</time>
      </trkpt>
      <trkpt lat="47.30764" lon="4.86471">
        <ele>284.53518774414</ele>
        <time>2017-08-10T00:01:23Z</time>
      </trkpt>
      <trkpt lat="47.30764" lon="4.865">
        <ele>285.18518774414</ele>
        <time>2017-08-10T00:01:29Z</time>
      </trkpt>
      <trkpt lat="47.30768" lon="4.86608">
        <ele>286.51518774414</ele>
        <time>2017-08-10T00:01:48Z</time>
      </trkpt>
      <trkpt lat="47.30782" lon="4.8676">
        <ele>286.91718774414</ele>
        <time>2017-08-10T00:02:09Z</time>
      </trkpt>
      <trkpt lat="47.30829" lon="4.87161">
        <ele>284.83018774414</ele>
        <time>2017-08-10T00:02:56Z</time>
      </trkpt>
      <trkpt lat="47.30832" lon="4.87186">
        <ele>284.68918774414</ele>
        <time>2017-08-10T00:02:59Z</time>
      </trkpt>
      <trkpt lat="47.30842" lon="4.87339">
        <ele>284.95118774414</ele>
        <time>2017-08-10T00:03:20Z</time>
      </trkpt>
      <trkpt lat="47.30883" lon="4.87672">
        <ele>285.30218774414</ele>
        <time>2017-08-10T00:04:04Z</time>
      </trkpt>
      <trkpt lat="47.30897" lon="4.87743">
        <ele>285.52618774414</ele>
        <time>2017-08-10T00:04:14Z</time>
      </trkpt>
      <trkpt lat="47.30901" lon="4.87762">
        <ele>285.51318774414</ele>
        <time>2017-08-10T00:04:16Z</time>
      </trkpt>
      <trkpt lat="47.30902" lon="4.8777">
        <ele>285.51318774414</ele>
        <time>2017-08-10T00:04:17Z</time>
      </trkpt>
      <trkpt lat="47.30916" lon="4.87837">
        <ele>285.93818774414</ele>
        <time>2017-08-10T00:04:28Z</time>
      </trkpt>
      <trkpt lat="47.30916" lon="4.8786">
        <ele>286.23218774414</ele>
        <time>2017-08-10T00:04:32Z</time>
      </trkpt>
      <trkpt lat="47.30911" lon="4.87889">
        <ele>286.41718774414</ele>
        <time>2017-08-10T00:04:37Z</time>
      </trkpt>
      <trkpt lat="47.3091" lon="4.87893">
        <ele>286.49518774414</ele>
        <time>2017-08-10T00:04:37Z</time>
      </trkpt>
      <trkpt lat="47.3091" lon="4.87907">
        <ele>286.78818774414</ele>
        <time>2017-08-10T00:04:40Z</time>
      </trkpt>
      <trkpt lat="47.30918" lon="4.87948">
        <ele>287.26218774414</ele>
        <time>2017-08-10T00:04:47Z</time>
      </trkpt>
      <trkpt lat="47.3098" lon="4.88069">
        <ele>292.18418774414</ele>
        <time>2017-08-10T00:05:26Z</time>
      </trkpt>
      <trkpt lat="47.31014" lon="4.88164">
        <ele>297.31018774414</ele>
        <time>2017-08-10T00:06:00Z</time>
      </trkpt>
      <trkpt lat="47.3102" lon="4.88188">
        <ele>298.56918774414</ele>
        <time>2017-08-10T00:06:09Z</time>
      </trkpt>
      <trkpt lat="47.31024" lon="4.88205">
        <ele>299.35918774414</ele>
        <time>2017-08-10T00:06:14Z</time>
      </trkpt>
      <trkpt lat="47.31032" lon="4.88242">
        <ele>301.09918774414</ele>
        <time>2017-08-10T00:06:26Z</time>
      </trkpt>
      <trkpt lat="47.31041" lon="4.88294">
        <ele>303.44018774414</ele>
        <time>2017-08-10T00:06:42Z</time>
      </trkpt>
      <trkpt lat="47.31053" lon="4.88354">
        <ele>305.85718774414</ele>
        <time>2017-08-10T00:07:00Z</time>
      </trkpt>
      <trkpt lat="47.31068" lon="4.88407">
        <ele>307.82518774414</ele>
        <time>2017-08-10T00:07:15Z</time>
      </trkpt>
      <trkpt lat="47.31101" lon="4.88488">
        <ele>309.61418774414</ele>
        <time>2017-08-10T00:07:34Z</time>
      </trkpt>
      <trkpt lat="47.31311" lon="4.88867">
        <ele>306.06418774414</ele>
        <time>2017-08-10T00:08:29Z</time>
      </trkpt>
      <trkpt lat="47.31344" lon="4.88934">
        <ele>304.31718774414</ele>
        <time>2017-08-10T00:08:37Z</time>
      </trkpt>
      <trkpt lat="47.31374" lon="4.89016">
        <ele>302.15518774414</ele>
        <time>2017-08-10T00:08:46Z</time>
      </trkpt>
      <trkpt lat="47.31392" lon="4.89082">
        <ele>300.40418774414</ele>
        <time>2017-08-10T00:08:53Z</time>
      </trkpt>
      <trkpt lat="47.3141" lon="4.89166">
        <ele>298.43918774414</ele>
        <time>2017-08-10T00:09:01Z</time>
      </trkpt>
      <trkpt lat="47.3142" lon="4.89238">
        <ele>297.17318774414</ele>
        <time>2017-08-10T00:09:09Z</time>
      </trkpt>
      <trkpt lat="47.31427" lon="4.8932">
        <ele>296.09418774414</ele>
        <time>2017-08-10T00:09:17Z</time>
      </trkpt>
      <trkpt lat="47.3143" lon="4.89599">
        <ele>295.32418774414</ele>
        <time>2017-08-10T00:09:51Z</time>
      </trkpt>
      <trkpt lat="47.31437" lon="4.89767">
        <ele>296.46818774414</ele>
        <time>2017-08-10T00:10:17Z</time>
      </trkpt>
      <trkpt lat="47.31436" lon="4.89937">
        <ele>298.07818774414</ele>
        <time>2017-08-10T00:10:45Z</time>
      </trkpt>
      <trkpt lat="47.31444" lon="4.90242">
        <ele>300.40518774414</ele>
        <time>2017-08-10T00:11:32Z</time>
      </trkpt>
      <trkpt lat="47.31459" lon="4.90389">
        <ele>301.01018774414</ele>
        <time>2017-08-10T00:11:53Z</time>
      </trkpt>
      <trkpt lat="47.31481" lon="4.90501">
        <ele>300.58018774414</ele>
        <time>2017-08-10T00:12:07Z</time>
      </trkpt>
      <trkpt lat="47.31519" lon="4.90606">
        <ele>298.81518774414</ele>
        <time>2017-08-10T00:12:19Z</time>
      </trkpt>
      <trkpt lat="47.31619" lon="4.90842">
        <ele>287.34918774414</ele>
        <time>2017-08-10T00:12:44Z</time>
      </trkpt>
      <trkpt lat="47.31641" lon="4.90877">
        <ele>284.73518774414</ele>
        <time>2017-08-10T00:12:48Z</time>
      </trkpt>
      <trkpt lat="47.3168" lon="4.90962">
        <ele>279.09118774414</ele>
        <time>2017-08-10T00:12:56Z</time>
      </trkpt>
      <trkpt lat="47.31697" lon="4.91016">
        <ele>276.26518774414</ele>
        <time>2017-08-10T00:13:01Z</time>
      </trkpt>
      <trkpt lat="47.31711" lon="4.91086">
        <ele>273.29418774414</ele>
        <time>2017-08-10T00:13:08Z</time>
      </trkpt>
      <trkpt lat="47.31712" lon="4.91093">
        <ele>272.89718774414</ele>
        <time>2017-08-10T00:13:08Z</time>
      </trkpt>
      <trkpt lat="47.31714" lon="4.91109">
        <ele>272.41018774414</ele>
        <time>2017-08-10T00:13:10Z</time>
      </trkpt>
    </trkseg>
  </trk>
</gpx>